<?xml version="1.0" encoding="UTF-8" standalone="no" ?>
<gpx xmlns="http://www.topografix.com/GPX/1/1" xmlns:xsi="http://www.w3.org/2001/XMLSchema-instance" xsi:schemaLocation="http://www.topografix.com/GPX/1/1 http://www.topografix.com/GPX/1/1/gpx.xsd" version="1.1" creator="VisuGPX - https://www.visugpx.com">
  <metadata>
    <name>Course à pied le midi</name>
  </metadata>
  <trk>
    <name><![CDATA[Course à pied le midi_1]]></name>
    <trkseg>
      <trkpt lat="43.64763" lon="1.37626">
        <ele>148</ele>
        <time>2025-05-23T09:55:26Z</time>
      </trkpt>
      <trkpt lat="43.64764" lon="1.37624">
        <ele>148</ele>
        <time>2025-05-23T09:55:27Z</time>
      </trkpt>
      <trkpt lat="43.64765" lon="1.37621">
        <ele>148</ele>
        <time>2025-05-23T09:55:28Z</time>
      </trkpt>
      <trkpt lat="43.64766" lon="1.37619">
        <ele>148</ele>
        <time>2025-05-23T09:55:29Z</time>
      </trkpt>
      <trkpt lat="43.64767" lon="1.37617">
        <ele>148</ele>
        <time>2025-05-23T09:55:30Z</time>
      </trkpt>
      <trkpt lat="43.64768" lon="1.37615">
        <ele>149</ele>
        <time>2025-05-23T09:55:31Z</time>
      </trkpt>
      <trkpt lat="43.6477" lon="1.37613">
        <ele>150</ele>
        <time>2025-05-23T09:55:32Z</time>
      </trkpt>
      <trkpt lat="43.64772" lon="1.37611">
        <ele>150</ele>
        <time>2025-05-23T09:55:33Z</time>
      </trkpt>
      <trkpt lat="43.64773" lon="1.37609">
        <ele>150</ele>
        <time>2025-05-23T09:55:34Z</time>
      </trkpt>
      <trkpt lat="43.64775" lon="1.37607">
        <ele>149</ele>
        <time>2025-05-23T09:55:35Z</time>
      </trkpt>
      <trkpt lat="43.64777" lon="1.37605">
        <ele>148</ele>
        <time>2025-05-23T09:55:36Z</time>
      </trkpt>
      <trkpt lat="43.64779" lon="1.37603">
        <ele>148</ele>
        <time>2025-05-23T09:55:37Z</time>
      </trkpt>
      <trkpt lat="43.64782" lon="1.37601">
        <ele>148</ele>
        <time>2025-05-23T09:55:38Z</time>
      </trkpt>
      <trkpt lat="43.64784" lon="1.37598">
        <ele>148</ele>
        <time>2025-05-23T09:55:39Z</time>
      </trkpt>
      <trkpt lat="43.64786" lon="1.37596">
        <ele>149</ele>
        <time>2025-05-23T09:55:40Z</time>
      </trkpt>
      <trkpt lat="43.64788" lon="1.37595">
        <ele>149</ele>
        <time>2025-05-23T09:55:41Z</time>
      </trkpt>
      <trkpt lat="43.64791" lon="1.37594">
        <ele>148</ele>
        <time>2025-05-23T09:55:42Z</time>
      </trkpt>
      <trkpt lat="43.64793" lon="1.37593">
        <ele>148</ele>
        <time>2025-05-23T09:55:43Z</time>
      </trkpt>
      <trkpt lat="43.64795" lon="1.37592">
        <ele>148</ele>
        <time>2025-05-23T09:55:44Z</time>
      </trkpt>
      <trkpt lat="43.64797" lon="1.37592">
        <ele>149</ele>
        <time>2025-05-23T09:55:45Z</time>
      </trkpt>
      <trkpt lat="43.64799" lon="1.37592">
        <ele>149</ele>
        <time>2025-05-23T09:55:46Z</time>
      </trkpt>
      <trkpt lat="43.64801" lon="1.37592">
        <ele>149</ele>
        <time>2025-05-23T09:55:47Z</time>
      </trkpt>
      <trkpt lat="43.64804" lon="1.37592">
        <ele>148</ele>
        <time>2025-05-23T09:55:48Z</time>
      </trkpt>
      <trkpt lat="43.64806" lon="1.37592">
        <ele>148</ele>
        <time>2025-05-23T09:55:49Z</time>
      </trkpt>
      <trkpt lat="43.64808" lon="1.37594">
        <ele>147</ele>
        <time>2025-05-23T09:55:50Z</time>
      </trkpt>
      <trkpt lat="43.6481" lon="1.37595">
        <ele>148</ele>
        <time>2025-05-23T09:55:51Z</time>
      </trkpt>
      <trkpt lat="43.64812" lon="1.37597">
        <ele>148</ele>
        <time>2025-05-23T09:55:52Z</time>
      </trkpt>
      <trkpt lat="43.64814" lon="1.37599">
        <ele>147</ele>
        <time>2025-05-23T09:55:53Z</time>
      </trkpt>
      <trkpt lat="43.64816" lon="1.37601">
        <ele>147</ele>
        <time>2025-05-23T09:55:54Z</time>
      </trkpt>
      <trkpt lat="43.64818" lon="1.37603">
        <ele>147</ele>
        <time>2025-05-23T09:55:55Z</time>
      </trkpt>
      <trkpt lat="43.6482" lon="1.37604">
        <ele>147</ele>
        <time>2025-05-23T09:55:56Z</time>
      </trkpt>
      <trkpt lat="43.64822" lon="1.37606">
        <ele>147</ele>
        <time>2025-05-23T09:55:57Z</time>
      </trkpt>
      <trkpt lat="43.64825" lon="1.37608">
        <ele>147</ele>
        <time>2025-05-23T09:55:58Z</time>
      </trkpt>
      <trkpt lat="43.64827" lon="1.3761">
        <ele>147</ele>
        <time>2025-05-23T09:55:59Z</time>
      </trkpt>
      <trkpt lat="43.6483" lon="1.37612">
        <ele>147</ele>
        <time>2025-05-23T09:56:00Z</time>
      </trkpt>
      <trkpt lat="43.64832" lon="1.37614">
        <ele>147</ele>
        <time>2025-05-23T09:56:01Z</time>
      </trkpt>
      <trkpt lat="43.64834" lon="1.37616">
        <ele>147</ele>
        <time>2025-05-23T09:56:02Z</time>
      </trkpt>
      <trkpt lat="43.64836" lon="1.37617">
        <ele>147</ele>
        <time>2025-05-23T09:56:03Z</time>
      </trkpt>
      <trkpt lat="43.64838" lon="1.37619">
        <ele>147</ele>
        <time>2025-05-23T09:56:04Z</time>
      </trkpt>
      <trkpt lat="43.6484" lon="1.37621">
        <ele>147</ele>
        <time>2025-05-23T09:56:05Z</time>
      </trkpt>
      <trkpt lat="43.64843" lon="1.37624">
        <ele>147</ele>
        <time>2025-05-23T09:56:06Z</time>
      </trkpt>
      <trkpt lat="43.64846" lon="1.37627">
        <ele>147</ele>
        <time>2025-05-23T09:56:07Z</time>
      </trkpt>
      <trkpt lat="43.64848" lon="1.3763">
        <ele>147</ele>
        <time>2025-05-23T09:56:08Z</time>
      </trkpt>
      <trkpt lat="43.64851" lon="1.37632">
        <ele>147</ele>
        <time>2025-05-23T09:56:09Z</time>
      </trkpt>
      <trkpt lat="43.64854" lon="1.37635">
        <ele>147</ele>
        <time>2025-05-23T09:56:10Z</time>
      </trkpt>
      <trkpt lat="43.64857" lon="1.37637">
        <ele>147</ele>
        <time>2025-05-23T09:56:11Z</time>
      </trkpt>
      <trkpt lat="43.64859" lon="1.37639">
        <ele>147</ele>
        <time>2025-05-23T09:56:12Z</time>
      </trkpt>
      <trkpt lat="43.64862" lon="1.37641">
        <ele>147</ele>
        <time>2025-05-23T09:56:13Z</time>
      </trkpt>
      <trkpt lat="43.64864" lon="1.37642">
        <ele>147</ele>
        <time>2025-05-23T09:56:14Z</time>
      </trkpt>
      <trkpt lat="43.64867" lon="1.37644">
        <ele>147</ele>
        <time>2025-05-23T09:56:15Z</time>
      </trkpt>
      <trkpt lat="43.64868" lon="1.37644">
        <ele>147</ele>
        <time>2025-05-23T09:56:16Z</time>
      </trkpt>
      <trkpt lat="43.6487" lon="1.37645">
        <ele>147</ele>
        <time>2025-05-23T09:56:17Z</time>
      </trkpt>
      <trkpt lat="43.64872" lon="1.37645">
        <ele>147</ele>
        <time>2025-05-23T09:56:18Z</time>
      </trkpt>
      <trkpt lat="43.64874" lon="1.37646">
        <ele>147</ele>
        <time>2025-05-23T09:56:19Z</time>
      </trkpt>
      <trkpt lat="43.64875" lon="1.37646">
        <ele>147</ele>
        <time>2025-05-23T09:56:20Z</time>
      </trkpt>
      <trkpt lat="43.64877" lon="1.37646">
        <ele>147</ele>
        <time>2025-05-23T09:56:21Z</time>
      </trkpt>
      <trkpt lat="43.64879" lon="1.37649">
        <ele>147</ele>
        <time>2025-05-23T09:56:22Z</time>
      </trkpt>
      <trkpt lat="43.64881" lon="1.37651">
        <ele>147</ele>
        <time>2025-05-23T09:56:23Z</time>
      </trkpt>
      <trkpt lat="43.64883" lon="1.37653">
        <ele>147</ele>
        <time>2025-05-23T09:56:24Z</time>
      </trkpt>
      <trkpt lat="43.64884" lon="1.37656">
        <ele>147</ele>
        <time>2025-05-23T09:56:25Z</time>
      </trkpt>
      <trkpt lat="43.64885" lon="1.37659">
        <ele>147</ele>
        <time>2025-05-23T09:56:26Z</time>
      </trkpt>
      <trkpt lat="43.64887" lon="1.37663">
        <ele>147</ele>
        <time>2025-05-23T09:56:27Z</time>
      </trkpt>
      <trkpt lat="43.64888" lon="1.37667">
        <ele>147</ele>
        <time>2025-05-23T09:56:28Z</time>
      </trkpt>
      <trkpt lat="43.64889" lon="1.37671">
        <ele>147</ele>
        <time>2025-05-23T09:56:29Z</time>
      </trkpt>
      <trkpt lat="43.64889" lon="1.37674">
        <ele>147</ele>
        <time>2025-05-23T09:56:30Z</time>
      </trkpt>
      <trkpt lat="43.6489" lon="1.37678">
        <ele>147</ele>
        <time>2025-05-23T09:56:31Z</time>
      </trkpt>
      <trkpt lat="43.64891" lon="1.37681">
        <ele>147</ele>
        <time>2025-05-23T09:56:32Z</time>
      </trkpt>
      <trkpt lat="43.64891" lon="1.37685">
        <ele>147</ele>
        <time>2025-05-23T09:56:33Z</time>
      </trkpt>
      <trkpt lat="43.64892" lon="1.37688">
        <ele>147</ele>
        <time>2025-05-23T09:56:34Z</time>
      </trkpt>
      <trkpt lat="43.64892" lon="1.37691">
        <ele>147</ele>
        <time>2025-05-23T09:56:35Z</time>
      </trkpt>
      <trkpt lat="43.64892" lon="1.37694">
        <ele>147</ele>
        <time>2025-05-23T09:56:36Z</time>
      </trkpt>
      <trkpt lat="43.64893" lon="1.37696">
        <ele>147</ele>
        <time>2025-05-23T09:56:37Z</time>
      </trkpt>
      <trkpt lat="43.64893" lon="1.37699">
        <ele>147</ele>
        <time>2025-05-23T09:56:38Z</time>
      </trkpt>
      <trkpt lat="43.64894" lon="1.37703">
        <ele>147</ele>
        <time>2025-05-23T09:56:39Z</time>
      </trkpt>
      <trkpt lat="43.64894" lon="1.37706">
        <ele>147</ele>
        <time>2025-05-23T09:56:40Z</time>
      </trkpt>
      <trkpt lat="43.64894" lon="1.37709">
        <ele>147</ele>
        <time>2025-05-23T09:56:41Z</time>
      </trkpt>
      <trkpt lat="43.64895" lon="1.37712">
        <ele>147</ele>
        <time>2025-05-23T09:56:42Z</time>
      </trkpt>
      <trkpt lat="43.64897" lon="1.37715">
        <ele>147</ele>
        <time>2025-05-23T09:56:43Z</time>
      </trkpt>
      <trkpt lat="43.64899" lon="1.37719">
        <ele>147</ele>
        <time>2025-05-23T09:56:44Z</time>
      </trkpt>
      <trkpt lat="43.64901" lon="1.37722">
        <ele>147</ele>
        <time>2025-05-23T09:56:45Z</time>
      </trkpt>
      <trkpt lat="43.64902" lon="1.37725">
        <ele>147</ele>
        <time>2025-05-23T09:56:46Z</time>
      </trkpt>
      <trkpt lat="43.64903" lon="1.37728">
        <ele>147</ele>
        <time>2025-05-23T09:56:47Z</time>
      </trkpt>
      <trkpt lat="43.64903" lon="1.37732">
        <ele>147</ele>
        <time>2025-05-23T09:56:48Z</time>
      </trkpt>
      <trkpt lat="43.64904" lon="1.37735">
        <ele>147</ele>
        <time>2025-05-23T09:56:49Z</time>
      </trkpt>
      <trkpt lat="43.64904" lon="1.37738">
        <ele>147</ele>
        <time>2025-05-23T09:56:50Z</time>
      </trkpt>
      <trkpt lat="43.64905" lon="1.37741">
        <ele>147</ele>
        <time>2025-05-23T09:56:51Z</time>
      </trkpt>
      <trkpt lat="43.64906" lon="1.37745">
        <ele>147</ele>
        <time>2025-05-23T09:56:52Z</time>
      </trkpt>
      <trkpt lat="43.64906" lon="1.37748">
        <ele>147</ele>
        <time>2025-05-23T09:56:53Z</time>
      </trkpt>
      <trkpt lat="43.64907" lon="1.37751">
        <ele>147</ele>
        <time>2025-05-23T09:56:54Z</time>
      </trkpt>
      <trkpt lat="43.64908" lon="1.37754">
        <ele>147</ele>
        <time>2025-05-23T09:56:55Z</time>
      </trkpt>
      <trkpt lat="43.64909" lon="1.37757">
        <ele>147</ele>
        <time>2025-05-23T09:56:56Z</time>
      </trkpt>
      <trkpt lat="43.6491" lon="1.37761">
        <ele>147</ele>
        <time>2025-05-23T09:56:57Z</time>
      </trkpt>
      <trkpt lat="43.6491" lon="1.37764">
        <ele>147</ele>
        <time>2025-05-23T09:56:58Z</time>
      </trkpt>
      <trkpt lat="43.64911" lon="1.37768">
        <ele>147</ele>
        <time>2025-05-23T09:56:59Z</time>
      </trkpt>
      <trkpt lat="43.64911" lon="1.37771">
        <ele>147</ele>
        <time>2025-05-23T09:57:00Z</time>
      </trkpt>
      <trkpt lat="43.64912" lon="1.37775">
        <ele>146</ele>
        <time>2025-05-23T09:57:01Z</time>
      </trkpt>
      <trkpt lat="43.64912" lon="1.37778">
        <ele>146</ele>
        <time>2025-05-23T09:57:02Z</time>
      </trkpt>
      <trkpt lat="43.64913" lon="1.37781">
        <ele>146</ele>
        <time>2025-05-23T09:57:03Z</time>
      </trkpt>
      <trkpt lat="43.64914" lon="1.37784">
        <ele>146</ele>
        <time>2025-05-23T09:57:04Z</time>
      </trkpt>
      <trkpt lat="43.64915" lon="1.37787">
        <ele>146</ele>
        <time>2025-05-23T09:57:05Z</time>
      </trkpt>
      <trkpt lat="43.64915" lon="1.37789">
        <ele>146</ele>
        <time>2025-05-23T09:57:06Z</time>
      </trkpt>
      <trkpt lat="43.64916" lon="1.37792">
        <ele>146</ele>
        <time>2025-05-23T09:57:07Z</time>
      </trkpt>
      <trkpt lat="43.64917" lon="1.37795">
        <ele>146</ele>
        <time>2025-05-23T09:57:08Z</time>
      </trkpt>
      <trkpt lat="43.64918" lon="1.37798">
        <ele>146</ele>
        <time>2025-05-23T09:57:09Z</time>
      </trkpt>
      <trkpt lat="43.64918" lon="1.37801">
        <ele>146</ele>
        <time>2025-05-23T09:57:10Z</time>
      </trkpt>
      <trkpt lat="43.64919" lon="1.37805">
        <ele>147</ele>
        <time>2025-05-23T09:57:11Z</time>
      </trkpt>
      <trkpt lat="43.6492" lon="1.37808">
        <ele>147</ele>
        <time>2025-05-23T09:57:12Z</time>
      </trkpt>
      <trkpt lat="43.64921" lon="1.37812">
        <ele>147</ele>
        <time>2025-05-23T09:57:13Z</time>
      </trkpt>
      <trkpt lat="43.64922" lon="1.37815">
        <ele>147</ele>
        <time>2025-05-23T09:57:14Z</time>
      </trkpt>
      <trkpt lat="43.64922" lon="1.37818">
        <ele>147</ele>
        <time>2025-05-23T09:57:15Z</time>
      </trkpt>
      <trkpt lat="43.64923" lon="1.37821">
        <ele>147</ele>
        <time>2025-05-23T09:57:16Z</time>
      </trkpt>
      <trkpt lat="43.64923" lon="1.37824">
        <ele>147</ele>
        <time>2025-05-23T09:57:17Z</time>
      </trkpt>
      <trkpt lat="43.64924" lon="1.37827">
        <ele>147</ele>
        <time>2025-05-23T09:57:18Z</time>
      </trkpt>
      <trkpt lat="43.64924" lon="1.3783">
        <ele>147</ele>
        <time>2025-05-23T09:57:19Z</time>
      </trkpt>
      <trkpt lat="43.64925" lon="1.37833">
        <ele>146</ele>
        <time>2025-05-23T09:57:20Z</time>
      </trkpt>
      <trkpt lat="43.64925" lon="1.37836">
        <ele>146</ele>
        <time>2025-05-23T09:57:21Z</time>
      </trkpt>
      <trkpt lat="43.64926" lon="1.3784">
        <ele>146</ele>
        <time>2025-05-23T09:57:22Z</time>
      </trkpt>
      <trkpt lat="43.64927" lon="1.37843">
        <ele>147</ele>
        <time>2025-05-23T09:57:23Z</time>
      </trkpt>
      <trkpt lat="43.64928" lon="1.37846">
        <ele>147</ele>
        <time>2025-05-23T09:57:24Z</time>
      </trkpt>
      <trkpt lat="43.64929" lon="1.3785">
        <ele>146</ele>
        <time>2025-05-23T09:57:25Z</time>
      </trkpt>
      <trkpt lat="43.6493" lon="1.37853">
        <ele>146</ele>
        <time>2025-05-23T09:57:26Z</time>
      </trkpt>
      <trkpt lat="43.64931" lon="1.37857">
        <ele>146</ele>
        <time>2025-05-23T09:57:27Z</time>
      </trkpt>
      <trkpt lat="43.64931" lon="1.3786">
        <ele>146</ele>
        <time>2025-05-23T09:57:28Z</time>
      </trkpt>
      <trkpt lat="43.64932" lon="1.37864">
        <ele>146</ele>
        <time>2025-05-23T09:57:29Z</time>
      </trkpt>
      <trkpt lat="43.64933" lon="1.37868">
        <ele>146</ele>
        <time>2025-05-23T09:57:30Z</time>
      </trkpt>
      <trkpt lat="43.64934" lon="1.3787">
        <ele>146</ele>
        <time>2025-05-23T09:57:31Z</time>
      </trkpt>
      <trkpt lat="43.64935" lon="1.37872">
        <ele>146</ele>
        <time>2025-05-23T09:57:32Z</time>
      </trkpt>
      <trkpt lat="43.64937" lon="1.37875">
        <ele>146</ele>
        <time>2025-05-23T09:57:33Z</time>
      </trkpt>
      <trkpt lat="43.64938" lon="1.37877">
        <ele>146</ele>
        <time>2025-05-23T09:57:34Z</time>
      </trkpt>
      <trkpt lat="43.64939" lon="1.37879">
        <ele>146</ele>
        <time>2025-05-23T09:57:35Z</time>
      </trkpt>
      <trkpt lat="43.64941" lon="1.37882">
        <ele>146</ele>
        <time>2025-05-23T09:57:36Z</time>
      </trkpt>
      <trkpt lat="43.64943" lon="1.37885">
        <ele>146</ele>
        <time>2025-05-23T09:57:37Z</time>
      </trkpt>
      <trkpt lat="43.64945" lon="1.37888">
        <ele>146</ele>
        <time>2025-05-23T09:57:38Z</time>
      </trkpt>
      <trkpt lat="43.64946" lon="1.37891">
        <ele>146</ele>
        <time>2025-05-23T09:57:39Z</time>
      </trkpt>
      <trkpt lat="43.64947" lon="1.37895">
        <ele>146</ele>
        <time>2025-05-23T09:57:40Z</time>
      </trkpt>
      <trkpt lat="43.64948" lon="1.37898">
        <ele>146</ele>
        <time>2025-05-23T09:57:41Z</time>
      </trkpt>
      <trkpt lat="43.64948" lon="1.37902">
        <ele>146</ele>
        <time>2025-05-23T09:57:42Z</time>
      </trkpt>
      <trkpt lat="43.64949" lon="1.37905">
        <ele>146</ele>
        <time>2025-05-23T09:57:43Z</time>
      </trkpt>
      <trkpt lat="43.6495" lon="1.37909">
        <ele>146</ele>
        <time>2025-05-23T09:57:44Z</time>
      </trkpt>
      <trkpt lat="43.64951" lon="1.37912">
        <ele>146</ele>
        <time>2025-05-23T09:57:45Z</time>
      </trkpt>
      <trkpt lat="43.64951" lon="1.37915">
        <ele>146</ele>
        <time>2025-05-23T09:57:46Z</time>
      </trkpt>
      <trkpt lat="43.64952" lon="1.37919">
        <ele>146</ele>
        <time>2025-05-23T09:57:47Z</time>
      </trkpt>
      <trkpt lat="43.64953" lon="1.37922">
        <ele>146</ele>
        <time>2025-05-23T09:57:48Z</time>
      </trkpt>
      <trkpt lat="43.64955" lon="1.37925">
        <ele>146</ele>
        <time>2025-05-23T09:57:49Z</time>
      </trkpt>
      <trkpt lat="43.64956" lon="1.37928">
        <ele>146</ele>
        <time>2025-05-23T09:57:50Z</time>
      </trkpt>
      <trkpt lat="43.64957" lon="1.37931">
        <ele>146</ele>
        <time>2025-05-23T09:57:51Z</time>
      </trkpt>
      <trkpt lat="43.64959" lon="1.37934">
        <ele>146</ele>
        <time>2025-05-23T09:57:52Z</time>
      </trkpt>
      <trkpt lat="43.64961" lon="1.37936">
        <ele>145</ele>
        <time>2025-05-23T09:57:53Z</time>
      </trkpt>
      <trkpt lat="43.64962" lon="1.37939">
        <ele>145</ele>
        <time>2025-05-23T09:57:54Z</time>
      </trkpt>
      <trkpt lat="43.64964" lon="1.37941">
        <ele>145</ele>
        <time>2025-05-23T09:57:55Z</time>
      </trkpt>
      <trkpt lat="43.64966" lon="1.37943">
        <ele>145</ele>
        <time>2025-05-23T09:57:56Z</time>
      </trkpt>
      <trkpt lat="43.64968" lon="1.37945">
        <ele>145</ele>
        <time>2025-05-23T09:57:57Z</time>
      </trkpt>
      <trkpt lat="43.6497" lon="1.37948">
        <ele>145</ele>
        <time>2025-05-23T09:57:58Z</time>
      </trkpt>
      <trkpt lat="43.64971" lon="1.3795">
        <ele>145</ele>
        <time>2025-05-23T09:57:59Z</time>
      </trkpt>
      <trkpt lat="43.64973" lon="1.37953">
        <ele>145</ele>
        <time>2025-05-23T09:58:00Z</time>
      </trkpt>
      <trkpt lat="43.64975" lon="1.37956">
        <ele>145</ele>
        <time>2025-05-23T09:58:01Z</time>
      </trkpt>
      <trkpt lat="43.64977" lon="1.37959">
        <ele>144</ele>
        <time>2025-05-23T09:58:02Z</time>
      </trkpt>
      <trkpt lat="43.64978" lon="1.37962">
        <ele>144</ele>
        <time>2025-05-23T09:58:03Z</time>
      </trkpt>
      <trkpt lat="43.6498" lon="1.37964">
        <ele>145</ele>
        <time>2025-05-23T09:58:04Z</time>
      </trkpt>
      <trkpt lat="43.64982" lon="1.37966">
        <ele>145</ele>
        <time>2025-05-23T09:58:05Z</time>
      </trkpt>
      <trkpt lat="43.64983" lon="1.37969">
        <ele>144</ele>
        <time>2025-05-23T09:58:06Z</time>
      </trkpt>
      <trkpt lat="43.64985" lon="1.37971">
        <ele>144</ele>
        <time>2025-05-23T09:58:07Z</time>
      </trkpt>
      <trkpt lat="43.64987" lon="1.37974">
        <ele>144</ele>
        <time>2025-05-23T09:58:08Z</time>
      </trkpt>
      <trkpt lat="43.64988" lon="1.37977">
        <ele>145</ele>
        <time>2025-05-23T09:58:09Z</time>
      </trkpt>
      <trkpt lat="43.6499" lon="1.3798">
        <ele>145</ele>
        <time>2025-05-23T09:58:10Z</time>
      </trkpt>
      <trkpt lat="43.64991" lon="1.37982">
        <ele>144</ele>
        <time>2025-05-23T09:58:11Z</time>
      </trkpt>
      <trkpt lat="43.64993" lon="1.37985">
        <ele>144</ele>
        <time>2025-05-23T09:58:12Z</time>
      </trkpt>
      <trkpt lat="43.64995" lon="1.37987">
        <ele>144</ele>
        <time>2025-05-23T09:58:13Z</time>
      </trkpt>
      <trkpt lat="43.64997" lon="1.3799">
        <ele>144</ele>
        <time>2025-05-23T09:58:14Z</time>
      </trkpt>
      <trkpt lat="43.64999" lon="1.37992">
        <ele>144</ele>
        <time>2025-05-23T09:58:15Z</time>
      </trkpt>
      <trkpt lat="43.65" lon="1.37995">
        <ele>144</ele>
        <time>2025-05-23T09:58:16Z</time>
      </trkpt>
      <trkpt lat="43.65002" lon="1.37997">
        <ele>144</ele>
        <time>2025-05-23T09:58:17Z</time>
      </trkpt>
      <trkpt lat="43.65004" lon="1.38">
        <ele>144</ele>
        <time>2025-05-23T09:58:18Z</time>
      </trkpt>
      <trkpt lat="43.65005" lon="1.38002">
        <ele>144</ele>
        <time>2025-05-23T09:58:19Z</time>
      </trkpt>
      <trkpt lat="43.65007" lon="1.38005">
        <ele>144</ele>
        <time>2025-05-23T09:58:20Z</time>
      </trkpt>
      <trkpt lat="43.65009" lon="1.38008">
        <ele>144</ele>
        <time>2025-05-23T09:58:21Z</time>
      </trkpt>
      <trkpt lat="43.6501" lon="1.3801">
        <ele>145</ele>
        <time>2025-05-23T09:58:22Z</time>
      </trkpt>
      <trkpt lat="43.65012" lon="1.38013">
        <ele>145</ele>
        <time>2025-05-23T09:58:23Z</time>
      </trkpt>
      <trkpt lat="43.65014" lon="1.38015">
        <ele>145</ele>
        <time>2025-05-23T09:58:24Z</time>
      </trkpt>
      <trkpt lat="43.65015" lon="1.38018">
        <ele>145</ele>
        <time>2025-05-23T09:58:25Z</time>
      </trkpt>
      <trkpt lat="43.65016" lon="1.38021">
        <ele>145</ele>
        <time>2025-05-23T09:58:26Z</time>
      </trkpt>
      <trkpt lat="43.65018" lon="1.38024">
        <ele>144</ele>
        <time>2025-05-23T09:58:27Z</time>
      </trkpt>
      <trkpt lat="43.65019" lon="1.38026">
        <ele>145</ele>
        <time>2025-05-23T09:58:28Z</time>
      </trkpt>
      <trkpt lat="43.6502" lon="1.38029">
        <ele>145</ele>
        <time>2025-05-23T09:58:29Z</time>
      </trkpt>
      <trkpt lat="43.65021" lon="1.38031">
        <ele>145</ele>
        <time>2025-05-23T09:58:30Z</time>
      </trkpt>
      <trkpt lat="43.65023" lon="1.38034">
        <ele>144</ele>
        <time>2025-05-23T09:58:31Z</time>
      </trkpt>
      <trkpt lat="43.65024" lon="1.38037">
        <ele>144</ele>
        <time>2025-05-23T09:58:32Z</time>
      </trkpt>
      <trkpt lat="43.65025" lon="1.38039">
        <ele>144</ele>
        <time>2025-05-23T09:58:33Z</time>
      </trkpt>
      <trkpt lat="43.65027" lon="1.38042">
        <ele>144</ele>
        <time>2025-05-23T09:58:34Z</time>
      </trkpt>
      <trkpt lat="43.65028" lon="1.38044">
        <ele>144</ele>
        <time>2025-05-23T09:58:35Z</time>
      </trkpt>
      <trkpt lat="43.6503" lon="1.38047">
        <ele>144</ele>
        <time>2025-05-23T09:58:36Z</time>
      </trkpt>
      <trkpt lat="43.65031" lon="1.3805">
        <ele>144</ele>
        <time>2025-05-23T09:58:37Z</time>
      </trkpt>
      <trkpt lat="43.65033" lon="1.38053">
        <ele>144</ele>
        <time>2025-05-23T09:58:38Z</time>
      </trkpt>
      <trkpt lat="43.65034" lon="1.38056">
        <ele>144</ele>
        <time>2025-05-23T09:58:39Z</time>
      </trkpt>
      <trkpt lat="43.65036" lon="1.38059">
        <ele>144</ele>
        <time>2025-05-23T09:58:40Z</time>
      </trkpt>
      <trkpt lat="43.65038" lon="1.38062">
        <ele>145</ele>
        <time>2025-05-23T09:58:41Z</time>
      </trkpt>
      <trkpt lat="43.65039" lon="1.38065">
        <ele>145</ele>
        <time>2025-05-23T09:58:42Z</time>
      </trkpt>
      <trkpt lat="43.65041" lon="1.38068">
        <ele>145</ele>
        <time>2025-05-23T09:58:43Z</time>
      </trkpt>
      <trkpt lat="43.65043" lon="1.38071">
        <ele>145</ele>
        <time>2025-05-23T09:58:44Z</time>
      </trkpt>
      <trkpt lat="43.65044" lon="1.38074">
        <ele>145</ele>
        <time>2025-05-23T09:58:45Z</time>
      </trkpt>
      <trkpt lat="43.65046" lon="1.38078">
        <ele>145</ele>
        <time>2025-05-23T09:58:46Z</time>
      </trkpt>
      <trkpt lat="43.65047" lon="1.38081">
        <ele>145</ele>
        <time>2025-05-23T09:58:47Z</time>
      </trkpt>
      <trkpt lat="43.65049" lon="1.38084">
        <ele>145</ele>
        <time>2025-05-23T09:58:48Z</time>
      </trkpt>
      <trkpt lat="43.6505" lon="1.38086">
        <ele>144</ele>
        <time>2025-05-23T09:58:49Z</time>
      </trkpt>
      <trkpt lat="43.65052" lon="1.38089">
        <ele>144</ele>
        <time>2025-05-23T09:58:50Z</time>
      </trkpt>
      <trkpt lat="43.65053" lon="1.38092">
        <ele>144</ele>
        <time>2025-05-23T09:58:51Z</time>
      </trkpt>
      <trkpt lat="43.65054" lon="1.38095">
        <ele>144</ele>
        <time>2025-05-23T09:58:52Z</time>
      </trkpt>
      <trkpt lat="43.65055" lon="1.38098">
        <ele>144</ele>
        <time>2025-05-23T09:58:53Z</time>
      </trkpt>
      <trkpt lat="43.65055" lon="1.38101">
        <ele>144</ele>
        <time>2025-05-23T09:58:54Z</time>
      </trkpt>
      <trkpt lat="43.65056" lon="1.38104">
        <ele>145</ele>
        <time>2025-05-23T09:58:55Z</time>
      </trkpt>
      <trkpt lat="43.65058" lon="1.38107">
        <ele>145</ele>
        <time>2025-05-23T09:58:56Z</time>
      </trkpt>
      <trkpt lat="43.6506" lon="1.3811">
        <ele>145</ele>
        <time>2025-05-23T09:58:57Z</time>
      </trkpt>
      <trkpt lat="43.65061" lon="1.38112">
        <ele>145</ele>
        <time>2025-05-23T09:58:58Z</time>
      </trkpt>
      <trkpt lat="43.65063" lon="1.38115">
        <ele>145</ele>
        <time>2025-05-23T09:58:59Z</time>
      </trkpt>
      <trkpt lat="43.65065" lon="1.38115">
        <ele>145</ele>
        <time>2025-05-23T09:59:00Z</time>
      </trkpt>
      <trkpt lat="43.65067" lon="1.38115">
        <ele>146</ele>
        <time>2025-05-23T09:59:01Z</time>
      </trkpt>
      <trkpt lat="43.65068" lon="1.38115">
        <ele>146</ele>
        <time>2025-05-23T09:59:02Z</time>
      </trkpt>
      <trkpt lat="43.6507" lon="1.38115">
        <ele>146</ele>
        <time>2025-05-23T09:59:03Z</time>
      </trkpt>
      <trkpt lat="43.65072" lon="1.38115">
        <ele>146</ele>
        <time>2025-05-23T09:59:04Z</time>
      </trkpt>
      <trkpt lat="43.65074" lon="1.38114">
        <ele>147</ele>
        <time>2025-05-23T09:59:05Z</time>
      </trkpt>
      <trkpt lat="43.65077" lon="1.38112">
        <ele>147</ele>
        <time>2025-05-23T09:59:06Z</time>
      </trkpt>
      <trkpt lat="43.65079" lon="1.3811">
        <ele>147</ele>
        <time>2025-05-23T09:59:07Z</time>
      </trkpt>
      <trkpt lat="43.65081" lon="1.38108">
        <ele>147</ele>
        <time>2025-05-23T09:59:08Z</time>
      </trkpt>
      <trkpt lat="43.65084" lon="1.38107">
        <ele>147</ele>
        <time>2025-05-23T09:59:09Z</time>
      </trkpt>
      <trkpt lat="43.65086" lon="1.38105">
        <ele>147</ele>
        <time>2025-05-23T09:59:10Z</time>
      </trkpt>
      <trkpt lat="43.65088" lon="1.38104">
        <ele>147</ele>
        <time>2025-05-23T09:59:11Z</time>
      </trkpt>
      <trkpt lat="43.6509" lon="1.38102">
        <ele>147</ele>
        <time>2025-05-23T09:59:12Z</time>
      </trkpt>
      <trkpt lat="43.65092" lon="1.38101">
        <ele>147</ele>
        <time>2025-05-23T09:59:13Z</time>
      </trkpt>
      <trkpt lat="43.65095" lon="1.38099">
        <ele>148</ele>
        <time>2025-05-23T09:59:14Z</time>
      </trkpt>
      <trkpt lat="43.65097" lon="1.38098">
        <ele>148</ele>
        <time>2025-05-23T09:59:15Z</time>
      </trkpt>
      <trkpt lat="43.65099" lon="1.38096">
        <ele>148</ele>
        <time>2025-05-23T09:59:16Z</time>
      </trkpt>
      <trkpt lat="43.65101" lon="1.38094">
        <ele>148</ele>
        <time>2025-05-23T09:59:17Z</time>
      </trkpt>
      <trkpt lat="43.65103" lon="1.38092">
        <ele>148</ele>
        <time>2025-05-23T09:59:18Z</time>
      </trkpt>
      <trkpt lat="43.65105" lon="1.3809">
        <ele>148</ele>
        <time>2025-05-23T09:59:19Z</time>
      </trkpt>
      <trkpt lat="43.65108" lon="1.38088">
        <ele>148</ele>
        <time>2025-05-23T09:59:20Z</time>
      </trkpt>
      <trkpt lat="43.6511" lon="1.38087">
        <ele>148</ele>
        <time>2025-05-23T09:59:21Z</time>
      </trkpt>
      <trkpt lat="43.65112" lon="1.38085">
        <ele>148</ele>
        <time>2025-05-23T09:59:22Z</time>
      </trkpt>
      <trkpt lat="43.65115" lon="1.38083">
        <ele>148</ele>
        <time>2025-05-23T09:59:23Z</time>
      </trkpt>
      <trkpt lat="43.65117" lon="1.38082">
        <ele>148</ele>
        <time>2025-05-23T09:59:24Z</time>
      </trkpt>
      <trkpt lat="43.65119" lon="1.3808">
        <ele>148</ele>
        <time>2025-05-23T09:59:25Z</time>
      </trkpt>
      <trkpt lat="43.65122" lon="1.38079">
        <ele>148</ele>
        <time>2025-05-23T09:59:26Z</time>
      </trkpt>
      <trkpt lat="43.65124" lon="1.38077">
        <ele>148</ele>
        <time>2025-05-23T09:59:27Z</time>
      </trkpt>
      <trkpt lat="43.65126" lon="1.38075">
        <ele>148</ele>
        <time>2025-05-23T09:59:28Z</time>
      </trkpt>
      <trkpt lat="43.65128" lon="1.38074">
        <ele>148</ele>
        <time>2025-05-23T09:59:29Z</time>
      </trkpt>
      <trkpt lat="43.65131" lon="1.38073">
        <ele>148</ele>
        <time>2025-05-23T09:59:30Z</time>
      </trkpt>
      <trkpt lat="43.65133" lon="1.38071">
        <ele>148</ele>
        <time>2025-05-23T09:59:31Z</time>
      </trkpt>
      <trkpt lat="43.65135" lon="1.3807">
        <ele>148</ele>
        <time>2025-05-23T09:59:32Z</time>
      </trkpt>
      <trkpt lat="43.65137" lon="1.38068">
        <ele>148</ele>
        <time>2025-05-23T09:59:33Z</time>
      </trkpt>
      <trkpt lat="43.65139" lon="1.38067">
        <ele>148</ele>
        <time>2025-05-23T09:59:34Z</time>
      </trkpt>
      <trkpt lat="43.65141" lon="1.38066">
        <ele>148</ele>
        <time>2025-05-23T09:59:35Z</time>
      </trkpt>
      <trkpt lat="43.65143" lon="1.38064">
        <ele>148</ele>
        <time>2025-05-23T09:59:36Z</time>
      </trkpt>
      <trkpt lat="43.65146" lon="1.38063">
        <ele>148</ele>
        <time>2025-05-23T09:59:37Z</time>
      </trkpt>
      <trkpt lat="43.65148" lon="1.38061">
        <ele>148</ele>
        <time>2025-05-23T09:59:38Z</time>
      </trkpt>
      <trkpt lat="43.65151" lon="1.38059">
        <ele>148</ele>
        <time>2025-05-23T09:59:39Z</time>
      </trkpt>
      <trkpt lat="43.65153" lon="1.38058">
        <ele>148</ele>
        <time>2025-05-23T09:59:40Z</time>
      </trkpt>
      <trkpt lat="43.65156" lon="1.38056">
        <ele>148</ele>
        <time>2025-05-23T09:59:41Z</time>
      </trkpt>
      <trkpt lat="43.65158" lon="1.38055">
        <ele>148</ele>
        <time>2025-05-23T09:59:42Z</time>
      </trkpt>
      <trkpt lat="43.6516" lon="1.38054">
        <ele>149</ele>
        <time>2025-05-23T09:59:43Z</time>
      </trkpt>
      <trkpt lat="43.65162" lon="1.38052">
        <ele>149</ele>
        <time>2025-05-23T09:59:44Z</time>
      </trkpt>
      <trkpt lat="43.65165" lon="1.38051">
        <ele>149</ele>
        <time>2025-05-23T09:59:45Z</time>
      </trkpt>
      <trkpt lat="43.65167" lon="1.38049">
        <ele>149</ele>
        <time>2025-05-23T09:59:46Z</time>
      </trkpt>
      <trkpt lat="43.65169" lon="1.38047">
        <ele>149</ele>
        <time>2025-05-23T09:59:47Z</time>
      </trkpt>
      <trkpt lat="43.65171" lon="1.38046">
        <ele>148</ele>
        <time>2025-05-23T09:59:48Z</time>
      </trkpt>
      <trkpt lat="43.65174" lon="1.38044">
        <ele>148</ele>
        <time>2025-05-23T09:59:49Z</time>
      </trkpt>
      <trkpt lat="43.65176" lon="1.38043">
        <ele>148</ele>
        <time>2025-05-23T09:59:50Z</time>
      </trkpt>
      <trkpt lat="43.65179" lon="1.38041">
        <ele>148</ele>
        <time>2025-05-23T09:59:51Z</time>
      </trkpt>
      <trkpt lat="43.65181" lon="1.38039">
        <ele>148</ele>
        <time>2025-05-23T09:59:52Z</time>
      </trkpt>
      <trkpt lat="43.65183" lon="1.38038">
        <ele>148</ele>
        <time>2025-05-23T09:59:53Z</time>
      </trkpt>
      <trkpt lat="43.65186" lon="1.38038">
        <ele>147</ele>
        <time>2025-05-23T09:59:54Z</time>
      </trkpt>
      <trkpt lat="43.65188" lon="1.38037">
        <ele>147</ele>
        <time>2025-05-23T09:59:55Z</time>
      </trkpt>
      <trkpt lat="43.65191" lon="1.38036">
        <ele>147</ele>
        <time>2025-05-23T09:59:56Z</time>
      </trkpt>
      <trkpt lat="43.65193" lon="1.38035">
        <ele>147</ele>
        <time>2025-05-23T09:59:57Z</time>
      </trkpt>
      <trkpt lat="43.65196" lon="1.38034">
        <ele>147</ele>
        <time>2025-05-23T09:59:58Z</time>
      </trkpt>
      <trkpt lat="43.65198" lon="1.38032">
        <ele>147</ele>
        <time>2025-05-23T09:59:59Z</time>
      </trkpt>
      <trkpt lat="43.65201" lon="1.38031">
        <ele>147</ele>
        <time>2025-05-23T10:00:00Z</time>
      </trkpt>
      <trkpt lat="43.65203" lon="1.38031">
        <ele>147</ele>
        <time>2025-05-23T10:00:01Z</time>
      </trkpt>
      <trkpt lat="43.65205" lon="1.3803">
        <ele>147</ele>
        <time>2025-05-23T10:00:02Z</time>
      </trkpt>
      <trkpt lat="43.65208" lon="1.3803">
        <ele>147</ele>
        <time>2025-05-23T10:00:03Z</time>
      </trkpt>
      <trkpt lat="43.6521" lon="1.3803">
        <ele>147</ele>
        <time>2025-05-23T10:00:04Z</time>
      </trkpt>
      <trkpt lat="43.65212" lon="1.38031">
        <ele>147</ele>
        <time>2025-05-23T10:00:05Z</time>
      </trkpt>
      <trkpt lat="43.65215" lon="1.38033">
        <ele>147</ele>
        <time>2025-05-23T10:00:06Z</time>
      </trkpt>
      <trkpt lat="43.65217" lon="1.38034">
        <ele>147</ele>
        <time>2025-05-23T10:00:07Z</time>
      </trkpt>
      <trkpt lat="43.6522" lon="1.38036">
        <ele>147</ele>
        <time>2025-05-23T10:00:08Z</time>
      </trkpt>
      <trkpt lat="43.65221" lon="1.3804">
        <ele>147</ele>
        <time>2025-05-23T10:00:09Z</time>
      </trkpt>
      <trkpt lat="43.65222" lon="1.38043">
        <ele>147</ele>
        <time>2025-05-23T10:00:10Z</time>
      </trkpt>
      <trkpt lat="43.65224" lon="1.38047">
        <ele>147</ele>
        <time>2025-05-23T10:00:11Z</time>
      </trkpt>
      <trkpt lat="43.65225" lon="1.38051">
        <ele>147</ele>
        <time>2025-05-23T10:00:12Z</time>
      </trkpt>
      <trkpt lat="43.65226" lon="1.38055">
        <ele>147</ele>
        <time>2025-05-23T10:00:13Z</time>
      </trkpt>
      <trkpt lat="43.65227" lon="1.38059">
        <ele>147</ele>
        <time>2025-05-23T10:00:14Z</time>
      </trkpt>
      <trkpt lat="43.65228" lon="1.38064">
        <ele>147</ele>
        <time>2025-05-23T10:00:15Z</time>
      </trkpt>
      <trkpt lat="43.65229" lon="1.38068">
        <ele>147</ele>
        <time>2025-05-23T10:00:16Z</time>
      </trkpt>
      <trkpt lat="43.6523" lon="1.38073">
        <ele>147</ele>
        <time>2025-05-23T10:00:17Z</time>
      </trkpt>
      <trkpt lat="43.65231" lon="1.38075">
        <ele>147</ele>
        <time>2025-05-23T10:00:18Z</time>
      </trkpt>
      <trkpt lat="43.65232" lon="1.38078">
        <ele>147</ele>
        <time>2025-05-23T10:00:19Z</time>
      </trkpt>
      <trkpt lat="43.65234" lon="1.38081">
        <ele>147</ele>
        <time>2025-05-23T10:00:20Z</time>
      </trkpt>
      <trkpt lat="43.65235" lon="1.38085">
        <ele>147</ele>
        <time>2025-05-23T10:00:21Z</time>
      </trkpt>
      <trkpt lat="43.65236" lon="1.38088">
        <ele>147</ele>
        <time>2025-05-23T10:00:22Z</time>
      </trkpt>
      <trkpt lat="43.65237" lon="1.38091">
        <ele>147</ele>
        <time>2025-05-23T10:00:23Z</time>
      </trkpt>
      <trkpt lat="43.65238" lon="1.38095">
        <ele>147</ele>
        <time>2025-05-23T10:00:24Z</time>
      </trkpt>
      <trkpt lat="43.65239" lon="1.38098">
        <ele>147</ele>
        <time>2025-05-23T10:00:25Z</time>
      </trkpt>
      <trkpt lat="43.6524" lon="1.38101">
        <ele>147</ele>
        <time>2025-05-23T10:00:26Z</time>
      </trkpt>
      <trkpt lat="43.65241" lon="1.38104">
        <ele>147</ele>
        <time>2025-05-23T10:00:27Z</time>
      </trkpt>
      <trkpt lat="43.65242" lon="1.38107">
        <ele>146</ele>
        <time>2025-05-23T10:00:28Z</time>
      </trkpt>
      <trkpt lat="43.65242" lon="1.38111">
        <ele>146</ele>
        <time>2025-05-23T10:00:29Z</time>
      </trkpt>
      <trkpt lat="43.65243" lon="1.38114">
        <ele>146</ele>
        <time>2025-05-23T10:00:30Z</time>
      </trkpt>
      <trkpt lat="43.65244" lon="1.38117">
        <ele>146</ele>
        <time>2025-05-23T10:00:31Z</time>
      </trkpt>
      <trkpt lat="43.65245" lon="1.38121">
        <ele>146</ele>
        <time>2025-05-23T10:00:32Z</time>
      </trkpt>
      <trkpt lat="43.65246" lon="1.38124">
        <ele>146</ele>
        <time>2025-05-23T10:00:33Z</time>
      </trkpt>
      <trkpt lat="43.65245" lon="1.38128">
        <ele>146</ele>
        <time>2025-05-23T10:00:34Z</time>
      </trkpt>
      <trkpt lat="43.65244" lon="1.38131">
        <ele>146</ele>
        <time>2025-05-23T10:00:35Z</time>
      </trkpt>
      <trkpt lat="43.65242" lon="1.38133">
        <ele>146</ele>
        <time>2025-05-23T10:00:36Z</time>
      </trkpt>
      <trkpt lat="43.6524" lon="1.38135">
        <ele>146</ele>
        <time>2025-05-23T10:00:37Z</time>
      </trkpt>
      <trkpt lat="43.65237" lon="1.38136">
        <ele>146</ele>
        <time>2025-05-23T10:00:38Z</time>
      </trkpt>
      <trkpt lat="43.65235" lon="1.38137">
        <ele>146</ele>
        <time>2025-05-23T10:00:39Z</time>
      </trkpt>
      <trkpt lat="43.65233" lon="1.38138">
        <ele>146</ele>
        <time>2025-05-23T10:00:40Z</time>
      </trkpt>
      <trkpt lat="43.6523" lon="1.3814">
        <ele>146</ele>
        <time>2025-05-23T10:00:41Z</time>
      </trkpt>
      <trkpt lat="43.65228" lon="1.38142">
        <ele>146</ele>
        <time>2025-05-23T10:00:42Z</time>
      </trkpt>
      <trkpt lat="43.65226" lon="1.38144">
        <ele>146</ele>
        <time>2025-05-23T10:00:43Z</time>
      </trkpt>
      <trkpt lat="43.65224" lon="1.38146">
        <ele>146</ele>
        <time>2025-05-23T10:00:44Z</time>
      </trkpt>
      <trkpt lat="43.65222" lon="1.38148">
        <ele>146</ele>
        <time>2025-05-23T10:00:45Z</time>
      </trkpt>
      <trkpt lat="43.6522" lon="1.3815">
        <ele>146</ele>
        <time>2025-05-23T10:00:46Z</time>
      </trkpt>
      <trkpt lat="43.65218" lon="1.38151">
        <ele>146</ele>
        <time>2025-05-23T10:00:47Z</time>
      </trkpt>
      <trkpt lat="43.65216" lon="1.38152">
        <ele>146</ele>
        <time>2025-05-23T10:00:48Z</time>
      </trkpt>
      <trkpt lat="43.65213" lon="1.38153">
        <ele>146</ele>
        <time>2025-05-23T10:00:49Z</time>
      </trkpt>
      <trkpt lat="43.65211" lon="1.38155">
        <ele>146</ele>
        <time>2025-05-23T10:00:50Z</time>
      </trkpt>
      <trkpt lat="43.65208" lon="1.38157">
        <ele>146</ele>
        <time>2025-05-23T10:00:51Z</time>
      </trkpt>
      <trkpt lat="43.65206" lon="1.38159">
        <ele>146</ele>
        <time>2025-05-23T10:00:52Z</time>
      </trkpt>
      <trkpt lat="43.65203" lon="1.38161">
        <ele>146</ele>
        <time>2025-05-23T10:00:53Z</time>
      </trkpt>
      <trkpt lat="43.65201" lon="1.38163">
        <ele>146</ele>
        <time>2025-05-23T10:00:54Z</time>
      </trkpt>
      <trkpt lat="43.65201" lon="1.38163">
        <ele>146</ele>
        <time>2025-05-23T10:00:55Z</time>
      </trkpt>
      <trkpt lat="43.65198" lon="1.38166">
        <ele>146</ele>
        <time>2025-05-23T10:00:56Z</time>
      </trkpt>
      <trkpt lat="43.65196" lon="1.38169">
        <ele>146</ele>
        <time>2025-05-23T10:00:57Z</time>
      </trkpt>
      <trkpt lat="43.65193" lon="1.38172">
        <ele>146</ele>
        <time>2025-05-23T10:00:58Z</time>
      </trkpt>
      <trkpt lat="43.65191" lon="1.38175">
        <ele>146</ele>
        <time>2025-05-23T10:00:59Z</time>
      </trkpt>
      <trkpt lat="43.65189" lon="1.38177">
        <ele>146</ele>
        <time>2025-05-23T10:01:00Z</time>
      </trkpt>
      <trkpt lat="43.65186" lon="1.3818">
        <ele>146</ele>
        <time>2025-05-23T10:01:01Z</time>
      </trkpt>
      <trkpt lat="43.65184" lon="1.38182">
        <ele>146</ele>
        <time>2025-05-23T10:01:02Z</time>
      </trkpt>
      <trkpt lat="43.65182" lon="1.38184">
        <ele>146</ele>
        <time>2025-05-23T10:01:03Z</time>
      </trkpt>
      <trkpt lat="43.6518" lon="1.38186">
        <ele>146</ele>
        <time>2025-05-23T10:01:04Z</time>
      </trkpt>
      <trkpt lat="43.65178" lon="1.38189">
        <ele>146</ele>
        <time>2025-05-23T10:01:05Z</time>
      </trkpt>
      <trkpt lat="43.65175" lon="1.38191">
        <ele>145</ele>
        <time>2025-05-23T10:01:06Z</time>
      </trkpt>
      <trkpt lat="43.65173" lon="1.38194">
        <ele>145</ele>
        <time>2025-05-23T10:01:07Z</time>
      </trkpt>
      <trkpt lat="43.65171" lon="1.38196">
        <ele>145</ele>
        <time>2025-05-23T10:01:08Z</time>
      </trkpt>
      <trkpt lat="43.65169" lon="1.38198">
        <ele>145</ele>
        <time>2025-05-23T10:01:09Z</time>
      </trkpt>
      <trkpt lat="43.65167" lon="1.38201">
        <ele>145</ele>
        <time>2025-05-23T10:01:10Z</time>
      </trkpt>
      <trkpt lat="43.65165" lon="1.38204">
        <ele>145</ele>
        <time>2025-05-23T10:01:11Z</time>
      </trkpt>
      <trkpt lat="43.65164" lon="1.38208">
        <ele>145</ele>
        <time>2025-05-23T10:01:12Z</time>
      </trkpt>
      <trkpt lat="43.65164" lon="1.38212">
        <ele>145</ele>
        <time>2025-05-23T10:01:13Z</time>
      </trkpt>
      <trkpt lat="43.65163" lon="1.38216">
        <ele>145</ele>
        <time>2025-05-23T10:01:14Z</time>
      </trkpt>
      <trkpt lat="43.65163" lon="1.38219">
        <ele>145</ele>
        <time>2025-05-23T10:01:15Z</time>
      </trkpt>
      <trkpt lat="43.65163" lon="1.38223">
        <ele>145</ele>
        <time>2025-05-23T10:01:16Z</time>
      </trkpt>
      <trkpt lat="43.65163" lon="1.38226">
        <ele>144</ele>
        <time>2025-05-23T10:01:17Z</time>
      </trkpt>
      <trkpt lat="43.65164" lon="1.3823">
        <ele>144</ele>
        <time>2025-05-23T10:01:18Z</time>
      </trkpt>
      <trkpt lat="43.65164" lon="1.38233">
        <ele>144</ele>
        <time>2025-05-23T10:01:19Z</time>
      </trkpt>
      <trkpt lat="43.65165" lon="1.38237">
        <ele>144</ele>
        <time>2025-05-23T10:01:20Z</time>
      </trkpt>
      <trkpt lat="43.65166" lon="1.3824">
        <ele>144</ele>
        <time>2025-05-23T10:01:21Z</time>
      </trkpt>
      <trkpt lat="43.65167" lon="1.38243">
        <ele>144</ele>
        <time>2025-05-23T10:01:22Z</time>
      </trkpt>
      <trkpt lat="43.65168" lon="1.38246">
        <ele>144</ele>
        <time>2025-05-23T10:01:23Z</time>
      </trkpt>
      <trkpt lat="43.65168" lon="1.38249">
        <ele>144</ele>
        <time>2025-05-23T10:01:24Z</time>
      </trkpt>
      <trkpt lat="43.65169" lon="1.38253">
        <ele>144</ele>
        <time>2025-05-23T10:01:25Z</time>
      </trkpt>
      <trkpt lat="43.6517" lon="1.38256">
        <ele>144</ele>
        <time>2025-05-23T10:01:26Z</time>
      </trkpt>
      <trkpt lat="43.65171" lon="1.38259">
        <ele>144</ele>
        <time>2025-05-23T10:01:27Z</time>
      </trkpt>
      <trkpt lat="43.65172" lon="1.38262">
        <ele>144</ele>
        <time>2025-05-23T10:01:28Z</time>
      </trkpt>
      <trkpt lat="43.65173" lon="1.38266">
        <ele>144</ele>
        <time>2025-05-23T10:01:29Z</time>
      </trkpt>
      <trkpt lat="43.65173" lon="1.38269">
        <ele>144</ele>
        <time>2025-05-23T10:01:30Z</time>
      </trkpt>
      <trkpt lat="43.65174" lon="1.38272">
        <ele>144</ele>
        <time>2025-05-23T10:01:31Z</time>
      </trkpt>
      <trkpt lat="43.65175" lon="1.38275">
        <ele>144</ele>
        <time>2025-05-23T10:01:32Z</time>
      </trkpt>
      <trkpt lat="43.65176" lon="1.38278">
        <ele>144</ele>
        <time>2025-05-23T10:01:33Z</time>
      </trkpt>
      <trkpt lat="43.65177" lon="1.38282">
        <ele>144</ele>
        <time>2025-05-23T10:01:34Z</time>
      </trkpt>
      <trkpt lat="43.65177" lon="1.38286">
        <ele>144</ele>
        <time>2025-05-23T10:01:35Z</time>
      </trkpt>
      <trkpt lat="43.65178" lon="1.38289">
        <ele>144</ele>
        <time>2025-05-23T10:01:36Z</time>
      </trkpt>
      <trkpt lat="43.65179" lon="1.38292">
        <ele>144</ele>
        <time>2025-05-23T10:01:37Z</time>
      </trkpt>
      <trkpt lat="43.6518" lon="1.38296">
        <ele>144</ele>
        <time>2025-05-23T10:01:38Z</time>
      </trkpt>
      <trkpt lat="43.65181" lon="1.38299">
        <ele>144</ele>
        <time>2025-05-23T10:01:39Z</time>
      </trkpt>
      <trkpt lat="43.65181" lon="1.38303">
        <ele>144</ele>
        <time>2025-05-23T10:01:40Z</time>
      </trkpt>
      <trkpt lat="43.65182" lon="1.38306">
        <ele>144</ele>
        <time>2025-05-23T10:01:41Z</time>
      </trkpt>
      <trkpt lat="43.65182" lon="1.38309">
        <ele>144</ele>
        <time>2025-05-23T10:01:42Z</time>
      </trkpt>
      <trkpt lat="43.65183" lon="1.38312">
        <ele>144</ele>
        <time>2025-05-23T10:01:43Z</time>
      </trkpt>
      <trkpt lat="43.65183" lon="1.38316">
        <ele>144</ele>
        <time>2025-05-23T10:01:44Z</time>
      </trkpt>
      <trkpt lat="43.65184" lon="1.38319">
        <ele>144</ele>
        <time>2025-05-23T10:01:45Z</time>
      </trkpt>
      <trkpt lat="43.65184" lon="1.38323">
        <ele>144</ele>
        <time>2025-05-23T10:01:46Z</time>
      </trkpt>
      <trkpt lat="43.65184" lon="1.38326">
        <ele>144</ele>
        <time>2025-05-23T10:01:47Z</time>
      </trkpt>
      <trkpt lat="43.65184" lon="1.3833">
        <ele>144</ele>
        <time>2025-05-23T10:01:48Z</time>
      </trkpt>
      <trkpt lat="43.65185" lon="1.38334">
        <ele>144</ele>
        <time>2025-05-23T10:01:49Z</time>
      </trkpt>
      <trkpt lat="43.65185" lon="1.38337">
        <ele>144</ele>
        <time>2025-05-23T10:01:50Z</time>
      </trkpt>
      <trkpt lat="43.65186" lon="1.38341">
        <ele>144</ele>
        <time>2025-05-23T10:01:51Z</time>
      </trkpt>
      <trkpt lat="43.65186" lon="1.38344">
        <ele>144</ele>
        <time>2025-05-23T10:01:52Z</time>
      </trkpt>
      <trkpt lat="43.65187" lon="1.38347">
        <ele>144</ele>
        <time>2025-05-23T10:01:53Z</time>
      </trkpt>
      <trkpt lat="43.65188" lon="1.38351">
        <ele>144</ele>
        <time>2025-05-23T10:01:54Z</time>
      </trkpt>
      <trkpt lat="43.65188" lon="1.38354">
        <ele>144</ele>
        <time>2025-05-23T10:01:55Z</time>
      </trkpt>
      <trkpt lat="43.65188" lon="1.38358">
        <ele>144</ele>
        <time>2025-05-23T10:01:56Z</time>
      </trkpt>
      <trkpt lat="43.65188" lon="1.38361">
        <ele>144</ele>
        <time>2025-05-23T10:01:57Z</time>
      </trkpt>
      <trkpt lat="43.65189" lon="1.38365">
        <ele>144</ele>
        <time>2025-05-23T10:01:58Z</time>
      </trkpt>
      <trkpt lat="43.6519" lon="1.38368">
        <ele>144</ele>
        <time>2025-05-23T10:01:59Z</time>
      </trkpt>
      <trkpt lat="43.6519" lon="1.38372">
        <ele>145</ele>
        <time>2025-05-23T10:02:00Z</time>
      </trkpt>
      <trkpt lat="43.65191" lon="1.38376">
        <ele>145</ele>
        <time>2025-05-23T10:02:01Z</time>
      </trkpt>
      <trkpt lat="43.65192" lon="1.3838">
        <ele>145</ele>
        <time>2025-05-23T10:02:02Z</time>
      </trkpt>
      <trkpt lat="43.65193" lon="1.38384">
        <ele>144</ele>
        <time>2025-05-23T10:02:03Z</time>
      </trkpt>
      <trkpt lat="43.65194" lon="1.38387">
        <ele>144</ele>
        <time>2025-05-23T10:02:04Z</time>
      </trkpt>
      <trkpt lat="43.65195" lon="1.38391">
        <ele>144</ele>
        <time>2025-05-23T10:02:05Z</time>
      </trkpt>
      <trkpt lat="43.65197" lon="1.38394">
        <ele>144</ele>
        <time>2025-05-23T10:02:06Z</time>
      </trkpt>
      <trkpt lat="43.65199" lon="1.38398">
        <ele>144</ele>
        <time>2025-05-23T10:02:07Z</time>
      </trkpt>
      <trkpt lat="43.652" lon="1.38401">
        <ele>144</ele>
        <time>2025-05-23T10:02:08Z</time>
      </trkpt>
      <trkpt lat="43.65202" lon="1.38404">
        <ele>144</ele>
        <time>2025-05-23T10:02:09Z</time>
      </trkpt>
      <trkpt lat="43.65204" lon="1.38407">
        <ele>143</ele>
        <time>2025-05-23T10:02:10Z</time>
      </trkpt>
      <trkpt lat="43.65206" lon="1.3841">
        <ele>143</ele>
        <time>2025-05-23T10:02:11Z</time>
      </trkpt>
      <trkpt lat="43.65208" lon="1.38413">
        <ele>143</ele>
        <time>2025-05-23T10:02:12Z</time>
      </trkpt>
      <trkpt lat="43.6521" lon="1.38416">
        <ele>143</ele>
        <time>2025-05-23T10:02:13Z</time>
      </trkpt>
      <trkpt lat="43.65211" lon="1.38419">
        <ele>143</ele>
        <time>2025-05-23T10:02:14Z</time>
      </trkpt>
      <trkpt lat="43.65212" lon="1.38422">
        <ele>143</ele>
        <time>2025-05-23T10:02:15Z</time>
      </trkpt>
      <trkpt lat="43.65214" lon="1.38425">
        <ele>142</ele>
        <time>2025-05-23T10:02:16Z</time>
      </trkpt>
      <trkpt lat="43.65215" lon="1.38427">
        <ele>142</ele>
        <time>2025-05-23T10:02:17Z</time>
      </trkpt>
      <trkpt lat="43.65216" lon="1.38429">
        <ele>142</ele>
        <time>2025-05-23T10:02:18Z</time>
      </trkpt>
      <trkpt lat="43.65216" lon="1.38429">
        <ele>142</ele>
        <time>2025-05-23T10:02:19Z</time>
      </trkpt>
      <trkpt lat="43.65217" lon="1.38432">
        <ele>142</ele>
        <time>2025-05-23T10:02:20Z</time>
      </trkpt>
      <trkpt lat="43.65217" lon="1.38432">
        <ele>143</ele>
        <time>2025-05-23T10:02:21Z</time>
      </trkpt>
      <trkpt lat="43.65219" lon="1.38435">
        <ele>143</ele>
        <time>2025-05-23T10:02:22Z</time>
      </trkpt>
      <trkpt lat="43.65219" lon="1.38438">
        <ele>142</ele>
        <time>2025-05-23T10:02:23Z</time>
      </trkpt>
      <trkpt lat="43.6522" lon="1.38441">
        <ele>142</ele>
        <time>2025-05-23T10:02:24Z</time>
      </trkpt>
      <trkpt lat="43.65221" lon="1.38444">
        <ele>142</ele>
        <time>2025-05-23T10:02:25Z</time>
      </trkpt>
      <trkpt lat="43.65222" lon="1.38448">
        <ele>142</ele>
        <time>2025-05-23T10:02:26Z</time>
      </trkpt>
      <trkpt lat="43.65224" lon="1.3845">
        <ele>142</ele>
        <time>2025-05-23T10:02:27Z</time>
      </trkpt>
      <trkpt lat="43.65225" lon="1.38454">
        <ele>142</ele>
        <time>2025-05-23T10:02:28Z</time>
      </trkpt>
      <trkpt lat="43.65227" lon="1.38457">
        <ele>142</ele>
        <time>2025-05-23T10:02:29Z</time>
      </trkpt>
      <trkpt lat="43.65228" lon="1.3846">
        <ele>142</ele>
        <time>2025-05-23T10:02:30Z</time>
      </trkpt>
      <trkpt lat="43.65229" lon="1.38463">
        <ele>142</ele>
        <time>2025-05-23T10:02:31Z</time>
      </trkpt>
      <trkpt lat="43.6523" lon="1.38467">
        <ele>142</ele>
        <time>2025-05-23T10:02:32Z</time>
      </trkpt>
      <trkpt lat="43.65231" lon="1.3847">
        <ele>142</ele>
        <time>2025-05-23T10:02:33Z</time>
      </trkpt>
      <trkpt lat="43.65231" lon="1.3847">
        <ele>142</ele>
        <time>2025-05-23T10:02:34Z</time>
      </trkpt>
      <trkpt lat="43.65233" lon="1.38474">
        <ele>142</ele>
        <time>2025-05-23T10:02:35Z</time>
      </trkpt>
      <trkpt lat="43.65234" lon="1.38478">
        <ele>142</ele>
        <time>2025-05-23T10:02:36Z</time>
      </trkpt>
      <trkpt lat="43.65236" lon="1.38482">
        <ele>142</ele>
        <time>2025-05-23T10:02:37Z</time>
      </trkpt>
      <trkpt lat="43.65237" lon="1.38486">
        <ele>142</ele>
        <time>2025-05-23T10:02:38Z</time>
      </trkpt>
      <trkpt lat="43.65238" lon="1.38489">
        <ele>142</ele>
        <time>2025-05-23T10:02:39Z</time>
      </trkpt>
      <trkpt lat="43.6524" lon="1.38492">
        <ele>142</ele>
        <time>2025-05-23T10:02:40Z</time>
      </trkpt>
      <trkpt lat="43.6524" lon="1.38495">
        <ele>141</ele>
        <time>2025-05-23T10:02:41Z</time>
      </trkpt>
      <trkpt lat="43.65241" lon="1.38498">
        <ele>141</ele>
        <time>2025-05-23T10:02:42Z</time>
      </trkpt>
      <trkpt lat="43.65241" lon="1.38498">
        <ele>141</ele>
        <time>2025-05-23T10:02:43Z</time>
      </trkpt>
      <trkpt lat="43.65243" lon="1.38505">
        <ele>141</ele>
        <time>2025-05-23T10:02:44Z</time>
      </trkpt>
      <trkpt lat="43.65243" lon="1.38505">
        <ele>141</ele>
        <time>2025-05-23T10:02:45Z</time>
      </trkpt>
      <trkpt lat="43.65243" lon="1.38508">
        <ele>141</ele>
        <time>2025-05-23T10:02:46Z</time>
      </trkpt>
      <trkpt lat="43.65244" lon="1.38512">
        <ele>141</ele>
        <time>2025-05-23T10:02:47Z</time>
      </trkpt>
      <trkpt lat="43.65245" lon="1.38515">
        <ele>141</ele>
        <time>2025-05-23T10:02:48Z</time>
      </trkpt>
      <trkpt lat="43.65246" lon="1.38519">
        <ele>141</ele>
        <time>2025-05-23T10:02:49Z</time>
      </trkpt>
      <trkpt lat="43.65247" lon="1.38522">
        <ele>141</ele>
        <time>2025-05-23T10:02:50Z</time>
      </trkpt>
      <trkpt lat="43.65248" lon="1.38526">
        <ele>141</ele>
        <time>2025-05-23T10:02:51Z</time>
      </trkpt>
      <trkpt lat="43.65249" lon="1.38529">
        <ele>141</ele>
        <time>2025-05-23T10:02:52Z</time>
      </trkpt>
      <trkpt lat="43.6525" lon="1.38533">
        <ele>141</ele>
        <time>2025-05-23T10:02:53Z</time>
      </trkpt>
      <trkpt lat="43.65251" lon="1.38537">
        <ele>141</ele>
        <time>2025-05-23T10:02:54Z</time>
      </trkpt>
      <trkpt lat="43.65251" lon="1.38541">
        <ele>141</ele>
        <time>2025-05-23T10:02:55Z</time>
      </trkpt>
      <trkpt lat="43.65252" lon="1.38545">
        <ele>141</ele>
        <time>2025-05-23T10:02:56Z</time>
      </trkpt>
      <trkpt lat="43.65252" lon="1.38549">
        <ele>141</ele>
        <time>2025-05-23T10:02:57Z</time>
      </trkpt>
      <trkpt lat="43.65253" lon="1.38553">
        <ele>141</ele>
        <time>2025-05-23T10:02:58Z</time>
      </trkpt>
      <trkpt lat="43.65255" lon="1.38556">
        <ele>141</ele>
        <time>2025-05-23T10:02:59Z</time>
      </trkpt>
      <trkpt lat="43.65256" lon="1.3856">
        <ele>141</ele>
        <time>2025-05-23T10:03:00Z</time>
      </trkpt>
      <trkpt lat="43.65257" lon="1.38563">
        <ele>141</ele>
        <time>2025-05-23T10:03:01Z</time>
      </trkpt>
      <trkpt lat="43.65258" lon="1.38566">
        <ele>141</ele>
        <time>2025-05-23T10:03:02Z</time>
      </trkpt>
      <trkpt lat="43.65259" lon="1.38569">
        <ele>141</ele>
        <time>2025-05-23T10:03:03Z</time>
      </trkpt>
      <trkpt lat="43.6526" lon="1.38572">
        <ele>141</ele>
        <time>2025-05-23T10:03:04Z</time>
      </trkpt>
      <trkpt lat="43.65261" lon="1.38575">
        <ele>141</ele>
        <time>2025-05-23T10:03:05Z</time>
      </trkpt>
      <trkpt lat="43.65262" lon="1.38578">
        <ele>141</ele>
        <time>2025-05-23T10:03:06Z</time>
      </trkpt>
      <trkpt lat="43.65263" lon="1.38582">
        <ele>141</ele>
        <time>2025-05-23T10:03:07Z</time>
      </trkpt>
      <trkpt lat="43.65264" lon="1.38585">
        <ele>141</ele>
        <time>2025-05-23T10:03:08Z</time>
      </trkpt>
      <trkpt lat="43.65266" lon="1.38588">
        <ele>141</ele>
        <time>2025-05-23T10:03:09Z</time>
      </trkpt>
      <trkpt lat="43.65267" lon="1.38591">
        <ele>142</ele>
        <time>2025-05-23T10:03:10Z</time>
      </trkpt>
      <trkpt lat="43.65269" lon="1.38593">
        <ele>142</ele>
        <time>2025-05-23T10:03:11Z</time>
      </trkpt>
      <trkpt lat="43.6527" lon="1.38596">
        <ele>141</ele>
        <time>2025-05-23T10:03:12Z</time>
      </trkpt>
      <trkpt lat="43.65271" lon="1.38599">
        <ele>141</ele>
        <time>2025-05-23T10:03:13Z</time>
      </trkpt>
      <trkpt lat="43.65272" lon="1.38601">
        <ele>141</ele>
        <time>2025-05-23T10:03:14Z</time>
      </trkpt>
      <trkpt lat="43.65273" lon="1.38603">
        <ele>141</ele>
        <time>2025-05-23T10:03:15Z</time>
      </trkpt>
      <trkpt lat="43.65274" lon="1.38606">
        <ele>141</ele>
        <time>2025-05-23T10:03:16Z</time>
      </trkpt>
      <trkpt lat="43.65275" lon="1.38608">
        <ele>141</ele>
        <time>2025-05-23T10:03:17Z</time>
      </trkpt>
      <trkpt lat="43.65277" lon="1.38611">
        <ele>141</ele>
        <time>2025-05-23T10:03:18Z</time>
      </trkpt>
      <trkpt lat="43.65278" lon="1.38613">
        <ele>141</ele>
        <time>2025-05-23T10:03:19Z</time>
      </trkpt>
      <trkpt lat="43.6528" lon="1.38616">
        <ele>142</ele>
        <time>2025-05-23T10:03:20Z</time>
      </trkpt>
      <trkpt lat="43.65282" lon="1.38619">
        <ele>142</ele>
        <time>2025-05-23T10:03:21Z</time>
      </trkpt>
      <trkpt lat="43.65283" lon="1.38623">
        <ele>142</ele>
        <time>2025-05-23T10:03:22Z</time>
      </trkpt>
      <trkpt lat="43.65285" lon="1.38627">
        <ele>142</ele>
        <time>2025-05-23T10:03:23Z</time>
      </trkpt>
      <trkpt lat="43.65287" lon="1.38631">
        <ele>142</ele>
        <time>2025-05-23T10:03:24Z</time>
      </trkpt>
      <trkpt lat="43.65288" lon="1.38635">
        <ele>142</ele>
        <time>2025-05-23T10:03:25Z</time>
      </trkpt>
      <trkpt lat="43.6529" lon="1.38638">
        <ele>142</ele>
        <time>2025-05-23T10:03:26Z</time>
      </trkpt>
      <trkpt lat="43.65292" lon="1.38642">
        <ele>142</ele>
        <time>2025-05-23T10:03:27Z</time>
      </trkpt>
      <trkpt lat="43.65293" lon="1.38645">
        <ele>142</ele>
        <time>2025-05-23T10:03:28Z</time>
      </trkpt>
      <trkpt lat="43.65294" lon="1.38649">
        <ele>143</ele>
        <time>2025-05-23T10:03:29Z</time>
      </trkpt>
      <trkpt lat="43.65296" lon="1.38653">
        <ele>143</ele>
        <time>2025-05-23T10:03:30Z</time>
      </trkpt>
      <trkpt lat="43.65297" lon="1.38656">
        <ele>142</ele>
        <time>2025-05-23T10:03:31Z</time>
      </trkpt>
      <trkpt lat="43.65298" lon="1.38661">
        <ele>142</ele>
        <time>2025-05-23T10:03:32Z</time>
      </trkpt>
      <trkpt lat="43.65299" lon="1.38665">
        <ele>142</ele>
        <time>2025-05-23T10:03:33Z</time>
      </trkpt>
      <trkpt lat="43.65301" lon="1.3867">
        <ele>142</ele>
        <time>2025-05-23T10:03:34Z</time>
      </trkpt>
      <trkpt lat="43.65302" lon="1.38674">
        <ele>142</ele>
        <time>2025-05-23T10:03:35Z</time>
      </trkpt>
      <trkpt lat="43.65303" lon="1.38677">
        <ele>141</ele>
        <time>2025-05-23T10:03:36Z</time>
      </trkpt>
      <trkpt lat="43.65305" lon="1.38681">
        <ele>141</ele>
        <time>2025-05-23T10:03:37Z</time>
      </trkpt>
      <trkpt lat="43.65306" lon="1.38685">
        <ele>141</ele>
        <time>2025-05-23T10:03:38Z</time>
      </trkpt>
      <trkpt lat="43.65307" lon="1.38688">
        <ele>141</ele>
        <time>2025-05-23T10:03:39Z</time>
      </trkpt>
      <trkpt lat="43.65309" lon="1.38691">
        <ele>141</ele>
        <time>2025-05-23T10:03:40Z</time>
      </trkpt>
      <trkpt lat="43.65309" lon="1.38694">
        <ele>141</ele>
        <time>2025-05-23T10:03:41Z</time>
      </trkpt>
      <trkpt lat="43.6531" lon="1.38698">
        <ele>141</ele>
        <time>2025-05-23T10:03:42Z</time>
      </trkpt>
      <trkpt lat="43.6531" lon="1.38701">
        <ele>141</ele>
        <time>2025-05-23T10:03:43Z</time>
      </trkpt>
      <trkpt lat="43.6531" lon="1.38701">
        <ele>141</ele>
        <time>2025-05-23T10:03:44Z</time>
      </trkpt>
      <trkpt lat="43.65312" lon="1.38704">
        <ele>141</ele>
        <time>2025-05-23T10:03:45Z</time>
      </trkpt>
      <trkpt lat="43.65313" lon="1.38707">
        <ele>141</ele>
        <time>2025-05-23T10:03:46Z</time>
      </trkpt>
      <trkpt lat="43.65314" lon="1.38711">
        <ele>141</ele>
        <time>2025-05-23T10:03:47Z</time>
      </trkpt>
      <trkpt lat="43.65315" lon="1.38714">
        <ele>141</ele>
        <time>2025-05-23T10:03:48Z</time>
      </trkpt>
      <trkpt lat="43.65316" lon="1.38718">
        <ele>141</ele>
        <time>2025-05-23T10:03:49Z</time>
      </trkpt>
      <trkpt lat="43.65317" lon="1.38721">
        <ele>141</ele>
        <time>2025-05-23T10:03:50Z</time>
      </trkpt>
      <trkpt lat="43.65318" lon="1.38725">
        <ele>141</ele>
        <time>2025-05-23T10:03:51Z</time>
      </trkpt>
      <trkpt lat="43.65319" lon="1.38729">
        <ele>142</ele>
        <time>2025-05-23T10:03:52Z</time>
      </trkpt>
      <trkpt lat="43.6532" lon="1.38732">
        <ele>142</ele>
        <time>2025-05-23T10:03:53Z</time>
      </trkpt>
      <trkpt lat="43.65321" lon="1.38736">
        <ele>142</ele>
        <time>2025-05-23T10:03:54Z</time>
      </trkpt>
      <trkpt lat="43.65322" lon="1.38739">
        <ele>142</ele>
        <time>2025-05-23T10:03:55Z</time>
      </trkpt>
      <trkpt lat="43.65322" lon="1.38743">
        <ele>142</ele>
        <time>2025-05-23T10:03:56Z</time>
      </trkpt>
      <trkpt lat="43.65324" lon="1.38747">
        <ele>142</ele>
        <time>2025-05-23T10:03:57Z</time>
      </trkpt>
      <trkpt lat="43.65325" lon="1.38751">
        <ele>142</ele>
        <time>2025-05-23T10:03:58Z</time>
      </trkpt>
      <trkpt lat="43.65326" lon="1.38755">
        <ele>142</ele>
        <time>2025-05-23T10:03:59Z</time>
      </trkpt>
      <trkpt lat="43.65328" lon="1.38759">
        <ele>142</ele>
        <time>2025-05-23T10:04:00Z</time>
      </trkpt>
      <trkpt lat="43.65328" lon="1.38762">
        <ele>142</ele>
        <time>2025-05-23T10:04:01Z</time>
      </trkpt>
      <trkpt lat="43.65329" lon="1.38766">
        <ele>142</ele>
        <time>2025-05-23T10:04:02Z</time>
      </trkpt>
      <trkpt lat="43.65329" lon="1.38769">
        <ele>142</ele>
        <time>2025-05-23T10:04:03Z</time>
      </trkpt>
      <trkpt lat="43.65329" lon="1.38769">
        <ele>142</ele>
        <time>2025-05-23T10:04:04Z</time>
      </trkpt>
      <trkpt lat="43.6533" lon="1.38773">
        <ele>142</ele>
        <time>2025-05-23T10:04:05Z</time>
      </trkpt>
      <trkpt lat="43.65331" lon="1.38776">
        <ele>142</ele>
        <time>2025-05-23T10:04:06Z</time>
      </trkpt>
      <trkpt lat="43.65332" lon="1.38779">
        <ele>142</ele>
        <time>2025-05-23T10:04:07Z</time>
      </trkpt>
      <trkpt lat="43.65333" lon="1.38783">
        <ele>143</ele>
        <time>2025-05-23T10:04:08Z</time>
      </trkpt>
      <trkpt lat="43.65335" lon="1.38786">
        <ele>143</ele>
        <time>2025-05-23T10:04:09Z</time>
      </trkpt>
      <trkpt lat="43.65336" lon="1.38788">
        <ele>144</ele>
        <time>2025-05-23T10:04:10Z</time>
      </trkpt>
      <trkpt lat="43.65338" lon="1.38791">
        <ele>144</ele>
        <time>2025-05-23T10:04:11Z</time>
      </trkpt>
      <trkpt lat="43.65339" lon="1.38794">
        <ele>143</ele>
        <time>2025-05-23T10:04:12Z</time>
      </trkpt>
      <trkpt lat="43.65341" lon="1.38799">
        <ele>143</ele>
        <time>2025-05-23T10:04:13Z</time>
      </trkpt>
      <trkpt lat="43.65343" lon="1.38803">
        <ele>143</ele>
        <time>2025-05-23T10:04:14Z</time>
      </trkpt>
      <trkpt lat="43.65345" lon="1.38807">
        <ele>143</ele>
        <time>2025-05-23T10:04:15Z</time>
      </trkpt>
      <trkpt lat="43.65347" lon="1.38811">
        <ele>143</ele>
        <time>2025-05-23T10:04:16Z</time>
      </trkpt>
      <trkpt lat="43.65349" lon="1.38816">
        <ele>143</ele>
        <time>2025-05-23T10:04:17Z</time>
      </trkpt>
      <trkpt lat="43.6535" lon="1.38818">
        <ele>143</ele>
        <time>2025-05-23T10:04:18Z</time>
      </trkpt>
      <trkpt lat="43.65351" lon="1.38821">
        <ele>143</ele>
        <time>2025-05-23T10:04:19Z</time>
      </trkpt>
      <trkpt lat="43.65352" lon="1.38824">
        <ele>143</ele>
        <time>2025-05-23T10:04:20Z</time>
      </trkpt>
      <trkpt lat="43.65353" lon="1.38827">
        <ele>143</ele>
        <time>2025-05-23T10:04:21Z</time>
      </trkpt>
      <trkpt lat="43.65355" lon="1.3883">
        <ele>143</ele>
        <time>2025-05-23T10:04:22Z</time>
      </trkpt>
      <trkpt lat="43.65355" lon="1.3883">
        <ele>143</ele>
        <time>2025-05-23T10:04:23Z</time>
      </trkpt>
      <trkpt lat="43.65357" lon="1.38833">
        <ele>143</ele>
        <time>2025-05-23T10:04:24Z</time>
      </trkpt>
      <trkpt lat="43.65357" lon="1.38833">
        <ele>143</ele>
        <time>2025-05-23T10:04:25Z</time>
      </trkpt>
      <trkpt lat="43.65362" lon="1.38836">
        <ele>143</ele>
        <time>2025-05-23T10:04:26Z</time>
      </trkpt>
      <trkpt lat="43.65363" lon="1.38837">
        <ele>142</ele>
        <time>2025-05-23T10:04:27Z</time>
      </trkpt>
      <trkpt lat="43.65364" lon="1.38839">
        <ele>142</ele>
        <time>2025-05-23T10:04:28Z</time>
      </trkpt>
      <trkpt lat="43.65367" lon="1.38841">
        <ele>142</ele>
        <time>2025-05-23T10:04:29Z</time>
      </trkpt>
      <trkpt lat="43.65369" lon="1.38842">
        <ele>142</ele>
        <time>2025-05-23T10:04:30Z</time>
      </trkpt>
      <trkpt lat="43.65369" lon="1.38842">
        <ele>142</ele>
        <time>2025-05-23T10:04:31Z</time>
      </trkpt>
      <trkpt lat="43.65371" lon="1.38843">
        <ele>142</ele>
        <time>2025-05-23T10:04:32Z</time>
      </trkpt>
      <trkpt lat="43.65374" lon="1.38844">
        <ele>142</ele>
        <time>2025-05-23T10:04:33Z</time>
      </trkpt>
      <trkpt lat="43.65376" lon="1.38845">
        <ele>142</ele>
        <time>2025-05-23T10:04:34Z</time>
      </trkpt>
      <trkpt lat="43.65379" lon="1.38846">
        <ele>141</ele>
        <time>2025-05-23T10:04:35Z</time>
      </trkpt>
      <trkpt lat="43.65381" lon="1.38846">
        <ele>141</ele>
        <time>2025-05-23T10:04:36Z</time>
      </trkpt>
      <trkpt lat="43.65384" lon="1.38846">
        <ele>141</ele>
        <time>2025-05-23T10:04:37Z</time>
      </trkpt>
      <trkpt lat="43.65386" lon="1.38846">
        <ele>141</ele>
        <time>2025-05-23T10:04:38Z</time>
      </trkpt>
      <trkpt lat="43.65389" lon="1.38846">
        <ele>141</ele>
        <time>2025-05-23T10:04:39Z</time>
      </trkpt>
      <trkpt lat="43.65393" lon="1.38846">
        <ele>141</ele>
        <time>2025-05-23T10:04:40Z</time>
      </trkpt>
      <trkpt lat="43.65393" lon="1.38846">
        <ele>141</ele>
        <time>2025-05-23T10:04:41Z</time>
      </trkpt>
      <trkpt lat="43.65398" lon="1.38847">
        <ele>141</ele>
        <time>2025-05-23T10:04:42Z</time>
      </trkpt>
      <trkpt lat="43.65399" lon="1.38847">
        <ele>141</ele>
        <time>2025-05-23T10:04:43Z</time>
      </trkpt>
      <trkpt lat="43.65401" lon="1.38849">
        <ele>141</ele>
        <time>2025-05-23T10:04:44Z</time>
      </trkpt>
      <trkpt lat="43.65402" lon="1.38852">
        <ele>141</ele>
        <time>2025-05-23T10:04:45Z</time>
      </trkpt>
      <trkpt lat="43.65402" lon="1.38852">
        <ele>141</ele>
        <time>2025-05-23T10:04:46Z</time>
      </trkpt>
      <trkpt lat="43.65403" lon="1.38856">
        <ele>140</ele>
        <time>2025-05-23T10:04:47Z</time>
      </trkpt>
      <trkpt lat="43.65404" lon="1.3886">
        <ele>140</ele>
        <time>2025-05-23T10:04:48Z</time>
      </trkpt>
      <trkpt lat="43.65405" lon="1.38864">
        <ele>140</ele>
        <time>2025-05-23T10:04:49Z</time>
      </trkpt>
      <trkpt lat="43.65407" lon="1.38869">
        <ele>140</ele>
        <time>2025-05-23T10:04:50Z</time>
      </trkpt>
      <trkpt lat="43.65408" lon="1.38873">
        <ele>140</ele>
        <time>2025-05-23T10:04:51Z</time>
      </trkpt>
      <trkpt lat="43.6541" lon="1.38877">
        <ele>139</ele>
        <time>2025-05-23T10:04:52Z</time>
      </trkpt>
      <trkpt lat="43.65411" lon="1.38881">
        <ele>139</ele>
        <time>2025-05-23T10:04:53Z</time>
      </trkpt>
      <trkpt lat="43.65413" lon="1.38885">
        <ele>139</ele>
        <time>2025-05-23T10:04:54Z</time>
      </trkpt>
      <trkpt lat="43.65415" lon="1.38889">
        <ele>138</ele>
        <time>2025-05-23T10:04:55Z</time>
      </trkpt>
      <trkpt lat="43.65417" lon="1.38893">
        <ele>138</ele>
        <time>2025-05-23T10:04:56Z</time>
      </trkpt>
      <trkpt lat="43.65419" lon="1.38896">
        <ele>138</ele>
        <time>2025-05-23T10:04:57Z</time>
      </trkpt>
      <trkpt lat="43.65421" lon="1.389">
        <ele>138</ele>
        <time>2025-05-23T10:04:58Z</time>
      </trkpt>
      <trkpt lat="43.65424" lon="1.38903">
        <ele>138</ele>
        <time>2025-05-23T10:04:59Z</time>
      </trkpt>
      <trkpt lat="43.65426" lon="1.38906">
        <ele>138</ele>
        <time>2025-05-23T10:05:00Z</time>
      </trkpt>
      <trkpt lat="43.65429" lon="1.38909">
        <ele>138</ele>
        <time>2025-05-23T10:05:01Z</time>
      </trkpt>
      <trkpt lat="43.65431" lon="1.38912">
        <ele>138</ele>
        <time>2025-05-23T10:05:02Z</time>
      </trkpt>
      <trkpt lat="43.65433" lon="1.38916">
        <ele>138</ele>
        <time>2025-05-23T10:05:03Z</time>
      </trkpt>
      <trkpt lat="43.65435" lon="1.38919">
        <ele>138</ele>
        <time>2025-05-23T10:05:04Z</time>
      </trkpt>
      <trkpt lat="43.65438" lon="1.38924">
        <ele>137</ele>
        <time>2025-05-23T10:05:05Z</time>
      </trkpt>
      <trkpt lat="43.6544" lon="1.38929">
        <ele>136</ele>
        <time>2025-05-23T10:05:06Z</time>
      </trkpt>
      <trkpt lat="43.65443" lon="1.38933">
        <ele>135</ele>
        <time>2025-05-23T10:05:07Z</time>
      </trkpt>
      <trkpt lat="43.65445" lon="1.38935">
        <ele>135</ele>
        <time>2025-05-23T10:05:08Z</time>
      </trkpt>
      <trkpt lat="43.65448" lon="1.38938">
        <ele>134</ele>
        <time>2025-05-23T10:05:09Z</time>
      </trkpt>
      <trkpt lat="43.65449" lon="1.38941">
        <ele>133</ele>
        <time>2025-05-23T10:05:10Z</time>
      </trkpt>
      <trkpt lat="43.65451" lon="1.38946">
        <ele>133</ele>
        <time>2025-05-23T10:05:11Z</time>
      </trkpt>
      <trkpt lat="43.65454" lon="1.38951">
        <ele>132</ele>
        <time>2025-05-23T10:05:12Z</time>
      </trkpt>
      <trkpt lat="43.65456" lon="1.38956">
        <ele>132</ele>
        <time>2025-05-23T10:05:13Z</time>
      </trkpt>
      <trkpt lat="43.65456" lon="1.38956">
        <ele>131</ele>
        <time>2025-05-23T10:05:14Z</time>
      </trkpt>
      <trkpt lat="43.65458" lon="1.38961">
        <ele>130</ele>
        <time>2025-05-23T10:05:15Z</time>
      </trkpt>
      <trkpt lat="43.6546" lon="1.38965">
        <ele>130</ele>
        <time>2025-05-23T10:05:16Z</time>
      </trkpt>
      <trkpt lat="43.65463" lon="1.38969">
        <ele>130</ele>
        <time>2025-05-23T10:05:17Z</time>
      </trkpt>
      <trkpt lat="43.65464" lon="1.38973">
        <ele>130</ele>
        <time>2025-05-23T10:05:18Z</time>
      </trkpt>
      <trkpt lat="43.65466" lon="1.38977">
        <ele>130</ele>
        <time>2025-05-23T10:05:19Z</time>
      </trkpt>
      <trkpt lat="43.65467" lon="1.3898">
        <ele>129</ele>
        <time>2025-05-23T10:05:20Z</time>
      </trkpt>
      <trkpt lat="43.65468" lon="1.38983">
        <ele>129</ele>
        <time>2025-05-23T10:05:21Z</time>
      </trkpt>
      <trkpt lat="43.65469" lon="1.38986">
        <ele>129</ele>
        <time>2025-05-23T10:05:22Z</time>
      </trkpt>
      <trkpt lat="43.6547" lon="1.38989">
        <ele>129</ele>
        <time>2025-05-23T10:05:23Z</time>
      </trkpt>
      <trkpt lat="43.65471" lon="1.38992">
        <ele>129</ele>
        <time>2025-05-23T10:05:24Z</time>
      </trkpt>
      <trkpt lat="43.65473" lon="1.38994">
        <ele>129</ele>
        <time>2025-05-23T10:05:25Z</time>
      </trkpt>
      <trkpt lat="43.65474" lon="1.38996">
        <ele>129</ele>
        <time>2025-05-23T10:05:26Z</time>
      </trkpt>
      <trkpt lat="43.65476" lon="1.38998">
        <ele>129</ele>
        <time>2025-05-23T10:05:27Z</time>
      </trkpt>
      <trkpt lat="43.65477" lon="1.38999">
        <ele>129</ele>
        <time>2025-05-23T10:05:28Z</time>
      </trkpt>
      <trkpt lat="43.65479" lon="1.39001">
        <ele>129</ele>
        <time>2025-05-23T10:05:29Z</time>
      </trkpt>
      <trkpt lat="43.65481" lon="1.39003">
        <ele>129</ele>
        <time>2025-05-23T10:05:30Z</time>
      </trkpt>
      <trkpt lat="43.65484" lon="1.39005">
        <ele>129</ele>
        <time>2025-05-23T10:05:31Z</time>
      </trkpt>
      <trkpt lat="43.65486" lon="1.39007">
        <ele>129</ele>
        <time>2025-05-23T10:05:32Z</time>
      </trkpt>
      <trkpt lat="43.65489" lon="1.39009">
        <ele>129</ele>
        <time>2025-05-23T10:05:33Z</time>
      </trkpt>
      <trkpt lat="43.65491" lon="1.39011">
        <ele>129</ele>
        <time>2025-05-23T10:05:34Z</time>
      </trkpt>
      <trkpt lat="43.65493" lon="1.39013">
        <ele>129</ele>
        <time>2025-05-23T10:05:35Z</time>
      </trkpt>
      <trkpt lat="43.65495" lon="1.39015">
        <ele>129</ele>
        <time>2025-05-23T10:05:36Z</time>
      </trkpt>
      <trkpt lat="43.65497" lon="1.39016">
        <ele>129</ele>
        <time>2025-05-23T10:05:37Z</time>
      </trkpt>
      <trkpt lat="43.65499" lon="1.39017">
        <ele>129</ele>
        <time>2025-05-23T10:05:38Z</time>
      </trkpt>
      <trkpt lat="43.65502" lon="1.39018">
        <ele>129</ele>
        <time>2025-05-23T10:05:39Z</time>
      </trkpt>
      <trkpt lat="43.65504" lon="1.39018">
        <ele>129</ele>
        <time>2025-05-23T10:05:40Z</time>
      </trkpt>
      <trkpt lat="43.65507" lon="1.39019">
        <ele>129</ele>
        <time>2025-05-23T10:05:41Z</time>
      </trkpt>
      <trkpt lat="43.65509" lon="1.3902">
        <ele>129</ele>
        <time>2025-05-23T10:05:42Z</time>
      </trkpt>
      <trkpt lat="43.65512" lon="1.39021">
        <ele>129</ele>
        <time>2025-05-23T10:05:43Z</time>
      </trkpt>
      <trkpt lat="43.65515" lon="1.39022">
        <ele>129</ele>
        <time>2025-05-23T10:05:44Z</time>
      </trkpt>
      <trkpt lat="43.65517" lon="1.39024">
        <ele>129</ele>
        <time>2025-05-23T10:05:45Z</time>
      </trkpt>
      <trkpt lat="43.6552" lon="1.39025">
        <ele>128</ele>
        <time>2025-05-23T10:05:46Z</time>
      </trkpt>
      <trkpt lat="43.65523" lon="1.39027">
        <ele>128</ele>
        <time>2025-05-23T10:05:47Z</time>
      </trkpt>
      <trkpt lat="43.65525" lon="1.39028">
        <ele>128</ele>
        <time>2025-05-23T10:05:48Z</time>
      </trkpt>
      <trkpt lat="43.65528" lon="1.3903">
        <ele>128</ele>
        <time>2025-05-23T10:05:49Z</time>
      </trkpt>
      <trkpt lat="43.65531" lon="1.39031">
        <ele>128</ele>
        <time>2025-05-23T10:05:50Z</time>
      </trkpt>
      <trkpt lat="43.65534" lon="1.39032">
        <ele>128</ele>
        <time>2025-05-23T10:05:51Z</time>
      </trkpt>
      <trkpt lat="43.65536" lon="1.39033">
        <ele>128</ele>
        <time>2025-05-23T10:05:52Z</time>
      </trkpt>
      <trkpt lat="43.65539" lon="1.39034">
        <ele>128</ele>
        <time>2025-05-23T10:05:53Z</time>
      </trkpt>
      <trkpt lat="43.65541" lon="1.39036">
        <ele>128</ele>
        <time>2025-05-23T10:05:54Z</time>
      </trkpt>
      <trkpt lat="43.65544" lon="1.39037">
        <ele>128</ele>
        <time>2025-05-23T10:05:55Z</time>
      </trkpt>
      <trkpt lat="43.65546" lon="1.39038">
        <ele>128</ele>
        <time>2025-05-23T10:05:56Z</time>
      </trkpt>
      <trkpt lat="43.65549" lon="1.39039">
        <ele>128</ele>
        <time>2025-05-23T10:05:57Z</time>
      </trkpt>
      <trkpt lat="43.65551" lon="1.39041">
        <ele>128</ele>
        <time>2025-05-23T10:05:58Z</time>
      </trkpt>
      <trkpt lat="43.65554" lon="1.39042">
        <ele>128</ele>
        <time>2025-05-23T10:05:59Z</time>
      </trkpt>
      <trkpt lat="43.65556" lon="1.39044">
        <ele>128</ele>
        <time>2025-05-23T10:06:00Z</time>
      </trkpt>
      <trkpt lat="43.65559" lon="1.39045">
        <ele>128</ele>
        <time>2025-05-23T10:06:01Z</time>
      </trkpt>
      <trkpt lat="43.65561" lon="1.39046">
        <ele>128</ele>
        <time>2025-05-23T10:06:02Z</time>
      </trkpt>
      <trkpt lat="43.65564" lon="1.39048">
        <ele>127</ele>
        <time>2025-05-23T10:06:03Z</time>
      </trkpt>
      <trkpt lat="43.65566" lon="1.3905">
        <ele>127</ele>
        <time>2025-05-23T10:06:04Z</time>
      </trkpt>
      <trkpt lat="43.65569" lon="1.39051">
        <ele>128</ele>
        <time>2025-05-23T10:06:05Z</time>
      </trkpt>
      <trkpt lat="43.65571" lon="1.39053">
        <ele>128</ele>
        <time>2025-05-23T10:06:06Z</time>
      </trkpt>
      <trkpt lat="43.65573" lon="1.39055">
        <ele>128</ele>
        <time>2025-05-23T10:06:07Z</time>
      </trkpt>
      <trkpt lat="43.65576" lon="1.39057">
        <ele>128</ele>
        <time>2025-05-23T10:06:08Z</time>
      </trkpt>
      <trkpt lat="43.65578" lon="1.39059">
        <ele>128</ele>
        <time>2025-05-23T10:06:09Z</time>
      </trkpt>
      <trkpt lat="43.6558" lon="1.39061">
        <ele>128</ele>
        <time>2025-05-23T10:06:10Z</time>
      </trkpt>
      <trkpt lat="43.65583" lon="1.39062">
        <ele>128</ele>
        <time>2025-05-23T10:06:11Z</time>
      </trkpt>
      <trkpt lat="43.65585" lon="1.39064">
        <ele>128</ele>
        <time>2025-05-23T10:06:12Z</time>
      </trkpt>
      <trkpt lat="43.65588" lon="1.39066">
        <ele>128</ele>
        <time>2025-05-23T10:06:13Z</time>
      </trkpt>
      <trkpt lat="43.6559" lon="1.39067">
        <ele>128</ele>
        <time>2025-05-23T10:06:14Z</time>
      </trkpt>
      <trkpt lat="43.65592" lon="1.39068">
        <ele>128</ele>
        <time>2025-05-23T10:06:15Z</time>
      </trkpt>
      <trkpt lat="43.65594" lon="1.39069">
        <ele>128</ele>
        <time>2025-05-23T10:06:16Z</time>
      </trkpt>
      <trkpt lat="43.65596" lon="1.3907">
        <ele>128</ele>
        <time>2025-05-23T10:06:17Z</time>
      </trkpt>
      <trkpt lat="43.65598" lon="1.39071">
        <ele>128</ele>
        <time>2025-05-23T10:06:18Z</time>
      </trkpt>
      <trkpt lat="43.65601" lon="1.39072">
        <ele>128</ele>
        <time>2025-05-23T10:06:19Z</time>
      </trkpt>
      <trkpt lat="43.65604" lon="1.39073">
        <ele>128</ele>
        <time>2025-05-23T10:06:20Z</time>
      </trkpt>
      <trkpt lat="43.65606" lon="1.39074">
        <ele>128</ele>
        <time>2025-05-23T10:06:21Z</time>
      </trkpt>
      <trkpt lat="43.65609" lon="1.39075">
        <ele>128</ele>
        <time>2025-05-23T10:06:22Z</time>
      </trkpt>
      <trkpt lat="43.65611" lon="1.39077">
        <ele>128</ele>
        <time>2025-05-23T10:06:23Z</time>
      </trkpt>
      <trkpt lat="43.65614" lon="1.39078">
        <ele>127</ele>
        <time>2025-05-23T10:06:24Z</time>
      </trkpt>
      <trkpt lat="43.65616" lon="1.3908">
        <ele>127</ele>
        <time>2025-05-23T10:06:25Z</time>
      </trkpt>
      <trkpt lat="43.65619" lon="1.39081">
        <ele>127</ele>
        <time>2025-05-23T10:06:26Z</time>
      </trkpt>
      <trkpt lat="43.65621" lon="1.39083">
        <ele>128</ele>
        <time>2025-05-23T10:06:27Z</time>
      </trkpt>
      <trkpt lat="43.65623" lon="1.39085">
        <ele>128</ele>
        <time>2025-05-23T10:06:28Z</time>
      </trkpt>
      <trkpt lat="43.65625" lon="1.39087">
        <ele>128</ele>
        <time>2025-05-23T10:06:29Z</time>
      </trkpt>
      <trkpt lat="43.65628" lon="1.39089">
        <ele>128</ele>
        <time>2025-05-23T10:06:30Z</time>
      </trkpt>
      <trkpt lat="43.65629" lon="1.39091">
        <ele>128</ele>
        <time>2025-05-23T10:06:31Z</time>
      </trkpt>
      <trkpt lat="43.65631" lon="1.39092">
        <ele>128</ele>
        <time>2025-05-23T10:06:32Z</time>
      </trkpt>
      <trkpt lat="43.65633" lon="1.39093">
        <ele>128</ele>
        <time>2025-05-23T10:06:33Z</time>
      </trkpt>
      <trkpt lat="43.65635" lon="1.39094">
        <ele>127</ele>
        <time>2025-05-23T10:06:34Z</time>
      </trkpt>
      <trkpt lat="43.65637" lon="1.39096">
        <ele>128</ele>
        <time>2025-05-23T10:06:35Z</time>
      </trkpt>
      <trkpt lat="43.65639" lon="1.39097">
        <ele>128</ele>
        <time>2025-05-23T10:06:36Z</time>
      </trkpt>
      <trkpt lat="43.65642" lon="1.39099">
        <ele>128</ele>
        <time>2025-05-23T10:06:37Z</time>
      </trkpt>
      <trkpt lat="43.65644" lon="1.391">
        <ele>128</ele>
        <time>2025-05-23T10:06:38Z</time>
      </trkpt>
      <trkpt lat="43.65646" lon="1.39102">
        <ele>128</ele>
        <time>2025-05-23T10:06:39Z</time>
      </trkpt>
      <trkpt lat="43.6565" lon="1.39104">
        <ele>128</ele>
        <time>2025-05-23T10:06:40Z</time>
      </trkpt>
      <trkpt lat="43.65653" lon="1.39107">
        <ele>128</ele>
        <time>2025-05-23T10:06:41Z</time>
      </trkpt>
      <trkpt lat="43.65656" lon="1.3911">
        <ele>127</ele>
        <time>2025-05-23T10:06:42Z</time>
      </trkpt>
      <trkpt lat="43.65659" lon="1.39112">
        <ele>127</ele>
        <time>2025-05-23T10:06:43Z</time>
      </trkpt>
      <trkpt lat="43.65662" lon="1.39114">
        <ele>127</ele>
        <time>2025-05-23T10:06:44Z</time>
      </trkpt>
      <trkpt lat="43.65665" lon="1.39116">
        <ele>127</ele>
        <time>2025-05-23T10:06:45Z</time>
      </trkpt>
      <trkpt lat="43.65668" lon="1.39117">
        <ele>127</ele>
        <time>2025-05-23T10:06:46Z</time>
      </trkpt>
      <trkpt lat="43.65671" lon="1.39118">
        <ele>127</ele>
        <time>2025-05-23T10:06:47Z</time>
      </trkpt>
      <trkpt lat="43.65674" lon="1.39119">
        <ele>127</ele>
        <time>2025-05-23T10:06:48Z</time>
      </trkpt>
      <trkpt lat="43.65676" lon="1.3912">
        <ele>127</ele>
        <time>2025-05-23T10:06:49Z</time>
      </trkpt>
      <trkpt lat="43.65679" lon="1.39121">
        <ele>127</ele>
        <time>2025-05-23T10:06:50Z</time>
      </trkpt>
      <trkpt lat="43.65681" lon="1.39123">
        <ele>127</ele>
        <time>2025-05-23T10:06:51Z</time>
      </trkpt>
      <trkpt lat="43.65684" lon="1.39125">
        <ele>127</ele>
        <time>2025-05-23T10:06:52Z</time>
      </trkpt>
      <trkpt lat="43.65686" lon="1.39126">
        <ele>127</ele>
        <time>2025-05-23T10:06:53Z</time>
      </trkpt>
      <trkpt lat="43.65689" lon="1.39128">
        <ele>127</ele>
        <time>2025-05-23T10:06:54Z</time>
      </trkpt>
      <trkpt lat="43.65691" lon="1.39129">
        <ele>127</ele>
        <time>2025-05-23T10:06:55Z</time>
      </trkpt>
      <trkpt lat="43.65693" lon="1.39131">
        <ele>127</ele>
        <time>2025-05-23T10:06:56Z</time>
      </trkpt>
      <trkpt lat="43.65695" lon="1.39132">
        <ele>127</ele>
        <time>2025-05-23T10:06:57Z</time>
      </trkpt>
      <trkpt lat="43.65698" lon="1.39135">
        <ele>127</ele>
        <time>2025-05-23T10:06:58Z</time>
      </trkpt>
      <trkpt lat="43.65701" lon="1.39137">
        <ele>127</ele>
        <time>2025-05-23T10:06:59Z</time>
      </trkpt>
      <trkpt lat="43.65704" lon="1.39139">
        <ele>127</ele>
        <time>2025-05-23T10:07:00Z</time>
      </trkpt>
      <trkpt lat="43.65707" lon="1.39141">
        <ele>127</ele>
        <time>2025-05-23T10:07:01Z</time>
      </trkpt>
      <trkpt lat="43.65709" lon="1.39142">
        <ele>127</ele>
        <time>2025-05-23T10:07:02Z</time>
      </trkpt>
      <trkpt lat="43.65712" lon="1.39144">
        <ele>127</ele>
        <time>2025-05-23T10:07:03Z</time>
      </trkpt>
      <trkpt lat="43.65714" lon="1.39145">
        <ele>127</ele>
        <time>2025-05-23T10:07:04Z</time>
      </trkpt>
      <trkpt lat="43.65716" lon="1.39147">
        <ele>127</ele>
        <time>2025-05-23T10:07:05Z</time>
      </trkpt>
      <trkpt lat="43.65718" lon="1.39148">
        <ele>127</ele>
        <time>2025-05-23T10:07:06Z</time>
      </trkpt>
      <trkpt lat="43.6572" lon="1.3915">
        <ele>127</ele>
        <time>2025-05-23T10:07:07Z</time>
      </trkpt>
      <trkpt lat="43.65722" lon="1.39152">
        <ele>127</ele>
        <time>2025-05-23T10:07:08Z</time>
      </trkpt>
      <trkpt lat="43.65724" lon="1.39154">
        <ele>127</ele>
        <time>2025-05-23T10:07:09Z</time>
      </trkpt>
      <trkpt lat="43.65727" lon="1.39156">
        <ele>127</ele>
        <time>2025-05-23T10:07:10Z</time>
      </trkpt>
      <trkpt lat="43.65729" lon="1.39158">
        <ele>127</ele>
        <time>2025-05-23T10:07:11Z</time>
      </trkpt>
      <trkpt lat="43.65731" lon="1.3916">
        <ele>127</ele>
        <time>2025-05-23T10:07:12Z</time>
      </trkpt>
      <trkpt lat="43.65733" lon="1.39162">
        <ele>127</ele>
        <time>2025-05-23T10:07:13Z</time>
      </trkpt>
      <trkpt lat="43.65735" lon="1.39164">
        <ele>127</ele>
        <time>2025-05-23T10:07:14Z</time>
      </trkpt>
      <trkpt lat="43.65737" lon="1.39166">
        <ele>127</ele>
        <time>2025-05-23T10:07:15Z</time>
      </trkpt>
      <trkpt lat="43.65739" lon="1.39168">
        <ele>127</ele>
        <time>2025-05-23T10:07:16Z</time>
      </trkpt>
      <trkpt lat="43.65741" lon="1.39169">
        <ele>127</ele>
        <time>2025-05-23T10:07:17Z</time>
      </trkpt>
      <trkpt lat="43.65743" lon="1.39169">
        <ele>127</ele>
        <time>2025-05-23T10:07:18Z</time>
      </trkpt>
      <trkpt lat="43.65745" lon="1.3917">
        <ele>127</ele>
        <time>2025-05-23T10:07:19Z</time>
      </trkpt>
      <trkpt lat="43.65747" lon="1.39171">
        <ele>127</ele>
        <time>2025-05-23T10:07:20Z</time>
      </trkpt>
      <trkpt lat="43.65749" lon="1.39172">
        <ele>128</ele>
        <time>2025-05-23T10:07:21Z</time>
      </trkpt>
      <trkpt lat="43.65751" lon="1.39173">
        <ele>128</ele>
        <time>2025-05-23T10:07:22Z</time>
      </trkpt>
      <trkpt lat="43.65754" lon="1.39174">
        <ele>128</ele>
        <time>2025-05-23T10:07:23Z</time>
      </trkpt>
      <trkpt lat="43.65756" lon="1.39175">
        <ele>128</ele>
        <time>2025-05-23T10:07:24Z</time>
      </trkpt>
      <trkpt lat="43.65758" lon="1.39176">
        <ele>128</ele>
        <time>2025-05-23T10:07:25Z</time>
      </trkpt>
      <trkpt lat="43.65761" lon="1.39179">
        <ele>128</ele>
        <time>2025-05-23T10:07:26Z</time>
      </trkpt>
      <trkpt lat="43.65764" lon="1.39182">
        <ele>128</ele>
        <time>2025-05-23T10:07:27Z</time>
      </trkpt>
      <trkpt lat="43.65767" lon="1.39185">
        <ele>128</ele>
        <time>2025-05-23T10:07:28Z</time>
      </trkpt>
      <trkpt lat="43.65769" lon="1.39187">
        <ele>128</ele>
        <time>2025-05-23T10:07:29Z</time>
      </trkpt>
      <trkpt lat="43.65771" lon="1.3919">
        <ele>128</ele>
        <time>2025-05-23T10:07:30Z</time>
      </trkpt>
      <trkpt lat="43.65773" lon="1.39192">
        <ele>128</ele>
        <time>2025-05-23T10:07:31Z</time>
      </trkpt>
      <trkpt lat="43.65775" lon="1.39195">
        <ele>128</ele>
        <time>2025-05-23T10:07:32Z</time>
      </trkpt>
      <trkpt lat="43.65777" lon="1.39197">
        <ele>128</ele>
        <time>2025-05-23T10:07:33Z</time>
      </trkpt>
      <trkpt lat="43.6578" lon="1.392">
        <ele>128</ele>
        <time>2025-05-23T10:07:34Z</time>
      </trkpt>
      <trkpt lat="43.65782" lon="1.39203">
        <ele>128</ele>
        <time>2025-05-23T10:07:35Z</time>
      </trkpt>
      <trkpt lat="43.65784" lon="1.39205">
        <ele>128</ele>
        <time>2025-05-23T10:07:36Z</time>
      </trkpt>
      <trkpt lat="43.65787" lon="1.39206">
        <ele>128</ele>
        <time>2025-05-23T10:07:37Z</time>
      </trkpt>
      <trkpt lat="43.6579" lon="1.39208">
        <ele>128</ele>
        <time>2025-05-23T10:07:38Z</time>
      </trkpt>
      <trkpt lat="43.65793" lon="1.39209">
        <ele>127</ele>
        <time>2025-05-23T10:07:39Z</time>
      </trkpt>
      <trkpt lat="43.65796" lon="1.3921">
        <ele>127</ele>
        <time>2025-05-23T10:07:40Z</time>
      </trkpt>
      <trkpt lat="43.65799" lon="1.3921">
        <ele>126</ele>
        <time>2025-05-23T10:07:41Z</time>
      </trkpt>
      <trkpt lat="43.65802" lon="1.39211">
        <ele>126</ele>
        <time>2025-05-23T10:07:42Z</time>
      </trkpt>
      <trkpt lat="43.65805" lon="1.39211">
        <ele>126</ele>
        <time>2025-05-23T10:07:43Z</time>
      </trkpt>
      <trkpt lat="43.65807" lon="1.39213">
        <ele>126</ele>
        <time>2025-05-23T10:07:44Z</time>
      </trkpt>
      <trkpt lat="43.6581" lon="1.39214">
        <ele>126</ele>
        <time>2025-05-23T10:07:45Z</time>
      </trkpt>
      <trkpt lat="43.65812" lon="1.39216">
        <ele>126</ele>
        <time>2025-05-23T10:07:46Z</time>
      </trkpt>
      <trkpt lat="43.65815" lon="1.39218">
        <ele>126</ele>
        <time>2025-05-23T10:07:47Z</time>
      </trkpt>
      <trkpt lat="43.65817" lon="1.39218">
        <ele>126</ele>
        <time>2025-05-23T10:07:48Z</time>
      </trkpt>
      <trkpt lat="43.65819" lon="1.39218">
        <ele>126</ele>
        <time>2025-05-23T10:07:49Z</time>
      </trkpt>
      <trkpt lat="43.6582" lon="1.39219">
        <ele>126</ele>
        <time>2025-05-23T10:07:50Z</time>
      </trkpt>
      <trkpt lat="43.65822" lon="1.39219">
        <ele>126</ele>
        <time>2025-05-23T10:07:51Z</time>
      </trkpt>
      <trkpt lat="43.65824" lon="1.39219">
        <ele>126</ele>
        <time>2025-05-23T10:07:52Z</time>
      </trkpt>
      <trkpt lat="43.65826" lon="1.3922">
        <ele>127</ele>
        <time>2025-05-23T10:07:53Z</time>
      </trkpt>
      <trkpt lat="43.65828" lon="1.39221">
        <ele>127</ele>
        <time>2025-05-23T10:07:54Z</time>
      </trkpt>
      <trkpt lat="43.6583" lon="1.39222">
        <ele>127</ele>
        <time>2025-05-23T10:07:55Z</time>
      </trkpt>
      <trkpt lat="43.65832" lon="1.39223">
        <ele>127</ele>
        <time>2025-05-23T10:07:56Z</time>
      </trkpt>
      <trkpt lat="43.65833" lon="1.39223">
        <ele>127</ele>
        <time>2025-05-23T10:07:57Z</time>
      </trkpt>
      <trkpt lat="43.65835" lon="1.39224">
        <ele>126</ele>
        <time>2025-05-23T10:07:58Z</time>
      </trkpt>
      <trkpt lat="43.65838" lon="1.39226">
        <ele>126</ele>
        <time>2025-05-23T10:07:59Z</time>
      </trkpt>
      <trkpt lat="43.6584" lon="1.39228">
        <ele>126</ele>
        <time>2025-05-23T10:08:00Z</time>
      </trkpt>
      <trkpt lat="43.65843" lon="1.39229">
        <ele>126</ele>
        <time>2025-05-23T10:08:01Z</time>
      </trkpt>
      <trkpt lat="43.65845" lon="1.39231">
        <ele>126</ele>
        <time>2025-05-23T10:08:02Z</time>
      </trkpt>
      <trkpt lat="43.65848" lon="1.39233">
        <ele>126</ele>
        <time>2025-05-23T10:08:03Z</time>
      </trkpt>
      <trkpt lat="43.6585" lon="1.39234">
        <ele>126</ele>
        <time>2025-05-23T10:08:04Z</time>
      </trkpt>
      <trkpt lat="43.65853" lon="1.39236">
        <ele>126</ele>
        <time>2025-05-23T10:08:05Z</time>
      </trkpt>
      <trkpt lat="43.65855" lon="1.39238">
        <ele>126</ele>
        <time>2025-05-23T10:08:06Z</time>
      </trkpt>
      <trkpt lat="43.65857" lon="1.39239">
        <ele>126</ele>
        <time>2025-05-23T10:08:07Z</time>
      </trkpt>
      <trkpt lat="43.6586" lon="1.39239">
        <ele>126</ele>
        <time>2025-05-23T10:08:08Z</time>
      </trkpt>
      <trkpt lat="43.65862" lon="1.3924">
        <ele>126</ele>
        <time>2025-05-23T10:08:09Z</time>
      </trkpt>
      <trkpt lat="43.65864" lon="1.39241">
        <ele>126</ele>
        <time>2025-05-23T10:08:10Z</time>
      </trkpt>
      <trkpt lat="43.65867" lon="1.3924">
        <ele>126</ele>
        <time>2025-05-23T10:08:11Z</time>
      </trkpt>
      <trkpt lat="43.6587" lon="1.3924">
        <ele>126</ele>
        <time>2025-05-23T10:08:12Z</time>
      </trkpt>
      <trkpt lat="43.65872" lon="1.3924">
        <ele>126</ele>
        <time>2025-05-23T10:08:13Z</time>
      </trkpt>
      <trkpt lat="43.65875" lon="1.3924">
        <ele>126</ele>
        <time>2025-05-23T10:08:14Z</time>
      </trkpt>
      <trkpt lat="43.65877" lon="1.39241">
        <ele>126</ele>
        <time>2025-05-23T10:08:15Z</time>
      </trkpt>
      <trkpt lat="43.6588" lon="1.39241">
        <ele>126</ele>
        <time>2025-05-23T10:08:16Z</time>
      </trkpt>
      <trkpt lat="43.65883" lon="1.39242">
        <ele>126</ele>
        <time>2025-05-23T10:08:17Z</time>
      </trkpt>
      <trkpt lat="43.65886" lon="1.39242">
        <ele>126</ele>
        <time>2025-05-23T10:08:18Z</time>
      </trkpt>
      <trkpt lat="43.65889" lon="1.39243">
        <ele>126</ele>
        <time>2025-05-23T10:08:19Z</time>
      </trkpt>
      <trkpt lat="43.65891" lon="1.39243">
        <ele>126</ele>
        <time>2025-05-23T10:08:20Z</time>
      </trkpt>
      <trkpt lat="43.65894" lon="1.39244">
        <ele>126</ele>
        <time>2025-05-23T10:08:21Z</time>
      </trkpt>
      <trkpt lat="43.65896" lon="1.39244">
        <ele>126</ele>
        <time>2025-05-23T10:08:22Z</time>
      </trkpt>
      <trkpt lat="43.65899" lon="1.39244">
        <ele>126</ele>
        <time>2025-05-23T10:08:23Z</time>
      </trkpt>
      <trkpt lat="43.65902" lon="1.39244">
        <ele>126</ele>
        <time>2025-05-23T10:08:24Z</time>
      </trkpt>
      <trkpt lat="43.65905" lon="1.39244">
        <ele>126</ele>
        <time>2025-05-23T10:08:25Z</time>
      </trkpt>
      <trkpt lat="43.65908" lon="1.39244">
        <ele>126</ele>
        <time>2025-05-23T10:08:26Z</time>
      </trkpt>
      <trkpt lat="43.6591" lon="1.39243">
        <ele>126</ele>
        <time>2025-05-23T10:08:27Z</time>
      </trkpt>
      <trkpt lat="43.65912" lon="1.39243">
        <ele>126</ele>
        <time>2025-05-23T10:08:28Z</time>
      </trkpt>
      <trkpt lat="43.65915" lon="1.39242">
        <ele>126</ele>
        <time>2025-05-23T10:08:29Z</time>
      </trkpt>
      <trkpt lat="43.65918" lon="1.39243">
        <ele>126</ele>
        <time>2025-05-23T10:08:30Z</time>
      </trkpt>
      <trkpt lat="43.65921" lon="1.39243">
        <ele>126</ele>
        <time>2025-05-23T10:08:31Z</time>
      </trkpt>
      <trkpt lat="43.65924" lon="1.39243">
        <ele>126</ele>
        <time>2025-05-23T10:08:32Z</time>
      </trkpt>
      <trkpt lat="43.65927" lon="1.39243">
        <ele>126</ele>
        <time>2025-05-23T10:08:33Z</time>
      </trkpt>
      <trkpt lat="43.6593" lon="1.39243">
        <ele>126</ele>
        <time>2025-05-23T10:08:34Z</time>
      </trkpt>
      <trkpt lat="43.65933" lon="1.39243">
        <ele>126</ele>
        <time>2025-05-23T10:08:35Z</time>
      </trkpt>
      <trkpt lat="43.65936" lon="1.39244">
        <ele>126</ele>
        <time>2025-05-23T10:08:36Z</time>
      </trkpt>
      <trkpt lat="43.65939" lon="1.39245">
        <ele>126</ele>
        <time>2025-05-23T10:08:37Z</time>
      </trkpt>
      <trkpt lat="43.65941" lon="1.39245">
        <ele>126</ele>
        <time>2025-05-23T10:08:38Z</time>
      </trkpt>
      <trkpt lat="43.65944" lon="1.39246">
        <ele>126</ele>
        <time>2025-05-23T10:08:39Z</time>
      </trkpt>
      <trkpt lat="43.65946" lon="1.39246">
        <ele>126</ele>
        <time>2025-05-23T10:08:40Z</time>
      </trkpt>
      <trkpt lat="43.65949" lon="1.39245">
        <ele>126</ele>
        <time>2025-05-23T10:08:41Z</time>
      </trkpt>
      <trkpt lat="43.65951" lon="1.39245">
        <ele>126</ele>
        <time>2025-05-23T10:08:42Z</time>
      </trkpt>
      <trkpt lat="43.65954" lon="1.39244">
        <ele>126</ele>
        <time>2025-05-23T10:08:43Z</time>
      </trkpt>
      <trkpt lat="43.65956" lon="1.39243">
        <ele>126</ele>
        <time>2025-05-23T10:08:44Z</time>
      </trkpt>
      <trkpt lat="43.65959" lon="1.39242">
        <ele>126</ele>
        <time>2025-05-23T10:08:45Z</time>
      </trkpt>
      <trkpt lat="43.65961" lon="1.3924">
        <ele>126</ele>
        <time>2025-05-23T10:08:46Z</time>
      </trkpt>
      <trkpt lat="43.65963" lon="1.39239">
        <ele>126</ele>
        <time>2025-05-23T10:08:47Z</time>
      </trkpt>
      <trkpt lat="43.65966" lon="1.39238">
        <ele>126</ele>
        <time>2025-05-23T10:08:48Z</time>
      </trkpt>
      <trkpt lat="43.65968" lon="1.39238">
        <ele>126</ele>
        <time>2025-05-23T10:08:49Z</time>
      </trkpt>
      <trkpt lat="43.6597" lon="1.39237">
        <ele>126</ele>
        <time>2025-05-23T10:08:50Z</time>
      </trkpt>
      <trkpt lat="43.65973" lon="1.39237">
        <ele>126</ele>
        <time>2025-05-23T10:08:51Z</time>
      </trkpt>
      <trkpt lat="43.65976" lon="1.39236">
        <ele>126</ele>
        <time>2025-05-23T10:08:52Z</time>
      </trkpt>
      <trkpt lat="43.65978" lon="1.39235">
        <ele>126</ele>
        <time>2025-05-23T10:08:53Z</time>
      </trkpt>
      <trkpt lat="43.65981" lon="1.39234">
        <ele>126</ele>
        <time>2025-05-23T10:08:54Z</time>
      </trkpt>
      <trkpt lat="43.65983" lon="1.39233">
        <ele>126</ele>
        <time>2025-05-23T10:08:55Z</time>
      </trkpt>
      <trkpt lat="43.65986" lon="1.39232">
        <ele>126</ele>
        <time>2025-05-23T10:08:56Z</time>
      </trkpt>
      <trkpt lat="43.65988" lon="1.39231">
        <ele>126</ele>
        <time>2025-05-23T10:08:57Z</time>
      </trkpt>
      <trkpt lat="43.6599" lon="1.3923">
        <ele>126</ele>
        <time>2025-05-23T10:08:58Z</time>
      </trkpt>
      <trkpt lat="43.65992" lon="1.39229">
        <ele>126</ele>
        <time>2025-05-23T10:08:59Z</time>
      </trkpt>
      <trkpt lat="43.65994" lon="1.39228">
        <ele>126</ele>
        <time>2025-05-23T10:09:00Z</time>
      </trkpt>
      <trkpt lat="43.65996" lon="1.39226">
        <ele>126</ele>
        <time>2025-05-23T10:09:01Z</time>
      </trkpt>
      <trkpt lat="43.65998" lon="1.39225">
        <ele>126</ele>
        <time>2025-05-23T10:09:02Z</time>
      </trkpt>
      <trkpt lat="43.66001" lon="1.39223">
        <ele>126</ele>
        <time>2025-05-23T10:09:03Z</time>
      </trkpt>
      <trkpt lat="43.66003" lon="1.39222">
        <ele>126</ele>
        <time>2025-05-23T10:09:04Z</time>
      </trkpt>
      <trkpt lat="43.66006" lon="1.3922">
        <ele>126</ele>
        <time>2025-05-23T10:09:05Z</time>
      </trkpt>
      <trkpt lat="43.66008" lon="1.39219">
        <ele>126</ele>
        <time>2025-05-23T10:09:06Z</time>
      </trkpt>
      <trkpt lat="43.6601" lon="1.39217">
        <ele>126</ele>
        <time>2025-05-23T10:09:07Z</time>
      </trkpt>
      <trkpt lat="43.66013" lon="1.39215">
        <ele>126</ele>
        <time>2025-05-23T10:09:08Z</time>
      </trkpt>
      <trkpt lat="43.66015" lon="1.39213">
        <ele>126</ele>
        <time>2025-05-23T10:09:09Z</time>
      </trkpt>
      <trkpt lat="43.66018" lon="1.39212">
        <ele>126</ele>
        <time>2025-05-23T10:09:10Z</time>
      </trkpt>
      <trkpt lat="43.6602" lon="1.3921">
        <ele>126</ele>
        <time>2025-05-23T10:09:11Z</time>
      </trkpt>
      <trkpt lat="43.66023" lon="1.39208">
        <ele>126</ele>
        <time>2025-05-23T10:09:12Z</time>
      </trkpt>
      <trkpt lat="43.66025" lon="1.39207">
        <ele>126</ele>
        <time>2025-05-23T10:09:13Z</time>
      </trkpt>
      <trkpt lat="43.66028" lon="1.39206">
        <ele>126</ele>
        <time>2025-05-23T10:09:14Z</time>
      </trkpt>
      <trkpt lat="43.6603" lon="1.39205">
        <ele>126</ele>
        <time>2025-05-23T10:09:15Z</time>
      </trkpt>
      <trkpt lat="43.66033" lon="1.39204">
        <ele>125</ele>
        <time>2025-05-23T10:09:16Z</time>
      </trkpt>
      <trkpt lat="43.66035" lon="1.39203">
        <ele>125</ele>
        <time>2025-05-23T10:09:17Z</time>
      </trkpt>
      <trkpt lat="43.66038" lon="1.39202">
        <ele>126</ele>
        <time>2025-05-23T10:09:18Z</time>
      </trkpt>
      <trkpt lat="43.66041" lon="1.39201">
        <ele>126</ele>
        <time>2025-05-23T10:09:19Z</time>
      </trkpt>
      <trkpt lat="43.66044" lon="1.392">
        <ele>126</ele>
        <time>2025-05-23T10:09:20Z</time>
      </trkpt>
      <trkpt lat="43.66047" lon="1.392">
        <ele>126</ele>
        <time>2025-05-23T10:09:21Z</time>
      </trkpt>
      <trkpt lat="43.66051" lon="1.39199">
        <ele>126</ele>
        <time>2025-05-23T10:09:22Z</time>
      </trkpt>
      <trkpt lat="43.66053" lon="1.392">
        <ele>126</ele>
        <time>2025-05-23T10:09:23Z</time>
      </trkpt>
      <trkpt lat="43.66056" lon="1.392">
        <ele>126</ele>
        <time>2025-05-23T10:09:24Z</time>
      </trkpt>
      <trkpt lat="43.66059" lon="1.392">
        <ele>126</ele>
        <time>2025-05-23T10:09:25Z</time>
      </trkpt>
      <trkpt lat="43.66062" lon="1.392">
        <ele>126</ele>
        <time>2025-05-23T10:09:26Z</time>
      </trkpt>
      <trkpt lat="43.66064" lon="1.392">
        <ele>126</ele>
        <time>2025-05-23T10:09:27Z</time>
      </trkpt>
      <trkpt lat="43.66066" lon="1.392">
        <ele>126</ele>
        <time>2025-05-23T10:09:28Z</time>
      </trkpt>
      <trkpt lat="43.66068" lon="1.39199">
        <ele>126</ele>
        <time>2025-05-23T10:09:29Z</time>
      </trkpt>
      <trkpt lat="43.66071" lon="1.39199">
        <ele>125</ele>
        <time>2025-05-23T10:09:30Z</time>
      </trkpt>
      <trkpt lat="43.66073" lon="1.39199">
        <ele>125</ele>
        <time>2025-05-23T10:09:31Z</time>
      </trkpt>
      <trkpt lat="43.66075" lon="1.39197">
        <ele>125</ele>
        <time>2025-05-23T10:09:32Z</time>
      </trkpt>
      <trkpt lat="43.66078" lon="1.39196">
        <ele>125</ele>
        <time>2025-05-23T10:09:33Z</time>
      </trkpt>
      <trkpt lat="43.6608" lon="1.39194">
        <ele>125</ele>
        <time>2025-05-23T10:09:34Z</time>
      </trkpt>
      <trkpt lat="43.66083" lon="1.39192">
        <ele>125</ele>
        <time>2025-05-23T10:09:35Z</time>
      </trkpt>
      <trkpt lat="43.66086" lon="1.3919">
        <ele>125</ele>
        <time>2025-05-23T10:09:36Z</time>
      </trkpt>
      <trkpt lat="43.6609" lon="1.39187">
        <ele>125</ele>
        <time>2025-05-23T10:09:37Z</time>
      </trkpt>
      <trkpt lat="43.66093" lon="1.39185">
        <ele>125</ele>
        <time>2025-05-23T10:09:38Z</time>
      </trkpt>
      <trkpt lat="43.66096" lon="1.39184">
        <ele>125</ele>
        <time>2025-05-23T10:09:39Z</time>
      </trkpt>
      <trkpt lat="43.66098" lon="1.39183">
        <ele>126</ele>
        <time>2025-05-23T10:09:40Z</time>
      </trkpt>
      <trkpt lat="43.66101" lon="1.39183">
        <ele>126</ele>
        <time>2025-05-23T10:09:41Z</time>
      </trkpt>
      <trkpt lat="43.66104" lon="1.39182">
        <ele>126</ele>
        <time>2025-05-23T10:09:42Z</time>
      </trkpt>
      <trkpt lat="43.66106" lon="1.39181">
        <ele>126</ele>
        <time>2025-05-23T10:09:43Z</time>
      </trkpt>
      <trkpt lat="43.66108" lon="1.3918">
        <ele>126</ele>
        <time>2025-05-23T10:09:44Z</time>
      </trkpt>
      <trkpt lat="43.66111" lon="1.39179">
        <ele>126</ele>
        <time>2025-05-23T10:09:45Z</time>
      </trkpt>
      <trkpt lat="43.66113" lon="1.39178">
        <ele>126</ele>
        <time>2025-05-23T10:09:46Z</time>
      </trkpt>
      <trkpt lat="43.66116" lon="1.39178">
        <ele>126</ele>
        <time>2025-05-23T10:09:47Z</time>
      </trkpt>
      <trkpt lat="43.66119" lon="1.39177">
        <ele>126</ele>
        <time>2025-05-23T10:09:48Z</time>
      </trkpt>
      <trkpt lat="43.66122" lon="1.39177">
        <ele>125</ele>
        <time>2025-05-23T10:09:49Z</time>
      </trkpt>
      <trkpt lat="43.66125" lon="1.39176">
        <ele>125</ele>
        <time>2025-05-23T10:09:50Z</time>
      </trkpt>
      <trkpt lat="43.66128" lon="1.39175">
        <ele>125</ele>
        <time>2025-05-23T10:09:51Z</time>
      </trkpt>
      <trkpt lat="43.66131" lon="1.39174">
        <ele>126</ele>
        <time>2025-05-23T10:09:52Z</time>
      </trkpt>
      <trkpt lat="43.66134" lon="1.39173">
        <ele>126</ele>
        <time>2025-05-23T10:09:53Z</time>
      </trkpt>
      <trkpt lat="43.66136" lon="1.39172">
        <ele>126</ele>
        <time>2025-05-23T10:09:54Z</time>
      </trkpt>
      <trkpt lat="43.66139" lon="1.39171">
        <ele>126</ele>
        <time>2025-05-23T10:09:55Z</time>
      </trkpt>
      <trkpt lat="43.66141" lon="1.39171">
        <ele>126</ele>
        <time>2025-05-23T10:09:56Z</time>
      </trkpt>
      <trkpt lat="43.66143" lon="1.3917">
        <ele>126</ele>
        <time>2025-05-23T10:09:57Z</time>
      </trkpt>
      <trkpt lat="43.66146" lon="1.39169">
        <ele>125</ele>
        <time>2025-05-23T10:09:58Z</time>
      </trkpt>
      <trkpt lat="43.66148" lon="1.39167">
        <ele>125</ele>
        <time>2025-05-23T10:09:59Z</time>
      </trkpt>
      <trkpt lat="43.66151" lon="1.39166">
        <ele>125</ele>
        <time>2025-05-23T10:10:00Z</time>
      </trkpt>
      <trkpt lat="43.66154" lon="1.39165">
        <ele>125</ele>
        <time>2025-05-23T10:10:01Z</time>
      </trkpt>
      <trkpt lat="43.66157" lon="1.39163">
        <ele>125</ele>
        <time>2025-05-23T10:10:02Z</time>
      </trkpt>
      <trkpt lat="43.66159" lon="1.39162">
        <ele>126</ele>
        <time>2025-05-23T10:10:03Z</time>
      </trkpt>
      <trkpt lat="43.66162" lon="1.3916">
        <ele>126</ele>
        <time>2025-05-23T10:10:04Z</time>
      </trkpt>
      <trkpt lat="43.66165" lon="1.39159">
        <ele>125</ele>
        <time>2025-05-23T10:10:05Z</time>
      </trkpt>
      <trkpt lat="43.66168" lon="1.39157">
        <ele>125</ele>
        <time>2025-05-23T10:10:06Z</time>
      </trkpt>
      <trkpt lat="43.6617" lon="1.39155">
        <ele>125</ele>
        <time>2025-05-23T10:10:07Z</time>
      </trkpt>
      <trkpt lat="43.66173" lon="1.39153">
        <ele>125</ele>
        <time>2025-05-23T10:10:08Z</time>
      </trkpt>
      <trkpt lat="43.66175" lon="1.39151">
        <ele>125</ele>
        <time>2025-05-23T10:10:09Z</time>
      </trkpt>
      <trkpt lat="43.66177" lon="1.39149">
        <ele>125</ele>
        <time>2025-05-23T10:10:10Z</time>
      </trkpt>
      <trkpt lat="43.6618" lon="1.39147">
        <ele>125</ele>
        <time>2025-05-23T10:10:11Z</time>
      </trkpt>
      <trkpt lat="43.66182" lon="1.39145">
        <ele>126</ele>
        <time>2025-05-23T10:10:12Z</time>
      </trkpt>
      <trkpt lat="43.66185" lon="1.39143">
        <ele>126</ele>
        <time>2025-05-23T10:10:13Z</time>
      </trkpt>
      <trkpt lat="43.66188" lon="1.3914">
        <ele>125</ele>
        <time>2025-05-23T10:10:14Z</time>
      </trkpt>
      <trkpt lat="43.66191" lon="1.39138">
        <ele>125</ele>
        <time>2025-05-23T10:10:15Z</time>
      </trkpt>
      <trkpt lat="43.66194" lon="1.39136">
        <ele>125</ele>
        <time>2025-05-23T10:10:16Z</time>
      </trkpt>
      <trkpt lat="43.66196" lon="1.39134">
        <ele>125</ele>
        <time>2025-05-23T10:10:17Z</time>
      </trkpt>
      <trkpt lat="43.66199" lon="1.39131">
        <ele>125</ele>
        <time>2025-05-23T10:10:18Z</time>
      </trkpt>
      <trkpt lat="43.66202" lon="1.39129">
        <ele>125</ele>
        <time>2025-05-23T10:10:19Z</time>
      </trkpt>
      <trkpt lat="43.66204" lon="1.39128">
        <ele>125</ele>
        <time>2025-05-23T10:10:20Z</time>
      </trkpt>
      <trkpt lat="43.66204" lon="1.39128">
        <ele>125</ele>
        <time>2025-05-23T10:10:21Z</time>
      </trkpt>
      <trkpt lat="43.66211" lon="1.39131">
        <ele>125</ele>
        <time>2025-05-23T10:10:22Z</time>
      </trkpt>
      <trkpt lat="43.66212" lon="1.39132">
        <ele>125</ele>
        <time>2025-05-23T10:10:23Z</time>
      </trkpt>
      <trkpt lat="43.66212" lon="1.39132">
        <ele>125</ele>
        <time>2025-05-23T10:10:24Z</time>
      </trkpt>
      <trkpt lat="43.66215" lon="1.39134">
        <ele>125</ele>
        <time>2025-05-23T10:10:25Z</time>
      </trkpt>
      <trkpt lat="43.66218" lon="1.39137">
        <ele>125</ele>
        <time>2025-05-23T10:10:26Z</time>
      </trkpt>
      <trkpt lat="43.66221" lon="1.3914">
        <ele>125</ele>
        <time>2025-05-23T10:10:27Z</time>
      </trkpt>
      <trkpt lat="43.66223" lon="1.39143">
        <ele>125</ele>
        <time>2025-05-23T10:10:28Z</time>
      </trkpt>
      <trkpt lat="43.66225" lon="1.39146">
        <ele>125</ele>
        <time>2025-05-23T10:10:29Z</time>
      </trkpt>
      <trkpt lat="43.66228" lon="1.39149">
        <ele>125</ele>
        <time>2025-05-23T10:10:30Z</time>
      </trkpt>
      <trkpt lat="43.6623" lon="1.39151">
        <ele>125</ele>
        <time>2025-05-23T10:10:31Z</time>
      </trkpt>
      <trkpt lat="43.66232" lon="1.39154">
        <ele>125</ele>
        <time>2025-05-23T10:10:32Z</time>
      </trkpt>
      <trkpt lat="43.66234" lon="1.39157">
        <ele>125</ele>
        <time>2025-05-23T10:10:33Z</time>
      </trkpt>
      <trkpt lat="43.66236" lon="1.3916">
        <ele>125</ele>
        <time>2025-05-23T10:10:34Z</time>
      </trkpt>
      <trkpt lat="43.66239" lon="1.3916">
        <ele>125</ele>
        <time>2025-05-23T10:10:35Z</time>
      </trkpt>
      <trkpt lat="43.66242" lon="1.3916">
        <ele>125</ele>
        <time>2025-05-23T10:10:36Z</time>
      </trkpt>
      <trkpt lat="43.66244" lon="1.3916">
        <ele>125</ele>
        <time>2025-05-23T10:10:37Z</time>
      </trkpt>
      <trkpt lat="43.66247" lon="1.39159">
        <ele>125</ele>
        <time>2025-05-23T10:10:38Z</time>
      </trkpt>
      <trkpt lat="43.66248" lon="1.39157">
        <ele>125</ele>
        <time>2025-05-23T10:10:39Z</time>
      </trkpt>
      <trkpt lat="43.66249" lon="1.39153">
        <ele>125</ele>
        <time>2025-05-23T10:10:40Z</time>
      </trkpt>
      <trkpt lat="43.6625" lon="1.3915">
        <ele>125</ele>
        <time>2025-05-23T10:10:41Z</time>
      </trkpt>
      <trkpt lat="43.66251" lon="1.39146">
        <ele>125</ele>
        <time>2025-05-23T10:10:42Z</time>
      </trkpt>
      <trkpt lat="43.66251" lon="1.39143">
        <ele>125</ele>
        <time>2025-05-23T10:10:43Z</time>
      </trkpt>
      <trkpt lat="43.66251" lon="1.39141">
        <ele>125</ele>
        <time>2025-05-23T10:10:44Z</time>
      </trkpt>
      <trkpt lat="43.66251" lon="1.39138">
        <ele>125</ele>
        <time>2025-05-23T10:10:45Z</time>
      </trkpt>
      <trkpt lat="43.66251" lon="1.39134">
        <ele>125</ele>
        <time>2025-05-23T10:10:46Z</time>
      </trkpt>
      <trkpt lat="43.6625" lon="1.39131">
        <ele>125</ele>
        <time>2025-05-23T10:10:47Z</time>
      </trkpt>
      <trkpt lat="43.6625" lon="1.39127">
        <ele>125</ele>
        <time>2025-05-23T10:10:48Z</time>
      </trkpt>
      <trkpt lat="43.6625" lon="1.39123">
        <ele>125</ele>
        <time>2025-05-23T10:10:49Z</time>
      </trkpt>
      <trkpt lat="43.6625" lon="1.39119">
        <ele>125</ele>
        <time>2025-05-23T10:10:50Z</time>
      </trkpt>
      <trkpt lat="43.6625" lon="1.39114">
        <ele>125</ele>
        <time>2025-05-23T10:10:51Z</time>
      </trkpt>
      <trkpt lat="43.66251" lon="1.3911">
        <ele>125</ele>
        <time>2025-05-23T10:10:52Z</time>
      </trkpt>
      <trkpt lat="43.66252" lon="1.39106">
        <ele>125</ele>
        <time>2025-05-23T10:10:53Z</time>
      </trkpt>
      <trkpt lat="43.66253" lon="1.39103">
        <ele>125</ele>
        <time>2025-05-23T10:10:54Z</time>
      </trkpt>
      <trkpt lat="43.66255" lon="1.39101">
        <ele>124</ele>
        <time>2025-05-23T10:10:55Z</time>
      </trkpt>
      <trkpt lat="43.66256" lon="1.39098">
        <ele>124</ele>
        <time>2025-05-23T10:10:56Z</time>
      </trkpt>
      <trkpt lat="43.66257" lon="1.39095">
        <ele>124</ele>
        <time>2025-05-23T10:10:57Z</time>
      </trkpt>
      <trkpt lat="43.66259" lon="1.39092">
        <ele>124</ele>
        <time>2025-05-23T10:10:58Z</time>
      </trkpt>
      <trkpt lat="43.6626" lon="1.39089">
        <ele>124</ele>
        <time>2025-05-23T10:10:59Z</time>
      </trkpt>
      <trkpt lat="43.66261" lon="1.39086">
        <ele>124</ele>
        <time>2025-05-23T10:11:00Z</time>
      </trkpt>
      <trkpt lat="43.66263" lon="1.39082">
        <ele>124</ele>
        <time>2025-05-23T10:11:01Z</time>
      </trkpt>
      <trkpt lat="43.66264" lon="1.39079">
        <ele>124</ele>
        <time>2025-05-23T10:11:02Z</time>
      </trkpt>
      <trkpt lat="43.66265" lon="1.39075">
        <ele>124</ele>
        <time>2025-05-23T10:11:03Z</time>
      </trkpt>
      <trkpt lat="43.66266" lon="1.39071">
        <ele>123</ele>
        <time>2025-05-23T10:11:04Z</time>
      </trkpt>
      <trkpt lat="43.66267" lon="1.39068">
        <ele>123</ele>
        <time>2025-05-23T10:11:05Z</time>
      </trkpt>
      <trkpt lat="43.66267" lon="1.39065">
        <ele>124</ele>
        <time>2025-05-23T10:11:06Z</time>
      </trkpt>
      <trkpt lat="43.66268" lon="1.39061">
        <ele>124</ele>
        <time>2025-05-23T10:11:07Z</time>
      </trkpt>
      <trkpt lat="43.66267" lon="1.39057">
        <ele>123</ele>
        <time>2025-05-23T10:11:08Z</time>
      </trkpt>
      <trkpt lat="43.66267" lon="1.39054">
        <ele>123</ele>
        <time>2025-05-23T10:11:09Z</time>
      </trkpt>
      <trkpt lat="43.66267" lon="1.39049">
        <ele>123</ele>
        <time>2025-05-23T10:11:10Z</time>
      </trkpt>
      <trkpt lat="43.66268" lon="1.39045">
        <ele>123</ele>
        <time>2025-05-23T10:11:11Z</time>
      </trkpt>
      <trkpt lat="43.66269" lon="1.39042">
        <ele>123</ele>
        <time>2025-05-23T10:11:12Z</time>
      </trkpt>
      <trkpt lat="43.66269" lon="1.39038">
        <ele>123</ele>
        <time>2025-05-23T10:11:13Z</time>
      </trkpt>
      <trkpt lat="43.6627" lon="1.39035">
        <ele>123</ele>
        <time>2025-05-23T10:11:14Z</time>
      </trkpt>
      <trkpt lat="43.66271" lon="1.39032">
        <ele>123</ele>
        <time>2025-05-23T10:11:15Z</time>
      </trkpt>
      <trkpt lat="43.66273" lon="1.39029">
        <ele>124</ele>
        <time>2025-05-23T10:11:16Z</time>
      </trkpt>
      <trkpt lat="43.66274" lon="1.39025">
        <ele>123</ele>
        <time>2025-05-23T10:11:17Z</time>
      </trkpt>
      <trkpt lat="43.66276" lon="1.3902">
        <ele>123</ele>
        <time>2025-05-23T10:11:18Z</time>
      </trkpt>
      <trkpt lat="43.66277" lon="1.39017">
        <ele>123</ele>
        <time>2025-05-23T10:11:19Z</time>
      </trkpt>
      <trkpt lat="43.66279" lon="1.39014">
        <ele>123</ele>
        <time>2025-05-23T10:11:20Z</time>
      </trkpt>
      <trkpt lat="43.6628" lon="1.39011">
        <ele>123</ele>
        <time>2025-05-23T10:11:21Z</time>
      </trkpt>
      <trkpt lat="43.66281" lon="1.39008">
        <ele>123</ele>
        <time>2025-05-23T10:11:22Z</time>
      </trkpt>
      <trkpt lat="43.66283" lon="1.39005">
        <ele>123</ele>
        <time>2025-05-23T10:11:23Z</time>
      </trkpt>
      <trkpt lat="43.66284" lon="1.39002">
        <ele>123</ele>
        <time>2025-05-23T10:11:24Z</time>
      </trkpt>
      <trkpt lat="43.66285" lon="1.38998">
        <ele>123</ele>
        <time>2025-05-23T10:11:25Z</time>
      </trkpt>
      <trkpt lat="43.66287" lon="1.38995">
        <ele>123</ele>
        <time>2025-05-23T10:11:26Z</time>
      </trkpt>
      <trkpt lat="43.66289" lon="1.38993">
        <ele>123</ele>
        <time>2025-05-23T10:11:27Z</time>
      </trkpt>
      <trkpt lat="43.66291" lon="1.3899">
        <ele>123</ele>
        <time>2025-05-23T10:11:28Z</time>
      </trkpt>
      <trkpt lat="43.66291" lon="1.3899">
        <ele>123</ele>
        <time>2025-05-23T10:11:29Z</time>
      </trkpt>
      <trkpt lat="43.66293" lon="1.38988">
        <ele>123</ele>
        <time>2025-05-23T10:11:30Z</time>
      </trkpt>
      <trkpt lat="43.66295" lon="1.38985">
        <ele>123</ele>
        <time>2025-05-23T10:11:31Z</time>
      </trkpt>
      <trkpt lat="43.66297" lon="1.38983">
        <ele>123</ele>
        <time>2025-05-23T10:11:32Z</time>
      </trkpt>
      <trkpt lat="43.66299" lon="1.3898">
        <ele>123</ele>
        <time>2025-05-23T10:11:33Z</time>
      </trkpt>
      <trkpt lat="43.66301" lon="1.38976">
        <ele>123</ele>
        <time>2025-05-23T10:11:34Z</time>
      </trkpt>
      <trkpt lat="43.66303" lon="1.38972">
        <ele>123</ele>
        <time>2025-05-23T10:11:35Z</time>
      </trkpt>
      <trkpt lat="43.66305" lon="1.38968">
        <ele>123</ele>
        <time>2025-05-23T10:11:36Z</time>
      </trkpt>
      <trkpt lat="43.66306" lon="1.38964">
        <ele>123</ele>
        <time>2025-05-23T10:11:37Z</time>
      </trkpt>
      <trkpt lat="43.66308" lon="1.3896">
        <ele>123</ele>
        <time>2025-05-23T10:11:38Z</time>
      </trkpt>
      <trkpt lat="43.6631" lon="1.38956">
        <ele>124</ele>
        <time>2025-05-23T10:11:39Z</time>
      </trkpt>
      <trkpt lat="43.66312" lon="1.38955">
        <ele>124</ele>
        <time>2025-05-23T10:11:40Z</time>
      </trkpt>
      <trkpt lat="43.66315" lon="1.38954">
        <ele>124</ele>
        <time>2025-05-23T10:11:41Z</time>
      </trkpt>
      <trkpt lat="43.66317" lon="1.38952">
        <ele>124</ele>
        <time>2025-05-23T10:11:42Z</time>
      </trkpt>
      <trkpt lat="43.66317" lon="1.38952">
        <ele>123</ele>
        <time>2025-05-23T10:11:43Z</time>
      </trkpt>
      <trkpt lat="43.66322" lon="1.38945">
        <ele>123</ele>
        <time>2025-05-23T10:11:44Z</time>
      </trkpt>
      <trkpt lat="43.66323" lon="1.38943">
        <ele>123</ele>
        <time>2025-05-23T10:11:45Z</time>
      </trkpt>
      <trkpt lat="43.66324" lon="1.3894">
        <ele>123</ele>
        <time>2025-05-23T10:11:46Z</time>
      </trkpt>
      <trkpt lat="43.66325" lon="1.38937">
        <ele>123</ele>
        <time>2025-05-23T10:11:47Z</time>
      </trkpt>
      <trkpt lat="43.66328" lon="1.38934">
        <ele>123</ele>
        <time>2025-05-23T10:11:48Z</time>
      </trkpt>
      <trkpt lat="43.66329" lon="1.38932">
        <ele>123</ele>
        <time>2025-05-23T10:11:49Z</time>
      </trkpt>
      <trkpt lat="43.66331" lon="1.38929">
        <ele>123</ele>
        <time>2025-05-23T10:11:50Z</time>
      </trkpt>
      <trkpt lat="43.66334" lon="1.38926">
        <ele>124</ele>
        <time>2025-05-23T10:11:51Z</time>
      </trkpt>
      <trkpt lat="43.66335" lon="1.38923">
        <ele>124</ele>
        <time>2025-05-23T10:11:52Z</time>
      </trkpt>
      <trkpt lat="43.66337" lon="1.38918">
        <ele>124</ele>
        <time>2025-05-23T10:11:53Z</time>
      </trkpt>
      <trkpt lat="43.66339" lon="1.38914">
        <ele>124</ele>
        <time>2025-05-23T10:11:54Z</time>
      </trkpt>
      <trkpt lat="43.66341" lon="1.38911">
        <ele>123</ele>
        <time>2025-05-23T10:11:55Z</time>
      </trkpt>
      <trkpt lat="43.66343" lon="1.38909">
        <ele>123</ele>
        <time>2025-05-23T10:11:56Z</time>
      </trkpt>
      <trkpt lat="43.66345" lon="1.38907">
        <ele>123</ele>
        <time>2025-05-23T10:11:57Z</time>
      </trkpt>
      <trkpt lat="43.66347" lon="1.38904">
        <ele>123</ele>
        <time>2025-05-23T10:11:58Z</time>
      </trkpt>
      <trkpt lat="43.66349" lon="1.38902">
        <ele>123</ele>
        <time>2025-05-23T10:11:59Z</time>
      </trkpt>
      <trkpt lat="43.66351" lon="1.38899">
        <ele>123</ele>
        <time>2025-05-23T10:12:00Z</time>
      </trkpt>
      <trkpt lat="43.66353" lon="1.38896">
        <ele>123</ele>
        <time>2025-05-23T10:12:01Z</time>
      </trkpt>
      <trkpt lat="43.66355" lon="1.38894">
        <ele>123</ele>
        <time>2025-05-23T10:12:02Z</time>
      </trkpt>
      <trkpt lat="43.66357" lon="1.3889">
        <ele>123</ele>
        <time>2025-05-23T10:12:03Z</time>
      </trkpt>
      <trkpt lat="43.66359" lon="1.38887">
        <ele>123</ele>
        <time>2025-05-23T10:12:04Z</time>
      </trkpt>
      <trkpt lat="43.66361" lon="1.38886">
        <ele>123</ele>
        <time>2025-05-23T10:12:05Z</time>
      </trkpt>
      <trkpt lat="43.66363" lon="1.38883">
        <ele>123</ele>
        <time>2025-05-23T10:12:06Z</time>
      </trkpt>
      <trkpt lat="43.66364" lon="1.38881">
        <ele>122</ele>
        <time>2025-05-23T10:12:07Z</time>
      </trkpt>
      <trkpt lat="43.66366" lon="1.38878">
        <ele>122</ele>
        <time>2025-05-23T10:12:08Z</time>
      </trkpt>
      <trkpt lat="43.66367" lon="1.38875">
        <ele>122</ele>
        <time>2025-05-23T10:12:09Z</time>
      </trkpt>
      <trkpt lat="43.66369" lon="1.38872">
        <ele>122</ele>
        <time>2025-05-23T10:12:10Z</time>
      </trkpt>
      <trkpt lat="43.6637" lon="1.3887">
        <ele>122</ele>
        <time>2025-05-23T10:12:11Z</time>
      </trkpt>
      <trkpt lat="43.6637" lon="1.3887">
        <ele>122</ele>
        <time>2025-05-23T10:12:12Z</time>
      </trkpt>
      <trkpt lat="43.66376" lon="1.38863">
        <ele>122</ele>
        <time>2025-05-23T10:12:13Z</time>
      </trkpt>
      <trkpt lat="43.66378" lon="1.38861">
        <ele>122</ele>
        <time>2025-05-23T10:12:14Z</time>
      </trkpt>
      <trkpt lat="43.6638" lon="1.38858">
        <ele>122</ele>
        <time>2025-05-23T10:12:15Z</time>
      </trkpt>
      <trkpt lat="43.66381" lon="1.38855">
        <ele>122</ele>
        <time>2025-05-23T10:12:16Z</time>
      </trkpt>
      <trkpt lat="43.66381" lon="1.38855">
        <ele>122</ele>
        <time>2025-05-23T10:12:17Z</time>
      </trkpt>
      <trkpt lat="43.66384" lon="1.38852">
        <ele>122</ele>
        <time>2025-05-23T10:12:18Z</time>
      </trkpt>
      <trkpt lat="43.66387" lon="1.38849">
        <ele>122</ele>
        <time>2025-05-23T10:12:19Z</time>
      </trkpt>
      <trkpt lat="43.6639" lon="1.38846">
        <ele>122</ele>
        <time>2025-05-23T10:12:20Z</time>
      </trkpt>
      <trkpt lat="43.66393" lon="1.38843">
        <ele>122</ele>
        <time>2025-05-23T10:12:21Z</time>
      </trkpt>
      <trkpt lat="43.66395" lon="1.3884">
        <ele>122</ele>
        <time>2025-05-23T10:12:22Z</time>
      </trkpt>
      <trkpt lat="43.66398" lon="1.38838">
        <ele>122</ele>
        <time>2025-05-23T10:12:23Z</time>
      </trkpt>
      <trkpt lat="43.66398" lon="1.38838">
        <ele>122</ele>
        <time>2025-05-23T10:12:24Z</time>
      </trkpt>
      <trkpt lat="43.66404" lon="1.38833">
        <ele>122</ele>
        <time>2025-05-23T10:12:25Z</time>
      </trkpt>
      <trkpt lat="43.66405" lon="1.38832">
        <ele>122</ele>
        <time>2025-05-23T10:12:26Z</time>
      </trkpt>
      <trkpt lat="43.66408" lon="1.3883">
        <ele>123</ele>
        <time>2025-05-23T10:12:27Z</time>
      </trkpt>
      <trkpt lat="43.6641" lon="1.3883">
        <ele>123</ele>
        <time>2025-05-23T10:12:28Z</time>
      </trkpt>
      <trkpt lat="43.66413" lon="1.38828">
        <ele>123</ele>
        <time>2025-05-23T10:12:29Z</time>
      </trkpt>
      <trkpt lat="43.66414" lon="1.38826">
        <ele>123</ele>
        <time>2025-05-23T10:12:30Z</time>
      </trkpt>
      <trkpt lat="43.66417" lon="1.38824">
        <ele>123</ele>
        <time>2025-05-23T10:12:31Z</time>
      </trkpt>
      <trkpt lat="43.66419" lon="1.38822">
        <ele>123</ele>
        <time>2025-05-23T10:12:32Z</time>
      </trkpt>
      <trkpt lat="43.66421" lon="1.3882">
        <ele>123</ele>
        <time>2025-05-23T10:12:33Z</time>
      </trkpt>
      <trkpt lat="43.66424" lon="1.38817">
        <ele>123</ele>
        <time>2025-05-23T10:12:34Z</time>
      </trkpt>
      <trkpt lat="43.66424" lon="1.38817">
        <ele>123</ele>
        <time>2025-05-23T10:12:35Z</time>
      </trkpt>
      <trkpt lat="43.66426" lon="1.38816">
        <ele>123</ele>
        <time>2025-05-23T10:12:36Z</time>
      </trkpt>
      <trkpt lat="43.66428" lon="1.38814">
        <ele>123</ele>
        <time>2025-05-23T10:12:37Z</time>
      </trkpt>
      <trkpt lat="43.6643" lon="1.38813">
        <ele>123</ele>
        <time>2025-05-23T10:12:38Z</time>
      </trkpt>
      <trkpt lat="43.66432" lon="1.38811">
        <ele>123</ele>
        <time>2025-05-23T10:12:39Z</time>
      </trkpt>
      <trkpt lat="43.66435" lon="1.38809">
        <ele>123</ele>
        <time>2025-05-23T10:12:40Z</time>
      </trkpt>
      <trkpt lat="43.66438" lon="1.38807">
        <ele>123</ele>
        <time>2025-05-23T10:12:41Z</time>
      </trkpt>
      <trkpt lat="43.66441" lon="1.38805">
        <ele>123</ele>
        <time>2025-05-23T10:12:42Z</time>
      </trkpt>
      <trkpt lat="43.66444" lon="1.38803">
        <ele>123</ele>
        <time>2025-05-23T10:12:43Z</time>
      </trkpt>
      <trkpt lat="43.66446" lon="1.38801">
        <ele>123</ele>
        <time>2025-05-23T10:12:44Z</time>
      </trkpt>
      <trkpt lat="43.66448" lon="1.38799">
        <ele>123</ele>
        <time>2025-05-23T10:12:45Z</time>
      </trkpt>
      <trkpt lat="43.6645" lon="1.38797">
        <ele>123</ele>
        <time>2025-05-23T10:12:46Z</time>
      </trkpt>
      <trkpt lat="43.6645" lon="1.38797">
        <ele>123</ele>
        <time>2025-05-23T10:12:47Z</time>
      </trkpt>
      <trkpt lat="43.66455" lon="1.38793">
        <ele>124</ele>
        <time>2025-05-23T10:12:48Z</time>
      </trkpt>
      <trkpt lat="43.66456" lon="1.38792">
        <ele>124</ele>
        <time>2025-05-23T10:12:49Z</time>
      </trkpt>
      <trkpt lat="43.66458" lon="1.3879">
        <ele>124</ele>
        <time>2025-05-23T10:12:50Z</time>
      </trkpt>
      <trkpt lat="43.6646" lon="1.38788">
        <ele>124</ele>
        <time>2025-05-23T10:12:51Z</time>
      </trkpt>
      <trkpt lat="43.66462" lon="1.38786">
        <ele>124</ele>
        <time>2025-05-23T10:12:52Z</time>
      </trkpt>
      <trkpt lat="43.66464" lon="1.38785">
        <ele>124</ele>
        <time>2025-05-23T10:12:53Z</time>
      </trkpt>
      <trkpt lat="43.66466" lon="1.38783">
        <ele>124</ele>
        <time>2025-05-23T10:12:54Z</time>
      </trkpt>
      <trkpt lat="43.66468" lon="1.38782">
        <ele>124</ele>
        <time>2025-05-23T10:12:55Z</time>
      </trkpt>
      <trkpt lat="43.6647" lon="1.38779">
        <ele>123</ele>
        <time>2025-05-23T10:12:56Z</time>
      </trkpt>
      <trkpt lat="43.66472" lon="1.38777">
        <ele>123</ele>
        <time>2025-05-23T10:12:57Z</time>
      </trkpt>
      <trkpt lat="43.66472" lon="1.38777">
        <ele>123</ele>
        <time>2025-05-23T10:12:58Z</time>
      </trkpt>
      <trkpt lat="43.66479" lon="1.38771">
        <ele>123</ele>
        <time>2025-05-23T10:12:59Z</time>
      </trkpt>
      <trkpt lat="43.66481" lon="1.38769">
        <ele>123</ele>
        <time>2025-05-23T10:13:00Z</time>
      </trkpt>
      <trkpt lat="43.66484" lon="1.38767">
        <ele>123</ele>
        <time>2025-05-23T10:13:01Z</time>
      </trkpt>
      <trkpt lat="43.66487" lon="1.38764">
        <ele>123</ele>
        <time>2025-05-23T10:13:02Z</time>
      </trkpt>
      <trkpt lat="43.6649" lon="1.38762">
        <ele>123</ele>
        <time>2025-05-23T10:13:03Z</time>
      </trkpt>
      <trkpt lat="43.6649" lon="1.38762">
        <ele>123</ele>
        <time>2025-05-23T10:13:04Z</time>
      </trkpt>
      <trkpt lat="43.66492" lon="1.38759">
        <ele>123</ele>
        <time>2025-05-23T10:13:05Z</time>
      </trkpt>
      <trkpt lat="43.66494" lon="1.38756">
        <ele>123</ele>
        <time>2025-05-23T10:13:06Z</time>
      </trkpt>
      <trkpt lat="43.66496" lon="1.38753">
        <ele>123</ele>
        <time>2025-05-23T10:13:07Z</time>
      </trkpt>
      <trkpt lat="43.66503" lon="1.38747">
        <ele>123</ele>
        <time>2025-05-23T10:13:08Z</time>
      </trkpt>
      <trkpt lat="43.66504" lon="1.38745">
        <ele>123</ele>
        <time>2025-05-23T10:13:09Z</time>
      </trkpt>
      <trkpt lat="43.66506" lon="1.38743">
        <ele>123</ele>
        <time>2025-05-23T10:13:10Z</time>
      </trkpt>
      <trkpt lat="43.66508" lon="1.38741">
        <ele>122</ele>
        <time>2025-05-23T10:13:11Z</time>
      </trkpt>
      <trkpt lat="43.6651" lon="1.38739">
        <ele>122</ele>
        <time>2025-05-23T10:13:12Z</time>
      </trkpt>
      <trkpt lat="43.66513" lon="1.38737">
        <ele>122</ele>
        <time>2025-05-23T10:13:13Z</time>
      </trkpt>
      <trkpt lat="43.66515" lon="1.38735">
        <ele>122</ele>
        <time>2025-05-23T10:13:14Z</time>
      </trkpt>
      <trkpt lat="43.66518" lon="1.38733">
        <ele>123</ele>
        <time>2025-05-23T10:13:15Z</time>
      </trkpt>
      <trkpt lat="43.6652" lon="1.3873">
        <ele>123</ele>
        <time>2025-05-23T10:13:16Z</time>
      </trkpt>
      <trkpt lat="43.66522" lon="1.38727">
        <ele>123</ele>
        <time>2025-05-23T10:13:17Z</time>
      </trkpt>
      <trkpt lat="43.66524" lon="1.38725">
        <ele>123</ele>
        <time>2025-05-23T10:13:18Z</time>
      </trkpt>
      <trkpt lat="43.66526" lon="1.38723">
        <ele>123</ele>
        <time>2025-05-23T10:13:19Z</time>
      </trkpt>
      <trkpt lat="43.66529" lon="1.38721">
        <ele>123</ele>
        <time>2025-05-23T10:13:20Z</time>
      </trkpt>
      <trkpt lat="43.66532" lon="1.38718">
        <ele>123</ele>
        <time>2025-05-23T10:13:21Z</time>
      </trkpt>
      <trkpt lat="43.66534" lon="1.38716">
        <ele>123</ele>
        <time>2025-05-23T10:13:22Z</time>
      </trkpt>
      <trkpt lat="43.66536" lon="1.38715">
        <ele>123</ele>
        <time>2025-05-23T10:13:23Z</time>
      </trkpt>
      <trkpt lat="43.66539" lon="1.38713">
        <ele>122</ele>
        <time>2025-05-23T10:13:24Z</time>
      </trkpt>
      <trkpt lat="43.66542" lon="1.38713">
        <ele>123</ele>
        <time>2025-05-23T10:13:25Z</time>
      </trkpt>
      <trkpt lat="43.66545" lon="1.38714">
        <ele>123</ele>
        <time>2025-05-23T10:13:26Z</time>
      </trkpt>
      <trkpt lat="43.66548" lon="1.38714">
        <ele>123</ele>
        <time>2025-05-23T10:13:27Z</time>
      </trkpt>
      <trkpt lat="43.66551" lon="1.38716">
        <ele>123</ele>
        <time>2025-05-23T10:13:28Z</time>
      </trkpt>
      <trkpt lat="43.66555" lon="1.38717">
        <ele>123</ele>
        <time>2025-05-23T10:13:29Z</time>
      </trkpt>
      <trkpt lat="43.66555" lon="1.38717">
        <ele>122</ele>
        <time>2025-05-23T10:13:30Z</time>
      </trkpt>
      <trkpt lat="43.66559" lon="1.38721">
        <ele>122</ele>
        <time>2025-05-23T10:13:31Z</time>
      </trkpt>
      <trkpt lat="43.66563" lon="1.38725">
        <ele>122</ele>
        <time>2025-05-23T10:13:32Z</time>
      </trkpt>
      <trkpt lat="43.66567" lon="1.3873">
        <ele>122</ele>
        <time>2025-05-23T10:13:33Z</time>
      </trkpt>
      <trkpt lat="43.66571" lon="1.38735">
        <ele>122</ele>
        <time>2025-05-23T10:13:34Z</time>
      </trkpt>
      <trkpt lat="43.66572" lon="1.38737">
        <ele>122</ele>
        <time>2025-05-23T10:13:35Z</time>
      </trkpt>
      <trkpt lat="43.66574" lon="1.3874">
        <ele>122</ele>
        <time>2025-05-23T10:13:36Z</time>
      </trkpt>
      <trkpt lat="43.66577" lon="1.38743">
        <ele>122</ele>
        <time>2025-05-23T10:13:37Z</time>
      </trkpt>
      <trkpt lat="43.66579" lon="1.38746">
        <ele>122</ele>
        <time>2025-05-23T10:13:38Z</time>
      </trkpt>
      <trkpt lat="43.66582" lon="1.38749">
        <ele>122</ele>
        <time>2025-05-23T10:13:39Z</time>
      </trkpt>
      <trkpt lat="43.66583" lon="1.38752">
        <ele>122</ele>
        <time>2025-05-23T10:13:40Z</time>
      </trkpt>
      <trkpt lat="43.66585" lon="1.38755">
        <ele>122</ele>
        <time>2025-05-23T10:13:41Z</time>
      </trkpt>
      <trkpt lat="43.66587" lon="1.38758">
        <ele>122</ele>
        <time>2025-05-23T10:13:42Z</time>
      </trkpt>
      <trkpt lat="43.66589" lon="1.3876">
        <ele>122</ele>
        <time>2025-05-23T10:13:43Z</time>
      </trkpt>
      <trkpt lat="43.66591" lon="1.38763">
        <ele>123</ele>
        <time>2025-05-23T10:13:44Z</time>
      </trkpt>
      <trkpt lat="43.66593" lon="1.38766">
        <ele>123</ele>
        <time>2025-05-23T10:13:45Z</time>
      </trkpt>
      <trkpt lat="43.66594" lon="1.3877">
        <ele>123</ele>
        <time>2025-05-23T10:13:46Z</time>
      </trkpt>
      <trkpt lat="43.66596" lon="1.38773">
        <ele>123</ele>
        <time>2025-05-23T10:13:47Z</time>
      </trkpt>
      <trkpt lat="43.66597" lon="1.38777">
        <ele>123</ele>
        <time>2025-05-23T10:13:48Z</time>
      </trkpt>
      <trkpt lat="43.66599" lon="1.3878">
        <ele>122</ele>
        <time>2025-05-23T10:13:49Z</time>
      </trkpt>
      <trkpt lat="43.666" lon="1.38783">
        <ele>122</ele>
        <time>2025-05-23T10:13:50Z</time>
      </trkpt>
      <trkpt lat="43.666" lon="1.38787">
        <ele>122</ele>
        <time>2025-05-23T10:13:51Z</time>
      </trkpt>
      <trkpt lat="43.66601" lon="1.38791">
        <ele>122</ele>
        <time>2025-05-23T10:13:52Z</time>
      </trkpt>
      <trkpt lat="43.66601" lon="1.38795">
        <ele>123</ele>
        <time>2025-05-23T10:13:53Z</time>
      </trkpt>
      <trkpt lat="43.66602" lon="1.38798">
        <ele>123</ele>
        <time>2025-05-23T10:13:54Z</time>
      </trkpt>
      <trkpt lat="43.66602" lon="1.38802">
        <ele>122</ele>
        <time>2025-05-23T10:13:55Z</time>
      </trkpt>
      <trkpt lat="43.66603" lon="1.38806">
        <ele>122</ele>
        <time>2025-05-23T10:13:56Z</time>
      </trkpt>
      <trkpt lat="43.66604" lon="1.38809">
        <ele>122</ele>
        <time>2025-05-23T10:13:57Z</time>
      </trkpt>
      <trkpt lat="43.66605" lon="1.38812">
        <ele>122</ele>
        <time>2025-05-23T10:13:58Z</time>
      </trkpt>
      <trkpt lat="43.66606" lon="1.38816">
        <ele>122</ele>
        <time>2025-05-23T10:13:59Z</time>
      </trkpt>
      <trkpt lat="43.66607" lon="1.3882">
        <ele>123</ele>
        <time>2025-05-23T10:14:00Z</time>
      </trkpt>
      <trkpt lat="43.66608" lon="1.38823">
        <ele>123</ele>
        <time>2025-05-23T10:14:01Z</time>
      </trkpt>
      <trkpt lat="43.66609" lon="1.38827">
        <ele>123</ele>
        <time>2025-05-23T10:14:02Z</time>
      </trkpt>
      <trkpt lat="43.6661" lon="1.38831">
        <ele>123</ele>
        <time>2025-05-23T10:14:03Z</time>
      </trkpt>
      <trkpt lat="43.66611" lon="1.38834">
        <ele>123</ele>
        <time>2025-05-23T10:14:04Z</time>
      </trkpt>
      <trkpt lat="43.66611" lon="1.38838">
        <ele>123</ele>
        <time>2025-05-23T10:14:05Z</time>
      </trkpt>
      <trkpt lat="43.66612" lon="1.38842">
        <ele>123</ele>
        <time>2025-05-23T10:14:06Z</time>
      </trkpt>
      <trkpt lat="43.66613" lon="1.38846">
        <ele>123</ele>
        <time>2025-05-23T10:14:07Z</time>
      </trkpt>
      <trkpt lat="43.66614" lon="1.38849">
        <ele>123</ele>
        <time>2025-05-23T10:14:08Z</time>
      </trkpt>
      <trkpt lat="43.66613" lon="1.38853">
        <ele>123</ele>
        <time>2025-05-23T10:14:09Z</time>
      </trkpt>
      <trkpt lat="43.66613" lon="1.38857">
        <ele>123</ele>
        <time>2025-05-23T10:14:10Z</time>
      </trkpt>
      <trkpt lat="43.66613" lon="1.38861">
        <ele>123</ele>
        <time>2025-05-23T10:14:11Z</time>
      </trkpt>
      <trkpt lat="43.66613" lon="1.38865">
        <ele>123</ele>
        <time>2025-05-23T10:14:12Z</time>
      </trkpt>
      <trkpt lat="43.66612" lon="1.3887">
        <ele>123</ele>
        <time>2025-05-23T10:14:13Z</time>
      </trkpt>
      <trkpt lat="43.66611" lon="1.38875">
        <ele>123</ele>
        <time>2025-05-23T10:14:14Z</time>
      </trkpt>
      <trkpt lat="43.66611" lon="1.38879">
        <ele>123</ele>
        <time>2025-05-23T10:14:15Z</time>
      </trkpt>
      <trkpt lat="43.66611" lon="1.38883">
        <ele>123</ele>
        <time>2025-05-23T10:14:16Z</time>
      </trkpt>
      <trkpt lat="43.6661" lon="1.38886">
        <ele>123</ele>
        <time>2025-05-23T10:14:17Z</time>
      </trkpt>
      <trkpt lat="43.6661" lon="1.3889">
        <ele>123</ele>
        <time>2025-05-23T10:14:18Z</time>
      </trkpt>
      <trkpt lat="43.66609" lon="1.38894">
        <ele>123</ele>
        <time>2025-05-23T10:14:19Z</time>
      </trkpt>
      <trkpt lat="43.66609" lon="1.38897">
        <ele>123</ele>
        <time>2025-05-23T10:14:20Z</time>
      </trkpt>
      <trkpt lat="43.66609" lon="1.38901">
        <ele>123</ele>
        <time>2025-05-23T10:14:21Z</time>
      </trkpt>
      <trkpt lat="43.66609" lon="1.38905">
        <ele>123</ele>
        <time>2025-05-23T10:14:22Z</time>
      </trkpt>
      <trkpt lat="43.66609" lon="1.38908">
        <ele>123</ele>
        <time>2025-05-23T10:14:23Z</time>
      </trkpt>
      <trkpt lat="43.66608" lon="1.38912">
        <ele>123</ele>
        <time>2025-05-23T10:14:24Z</time>
      </trkpt>
      <trkpt lat="43.66607" lon="1.38915">
        <ele>123</ele>
        <time>2025-05-23T10:14:25Z</time>
      </trkpt>
      <trkpt lat="43.66607" lon="1.38919">
        <ele>123</ele>
        <time>2025-05-23T10:14:26Z</time>
      </trkpt>
      <trkpt lat="43.66607" lon="1.38923">
        <ele>123</ele>
        <time>2025-05-23T10:14:27Z</time>
      </trkpt>
      <trkpt lat="43.66607" lon="1.38926">
        <ele>123</ele>
        <time>2025-05-23T10:14:28Z</time>
      </trkpt>
      <trkpt lat="43.66607" lon="1.3893">
        <ele>123</ele>
        <time>2025-05-23T10:14:29Z</time>
      </trkpt>
      <trkpt lat="43.66607" lon="1.38934">
        <ele>124</ele>
        <time>2025-05-23T10:14:30Z</time>
      </trkpt>
      <trkpt lat="43.66606" lon="1.38937">
        <ele>124</ele>
        <time>2025-05-23T10:14:31Z</time>
      </trkpt>
      <trkpt lat="43.66606" lon="1.38941">
        <ele>123</ele>
        <time>2025-05-23T10:14:32Z</time>
      </trkpt>
      <trkpt lat="43.66606" lon="1.38944">
        <ele>123</ele>
        <time>2025-05-23T10:14:33Z</time>
      </trkpt>
      <trkpt lat="43.66606" lon="1.38948">
        <ele>123</ele>
        <time>2025-05-23T10:14:34Z</time>
      </trkpt>
      <trkpt lat="43.66605" lon="1.38952">
        <ele>123</ele>
        <time>2025-05-23T10:14:35Z</time>
      </trkpt>
      <trkpt lat="43.66605" lon="1.38955">
        <ele>123</ele>
        <time>2025-05-23T10:14:36Z</time>
      </trkpt>
      <trkpt lat="43.66605" lon="1.38959">
        <ele>123</ele>
        <time>2025-05-23T10:14:37Z</time>
      </trkpt>
      <trkpt lat="43.66605" lon="1.38962">
        <ele>123</ele>
        <time>2025-05-23T10:14:38Z</time>
      </trkpt>
      <trkpt lat="43.66605" lon="1.38966">
        <ele>123</ele>
        <time>2025-05-23T10:14:39Z</time>
      </trkpt>
      <trkpt lat="43.66605" lon="1.3897">
        <ele>123</ele>
        <time>2025-05-23T10:14:40Z</time>
      </trkpt>
      <trkpt lat="43.66605" lon="1.38974">
        <ele>123</ele>
        <time>2025-05-23T10:14:41Z</time>
      </trkpt>
      <trkpt lat="43.66604" lon="1.38977">
        <ele>123</ele>
        <time>2025-05-23T10:14:42Z</time>
      </trkpt>
      <trkpt lat="43.66604" lon="1.3898">
        <ele>123</ele>
        <time>2025-05-23T10:14:43Z</time>
      </trkpt>
      <trkpt lat="43.66604" lon="1.38984">
        <ele>123</ele>
        <time>2025-05-23T10:14:44Z</time>
      </trkpt>
      <trkpt lat="43.66603" lon="1.38988">
        <ele>123</ele>
        <time>2025-05-23T10:14:45Z</time>
      </trkpt>
      <trkpt lat="43.66602" lon="1.38993">
        <ele>123</ele>
        <time>2025-05-23T10:14:46Z</time>
      </trkpt>
      <trkpt lat="43.66601" lon="1.38996">
        <ele>123</ele>
        <time>2025-05-23T10:14:47Z</time>
      </trkpt>
      <trkpt lat="43.66601" lon="1.39">
        <ele>124</ele>
        <time>2025-05-23T10:14:48Z</time>
      </trkpt>
      <trkpt lat="43.666" lon="1.39004">
        <ele>124</ele>
        <time>2025-05-23T10:14:49Z</time>
      </trkpt>
      <trkpt lat="43.66599" lon="1.39008">
        <ele>124</ele>
        <time>2025-05-23T10:14:50Z</time>
      </trkpt>
      <trkpt lat="43.66598" lon="1.39013">
        <ele>124</ele>
        <time>2025-05-23T10:14:51Z</time>
      </trkpt>
      <trkpt lat="43.66597" lon="1.39017">
        <ele>124</ele>
        <time>2025-05-23T10:14:52Z</time>
      </trkpt>
      <trkpt lat="43.66597" lon="1.39022">
        <ele>124</ele>
        <time>2025-05-23T10:14:53Z</time>
      </trkpt>
      <trkpt lat="43.66597" lon="1.39026">
        <ele>124</ele>
        <time>2025-05-23T10:14:54Z</time>
      </trkpt>
      <trkpt lat="43.66597" lon="1.3903">
        <ele>124</ele>
        <time>2025-05-23T10:14:55Z</time>
      </trkpt>
      <trkpt lat="43.66596" lon="1.39034">
        <ele>124</ele>
        <time>2025-05-23T10:14:56Z</time>
      </trkpt>
      <trkpt lat="43.66596" lon="1.39038">
        <ele>124</ele>
        <time>2025-05-23T10:14:57Z</time>
      </trkpt>
      <trkpt lat="43.66595" lon="1.39042">
        <ele>124</ele>
        <time>2025-05-23T10:14:58Z</time>
      </trkpt>
      <trkpt lat="43.66595" lon="1.39046">
        <ele>124</ele>
        <time>2025-05-23T10:14:59Z</time>
      </trkpt>
      <trkpt lat="43.66594" lon="1.3905">
        <ele>124</ele>
        <time>2025-05-23T10:15:00Z</time>
      </trkpt>
      <trkpt lat="43.66594" lon="1.39054">
        <ele>124</ele>
        <time>2025-05-23T10:15:01Z</time>
      </trkpt>
      <trkpt lat="43.66593" lon="1.39058">
        <ele>123</ele>
        <time>2025-05-23T10:15:02Z</time>
      </trkpt>
      <trkpt lat="43.66592" lon="1.39061">
        <ele>123</ele>
        <time>2025-05-23T10:15:03Z</time>
      </trkpt>
      <trkpt lat="43.66591" lon="1.39065">
        <ele>123</ele>
        <time>2025-05-23T10:15:04Z</time>
      </trkpt>
      <trkpt lat="43.66591" lon="1.39068">
        <ele>123</ele>
        <time>2025-05-23T10:15:05Z</time>
      </trkpt>
      <trkpt lat="43.66591" lon="1.39071">
        <ele>123</ele>
        <time>2025-05-23T10:15:06Z</time>
      </trkpt>
      <trkpt lat="43.66591" lon="1.39075">
        <ele>124</ele>
        <time>2025-05-23T10:15:07Z</time>
      </trkpt>
      <trkpt lat="43.66591" lon="1.39079">
        <ele>124</ele>
        <time>2025-05-23T10:15:08Z</time>
      </trkpt>
      <trkpt lat="43.66591" lon="1.39083">
        <ele>124</ele>
        <time>2025-05-23T10:15:09Z</time>
      </trkpt>
      <trkpt lat="43.66591" lon="1.39086">
        <ele>124</ele>
        <time>2025-05-23T10:15:10Z</time>
      </trkpt>
      <trkpt lat="43.6659" lon="1.3909">
        <ele>124</ele>
        <time>2025-05-23T10:15:11Z</time>
      </trkpt>
      <trkpt lat="43.6659" lon="1.39094">
        <ele>124</ele>
        <time>2025-05-23T10:15:12Z</time>
      </trkpt>
      <trkpt lat="43.6659" lon="1.39098">
        <ele>124</ele>
        <time>2025-05-23T10:15:13Z</time>
      </trkpt>
      <trkpt lat="43.6659" lon="1.39101">
        <ele>124</ele>
        <time>2025-05-23T10:15:14Z</time>
      </trkpt>
      <trkpt lat="43.66589" lon="1.39105">
        <ele>124</ele>
        <time>2025-05-23T10:15:15Z</time>
      </trkpt>
      <trkpt lat="43.66588" lon="1.39109">
        <ele>124</ele>
        <time>2025-05-23T10:15:16Z</time>
      </trkpt>
      <trkpt lat="43.66587" lon="1.39113">
        <ele>124</ele>
        <time>2025-05-23T10:15:17Z</time>
      </trkpt>
      <trkpt lat="43.66587" lon="1.39117">
        <ele>124</ele>
        <time>2025-05-23T10:15:18Z</time>
      </trkpt>
      <trkpt lat="43.66586" lon="1.39121">
        <ele>124</ele>
        <time>2025-05-23T10:15:19Z</time>
      </trkpt>
      <trkpt lat="43.66586" lon="1.39125">
        <ele>124</ele>
        <time>2025-05-23T10:15:20Z</time>
      </trkpt>
      <trkpt lat="43.66586" lon="1.39128">
        <ele>124</ele>
        <time>2025-05-23T10:15:21Z</time>
      </trkpt>
      <trkpt lat="43.66585" lon="1.39132">
        <ele>124</ele>
        <time>2025-05-23T10:15:22Z</time>
      </trkpt>
      <trkpt lat="43.66584" lon="1.39136">
        <ele>123</ele>
        <time>2025-05-23T10:15:23Z</time>
      </trkpt>
      <trkpt lat="43.66585" lon="1.3914">
        <ele>123</ele>
        <time>2025-05-23T10:15:24Z</time>
      </trkpt>
      <trkpt lat="43.66585" lon="1.39144">
        <ele>123</ele>
        <time>2025-05-23T10:15:25Z</time>
      </trkpt>
      <trkpt lat="43.66585" lon="1.39148">
        <ele>124</ele>
        <time>2025-05-23T10:15:26Z</time>
      </trkpt>
      <trkpt lat="43.66585" lon="1.39152">
        <ele>124</ele>
        <time>2025-05-23T10:15:27Z</time>
      </trkpt>
      <trkpt lat="43.66584" lon="1.39156">
        <ele>124</ele>
        <time>2025-05-23T10:15:28Z</time>
      </trkpt>
      <trkpt lat="43.66583" lon="1.3916">
        <ele>124</ele>
        <time>2025-05-23T10:15:29Z</time>
      </trkpt>
      <trkpt lat="43.66584" lon="1.39163">
        <ele>124</ele>
        <time>2025-05-23T10:15:30Z</time>
      </trkpt>
      <trkpt lat="43.66584" lon="1.39167">
        <ele>124</ele>
        <time>2025-05-23T10:15:31Z</time>
      </trkpt>
      <trkpt lat="43.66585" lon="1.39171">
        <ele>124</ele>
        <time>2025-05-23T10:15:32Z</time>
      </trkpt>
      <trkpt lat="43.66585" lon="1.39175">
        <ele>124</ele>
        <time>2025-05-23T10:15:33Z</time>
      </trkpt>
      <trkpt lat="43.66585" lon="1.39179">
        <ele>124</ele>
        <time>2025-05-23T10:15:34Z</time>
      </trkpt>
      <trkpt lat="43.66586" lon="1.39183">
        <ele>124</ele>
        <time>2025-05-23T10:15:35Z</time>
      </trkpt>
      <trkpt lat="43.66586" lon="1.39186">
        <ele>124</ele>
        <time>2025-05-23T10:15:36Z</time>
      </trkpt>
      <trkpt lat="43.66585" lon="1.3919">
        <ele>124</ele>
        <time>2025-05-23T10:15:37Z</time>
      </trkpt>
      <trkpt lat="43.66584" lon="1.39194">
        <ele>124</ele>
        <time>2025-05-23T10:15:38Z</time>
      </trkpt>
      <trkpt lat="43.66584" lon="1.39198">
        <ele>124</ele>
        <time>2025-05-23T10:15:39Z</time>
      </trkpt>
      <trkpt lat="43.66583" lon="1.39202">
        <ele>124</ele>
        <time>2025-05-23T10:15:40Z</time>
      </trkpt>
      <trkpt lat="43.66582" lon="1.39206">
        <ele>124</ele>
        <time>2025-05-23T10:15:41Z</time>
      </trkpt>
      <trkpt lat="43.66581" lon="1.39209">
        <ele>124</ele>
        <time>2025-05-23T10:15:42Z</time>
      </trkpt>
      <trkpt lat="43.66581" lon="1.39212">
        <ele>124</ele>
        <time>2025-05-23T10:15:43Z</time>
      </trkpt>
      <trkpt lat="43.66581" lon="1.39216">
        <ele>124</ele>
        <time>2025-05-23T10:15:44Z</time>
      </trkpt>
      <trkpt lat="43.66581" lon="1.3922">
        <ele>124</ele>
        <time>2025-05-23T10:15:45Z</time>
      </trkpt>
      <trkpt lat="43.66582" lon="1.39224">
        <ele>124</ele>
        <time>2025-05-23T10:15:46Z</time>
      </trkpt>
      <trkpt lat="43.66582" lon="1.39227">
        <ele>124</ele>
        <time>2025-05-23T10:15:47Z</time>
      </trkpt>
      <trkpt lat="43.6658" lon="1.3923">
        <ele>124</ele>
        <time>2025-05-23T10:15:48Z</time>
      </trkpt>
      <trkpt lat="43.66579" lon="1.39234">
        <ele>124</ele>
        <time>2025-05-23T10:15:49Z</time>
      </trkpt>
      <trkpt lat="43.66579" lon="1.39238">
        <ele>124</ele>
        <time>2025-05-23T10:15:50Z</time>
      </trkpt>
      <trkpt lat="43.66578" lon="1.39241">
        <ele>124</ele>
        <time>2025-05-23T10:15:51Z</time>
      </trkpt>
      <trkpt lat="43.66578" lon="1.39245">
        <ele>124</ele>
        <time>2025-05-23T10:15:52Z</time>
      </trkpt>
      <trkpt lat="43.66577" lon="1.39249">
        <ele>124</ele>
        <time>2025-05-23T10:15:53Z</time>
      </trkpt>
      <trkpt lat="43.66577" lon="1.39252">
        <ele>124</ele>
        <time>2025-05-23T10:15:54Z</time>
      </trkpt>
      <trkpt lat="43.66576" lon="1.39256">
        <ele>124</ele>
        <time>2025-05-23T10:15:55Z</time>
      </trkpt>
      <trkpt lat="43.66575" lon="1.3926">
        <ele>124</ele>
        <time>2025-05-23T10:15:56Z</time>
      </trkpt>
      <trkpt lat="43.66575" lon="1.39263">
        <ele>124</ele>
        <time>2025-05-23T10:15:57Z</time>
      </trkpt>
      <trkpt lat="43.66574" lon="1.39267">
        <ele>124</ele>
        <time>2025-05-23T10:15:58Z</time>
      </trkpt>
      <trkpt lat="43.66573" lon="1.39272">
        <ele>124</ele>
        <time>2025-05-23T10:15:59Z</time>
      </trkpt>
      <trkpt lat="43.66572" lon="1.39276">
        <ele>124</ele>
        <time>2025-05-23T10:16:00Z</time>
      </trkpt>
      <trkpt lat="43.66572" lon="1.3928">
        <ele>124</ele>
        <time>2025-05-23T10:16:01Z</time>
      </trkpt>
      <trkpt lat="43.66573" lon="1.39283">
        <ele>124</ele>
        <time>2025-05-23T10:16:02Z</time>
      </trkpt>
      <trkpt lat="43.66573" lon="1.39286">
        <ele>124</ele>
        <time>2025-05-23T10:16:03Z</time>
      </trkpt>
      <trkpt lat="43.66572" lon="1.39289">
        <ele>124</ele>
        <time>2025-05-23T10:16:04Z</time>
      </trkpt>
      <trkpt lat="43.66572" lon="1.39289">
        <ele>124</ele>
        <time>2025-05-23T10:16:05Z</time>
      </trkpt>
      <trkpt lat="43.66571" lon="1.39293">
        <ele>124</ele>
        <time>2025-05-23T10:16:06Z</time>
      </trkpt>
      <trkpt lat="43.66571" lon="1.39293">
        <ele>124</ele>
        <time>2025-05-23T10:16:07Z</time>
      </trkpt>
      <trkpt lat="43.66571" lon="1.39297">
        <ele>124</ele>
        <time>2025-05-23T10:16:08Z</time>
      </trkpt>
      <trkpt lat="43.66571" lon="1.39297">
        <ele>124</ele>
        <time>2025-05-23T10:16:09Z</time>
      </trkpt>
      <trkpt lat="43.66571" lon="1.39301">
        <ele>124</ele>
        <time>2025-05-23T10:16:10Z</time>
      </trkpt>
      <trkpt lat="43.66571" lon="1.39301">
        <ele>125</ele>
        <time>2025-05-23T10:16:11Z</time>
      </trkpt>
      <trkpt lat="43.66571" lon="1.39305">
        <ele>125</ele>
        <time>2025-05-23T10:16:12Z</time>
      </trkpt>
      <trkpt lat="43.66571" lon="1.39305">
        <ele>125</ele>
        <time>2025-05-23T10:16:13Z</time>
      </trkpt>
      <trkpt lat="43.66571" lon="1.39309">
        <ele>125</ele>
        <time>2025-05-23T10:16:14Z</time>
      </trkpt>
      <trkpt lat="43.66571" lon="1.39309">
        <ele>124</ele>
        <time>2025-05-23T10:16:15Z</time>
      </trkpt>
      <trkpt lat="43.66571" lon="1.39313">
        <ele>124</ele>
        <time>2025-05-23T10:16:16Z</time>
      </trkpt>
      <trkpt lat="43.66571" lon="1.39313">
        <ele>124</ele>
        <time>2025-05-23T10:16:17Z</time>
      </trkpt>
      <trkpt lat="43.66571" lon="1.39317">
        <ele>124</ele>
        <time>2025-05-23T10:16:18Z</time>
      </trkpt>
      <trkpt lat="43.66571" lon="1.39317">
        <ele>124</ele>
        <time>2025-05-23T10:16:19Z</time>
      </trkpt>
      <trkpt lat="43.66571" lon="1.39322">
        <ele>124</ele>
        <time>2025-05-23T10:16:20Z</time>
      </trkpt>
      <trkpt lat="43.66571" lon="1.39322">
        <ele>124</ele>
        <time>2025-05-23T10:16:21Z</time>
      </trkpt>
      <trkpt lat="43.66572" lon="1.39326">
        <ele>124</ele>
        <time>2025-05-23T10:16:22Z</time>
      </trkpt>
      <trkpt lat="43.66572" lon="1.39326">
        <ele>124</ele>
        <time>2025-05-23T10:16:23Z</time>
      </trkpt>
      <trkpt lat="43.66573" lon="1.3933">
        <ele>124</ele>
        <time>2025-05-23T10:16:24Z</time>
      </trkpt>
      <trkpt lat="43.66574" lon="1.39332">
        <ele>124</ele>
        <time>2025-05-23T10:16:25Z</time>
      </trkpt>
      <trkpt lat="43.66574" lon="1.39332">
        <ele>124</ele>
        <time>2025-05-23T10:16:26Z</time>
      </trkpt>
      <trkpt lat="43.66575" lon="1.39336">
        <ele>124</ele>
        <time>2025-05-23T10:16:27Z</time>
      </trkpt>
      <trkpt lat="43.66575" lon="1.39336">
        <ele>124</ele>
        <time>2025-05-23T10:16:28Z</time>
      </trkpt>
      <trkpt lat="43.66576" lon="1.3934">
        <ele>124</ele>
        <time>2025-05-23T10:16:29Z</time>
      </trkpt>
      <trkpt lat="43.66576" lon="1.3934">
        <ele>124</ele>
        <time>2025-05-23T10:16:30Z</time>
      </trkpt>
      <trkpt lat="43.66576" lon="1.39344">
        <ele>123</ele>
        <time>2025-05-23T10:16:31Z</time>
      </trkpt>
      <trkpt lat="43.66576" lon="1.39344">
        <ele>123</ele>
        <time>2025-05-23T10:16:32Z</time>
      </trkpt>
      <trkpt lat="43.66575" lon="1.39349">
        <ele>124</ele>
        <time>2025-05-23T10:16:33Z</time>
      </trkpt>
      <trkpt lat="43.66575" lon="1.39349">
        <ele>124</ele>
        <time>2025-05-23T10:16:34Z</time>
      </trkpt>
      <trkpt lat="43.66575" lon="1.39353">
        <ele>124</ele>
        <time>2025-05-23T10:16:35Z</time>
      </trkpt>
      <trkpt lat="43.66575" lon="1.39353">
        <ele>124</ele>
        <time>2025-05-23T10:16:36Z</time>
      </trkpt>
      <trkpt lat="43.66574" lon="1.39358">
        <ele>124</ele>
        <time>2025-05-23T10:16:37Z</time>
      </trkpt>
      <trkpt lat="43.66574" lon="1.39358">
        <ele>124</ele>
        <time>2025-05-23T10:16:38Z</time>
      </trkpt>
      <trkpt lat="43.66575" lon="1.39362">
        <ele>124</ele>
        <time>2025-05-23T10:16:39Z</time>
      </trkpt>
      <trkpt lat="43.66575" lon="1.39362">
        <ele>124</ele>
        <time>2025-05-23T10:16:40Z</time>
      </trkpt>
      <trkpt lat="43.66576" lon="1.39366">
        <ele>124</ele>
        <time>2025-05-23T10:16:41Z</time>
      </trkpt>
      <trkpt lat="43.66576" lon="1.39366">
        <ele>124</ele>
        <time>2025-05-23T10:16:42Z</time>
      </trkpt>
      <trkpt lat="43.66577" lon="1.39369">
        <ele>124</ele>
        <time>2025-05-23T10:16:43Z</time>
      </trkpt>
      <trkpt lat="43.66577" lon="1.39369">
        <ele>124</ele>
        <time>2025-05-23T10:16:44Z</time>
      </trkpt>
      <trkpt lat="43.66578" lon="1.39373">
        <ele>125</ele>
        <time>2025-05-23T10:16:45Z</time>
      </trkpt>
      <trkpt lat="43.66578" lon="1.39373">
        <ele>125</ele>
        <time>2025-05-23T10:16:46Z</time>
      </trkpt>
      <trkpt lat="43.66578" lon="1.39377">
        <ele>125</ele>
        <time>2025-05-23T10:16:47Z</time>
      </trkpt>
      <trkpt lat="43.66578" lon="1.39377">
        <ele>124</ele>
        <time>2025-05-23T10:16:48Z</time>
      </trkpt>
      <trkpt lat="43.66579" lon="1.3938">
        <ele>124</ele>
        <time>2025-05-23T10:16:49Z</time>
      </trkpt>
      <trkpt lat="43.66579" lon="1.3938">
        <ele>124</ele>
        <time>2025-05-23T10:16:50Z</time>
      </trkpt>
      <trkpt lat="43.66579" lon="1.39384">
        <ele>124</ele>
        <time>2025-05-23T10:16:51Z</time>
      </trkpt>
      <trkpt lat="43.66579" lon="1.39388">
        <ele>124</ele>
        <time>2025-05-23T10:16:52Z</time>
      </trkpt>
      <trkpt lat="43.66579" lon="1.39391">
        <ele>124</ele>
        <time>2025-05-23T10:16:53Z</time>
      </trkpt>
      <trkpt lat="43.66579" lon="1.39394">
        <ele>124</ele>
        <time>2025-05-23T10:16:54Z</time>
      </trkpt>
      <trkpt lat="43.6658" lon="1.39398">
        <ele>124</ele>
        <time>2025-05-23T10:16:55Z</time>
      </trkpt>
      <trkpt lat="43.6658" lon="1.39402">
        <ele>124</ele>
        <time>2025-05-23T10:16:56Z</time>
      </trkpt>
      <trkpt lat="43.66581" lon="1.39405">
        <ele>124</ele>
        <time>2025-05-23T10:16:57Z</time>
      </trkpt>
      <trkpt lat="43.66581" lon="1.39405">
        <ele>124</ele>
        <time>2025-05-23T10:16:58Z</time>
      </trkpt>
      <trkpt lat="43.66582" lon="1.39415">
        <ele>124</ele>
        <time>2025-05-23T10:16:59Z</time>
      </trkpt>
      <trkpt lat="43.66583" lon="1.39417">
        <ele>124</ele>
        <time>2025-05-23T10:17:00Z</time>
      </trkpt>
      <trkpt lat="43.66583" lon="1.39421">
        <ele>124</ele>
        <time>2025-05-23T10:17:01Z</time>
      </trkpt>
      <trkpt lat="43.66584" lon="1.39425">
        <ele>124</ele>
        <time>2025-05-23T10:17:02Z</time>
      </trkpt>
      <trkpt lat="43.66584" lon="1.39429">
        <ele>124</ele>
        <time>2025-05-23T10:17:03Z</time>
      </trkpt>
      <trkpt lat="43.66585" lon="1.39433">
        <ele>124</ele>
        <time>2025-05-23T10:17:04Z</time>
      </trkpt>
      <trkpt lat="43.66586" lon="1.39437">
        <ele>124</ele>
        <time>2025-05-23T10:17:05Z</time>
      </trkpt>
      <trkpt lat="43.66586" lon="1.39441">
        <ele>124</ele>
        <time>2025-05-23T10:17:06Z</time>
      </trkpt>
      <trkpt lat="43.66588" lon="1.39444">
        <ele>124</ele>
        <time>2025-05-23T10:17:07Z</time>
      </trkpt>
      <trkpt lat="43.66589" lon="1.39448">
        <ele>124</ele>
        <time>2025-05-23T10:17:08Z</time>
      </trkpt>
      <trkpt lat="43.66591" lon="1.39451">
        <ele>124</ele>
        <time>2025-05-23T10:17:09Z</time>
      </trkpt>
      <trkpt lat="43.66591" lon="1.39455">
        <ele>124</ele>
        <time>2025-05-23T10:17:10Z</time>
      </trkpt>
      <trkpt lat="43.66592" lon="1.39459">
        <ele>124</ele>
        <time>2025-05-23T10:17:11Z</time>
      </trkpt>
      <trkpt lat="43.66593" lon="1.39462">
        <ele>124</ele>
        <time>2025-05-23T10:17:12Z</time>
      </trkpt>
      <trkpt lat="43.66594" lon="1.39466">
        <ele>124</ele>
        <time>2025-05-23T10:17:13Z</time>
      </trkpt>
      <trkpt lat="43.66596" lon="1.39469">
        <ele>124</ele>
        <time>2025-05-23T10:17:14Z</time>
      </trkpt>
      <trkpt lat="43.66597" lon="1.39473">
        <ele>124</ele>
        <time>2025-05-23T10:17:15Z</time>
      </trkpt>
      <trkpt lat="43.66598" lon="1.39476">
        <ele>124</ele>
        <time>2025-05-23T10:17:16Z</time>
      </trkpt>
      <trkpt lat="43.66599" lon="1.39479">
        <ele>124</ele>
        <time>2025-05-23T10:17:17Z</time>
      </trkpt>
      <trkpt lat="43.666" lon="1.39483">
        <ele>124</ele>
        <time>2025-05-23T10:17:18Z</time>
      </trkpt>
      <trkpt lat="43.666" lon="1.39487">
        <ele>124</ele>
        <time>2025-05-23T10:17:19Z</time>
      </trkpt>
      <trkpt lat="43.66599" lon="1.3949">
        <ele>124</ele>
        <time>2025-05-23T10:17:20Z</time>
      </trkpt>
      <trkpt lat="43.66599" lon="1.39493">
        <ele>124</ele>
        <time>2025-05-23T10:17:21Z</time>
      </trkpt>
      <trkpt lat="43.66598" lon="1.39497">
        <ele>124</ele>
        <time>2025-05-23T10:17:22Z</time>
      </trkpt>
      <trkpt lat="43.66597" lon="1.395">
        <ele>124</ele>
        <time>2025-05-23T10:17:23Z</time>
      </trkpt>
      <trkpt lat="43.66597" lon="1.39503">
        <ele>124</ele>
        <time>2025-05-23T10:17:24Z</time>
      </trkpt>
      <trkpt lat="43.66596" lon="1.39507">
        <ele>124</ele>
        <time>2025-05-23T10:17:25Z</time>
      </trkpt>
      <trkpt lat="43.66595" lon="1.3951">
        <ele>124</ele>
        <time>2025-05-23T10:17:26Z</time>
      </trkpt>
      <trkpt lat="43.66595" lon="1.39514">
        <ele>123</ele>
        <time>2025-05-23T10:17:27Z</time>
      </trkpt>
      <trkpt lat="43.66595" lon="1.39514">
        <ele>123</ele>
        <time>2025-05-23T10:17:28Z</time>
      </trkpt>
      <trkpt lat="43.66595" lon="1.39519">
        <ele>123</ele>
        <time>2025-05-23T10:17:29Z</time>
      </trkpt>
      <trkpt lat="43.66595" lon="1.39523">
        <ele>123</ele>
        <time>2025-05-23T10:17:30Z</time>
      </trkpt>
      <trkpt lat="43.66595" lon="1.39528">
        <ele>123</ele>
        <time>2025-05-23T10:17:31Z</time>
      </trkpt>
      <trkpt lat="43.66597" lon="1.39533">
        <ele>123</ele>
        <time>2025-05-23T10:17:32Z</time>
      </trkpt>
      <trkpt lat="43.66599" lon="1.39538">
        <ele>123</ele>
        <time>2025-05-23T10:17:33Z</time>
      </trkpt>
      <trkpt lat="43.66601" lon="1.39543">
        <ele>123</ele>
        <time>2025-05-23T10:17:34Z</time>
      </trkpt>
      <trkpt lat="43.66601" lon="1.39543">
        <ele>124</ele>
        <time>2025-05-23T10:17:35Z</time>
      </trkpt>
      <trkpt lat="43.66602" lon="1.39548">
        <ele>124</ele>
        <time>2025-05-23T10:17:36Z</time>
      </trkpt>
      <trkpt lat="43.66603" lon="1.39552">
        <ele>124</ele>
        <time>2025-05-23T10:17:37Z</time>
      </trkpt>
      <trkpt lat="43.66605" lon="1.39556">
        <ele>124</ele>
        <time>2025-05-23T10:17:38Z</time>
      </trkpt>
      <trkpt lat="43.66606" lon="1.39561">
        <ele>124</ele>
        <time>2025-05-23T10:17:39Z</time>
      </trkpt>
      <trkpt lat="43.66607" lon="1.39564">
        <ele>124</ele>
        <time>2025-05-23T10:17:40Z</time>
      </trkpt>
      <trkpt lat="43.66607" lon="1.39567">
        <ele>124</ele>
        <time>2025-05-23T10:17:41Z</time>
      </trkpt>
      <trkpt lat="43.66608" lon="1.3957">
        <ele>124</ele>
        <time>2025-05-23T10:17:42Z</time>
      </trkpt>
      <trkpt lat="43.66608" lon="1.39573">
        <ele>124</ele>
        <time>2025-05-23T10:17:43Z</time>
      </trkpt>
      <trkpt lat="43.66607" lon="1.39576">
        <ele>124</ele>
        <time>2025-05-23T10:17:44Z</time>
      </trkpt>
      <trkpt lat="43.66607" lon="1.39576">
        <ele>124</ele>
        <time>2025-05-23T10:17:45Z</time>
      </trkpt>
      <trkpt lat="43.66608" lon="1.39579">
        <ele>124</ele>
        <time>2025-05-23T10:17:46Z</time>
      </trkpt>
      <trkpt lat="43.66608" lon="1.39583">
        <ele>124</ele>
        <time>2025-05-23T10:17:47Z</time>
      </trkpt>
      <trkpt lat="43.66609" lon="1.39587">
        <ele>124</ele>
        <time>2025-05-23T10:17:48Z</time>
      </trkpt>
      <trkpt lat="43.6661" lon="1.3959">
        <ele>124</ele>
        <time>2025-05-23T10:17:49Z</time>
      </trkpt>
      <trkpt lat="43.66611" lon="1.39595">
        <ele>124</ele>
        <time>2025-05-23T10:17:50Z</time>
      </trkpt>
      <trkpt lat="43.66613" lon="1.39599">
        <ele>124</ele>
        <time>2025-05-23T10:17:51Z</time>
      </trkpt>
      <trkpt lat="43.66615" lon="1.39604">
        <ele>124</ele>
        <time>2025-05-23T10:17:52Z</time>
      </trkpt>
      <trkpt lat="43.66617" lon="1.39608">
        <ele>124</ele>
        <time>2025-05-23T10:17:53Z</time>
      </trkpt>
      <trkpt lat="43.66618" lon="1.39613">
        <ele>124</ele>
        <time>2025-05-23T10:17:54Z</time>
      </trkpt>
      <trkpt lat="43.66618" lon="1.39615">
        <ele>123</ele>
        <time>2025-05-23T10:17:55Z</time>
      </trkpt>
      <trkpt lat="43.66618" lon="1.39615">
        <ele>124</ele>
        <time>2025-05-23T10:17:56Z</time>
      </trkpt>
      <trkpt lat="43.66619" lon="1.3962">
        <ele>124</ele>
        <time>2025-05-23T10:17:57Z</time>
      </trkpt>
      <trkpt lat="43.6662" lon="1.39626">
        <ele>124</ele>
        <time>2025-05-23T10:17:58Z</time>
      </trkpt>
      <trkpt lat="43.6662" lon="1.39631">
        <ele>124</ele>
        <time>2025-05-23T10:17:59Z</time>
      </trkpt>
      <trkpt lat="43.66621" lon="1.39636">
        <ele>124</ele>
        <time>2025-05-23T10:18:00Z</time>
      </trkpt>
      <trkpt lat="43.66622" lon="1.3964">
        <ele>124</ele>
        <time>2025-05-23T10:18:01Z</time>
      </trkpt>
      <trkpt lat="43.66623" lon="1.39645">
        <ele>124</ele>
        <time>2025-05-23T10:18:02Z</time>
      </trkpt>
      <trkpt lat="43.66624" lon="1.39649">
        <ele>124</ele>
        <time>2025-05-23T10:18:03Z</time>
      </trkpt>
      <trkpt lat="43.66625" lon="1.39653">
        <ele>124</ele>
        <time>2025-05-23T10:18:04Z</time>
      </trkpt>
      <trkpt lat="43.66626" lon="1.39658">
        <ele>124</ele>
        <time>2025-05-23T10:18:05Z</time>
      </trkpt>
      <trkpt lat="43.66629" lon="1.39667">
        <ele>124</ele>
        <time>2025-05-23T10:18:06Z</time>
      </trkpt>
      <trkpt lat="43.66629" lon="1.39668">
        <ele>124</ele>
        <time>2025-05-23T10:18:07Z</time>
      </trkpt>
      <trkpt lat="43.6663" lon="1.39673">
        <ele>124</ele>
        <time>2025-05-23T10:18:08Z</time>
      </trkpt>
      <trkpt lat="43.66631" lon="1.39677">
        <ele>124</ele>
        <time>2025-05-23T10:18:09Z</time>
      </trkpt>
      <trkpt lat="43.66631" lon="1.39677">
        <ele>124</ele>
        <time>2025-05-23T10:18:10Z</time>
      </trkpt>
      <trkpt lat="43.66632" lon="1.39687">
        <ele>124</ele>
        <time>2025-05-23T10:18:11Z</time>
      </trkpt>
      <trkpt lat="43.66632" lon="1.39689">
        <ele>124</ele>
        <time>2025-05-23T10:18:12Z</time>
      </trkpt>
      <trkpt lat="43.66632" lon="1.39693">
        <ele>124</ele>
        <time>2025-05-23T10:18:13Z</time>
      </trkpt>
      <trkpt lat="43.66632" lon="1.39693">
        <ele>124</ele>
        <time>2025-05-23T10:18:14Z</time>
      </trkpt>
      <trkpt lat="43.66633" lon="1.39703">
        <ele>124</ele>
        <time>2025-05-23T10:18:15Z</time>
      </trkpt>
      <trkpt lat="43.66634" lon="1.39705">
        <ele>124</ele>
        <time>2025-05-23T10:18:16Z</time>
      </trkpt>
      <trkpt lat="43.66635" lon="1.39709">
        <ele>124</ele>
        <time>2025-05-23T10:18:17Z</time>
      </trkpt>
      <trkpt lat="43.66635" lon="1.39713">
        <ele>123</ele>
        <time>2025-05-23T10:18:18Z</time>
      </trkpt>
      <trkpt lat="43.66635" lon="1.39717">
        <ele>123</ele>
        <time>2025-05-23T10:18:19Z</time>
      </trkpt>
      <trkpt lat="43.66635" lon="1.39721">
        <ele>124</ele>
        <time>2025-05-23T10:18:20Z</time>
      </trkpt>
      <trkpt lat="43.66635" lon="1.39725">
        <ele>124</ele>
        <time>2025-05-23T10:18:21Z</time>
      </trkpt>
      <trkpt lat="43.66636" lon="1.39729">
        <ele>124</ele>
        <time>2025-05-23T10:18:22Z</time>
      </trkpt>
      <trkpt lat="43.66636" lon="1.39733">
        <ele>124</ele>
        <time>2025-05-23T10:18:23Z</time>
      </trkpt>
      <trkpt lat="43.66636" lon="1.39737">
        <ele>124</ele>
        <time>2025-05-23T10:18:24Z</time>
      </trkpt>
      <trkpt lat="43.66637" lon="1.3974">
        <ele>124</ele>
        <time>2025-05-23T10:18:25Z</time>
      </trkpt>
      <trkpt lat="43.66637" lon="1.39743">
        <ele>124</ele>
        <time>2025-05-23T10:18:26Z</time>
      </trkpt>
      <trkpt lat="43.66637" lon="1.39747">
        <ele>124</ele>
        <time>2025-05-23T10:18:27Z</time>
      </trkpt>
      <trkpt lat="43.66636" lon="1.3975">
        <ele>124</ele>
        <time>2025-05-23T10:18:28Z</time>
      </trkpt>
      <trkpt lat="43.66636" lon="1.39753">
        <ele>124</ele>
        <time>2025-05-23T10:18:29Z</time>
      </trkpt>
      <trkpt lat="43.66634" lon="1.39757">
        <ele>124</ele>
        <time>2025-05-23T10:18:30Z</time>
      </trkpt>
      <trkpt lat="43.66633" lon="1.3976">
        <ele>124</ele>
        <time>2025-05-23T10:18:31Z</time>
      </trkpt>
      <trkpt lat="43.66632" lon="1.39763">
        <ele>124</ele>
        <time>2025-05-23T10:18:32Z</time>
      </trkpt>
      <trkpt lat="43.66633" lon="1.39767">
        <ele>125</ele>
        <time>2025-05-23T10:18:33Z</time>
      </trkpt>
      <trkpt lat="43.66633" lon="1.39771">
        <ele>125</ele>
        <time>2025-05-23T10:18:34Z</time>
      </trkpt>
      <trkpt lat="43.66634" lon="1.39774">
        <ele>125</ele>
        <time>2025-05-23T10:18:35Z</time>
      </trkpt>
      <trkpt lat="43.66635" lon="1.39779">
        <ele>125</ele>
        <time>2025-05-23T10:18:36Z</time>
      </trkpt>
      <trkpt lat="43.66634" lon="1.39783">
        <ele>125</ele>
        <time>2025-05-23T10:18:37Z</time>
      </trkpt>
      <trkpt lat="43.66632" lon="1.39786">
        <ele>125</ele>
        <time>2025-05-23T10:18:38Z</time>
      </trkpt>
      <trkpt lat="43.66631" lon="1.39789">
        <ele>125</ele>
        <time>2025-05-23T10:18:39Z</time>
      </trkpt>
      <trkpt lat="43.6663" lon="1.39792">
        <ele>125</ele>
        <time>2025-05-23T10:18:40Z</time>
      </trkpt>
      <trkpt lat="43.66631" lon="1.39796">
        <ele>125</ele>
        <time>2025-05-23T10:18:41Z</time>
      </trkpt>
      <trkpt lat="43.66631" lon="1.398">
        <ele>125</ele>
        <time>2025-05-23T10:18:42Z</time>
      </trkpt>
      <trkpt lat="43.66631" lon="1.39804">
        <ele>124</ele>
        <time>2025-05-23T10:18:43Z</time>
      </trkpt>
      <trkpt lat="43.66631" lon="1.39808">
        <ele>124</ele>
        <time>2025-05-23T10:18:44Z</time>
      </trkpt>
      <trkpt lat="43.66631" lon="1.39812">
        <ele>124</ele>
        <time>2025-05-23T10:18:45Z</time>
      </trkpt>
      <trkpt lat="43.66631" lon="1.39815">
        <ele>124</ele>
        <time>2025-05-23T10:18:46Z</time>
      </trkpt>
      <trkpt lat="43.6663" lon="1.39818">
        <ele>124</ele>
        <time>2025-05-23T10:18:47Z</time>
      </trkpt>
      <trkpt lat="43.66631" lon="1.39821">
        <ele>125</ele>
        <time>2025-05-23T10:18:48Z</time>
      </trkpt>
      <trkpt lat="43.66631" lon="1.39826">
        <ele>125</ele>
        <time>2025-05-23T10:18:49Z</time>
      </trkpt>
      <trkpt lat="43.66632" lon="1.3983">
        <ele>125</ele>
        <time>2025-05-23T10:18:50Z</time>
      </trkpt>
      <trkpt lat="43.66632" lon="1.39834">
        <ele>125</ele>
        <time>2025-05-23T10:18:51Z</time>
      </trkpt>
      <trkpt lat="43.66633" lon="1.39839">
        <ele>124</ele>
        <time>2025-05-23T10:18:52Z</time>
      </trkpt>
      <trkpt lat="43.66634" lon="1.39843">
        <ele>124</ele>
        <time>2025-05-23T10:18:53Z</time>
      </trkpt>
      <trkpt lat="43.66635" lon="1.39847">
        <ele>124</ele>
        <time>2025-05-23T10:18:54Z</time>
      </trkpt>
      <trkpt lat="43.66635" lon="1.39852">
        <ele>124</ele>
        <time>2025-05-23T10:18:55Z</time>
      </trkpt>
      <trkpt lat="43.66635" lon="1.39857">
        <ele>124</ele>
        <time>2025-05-23T10:18:56Z</time>
      </trkpt>
      <trkpt lat="43.66635" lon="1.39862">
        <ele>124</ele>
        <time>2025-05-23T10:18:57Z</time>
      </trkpt>
      <trkpt lat="43.66634" lon="1.39866">
        <ele>124</ele>
        <time>2025-05-23T10:18:58Z</time>
      </trkpt>
      <trkpt lat="43.66633" lon="1.3987">
        <ele>124</ele>
        <time>2025-05-23T10:18:59Z</time>
      </trkpt>
      <trkpt lat="43.66633" lon="1.39873">
        <ele>124</ele>
        <time>2025-05-23T10:19:00Z</time>
      </trkpt>
      <trkpt lat="43.66632" lon="1.39877">
        <ele>124</ele>
        <time>2025-05-23T10:19:01Z</time>
      </trkpt>
      <trkpt lat="43.66632" lon="1.3988">
        <ele>124</ele>
        <time>2025-05-23T10:19:02Z</time>
      </trkpt>
      <trkpt lat="43.66632" lon="1.39884">
        <ele>124</ele>
        <time>2025-05-23T10:19:03Z</time>
      </trkpt>
      <trkpt lat="43.66631" lon="1.39888">
        <ele>124</ele>
        <time>2025-05-23T10:19:04Z</time>
      </trkpt>
      <trkpt lat="43.66629" lon="1.39892">
        <ele>124</ele>
        <time>2025-05-23T10:19:05Z</time>
      </trkpt>
      <trkpt lat="43.66626" lon="1.39896">
        <ele>124</ele>
        <time>2025-05-23T10:19:06Z</time>
      </trkpt>
      <trkpt lat="43.66624" lon="1.399">
        <ele>124</ele>
        <time>2025-05-23T10:19:07Z</time>
      </trkpt>
      <trkpt lat="43.66622" lon="1.39904">
        <ele>124</ele>
        <time>2025-05-23T10:19:08Z</time>
      </trkpt>
      <trkpt lat="43.66622" lon="1.39904">
        <ele>124</ele>
        <time>2025-05-23T10:19:09Z</time>
      </trkpt>
      <trkpt lat="43.6662" lon="1.39908">
        <ele>125</ele>
        <time>2025-05-23T10:19:10Z</time>
      </trkpt>
      <trkpt lat="43.66619" lon="1.39911">
        <ele>125</ele>
        <time>2025-05-23T10:19:11Z</time>
      </trkpt>
      <trkpt lat="43.66617" lon="1.39915">
        <ele>125</ele>
        <time>2025-05-23T10:19:12Z</time>
      </trkpt>
      <trkpt lat="43.66616" lon="1.39918">
        <ele>125</ele>
        <time>2025-05-23T10:19:13Z</time>
      </trkpt>
      <trkpt lat="43.66614" lon="1.39922">
        <ele>125</ele>
        <time>2025-05-23T10:19:14Z</time>
      </trkpt>
      <trkpt lat="43.66612" lon="1.39925">
        <ele>125</ele>
        <time>2025-05-23T10:19:15Z</time>
      </trkpt>
      <trkpt lat="43.6661" lon="1.39929">
        <ele>125</ele>
        <time>2025-05-23T10:19:16Z</time>
      </trkpt>
      <trkpt lat="43.66609" lon="1.39933">
        <ele>125</ele>
        <time>2025-05-23T10:19:17Z</time>
      </trkpt>
      <trkpt lat="43.66608" lon="1.39936">
        <ele>125</ele>
        <time>2025-05-23T10:19:18Z</time>
      </trkpt>
      <trkpt lat="43.66607" lon="1.3994">
        <ele>126</ele>
        <time>2025-05-23T10:19:19Z</time>
      </trkpt>
      <trkpt lat="43.66607" lon="1.39943">
        <ele>126</ele>
        <time>2025-05-23T10:19:20Z</time>
      </trkpt>
      <trkpt lat="43.66605" lon="1.39947">
        <ele>125</ele>
        <time>2025-05-23T10:19:21Z</time>
      </trkpt>
      <trkpt lat="43.66604" lon="1.39951">
        <ele>125</ele>
        <time>2025-05-23T10:19:22Z</time>
      </trkpt>
      <trkpt lat="43.66603" lon="1.39955">
        <ele>125</ele>
        <time>2025-05-23T10:19:23Z</time>
      </trkpt>
      <trkpt lat="43.66603" lon="1.39959">
        <ele>125</ele>
        <time>2025-05-23T10:19:24Z</time>
      </trkpt>
      <trkpt lat="43.66602" lon="1.39963">
        <ele>125</ele>
        <time>2025-05-23T10:19:25Z</time>
      </trkpt>
      <trkpt lat="43.66602" lon="1.39967">
        <ele>125</ele>
        <time>2025-05-23T10:19:26Z</time>
      </trkpt>
      <trkpt lat="43.66602" lon="1.3997">
        <ele>125</ele>
        <time>2025-05-23T10:19:27Z</time>
      </trkpt>
      <trkpt lat="43.66601" lon="1.39974">
        <ele>125</ele>
        <time>2025-05-23T10:19:28Z</time>
      </trkpt>
      <trkpt lat="43.666" lon="1.39977">
        <ele>125</ele>
        <time>2025-05-23T10:19:29Z</time>
      </trkpt>
      <trkpt lat="43.66599" lon="1.39981">
        <ele>125</ele>
        <time>2025-05-23T10:19:30Z</time>
      </trkpt>
      <trkpt lat="43.66598" lon="1.39984">
        <ele>125</ele>
        <time>2025-05-23T10:19:31Z</time>
      </trkpt>
      <trkpt lat="43.66597" lon="1.39988">
        <ele>125</ele>
        <time>2025-05-23T10:19:32Z</time>
      </trkpt>
      <trkpt lat="43.66596" lon="1.39992">
        <ele>125</ele>
        <time>2025-05-23T10:19:33Z</time>
      </trkpt>
      <trkpt lat="43.66595" lon="1.39995">
        <ele>125</ele>
        <time>2025-05-23T10:19:34Z</time>
      </trkpt>
      <trkpt lat="43.66594" lon="1.39999">
        <ele>126</ele>
        <time>2025-05-23T10:19:35Z</time>
      </trkpt>
      <trkpt lat="43.66593" lon="1.40003">
        <ele>126</ele>
        <time>2025-05-23T10:19:36Z</time>
      </trkpt>
      <trkpt lat="43.66592" lon="1.40006">
        <ele>126</ele>
        <time>2025-05-23T10:19:37Z</time>
      </trkpt>
      <trkpt lat="43.66591" lon="1.4001">
        <ele>126</ele>
        <time>2025-05-23T10:19:38Z</time>
      </trkpt>
      <trkpt lat="43.6659" lon="1.40014">
        <ele>126</ele>
        <time>2025-05-23T10:19:39Z</time>
      </trkpt>
      <trkpt lat="43.66589" lon="1.40018">
        <ele>126</ele>
        <time>2025-05-23T10:19:40Z</time>
      </trkpt>
      <trkpt lat="43.66588" lon="1.40022">
        <ele>126</ele>
        <time>2025-05-23T10:19:41Z</time>
      </trkpt>
      <trkpt lat="43.66587" lon="1.40026">
        <ele>126</ele>
        <time>2025-05-23T10:19:42Z</time>
      </trkpt>
      <trkpt lat="43.66585" lon="1.40029">
        <ele>126</ele>
        <time>2025-05-23T10:19:43Z</time>
      </trkpt>
      <trkpt lat="43.66583" lon="1.40033">
        <ele>126</ele>
        <time>2025-05-23T10:19:44Z</time>
      </trkpt>
      <trkpt lat="43.66582" lon="1.40036">
        <ele>126</ele>
        <time>2025-05-23T10:19:45Z</time>
      </trkpt>
      <trkpt lat="43.6658" lon="1.40039">
        <ele>125</ele>
        <time>2025-05-23T10:19:46Z</time>
      </trkpt>
      <trkpt lat="43.66578" lon="1.40042">
        <ele>125</ele>
        <time>2025-05-23T10:19:47Z</time>
      </trkpt>
      <trkpt lat="43.66576" lon="1.40045">
        <ele>125</ele>
        <time>2025-05-23T10:19:48Z</time>
      </trkpt>
      <trkpt lat="43.66574" lon="1.40048">
        <ele>125</ele>
        <time>2025-05-23T10:19:49Z</time>
      </trkpt>
      <trkpt lat="43.66573" lon="1.40051">
        <ele>125</ele>
        <time>2025-05-23T10:19:50Z</time>
      </trkpt>
      <trkpt lat="43.66571" lon="1.40055">
        <ele>125</ele>
        <time>2025-05-23T10:19:51Z</time>
      </trkpt>
      <trkpt lat="43.66569" lon="1.40059">
        <ele>125</ele>
        <time>2025-05-23T10:19:52Z</time>
      </trkpt>
      <trkpt lat="43.66568" lon="1.40063">
        <ele>126</ele>
        <time>2025-05-23T10:19:53Z</time>
      </trkpt>
      <trkpt lat="43.66566" lon="1.40067">
        <ele>126</ele>
        <time>2025-05-23T10:19:54Z</time>
      </trkpt>
      <trkpt lat="43.66564" lon="1.40071">
        <ele>126</ele>
        <time>2025-05-23T10:19:55Z</time>
      </trkpt>
      <trkpt lat="43.66562" lon="1.40075">
        <ele>126</ele>
        <time>2025-05-23T10:19:56Z</time>
      </trkpt>
      <trkpt lat="43.6656" lon="1.40078">
        <ele>125</ele>
        <time>2025-05-23T10:19:57Z</time>
      </trkpt>
      <trkpt lat="43.66558" lon="1.4008">
        <ele>125</ele>
        <time>2025-05-23T10:19:58Z</time>
      </trkpt>
      <trkpt lat="43.66556" lon="1.40082">
        <ele>125</ele>
        <time>2025-05-23T10:19:59Z</time>
      </trkpt>
      <trkpt lat="43.66554" lon="1.40085">
        <ele>125</ele>
        <time>2025-05-23T10:20:00Z</time>
      </trkpt>
      <trkpt lat="43.66552" lon="1.40087">
        <ele>125</ele>
        <time>2025-05-23T10:20:01Z</time>
      </trkpt>
      <trkpt lat="43.6655" lon="1.40089">
        <ele>125</ele>
        <time>2025-05-23T10:20:02Z</time>
      </trkpt>
      <trkpt lat="43.66548" lon="1.40092">
        <ele>125</ele>
        <time>2025-05-23T10:20:03Z</time>
      </trkpt>
      <trkpt lat="43.66546" lon="1.40094">
        <ele>125</ele>
        <time>2025-05-23T10:20:04Z</time>
      </trkpt>
      <trkpt lat="43.66544" lon="1.40098">
        <ele>125</ele>
        <time>2025-05-23T10:20:05Z</time>
      </trkpt>
      <trkpt lat="43.66542" lon="1.40101">
        <ele>125</ele>
        <time>2025-05-23T10:20:06Z</time>
      </trkpt>
      <trkpt lat="43.6654" lon="1.40105">
        <ele>125</ele>
        <time>2025-05-23T10:20:07Z</time>
      </trkpt>
      <trkpt lat="43.6654" lon="1.40109">
        <ele>125</ele>
        <time>2025-05-23T10:20:08Z</time>
      </trkpt>
      <trkpt lat="43.66539" lon="1.40112">
        <ele>125</ele>
        <time>2025-05-23T10:20:09Z</time>
      </trkpt>
      <trkpt lat="43.66538" lon="1.40116">
        <ele>125</ele>
        <time>2025-05-23T10:20:10Z</time>
      </trkpt>
      <trkpt lat="43.66538" lon="1.40119">
        <ele>125</ele>
        <time>2025-05-23T10:20:11Z</time>
      </trkpt>
      <trkpt lat="43.66536" lon="1.40122">
        <ele>125</ele>
        <time>2025-05-23T10:20:12Z</time>
      </trkpt>
      <trkpt lat="43.66535" lon="1.40125">
        <ele>125</ele>
        <time>2025-05-23T10:20:13Z</time>
      </trkpt>
      <trkpt lat="43.66534" lon="1.40128">
        <ele>125</ele>
        <time>2025-05-23T10:20:14Z</time>
      </trkpt>
      <trkpt lat="43.66533" lon="1.40131">
        <ele>125</ele>
        <time>2025-05-23T10:20:15Z</time>
      </trkpt>
      <trkpt lat="43.66531" lon="1.40134">
        <ele>126</ele>
        <time>2025-05-23T10:20:16Z</time>
      </trkpt>
      <trkpt lat="43.66529" lon="1.40137">
        <ele>126</ele>
        <time>2025-05-23T10:20:17Z</time>
      </trkpt>
      <trkpt lat="43.66527" lon="1.4014">
        <ele>126</ele>
        <time>2025-05-23T10:20:18Z</time>
      </trkpt>
      <trkpt lat="43.66525" lon="1.40143">
        <ele>126</ele>
        <time>2025-05-23T10:20:19Z</time>
      </trkpt>
      <trkpt lat="43.66523" lon="1.40146">
        <ele>126</ele>
        <time>2025-05-23T10:20:20Z</time>
      </trkpt>
      <trkpt lat="43.6652" lon="1.4015">
        <ele>126</ele>
        <time>2025-05-23T10:20:21Z</time>
      </trkpt>
      <trkpt lat="43.66518" lon="1.40153">
        <ele>126</ele>
        <time>2025-05-23T10:20:22Z</time>
      </trkpt>
      <trkpt lat="43.66516" lon="1.40156">
        <ele>125</ele>
        <time>2025-05-23T10:20:23Z</time>
      </trkpt>
      <trkpt lat="43.66514" lon="1.4016">
        <ele>125</ele>
        <time>2025-05-23T10:20:24Z</time>
      </trkpt>
      <trkpt lat="43.66512" lon="1.40164">
        <ele>125</ele>
        <time>2025-05-23T10:20:25Z</time>
      </trkpt>
      <trkpt lat="43.6651" lon="1.40167">
        <ele>125</ele>
        <time>2025-05-23T10:20:26Z</time>
      </trkpt>
      <trkpt lat="43.66508" lon="1.4017">
        <ele>125</ele>
        <time>2025-05-23T10:20:27Z</time>
      </trkpt>
      <trkpt lat="43.66506" lon="1.40173">
        <ele>125</ele>
        <time>2025-05-23T10:20:28Z</time>
      </trkpt>
      <trkpt lat="43.66503" lon="1.40175">
        <ele>125</ele>
        <time>2025-05-23T10:20:29Z</time>
      </trkpt>
      <trkpt lat="43.66501" lon="1.40178">
        <ele>125</ele>
        <time>2025-05-23T10:20:30Z</time>
      </trkpt>
      <trkpt lat="43.66499" lon="1.40181">
        <ele>125</ele>
        <time>2025-05-23T10:20:31Z</time>
      </trkpt>
      <trkpt lat="43.66497" lon="1.40184">
        <ele>125</ele>
        <time>2025-05-23T10:20:32Z</time>
      </trkpt>
      <trkpt lat="43.66494" lon="1.40187">
        <ele>125</ele>
        <time>2025-05-23T10:20:33Z</time>
      </trkpt>
      <trkpt lat="43.66492" lon="1.4019">
        <ele>125</ele>
        <time>2025-05-23T10:20:34Z</time>
      </trkpt>
      <trkpt lat="43.66489" lon="1.40193">
        <ele>125</ele>
        <time>2025-05-23T10:20:35Z</time>
      </trkpt>
      <trkpt lat="43.66487" lon="1.40194">
        <ele>125</ele>
        <time>2025-05-23T10:20:36Z</time>
      </trkpt>
      <trkpt lat="43.66484" lon="1.40196">
        <ele>125</ele>
        <time>2025-05-23T10:20:37Z</time>
      </trkpt>
      <trkpt lat="43.66481" lon="1.40198">
        <ele>125</ele>
        <time>2025-05-23T10:20:38Z</time>
      </trkpt>
      <trkpt lat="43.66477" lon="1.402">
        <ele>125</ele>
        <time>2025-05-23T10:20:39Z</time>
      </trkpt>
      <trkpt lat="43.66474" lon="1.40201">
        <ele>125</ele>
        <time>2025-05-23T10:20:40Z</time>
      </trkpt>
      <trkpt lat="43.6647" lon="1.40203">
        <ele>125</ele>
        <time>2025-05-23T10:20:41Z</time>
      </trkpt>
      <trkpt lat="43.66468" lon="1.40205">
        <ele>124</ele>
        <time>2025-05-23T10:20:42Z</time>
      </trkpt>
      <trkpt lat="43.66466" lon="1.40207">
        <ele>124</ele>
        <time>2025-05-23T10:20:43Z</time>
      </trkpt>
      <trkpt lat="43.66464" lon="1.4021">
        <ele>124</ele>
        <time>2025-05-23T10:20:44Z</time>
      </trkpt>
      <trkpt lat="43.66462" lon="1.40212">
        <ele>124</ele>
        <time>2025-05-23T10:20:45Z</time>
      </trkpt>
      <trkpt lat="43.6646" lon="1.40215">
        <ele>124</ele>
        <time>2025-05-23T10:20:46Z</time>
      </trkpt>
      <trkpt lat="43.66458" lon="1.40218">
        <ele>124</ele>
        <time>2025-05-23T10:20:47Z</time>
      </trkpt>
      <trkpt lat="43.66457" lon="1.40221">
        <ele>124</ele>
        <time>2025-05-23T10:20:48Z</time>
      </trkpt>
      <trkpt lat="43.66455" lon="1.40224">
        <ele>124</ele>
        <time>2025-05-23T10:20:49Z</time>
      </trkpt>
      <trkpt lat="43.66453" lon="1.40226">
        <ele>124</ele>
        <time>2025-05-23T10:20:50Z</time>
      </trkpt>
      <trkpt lat="43.66451" lon="1.40228">
        <ele>124</ele>
        <time>2025-05-23T10:20:51Z</time>
      </trkpt>
      <trkpt lat="43.6645" lon="1.40231">
        <ele>124</ele>
        <time>2025-05-23T10:20:52Z</time>
      </trkpt>
      <trkpt lat="43.66448" lon="1.40233">
        <ele>124</ele>
        <time>2025-05-23T10:20:53Z</time>
      </trkpt>
      <trkpt lat="43.66446" lon="1.40235">
        <ele>124</ele>
        <time>2025-05-23T10:20:54Z</time>
      </trkpt>
      <trkpt lat="43.66444" lon="1.40237">
        <ele>124</ele>
        <time>2025-05-23T10:20:55Z</time>
      </trkpt>
      <trkpt lat="43.66442" lon="1.40239">
        <ele>124</ele>
        <time>2025-05-23T10:20:56Z</time>
      </trkpt>
      <trkpt lat="43.6644" lon="1.40242">
        <ele>124</ele>
        <time>2025-05-23T10:20:57Z</time>
      </trkpt>
      <trkpt lat="43.66438" lon="1.40243">
        <ele>124</ele>
        <time>2025-05-23T10:20:58Z</time>
      </trkpt>
      <trkpt lat="43.66436" lon="1.40245">
        <ele>124</ele>
        <time>2025-05-23T10:20:59Z</time>
      </trkpt>
      <trkpt lat="43.66434" lon="1.40246">
        <ele>124</ele>
        <time>2025-05-23T10:21:00Z</time>
      </trkpt>
      <trkpt lat="43.66432" lon="1.40248">
        <ele>124</ele>
        <time>2025-05-23T10:21:01Z</time>
      </trkpt>
      <trkpt lat="43.6643" lon="1.40251">
        <ele>124</ele>
        <time>2025-05-23T10:21:02Z</time>
      </trkpt>
      <trkpt lat="43.66427" lon="1.40254">
        <ele>124</ele>
        <time>2025-05-23T10:21:03Z</time>
      </trkpt>
      <trkpt lat="43.66425" lon="1.40256">
        <ele>124</ele>
        <time>2025-05-23T10:21:04Z</time>
      </trkpt>
      <trkpt lat="43.66423" lon="1.4026">
        <ele>124</ele>
        <time>2025-05-23T10:21:05Z</time>
      </trkpt>
      <trkpt lat="43.66421" lon="1.40263">
        <ele>124</ele>
        <time>2025-05-23T10:21:06Z</time>
      </trkpt>
      <trkpt lat="43.66419" lon="1.40267">
        <ele>124</ele>
        <time>2025-05-23T10:21:07Z</time>
      </trkpt>
      <trkpt lat="43.66417" lon="1.4027">
        <ele>124</ele>
        <time>2025-05-23T10:21:08Z</time>
      </trkpt>
      <trkpt lat="43.66415" lon="1.40274">
        <ele>124</ele>
        <time>2025-05-23T10:21:09Z</time>
      </trkpt>
      <trkpt lat="43.66413" lon="1.40278">
        <ele>124</ele>
        <time>2025-05-23T10:21:10Z</time>
      </trkpt>
      <trkpt lat="43.66412" lon="1.4028">
        <ele>124</ele>
        <time>2025-05-23T10:21:11Z</time>
      </trkpt>
      <trkpt lat="43.6641" lon="1.40283">
        <ele>124</ele>
        <time>2025-05-23T10:21:12Z</time>
      </trkpt>
      <trkpt lat="43.66409" lon="1.40286">
        <ele>124</ele>
        <time>2025-05-23T10:21:13Z</time>
      </trkpt>
      <trkpt lat="43.66407" lon="1.40289">
        <ele>124</ele>
        <time>2025-05-23T10:21:14Z</time>
      </trkpt>
      <trkpt lat="43.66404" lon="1.40293">
        <ele>124</ele>
        <time>2025-05-23T10:21:15Z</time>
      </trkpt>
      <trkpt lat="43.66402" lon="1.40297">
        <ele>124</ele>
        <time>2025-05-23T10:21:16Z</time>
      </trkpt>
      <trkpt lat="43.66399" lon="1.40301">
        <ele>124</ele>
        <time>2025-05-23T10:21:17Z</time>
      </trkpt>
      <trkpt lat="43.66397" lon="1.40306">
        <ele>124</ele>
        <time>2025-05-23T10:21:18Z</time>
      </trkpt>
      <trkpt lat="43.66394" lon="1.40309">
        <ele>124</ele>
        <time>2025-05-23T10:21:19Z</time>
      </trkpt>
      <trkpt lat="43.66394" lon="1.40309">
        <ele>124</ele>
        <time>2025-05-23T10:21:20Z</time>
      </trkpt>
      <trkpt lat="43.66391" lon="1.4031">
        <ele>124</ele>
        <time>2025-05-23T10:21:21Z</time>
      </trkpt>
      <trkpt lat="43.66388" lon="1.40312">
        <ele>125</ele>
        <time>2025-05-23T10:21:22Z</time>
      </trkpt>
      <trkpt lat="43.66385" lon="1.40314">
        <ele>125</ele>
        <time>2025-05-23T10:21:23Z</time>
      </trkpt>
      <trkpt lat="43.66384" lon="1.40316">
        <ele>125</ele>
        <time>2025-05-23T10:21:24Z</time>
      </trkpt>
      <trkpt lat="43.66382" lon="1.40318">
        <ele>126</ele>
        <time>2025-05-23T10:21:25Z</time>
      </trkpt>
      <trkpt lat="43.6638" lon="1.4032">
        <ele>126</ele>
        <time>2025-05-23T10:21:26Z</time>
      </trkpt>
      <trkpt lat="43.66379" lon="1.40322">
        <ele>126</ele>
        <time>2025-05-23T10:21:27Z</time>
      </trkpt>
      <trkpt lat="43.66377" lon="1.40324">
        <ele>126</ele>
        <time>2025-05-23T10:21:28Z</time>
      </trkpt>
      <trkpt lat="43.66373" lon="1.40326">
        <ele>126</ele>
        <time>2025-05-23T10:21:29Z</time>
      </trkpt>
      <trkpt lat="43.6637" lon="1.40329">
        <ele>126</ele>
        <time>2025-05-23T10:21:30Z</time>
      </trkpt>
      <trkpt lat="43.66366" lon="1.40331">
        <ele>126</ele>
        <time>2025-05-23T10:21:31Z</time>
      </trkpt>
      <trkpt lat="43.66363" lon="1.40332">
        <ele>126</ele>
        <time>2025-05-23T10:21:32Z</time>
      </trkpt>
      <trkpt lat="43.6636" lon="1.40333">
        <ele>126</ele>
        <time>2025-05-23T10:21:33Z</time>
      </trkpt>
      <trkpt lat="43.66357" lon="1.40334">
        <ele>126</ele>
        <time>2025-05-23T10:21:34Z</time>
      </trkpt>
      <trkpt lat="43.66356" lon="1.40336">
        <ele>126</ele>
        <time>2025-05-23T10:21:35Z</time>
      </trkpt>
      <trkpt lat="43.66354" lon="1.40338">
        <ele>126</ele>
        <time>2025-05-23T10:21:36Z</time>
      </trkpt>
      <trkpt lat="43.66353" lon="1.4034">
        <ele>126</ele>
        <time>2025-05-23T10:21:37Z</time>
      </trkpt>
      <trkpt lat="43.66351" lon="1.40342">
        <ele>126</ele>
        <time>2025-05-23T10:21:38Z</time>
      </trkpt>
      <trkpt lat="43.6635" lon="1.40344">
        <ele>126</ele>
        <time>2025-05-23T10:21:39Z</time>
      </trkpt>
      <trkpt lat="43.66348" lon="1.40347">
        <ele>126</ele>
        <time>2025-05-23T10:21:40Z</time>
      </trkpt>
      <trkpt lat="43.66345" lon="1.40349">
        <ele>126</ele>
        <time>2025-05-23T10:21:41Z</time>
      </trkpt>
      <trkpt lat="43.66343" lon="1.40352">
        <ele>126</ele>
        <time>2025-05-23T10:21:42Z</time>
      </trkpt>
      <trkpt lat="43.66336" lon="1.40353">
        <ele>126</ele>
        <time>2025-05-23T10:21:43Z</time>
      </trkpt>
      <trkpt lat="43.66335" lon="1.40352">
        <ele>126</ele>
        <time>2025-05-23T10:21:44Z</time>
      </trkpt>
      <trkpt lat="43.66335" lon="1.40352">
        <ele>126</ele>
        <time>2025-05-23T10:21:45Z</time>
      </trkpt>
      <trkpt lat="43.66332" lon="1.40352">
        <ele>126</ele>
        <time>2025-05-23T10:21:46Z</time>
      </trkpt>
      <trkpt lat="43.6633" lon="1.40352">
        <ele>126</ele>
        <time>2025-05-23T10:21:47Z</time>
      </trkpt>
      <trkpt lat="43.66327" lon="1.40352">
        <ele>126</ele>
        <time>2025-05-23T10:21:48Z</time>
      </trkpt>
      <trkpt lat="43.66325" lon="1.40352">
        <ele>126</ele>
        <time>2025-05-23T10:21:49Z</time>
      </trkpt>
      <trkpt lat="43.66324" lon="1.40357">
        <ele>126</ele>
        <time>2025-05-23T10:21:50Z</time>
      </trkpt>
      <trkpt lat="43.66324" lon="1.40362">
        <ele>126</ele>
        <time>2025-05-23T10:21:51Z</time>
      </trkpt>
      <trkpt lat="43.66323" lon="1.40366">
        <ele>126</ele>
        <time>2025-05-23T10:21:52Z</time>
      </trkpt>
      <trkpt lat="43.66322" lon="1.40371">
        <ele>126</ele>
        <time>2025-05-23T10:21:53Z</time>
      </trkpt>
      <trkpt lat="43.66319" lon="1.40376">
        <ele>126</ele>
        <time>2025-05-23T10:21:54Z</time>
      </trkpt>
      <trkpt lat="43.66318" lon="1.40377">
        <ele>125</ele>
        <time>2025-05-23T10:21:55Z</time>
      </trkpt>
      <trkpt lat="43.66316" lon="1.4038">
        <ele>125</ele>
        <time>2025-05-23T10:21:56Z</time>
      </trkpt>
      <trkpt lat="43.66314" lon="1.40383">
        <ele>125</ele>
        <time>2025-05-23T10:21:57Z</time>
      </trkpt>
      <trkpt lat="43.66311" lon="1.40385">
        <ele>125</ele>
        <time>2025-05-23T10:21:58Z</time>
      </trkpt>
      <trkpt lat="43.66309" lon="1.40387">
        <ele>125</ele>
        <time>2025-05-23T10:21:59Z</time>
      </trkpt>
      <trkpt lat="43.66307" lon="1.40389">
        <ele>125</ele>
        <time>2025-05-23T10:22:00Z</time>
      </trkpt>
      <trkpt lat="43.66307" lon="1.40389">
        <ele>125</ele>
        <time>2025-05-23T10:22:01Z</time>
      </trkpt>
      <trkpt lat="43.66305" lon="1.4039">
        <ele>125</ele>
        <time>2025-05-23T10:22:02Z</time>
      </trkpt>
      <trkpt lat="43.66303" lon="1.40391">
        <ele>125</ele>
        <time>2025-05-23T10:22:03Z</time>
      </trkpt>
      <trkpt lat="43.66301" lon="1.40393">
        <ele>125</ele>
        <time>2025-05-23T10:22:04Z</time>
      </trkpt>
      <trkpt lat="43.66298" lon="1.40394">
        <ele>125</ele>
        <time>2025-05-23T10:22:05Z</time>
      </trkpt>
      <trkpt lat="43.66297" lon="1.40397">
        <ele>125</ele>
        <time>2025-05-23T10:22:06Z</time>
      </trkpt>
      <trkpt lat="43.66295" lon="1.404">
        <ele>125</ele>
        <time>2025-05-23T10:22:07Z</time>
      </trkpt>
      <trkpt lat="43.66294" lon="1.40404">
        <ele>125</ele>
        <time>2025-05-23T10:22:08Z</time>
      </trkpt>
      <trkpt lat="43.66292" lon="1.40407">
        <ele>125</ele>
        <time>2025-05-23T10:22:09Z</time>
      </trkpt>
      <trkpt lat="43.66289" lon="1.40409">
        <ele>125</ele>
        <time>2025-05-23T10:22:10Z</time>
      </trkpt>
      <trkpt lat="43.66287" lon="1.40411">
        <ele>124</ele>
        <time>2025-05-23T10:22:11Z</time>
      </trkpt>
      <trkpt lat="43.66284" lon="1.40412">
        <ele>124</ele>
        <time>2025-05-23T10:22:12Z</time>
      </trkpt>
      <trkpt lat="43.66281" lon="1.40414">
        <ele>124</ele>
        <time>2025-05-23T10:22:13Z</time>
      </trkpt>
      <trkpt lat="43.66278" lon="1.40416">
        <ele>124</ele>
        <time>2025-05-23T10:22:14Z</time>
      </trkpt>
      <trkpt lat="43.66276" lon="1.40417">
        <ele>124</ele>
        <time>2025-05-23T10:22:15Z</time>
      </trkpt>
      <trkpt lat="43.66273" lon="1.40419">
        <ele>124</ele>
        <time>2025-05-23T10:22:16Z</time>
      </trkpt>
      <trkpt lat="43.6627" lon="1.40421">
        <ele>124</ele>
        <time>2025-05-23T10:22:17Z</time>
      </trkpt>
      <trkpt lat="43.66267" lon="1.40423">
        <ele>124</ele>
        <time>2025-05-23T10:22:18Z</time>
      </trkpt>
      <trkpt lat="43.66265" lon="1.40425">
        <ele>124</ele>
        <time>2025-05-23T10:22:19Z</time>
      </trkpt>
      <trkpt lat="43.66262" lon="1.40426">
        <ele>125</ele>
        <time>2025-05-23T10:22:20Z</time>
      </trkpt>
      <trkpt lat="43.66259" lon="1.40428">
        <ele>125</ele>
        <time>2025-05-23T10:22:21Z</time>
      </trkpt>
      <trkpt lat="43.66256" lon="1.4043">
        <ele>125</ele>
        <time>2025-05-23T10:22:22Z</time>
      </trkpt>
      <trkpt lat="43.66254" lon="1.40432">
        <ele>125</ele>
        <time>2025-05-23T10:22:23Z</time>
      </trkpt>
      <trkpt lat="43.66251" lon="1.40433">
        <ele>125</ele>
        <time>2025-05-23T10:22:24Z</time>
      </trkpt>
      <trkpt lat="43.66248" lon="1.40435">
        <ele>125</ele>
        <time>2025-05-23T10:22:25Z</time>
      </trkpt>
      <trkpt lat="43.66246" lon="1.40437">
        <ele>125</ele>
        <time>2025-05-23T10:22:26Z</time>
      </trkpt>
      <trkpt lat="43.66243" lon="1.40439">
        <ele>124</ele>
        <time>2025-05-23T10:22:27Z</time>
      </trkpt>
      <trkpt lat="43.6624" lon="1.40441">
        <ele>124</ele>
        <time>2025-05-23T10:22:28Z</time>
      </trkpt>
      <trkpt lat="43.66238" lon="1.40443">
        <ele>124</ele>
        <time>2025-05-23T10:22:29Z</time>
      </trkpt>
      <trkpt lat="43.66235" lon="1.40445">
        <ele>125</ele>
        <time>2025-05-23T10:22:30Z</time>
      </trkpt>
      <trkpt lat="43.66233" lon="1.40446">
        <ele>125</ele>
        <time>2025-05-23T10:22:31Z</time>
      </trkpt>
      <trkpt lat="43.66231" lon="1.40448">
        <ele>125</ele>
        <time>2025-05-23T10:22:32Z</time>
      </trkpt>
      <trkpt lat="43.66229" lon="1.40449">
        <ele>124</ele>
        <time>2025-05-23T10:22:33Z</time>
      </trkpt>
      <trkpt lat="43.66227" lon="1.40451">
        <ele>125</ele>
        <time>2025-05-23T10:22:34Z</time>
      </trkpt>
      <trkpt lat="43.66226" lon="1.40452">
        <ele>125</ele>
        <time>2025-05-23T10:22:35Z</time>
      </trkpt>
      <trkpt lat="43.66223" lon="1.40454">
        <ele>125</ele>
        <time>2025-05-23T10:22:36Z</time>
      </trkpt>
      <trkpt lat="43.66221" lon="1.40455">
        <ele>125</ele>
        <time>2025-05-23T10:22:37Z</time>
      </trkpt>
      <trkpt lat="43.66219" lon="1.40457">
        <ele>125</ele>
        <time>2025-05-23T10:22:38Z</time>
      </trkpt>
      <trkpt lat="43.66216" lon="1.40458">
        <ele>125</ele>
        <time>2025-05-23T10:22:39Z</time>
      </trkpt>
      <trkpt lat="43.66213" lon="1.4046">
        <ele>125</ele>
        <time>2025-05-23T10:22:40Z</time>
      </trkpt>
      <trkpt lat="43.66211" lon="1.40463">
        <ele>125</ele>
        <time>2025-05-23T10:22:41Z</time>
      </trkpt>
      <trkpt lat="43.66208" lon="1.40465">
        <ele>125</ele>
        <time>2025-05-23T10:22:42Z</time>
      </trkpt>
      <trkpt lat="43.66204" lon="1.40467">
        <ele>125</ele>
        <time>2025-05-23T10:22:43Z</time>
      </trkpt>
      <trkpt lat="43.66201" lon="1.40469">
        <ele>125</ele>
        <time>2025-05-23T10:22:44Z</time>
      </trkpt>
      <trkpt lat="43.66198" lon="1.40471">
        <ele>125</ele>
        <time>2025-05-23T10:22:45Z</time>
      </trkpt>
      <trkpt lat="43.66194" lon="1.40475">
        <ele>125</ele>
        <time>2025-05-23T10:22:46Z</time>
      </trkpt>
      <trkpt lat="43.6619" lon="1.40479">
        <ele>125</ele>
        <time>2025-05-23T10:22:47Z</time>
      </trkpt>
      <trkpt lat="43.66186" lon="1.40483">
        <ele>124</ele>
        <time>2025-05-23T10:22:48Z</time>
      </trkpt>
      <trkpt lat="43.66183" lon="1.40485">
        <ele>124</ele>
        <time>2025-05-23T10:22:49Z</time>
      </trkpt>
      <trkpt lat="43.66181" lon="1.40487">
        <ele>124</ele>
        <time>2025-05-23T10:22:50Z</time>
      </trkpt>
      <trkpt lat="43.66181" lon="1.40487">
        <ele>124</ele>
        <time>2025-05-23T10:22:51Z</time>
      </trkpt>
      <trkpt lat="43.66175" lon="1.40491">
        <ele>124</ele>
        <time>2025-05-23T10:22:52Z</time>
      </trkpt>
      <trkpt lat="43.66173" lon="1.40491">
        <ele>124</ele>
        <time>2025-05-23T10:22:53Z</time>
      </trkpt>
      <trkpt lat="43.6617" lon="1.40492">
        <ele>124</ele>
        <time>2025-05-23T10:22:54Z</time>
      </trkpt>
      <trkpt lat="43.6617" lon="1.40492">
        <ele>124</ele>
        <time>2025-05-23T10:22:55Z</time>
      </trkpt>
      <trkpt lat="43.66166" lon="1.40494">
        <ele>124</ele>
        <time>2025-05-23T10:22:56Z</time>
      </trkpt>
      <trkpt lat="43.66161" lon="1.40495">
        <ele>124</ele>
        <time>2025-05-23T10:22:57Z</time>
      </trkpt>
      <trkpt lat="43.66157" lon="1.40497">
        <ele>124</ele>
        <time>2025-05-23T10:22:58Z</time>
      </trkpt>
      <trkpt lat="43.66155" lon="1.40498">
        <ele>125</ele>
        <time>2025-05-23T10:22:59Z</time>
      </trkpt>
      <trkpt lat="43.66148" lon="1.40502">
        <ele>125</ele>
        <time>2025-05-23T10:23:00Z</time>
      </trkpt>
      <trkpt lat="43.66148" lon="1.40502">
        <ele>125</ele>
        <time>2025-05-23T10:23:01Z</time>
      </trkpt>
      <trkpt lat="43.66145" lon="1.40503">
        <ele>125</ele>
        <time>2025-05-23T10:23:02Z</time>
      </trkpt>
      <trkpt lat="43.66142" lon="1.40505">
        <ele>125</ele>
        <time>2025-05-23T10:23:03Z</time>
      </trkpt>
      <trkpt lat="43.66139" lon="1.40506">
        <ele>125</ele>
        <time>2025-05-23T10:23:04Z</time>
      </trkpt>
      <trkpt lat="43.66135" lon="1.40507">
        <ele>125</ele>
        <time>2025-05-23T10:23:05Z</time>
      </trkpt>
      <trkpt lat="43.66132" lon="1.40508">
        <ele>125</ele>
        <time>2025-05-23T10:23:06Z</time>
      </trkpt>
      <trkpt lat="43.66128" lon="1.40509">
        <ele>125</ele>
        <time>2025-05-23T10:23:07Z</time>
      </trkpt>
      <trkpt lat="43.66124" lon="1.40511">
        <ele>125</ele>
        <time>2025-05-23T10:23:08Z</time>
      </trkpt>
      <trkpt lat="43.66121" lon="1.40511">
        <ele>125</ele>
        <time>2025-05-23T10:23:09Z</time>
      </trkpt>
      <trkpt lat="43.66118" lon="1.40513">
        <ele>125</ele>
        <time>2025-05-23T10:23:10Z</time>
      </trkpt>
      <trkpt lat="43.66115" lon="1.40514">
        <ele>125</ele>
        <time>2025-05-23T10:23:11Z</time>
      </trkpt>
      <trkpt lat="43.66112" lon="1.40515">
        <ele>125</ele>
        <time>2025-05-23T10:23:12Z</time>
      </trkpt>
      <trkpt lat="43.66112" lon="1.40515">
        <ele>125</ele>
        <time>2025-05-23T10:23:13Z</time>
      </trkpt>
      <trkpt lat="43.6611" lon="1.40516">
        <ele>125</ele>
        <time>2025-05-23T10:23:14Z</time>
      </trkpt>
      <trkpt lat="43.66107" lon="1.40517">
        <ele>125</ele>
        <time>2025-05-23T10:23:15Z</time>
      </trkpt>
      <trkpt lat="43.66104" lon="1.40518">
        <ele>125</ele>
        <time>2025-05-23T10:23:16Z</time>
      </trkpt>
      <trkpt lat="43.66101" lon="1.40519">
        <ele>125</ele>
        <time>2025-05-23T10:23:17Z</time>
      </trkpt>
      <trkpt lat="43.66099" lon="1.40519">
        <ele>125</ele>
        <time>2025-05-23T10:23:18Z</time>
      </trkpt>
      <trkpt lat="43.66096" lon="1.40519">
        <ele>125</ele>
        <time>2025-05-23T10:23:19Z</time>
      </trkpt>
      <trkpt lat="43.66094" lon="1.40519">
        <ele>125</ele>
        <time>2025-05-23T10:23:20Z</time>
      </trkpt>
      <trkpt lat="43.66091" lon="1.40519">
        <ele>126</ele>
        <time>2025-05-23T10:23:21Z</time>
      </trkpt>
      <trkpt lat="43.66088" lon="1.40518">
        <ele>126</ele>
        <time>2025-05-23T10:23:22Z</time>
      </trkpt>
      <trkpt lat="43.66086" lon="1.40517">
        <ele>126</ele>
        <time>2025-05-23T10:23:23Z</time>
      </trkpt>
      <trkpt lat="43.66083" lon="1.40516">
        <ele>126</ele>
        <time>2025-05-23T10:23:24Z</time>
      </trkpt>
      <trkpt lat="43.66081" lon="1.40515">
        <ele>126</ele>
        <time>2025-05-23T10:23:25Z</time>
      </trkpt>
      <trkpt lat="43.66078" lon="1.40516">
        <ele>126</ele>
        <time>2025-05-23T10:23:26Z</time>
      </trkpt>
      <trkpt lat="43.66075" lon="1.40516">
        <ele>126</ele>
        <time>2025-05-23T10:23:27Z</time>
      </trkpt>
      <trkpt lat="43.66072" lon="1.40517">
        <ele>126</ele>
        <time>2025-05-23T10:23:28Z</time>
      </trkpt>
      <trkpt lat="43.66068" lon="1.40518">
        <ele>126</ele>
        <time>2025-05-23T10:23:29Z</time>
      </trkpt>
      <trkpt lat="43.66065" lon="1.4052">
        <ele>126</ele>
        <time>2025-05-23T10:23:30Z</time>
      </trkpt>
      <trkpt lat="43.66062" lon="1.40521">
        <ele>126</ele>
        <time>2025-05-23T10:23:31Z</time>
      </trkpt>
      <trkpt lat="43.66059" lon="1.40522">
        <ele>126</ele>
        <time>2025-05-23T10:23:32Z</time>
      </trkpt>
      <trkpt lat="43.66056" lon="1.40523">
        <ele>126</ele>
        <time>2025-05-23T10:23:33Z</time>
      </trkpt>
      <trkpt lat="43.66054" lon="1.40524">
        <ele>126</ele>
        <time>2025-05-23T10:23:34Z</time>
      </trkpt>
      <trkpt lat="43.66051" lon="1.40524">
        <ele>126</ele>
        <time>2025-05-23T10:23:35Z</time>
      </trkpt>
      <trkpt lat="43.66048" lon="1.40525">
        <ele>126</ele>
        <time>2025-05-23T10:23:36Z</time>
      </trkpt>
      <trkpt lat="43.66045" lon="1.40526">
        <ele>126</ele>
        <time>2025-05-23T10:23:37Z</time>
      </trkpt>
      <trkpt lat="43.66043" lon="1.40526">
        <ele>126</ele>
        <time>2025-05-23T10:23:38Z</time>
      </trkpt>
      <trkpt lat="43.6604" lon="1.40527">
        <ele>126</ele>
        <time>2025-05-23T10:23:39Z</time>
      </trkpt>
      <trkpt lat="43.66038" lon="1.40528">
        <ele>126</ele>
        <time>2025-05-23T10:23:40Z</time>
      </trkpt>
      <trkpt lat="43.66035" lon="1.4053">
        <ele>126</ele>
        <time>2025-05-23T10:23:41Z</time>
      </trkpt>
      <trkpt lat="43.66032" lon="1.40531">
        <ele>126</ele>
        <time>2025-05-23T10:23:42Z</time>
      </trkpt>
      <trkpt lat="43.6603" lon="1.40532">
        <ele>126</ele>
        <time>2025-05-23T10:23:43Z</time>
      </trkpt>
      <trkpt lat="43.66027" lon="1.40533">
        <ele>126</ele>
        <time>2025-05-23T10:23:44Z</time>
      </trkpt>
      <trkpt lat="43.66023" lon="1.40533">
        <ele>126</ele>
        <time>2025-05-23T10:23:45Z</time>
      </trkpt>
      <trkpt lat="43.6602" lon="1.40534">
        <ele>126</ele>
        <time>2025-05-23T10:23:46Z</time>
      </trkpt>
      <trkpt lat="43.66017" lon="1.40533">
        <ele>126</ele>
        <time>2025-05-23T10:23:47Z</time>
      </trkpt>
      <trkpt lat="43.66013" lon="1.40532">
        <ele>126</ele>
        <time>2025-05-23T10:23:48Z</time>
      </trkpt>
      <trkpt lat="43.6601" lon="1.40532">
        <ele>126</ele>
        <time>2025-05-23T10:23:49Z</time>
      </trkpt>
      <trkpt lat="43.66007" lon="1.4053">
        <ele>126</ele>
        <time>2025-05-23T10:23:50Z</time>
      </trkpt>
      <trkpt lat="43.66005" lon="1.40529">
        <ele>126</ele>
        <time>2025-05-23T10:23:51Z</time>
      </trkpt>
      <trkpt lat="43.66002" lon="1.40527">
        <ele>126</ele>
        <time>2025-05-23T10:23:52Z</time>
      </trkpt>
      <trkpt lat="43.65999" lon="1.40526">
        <ele>126</ele>
        <time>2025-05-23T10:23:53Z</time>
      </trkpt>
      <trkpt lat="43.65996" lon="1.40526">
        <ele>126</ele>
        <time>2025-05-23T10:23:54Z</time>
      </trkpt>
      <trkpt lat="43.65994" lon="1.40525">
        <ele>126</ele>
        <time>2025-05-23T10:23:55Z</time>
      </trkpt>
      <trkpt lat="43.65991" lon="1.40525">
        <ele>126</ele>
        <time>2025-05-23T10:23:56Z</time>
      </trkpt>
      <trkpt lat="43.65988" lon="1.40525">
        <ele>126</ele>
        <time>2025-05-23T10:23:57Z</time>
      </trkpt>
      <trkpt lat="43.65985" lon="1.40525">
        <ele>126</ele>
        <time>2025-05-23T10:23:58Z</time>
      </trkpt>
      <trkpt lat="43.65982" lon="1.40525">
        <ele>126</ele>
        <time>2025-05-23T10:23:59Z</time>
      </trkpt>
      <trkpt lat="43.65979" lon="1.40525">
        <ele>126</ele>
        <time>2025-05-23T10:24:00Z</time>
      </trkpt>
      <trkpt lat="43.65976" lon="1.40526">
        <ele>126</ele>
        <time>2025-05-23T10:24:01Z</time>
      </trkpt>
      <trkpt lat="43.65974" lon="1.40527">
        <ele>126</ele>
        <time>2025-05-23T10:24:02Z</time>
      </trkpt>
      <trkpt lat="43.65971" lon="1.40528">
        <ele>126</ele>
        <time>2025-05-23T10:24:03Z</time>
      </trkpt>
      <trkpt lat="43.65969" lon="1.40529">
        <ele>125</ele>
        <time>2025-05-23T10:24:04Z</time>
      </trkpt>
      <trkpt lat="43.65966" lon="1.4053">
        <ele>126</ele>
        <time>2025-05-23T10:24:05Z</time>
      </trkpt>
      <trkpt lat="43.65962" lon="1.40532">
        <ele>126</ele>
        <time>2025-05-23T10:24:06Z</time>
      </trkpt>
      <trkpt lat="43.65959" lon="1.40533">
        <ele>126</ele>
        <time>2025-05-23T10:24:07Z</time>
      </trkpt>
      <trkpt lat="43.65956" lon="1.40534">
        <ele>126</ele>
        <time>2025-05-23T10:24:08Z</time>
      </trkpt>
      <trkpt lat="43.65952" lon="1.40535">
        <ele>126</ele>
        <time>2025-05-23T10:24:09Z</time>
      </trkpt>
      <trkpt lat="43.65948" lon="1.40536">
        <ele>126</ele>
        <time>2025-05-23T10:24:10Z</time>
      </trkpt>
      <trkpt lat="43.65946" lon="1.40538">
        <ele>126</ele>
        <time>2025-05-23T10:24:11Z</time>
      </trkpt>
      <trkpt lat="43.65943" lon="1.40539">
        <ele>126</ele>
        <time>2025-05-23T10:24:12Z</time>
      </trkpt>
      <trkpt lat="43.6594" lon="1.40541">
        <ele>126</ele>
        <time>2025-05-23T10:24:13Z</time>
      </trkpt>
      <trkpt lat="43.65937" lon="1.40542">
        <ele>126</ele>
        <time>2025-05-23T10:24:14Z</time>
      </trkpt>
      <trkpt lat="43.65934" lon="1.40543">
        <ele>126</ele>
        <time>2025-05-23T10:24:15Z</time>
      </trkpt>
      <trkpt lat="43.6593" lon="1.40543">
        <ele>127</ele>
        <time>2025-05-23T10:24:16Z</time>
      </trkpt>
      <trkpt lat="43.65927" lon="1.40543">
        <ele>127</ele>
        <time>2025-05-23T10:24:17Z</time>
      </trkpt>
      <trkpt lat="43.65924" lon="1.40544">
        <ele>127</ele>
        <time>2025-05-23T10:24:18Z</time>
      </trkpt>
      <trkpt lat="43.65921" lon="1.40544">
        <ele>127</ele>
        <time>2025-05-23T10:24:19Z</time>
      </trkpt>
      <trkpt lat="43.65918" lon="1.40546">
        <ele>127</ele>
        <time>2025-05-23T10:24:20Z</time>
      </trkpt>
      <trkpt lat="43.65914" lon="1.40547">
        <ele>127</ele>
        <time>2025-05-23T10:24:21Z</time>
      </trkpt>
      <trkpt lat="43.65911" lon="1.40548">
        <ele>127</ele>
        <time>2025-05-23T10:24:22Z</time>
      </trkpt>
      <trkpt lat="43.65908" lon="1.40549">
        <ele>126</ele>
        <time>2025-05-23T10:24:23Z</time>
      </trkpt>
      <trkpt lat="43.65905" lon="1.4055">
        <ele>126</ele>
        <time>2025-05-23T10:24:24Z</time>
      </trkpt>
      <trkpt lat="43.65902" lon="1.40551">
        <ele>126</ele>
        <time>2025-05-23T10:24:25Z</time>
      </trkpt>
      <trkpt lat="43.65899" lon="1.40552">
        <ele>126</ele>
        <time>2025-05-23T10:24:26Z</time>
      </trkpt>
      <trkpt lat="43.65896" lon="1.40552">
        <ele>126</ele>
        <time>2025-05-23T10:24:27Z</time>
      </trkpt>
      <trkpt lat="43.65893" lon="1.40552">
        <ele>126</ele>
        <time>2025-05-23T10:24:28Z</time>
      </trkpt>
      <trkpt lat="43.6589" lon="1.40552">
        <ele>126</ele>
        <time>2025-05-23T10:24:29Z</time>
      </trkpt>
      <trkpt lat="43.65887" lon="1.40552">
        <ele>126</ele>
        <time>2025-05-23T10:24:30Z</time>
      </trkpt>
      <trkpt lat="43.65885" lon="1.40552">
        <ele>126</ele>
        <time>2025-05-23T10:24:31Z</time>
      </trkpt>
      <trkpt lat="43.65882" lon="1.40553">
        <ele>126</ele>
        <time>2025-05-23T10:24:32Z</time>
      </trkpt>
      <trkpt lat="43.65879" lon="1.40553">
        <ele>126</ele>
        <time>2025-05-23T10:24:33Z</time>
      </trkpt>
      <trkpt lat="43.65876" lon="1.40554">
        <ele>126</ele>
        <time>2025-05-23T10:24:34Z</time>
      </trkpt>
      <trkpt lat="43.65873" lon="1.40556">
        <ele>126</ele>
        <time>2025-05-23T10:24:35Z</time>
      </trkpt>
      <trkpt lat="43.6587" lon="1.40556">
        <ele>126</ele>
        <time>2025-05-23T10:24:36Z</time>
      </trkpt>
      <trkpt lat="43.65866" lon="1.40556">
        <ele>126</ele>
        <time>2025-05-23T10:24:37Z</time>
      </trkpt>
      <trkpt lat="43.65863" lon="1.40557">
        <ele>126</ele>
        <time>2025-05-23T10:24:38Z</time>
      </trkpt>
      <trkpt lat="43.6586" lon="1.40557">
        <ele>126</ele>
        <time>2025-05-23T10:24:39Z</time>
      </trkpt>
      <trkpt lat="43.65857" lon="1.40558">
        <ele>126</ele>
        <time>2025-05-23T10:24:40Z</time>
      </trkpt>
      <trkpt lat="43.65855" lon="1.40559">
        <ele>126</ele>
        <time>2025-05-23T10:24:41Z</time>
      </trkpt>
      <trkpt lat="43.65852" lon="1.40561">
        <ele>126</ele>
        <time>2025-05-23T10:24:42Z</time>
      </trkpt>
      <trkpt lat="43.6585" lon="1.40562">
        <ele>126</ele>
        <time>2025-05-23T10:24:43Z</time>
      </trkpt>
      <trkpt lat="43.65849" lon="1.40564">
        <ele>126</ele>
        <time>2025-05-23T10:24:44Z</time>
      </trkpt>
      <trkpt lat="43.65847" lon="1.40567">
        <ele>126</ele>
        <time>2025-05-23T10:24:45Z</time>
      </trkpt>
      <trkpt lat="43.65846" lon="1.4057">
        <ele>126</ele>
        <time>2025-05-23T10:24:46Z</time>
      </trkpt>
      <trkpt lat="43.65844" lon="1.40573">
        <ele>126</ele>
        <time>2025-05-23T10:24:47Z</time>
      </trkpt>
      <trkpt lat="43.65842" lon="1.40575">
        <ele>126</ele>
        <time>2025-05-23T10:24:48Z</time>
      </trkpt>
      <trkpt lat="43.6584" lon="1.40575">
        <ele>126</ele>
        <time>2025-05-23T10:24:49Z</time>
      </trkpt>
      <trkpt lat="43.65837" lon="1.40574">
        <ele>126</ele>
        <time>2025-05-23T10:24:50Z</time>
      </trkpt>
      <trkpt lat="43.65834" lon="1.40574">
        <ele>126</ele>
        <time>2025-05-23T10:24:51Z</time>
      </trkpt>
      <trkpt lat="43.65831" lon="1.40573">
        <ele>127</ele>
        <time>2025-05-23T10:24:52Z</time>
      </trkpt>
      <trkpt lat="43.65828" lon="1.40572">
        <ele>127</ele>
        <time>2025-05-23T10:24:53Z</time>
      </trkpt>
      <trkpt lat="43.65826" lon="1.40571">
        <ele>127</ele>
        <time>2025-05-23T10:24:54Z</time>
      </trkpt>
      <trkpt lat="43.65823" lon="1.4057">
        <ele>127</ele>
        <time>2025-05-23T10:24:55Z</time>
      </trkpt>
      <trkpt lat="43.6582" lon="1.4057">
        <ele>127</ele>
        <time>2025-05-23T10:24:56Z</time>
      </trkpt>
      <trkpt lat="43.65817" lon="1.4057">
        <ele>127</ele>
        <time>2025-05-23T10:24:57Z</time>
      </trkpt>
      <trkpt lat="43.65815" lon="1.40568">
        <ele>128</ele>
        <time>2025-05-23T10:24:58Z</time>
      </trkpt>
      <trkpt lat="43.65812" lon="1.40565">
        <ele>128</ele>
        <time>2025-05-23T10:24:59Z</time>
      </trkpt>
      <trkpt lat="43.6581" lon="1.40564">
        <ele>127</ele>
        <time>2025-05-23T10:25:00Z</time>
      </trkpt>
      <trkpt lat="43.65808" lon="1.40564">
        <ele>127</ele>
        <time>2025-05-23T10:25:01Z</time>
      </trkpt>
      <trkpt lat="43.65806" lon="1.40564">
        <ele>127</ele>
        <time>2025-05-23T10:25:02Z</time>
      </trkpt>
      <trkpt lat="43.65803" lon="1.40564">
        <ele>128</ele>
        <time>2025-05-23T10:25:03Z</time>
      </trkpt>
      <trkpt lat="43.65801" lon="1.40564">
        <ele>128</ele>
        <time>2025-05-23T10:25:04Z</time>
      </trkpt>
      <trkpt lat="43.65798" lon="1.40563">
        <ele>129</ele>
        <time>2025-05-23T10:25:05Z</time>
      </trkpt>
      <trkpt lat="43.65796" lon="1.40564">
        <ele>129</ele>
        <time>2025-05-23T10:25:06Z</time>
      </trkpt>
      <trkpt lat="43.65793" lon="1.40565">
        <ele>129</ele>
        <time>2025-05-23T10:25:07Z</time>
      </trkpt>
      <trkpt lat="43.6579" lon="1.40565">
        <ele>129</ele>
        <time>2025-05-23T10:25:08Z</time>
      </trkpt>
      <trkpt lat="43.65788" lon="1.40566">
        <ele>129</ele>
        <time>2025-05-23T10:25:09Z</time>
      </trkpt>
      <trkpt lat="43.65785" lon="1.40567">
        <ele>129</ele>
        <time>2025-05-23T10:25:10Z</time>
      </trkpt>
      <trkpt lat="43.65782" lon="1.40568">
        <ele>129</ele>
        <time>2025-05-23T10:25:11Z</time>
      </trkpt>
      <trkpt lat="43.65779" lon="1.40568">
        <ele>129</ele>
        <time>2025-05-23T10:25:12Z</time>
      </trkpt>
      <trkpt lat="43.65776" lon="1.40568">
        <ele>129</ele>
        <time>2025-05-23T10:25:13Z</time>
      </trkpt>
      <trkpt lat="43.65773" lon="1.40568">
        <ele>129</ele>
        <time>2025-05-23T10:25:14Z</time>
      </trkpt>
      <trkpt lat="43.6577" lon="1.40569">
        <ele>129</ele>
        <time>2025-05-23T10:25:15Z</time>
      </trkpt>
      <trkpt lat="43.65768" lon="1.40571">
        <ele>129</ele>
        <time>2025-05-23T10:25:16Z</time>
      </trkpt>
      <trkpt lat="43.65765" lon="1.40574">
        <ele>128</ele>
        <time>2025-05-23T10:25:17Z</time>
      </trkpt>
      <trkpt lat="43.65762" lon="1.40576">
        <ele>128</ele>
        <time>2025-05-23T10:25:18Z</time>
      </trkpt>
      <trkpt lat="43.65758" lon="1.40576">
        <ele>128</ele>
        <time>2025-05-23T10:25:19Z</time>
      </trkpt>
      <trkpt lat="43.65755" lon="1.40576">
        <ele>128</ele>
        <time>2025-05-23T10:25:20Z</time>
      </trkpt>
      <trkpt lat="43.65753" lon="1.40577">
        <ele>128</ele>
        <time>2025-05-23T10:25:21Z</time>
      </trkpt>
      <trkpt lat="43.65753" lon="1.40577">
        <ele>128</ele>
        <time>2025-05-23T10:25:22Z</time>
      </trkpt>
      <trkpt lat="43.65748" lon="1.40583">
        <ele>128</ele>
        <time>2025-05-23T10:25:23Z</time>
      </trkpt>
      <trkpt lat="43.65747" lon="1.40584">
        <ele>128</ele>
        <time>2025-05-23T10:25:24Z</time>
      </trkpt>
      <trkpt lat="43.65744" lon="1.40585">
        <ele>128</ele>
        <time>2025-05-23T10:25:25Z</time>
      </trkpt>
      <trkpt lat="43.65741" lon="1.40585">
        <ele>127</ele>
        <time>2025-05-23T10:25:26Z</time>
      </trkpt>
      <trkpt lat="43.65738" lon="1.40585">
        <ele>126</ele>
        <time>2025-05-23T10:25:27Z</time>
      </trkpt>
      <trkpt lat="43.65735" lon="1.40584">
        <ele>126</ele>
        <time>2025-05-23T10:25:28Z</time>
      </trkpt>
      <trkpt lat="43.65732" lon="1.40584">
        <ele>126</ele>
        <time>2025-05-23T10:25:29Z</time>
      </trkpt>
      <trkpt lat="43.65729" lon="1.40584">
        <ele>126</ele>
        <time>2025-05-23T10:25:30Z</time>
      </trkpt>
      <trkpt lat="43.65727" lon="1.40584">
        <ele>126</ele>
        <time>2025-05-23T10:25:31Z</time>
      </trkpt>
      <trkpt lat="43.65724" lon="1.40585">
        <ele>126</ele>
        <time>2025-05-23T10:25:32Z</time>
      </trkpt>
      <trkpt lat="43.65722" lon="1.40585">
        <ele>126</ele>
        <time>2025-05-23T10:25:33Z</time>
      </trkpt>
      <trkpt lat="43.65719" lon="1.40586">
        <ele>126</ele>
        <time>2025-05-23T10:25:34Z</time>
      </trkpt>
      <trkpt lat="43.65716" lon="1.40587">
        <ele>126</ele>
        <time>2025-05-23T10:25:35Z</time>
      </trkpt>
      <trkpt lat="43.65713" lon="1.40589">
        <ele>126</ele>
        <time>2025-05-23T10:25:36Z</time>
      </trkpt>
      <trkpt lat="43.6571" lon="1.4059">
        <ele>126</ele>
        <time>2025-05-23T10:25:37Z</time>
      </trkpt>
      <trkpt lat="43.65706" lon="1.40592">
        <ele>126</ele>
        <time>2025-05-23T10:25:38Z</time>
      </trkpt>
      <trkpt lat="43.65703" lon="1.40593">
        <ele>125</ele>
        <time>2025-05-23T10:25:39Z</time>
      </trkpt>
      <trkpt lat="43.657" lon="1.40594">
        <ele>125</ele>
        <time>2025-05-23T10:25:40Z</time>
      </trkpt>
      <trkpt lat="43.65696" lon="1.40594">
        <ele>125</ele>
        <time>2025-05-23T10:25:41Z</time>
      </trkpt>
      <trkpt lat="43.65693" lon="1.40594">
        <ele>124</ele>
        <time>2025-05-23T10:25:42Z</time>
      </trkpt>
      <trkpt lat="43.65691" lon="1.40592">
        <ele>124</ele>
        <time>2025-05-23T10:25:43Z</time>
      </trkpt>
      <trkpt lat="43.65689" lon="1.4059">
        <ele>124</ele>
        <time>2025-05-23T10:25:44Z</time>
      </trkpt>
      <trkpt lat="43.65688" lon="1.40587">
        <ele>125</ele>
        <time>2025-05-23T10:25:45Z</time>
      </trkpt>
      <trkpt lat="43.65686" lon="1.40586">
        <ele>125</ele>
        <time>2025-05-23T10:25:46Z</time>
      </trkpt>
      <trkpt lat="43.65684" lon="1.40586">
        <ele>126</ele>
        <time>2025-05-23T10:25:47Z</time>
      </trkpt>
      <trkpt lat="43.65681" lon="1.40588">
        <ele>126</ele>
        <time>2025-05-23T10:25:48Z</time>
      </trkpt>
      <trkpt lat="43.65679" lon="1.4059">
        <ele>126</ele>
        <time>2025-05-23T10:25:49Z</time>
      </trkpt>
      <trkpt lat="43.65676" lon="1.40591">
        <ele>126</ele>
        <time>2025-05-23T10:25:50Z</time>
      </trkpt>
      <trkpt lat="43.65673" lon="1.40593">
        <ele>126</ele>
        <time>2025-05-23T10:25:51Z</time>
      </trkpt>
      <trkpt lat="43.6567" lon="1.40594">
        <ele>126</ele>
        <time>2025-05-23T10:25:52Z</time>
      </trkpt>
      <trkpt lat="43.65666" lon="1.40595">
        <ele>126</ele>
        <time>2025-05-23T10:25:53Z</time>
      </trkpt>
      <trkpt lat="43.65663" lon="1.40595">
        <ele>126</ele>
        <time>2025-05-23T10:25:54Z</time>
      </trkpt>
      <trkpt lat="43.6566" lon="1.40595">
        <ele>125</ele>
        <time>2025-05-23T10:25:55Z</time>
      </trkpt>
      <trkpt lat="43.65657" lon="1.40595">
        <ele>125</ele>
        <time>2025-05-23T10:25:56Z</time>
      </trkpt>
      <trkpt lat="43.65654" lon="1.40594">
        <ele>125</ele>
        <time>2025-05-23T10:25:57Z</time>
      </trkpt>
      <trkpt lat="43.65651" lon="1.40594">
        <ele>125</ele>
        <time>2025-05-23T10:25:58Z</time>
      </trkpt>
      <trkpt lat="43.65648" lon="1.40594">
        <ele>125</ele>
        <time>2025-05-23T10:25:59Z</time>
      </trkpt>
      <trkpt lat="43.65645" lon="1.40594">
        <ele>125</ele>
        <time>2025-05-23T10:26:00Z</time>
      </trkpt>
      <trkpt lat="43.65642" lon="1.40595">
        <ele>125</ele>
        <time>2025-05-23T10:26:01Z</time>
      </trkpt>
      <trkpt lat="43.65639" lon="1.40596">
        <ele>125</ele>
        <time>2025-05-23T10:26:02Z</time>
      </trkpt>
      <trkpt lat="43.65636" lon="1.40596">
        <ele>125</ele>
        <time>2025-05-23T10:26:03Z</time>
      </trkpt>
      <trkpt lat="43.65633" lon="1.40597">
        <ele>125</ele>
        <time>2025-05-23T10:26:04Z</time>
      </trkpt>
      <trkpt lat="43.65629" lon="1.40596">
        <ele>125</ele>
        <time>2025-05-23T10:26:05Z</time>
      </trkpt>
      <trkpt lat="43.65626" lon="1.40595">
        <ele>125</ele>
        <time>2025-05-23T10:26:06Z</time>
      </trkpt>
      <trkpt lat="43.65626" lon="1.40595">
        <ele>125</ele>
        <time>2025-05-23T10:26:07Z</time>
      </trkpt>
      <trkpt lat="43.6562" lon="1.40594">
        <ele>125</ele>
        <time>2025-05-23T10:26:08Z</time>
      </trkpt>
      <trkpt lat="43.65618" lon="1.40594">
        <ele>125</ele>
        <time>2025-05-23T10:26:09Z</time>
      </trkpt>
      <trkpt lat="43.65615" lon="1.40593">
        <ele>125</ele>
        <time>2025-05-23T10:26:10Z</time>
      </trkpt>
      <trkpt lat="43.65612" lon="1.40593">
        <ele>125</ele>
        <time>2025-05-23T10:26:11Z</time>
      </trkpt>
      <trkpt lat="43.65609" lon="1.40592">
        <ele>125</ele>
        <time>2025-05-23T10:26:12Z</time>
      </trkpt>
      <trkpt lat="43.65606" lon="1.40592">
        <ele>125</ele>
        <time>2025-05-23T10:26:13Z</time>
      </trkpt>
      <trkpt lat="43.65606" lon="1.40592">
        <ele>125</ele>
        <time>2025-05-23T10:26:14Z</time>
      </trkpt>
      <trkpt lat="43.65598" lon="1.40593">
        <ele>126</ele>
        <time>2025-05-23T10:26:15Z</time>
      </trkpt>
      <trkpt lat="43.65597" lon="1.40594">
        <ele>126</ele>
        <time>2025-05-23T10:26:16Z</time>
      </trkpt>
      <trkpt lat="43.65597" lon="1.40594">
        <ele>125</ele>
        <time>2025-05-23T10:26:17Z</time>
      </trkpt>
      <trkpt lat="43.65589" lon="1.40593">
        <ele>125</ele>
        <time>2025-05-23T10:26:18Z</time>
      </trkpt>
      <trkpt lat="43.65588" lon="1.40593">
        <ele>125</ele>
        <time>2025-05-23T10:26:19Z</time>
      </trkpt>
      <trkpt lat="43.65585" lon="1.40593">
        <ele>125</ele>
        <time>2025-05-23T10:26:20Z</time>
      </trkpt>
      <trkpt lat="43.65581" lon="1.40594">
        <ele>125</ele>
        <time>2025-05-23T10:26:21Z</time>
      </trkpt>
      <trkpt lat="43.65578" lon="1.40593">
        <ele>126</ele>
        <time>2025-05-23T10:26:22Z</time>
      </trkpt>
      <trkpt lat="43.65574" lon="1.40593">
        <ele>126</ele>
        <time>2025-05-23T10:26:23Z</time>
      </trkpt>
      <trkpt lat="43.65574" lon="1.40593">
        <ele>126</ele>
        <time>2025-05-23T10:26:24Z</time>
      </trkpt>
      <trkpt lat="43.65567" lon="1.40593">
        <ele>126</ele>
        <time>2025-05-23T10:26:25Z</time>
      </trkpt>
      <trkpt lat="43.65565" lon="1.40593">
        <ele>126</ele>
        <time>2025-05-23T10:26:26Z</time>
      </trkpt>
      <trkpt lat="43.65563" lon="1.40593">
        <ele>126</ele>
        <time>2025-05-23T10:26:27Z</time>
      </trkpt>
      <trkpt lat="43.65559" lon="1.40593">
        <ele>126</ele>
        <time>2025-05-23T10:26:28Z</time>
      </trkpt>
      <trkpt lat="43.65556" lon="1.40593">
        <ele>126</ele>
        <time>2025-05-23T10:26:29Z</time>
      </trkpt>
      <trkpt lat="43.65552" lon="1.40592">
        <ele>126</ele>
        <time>2025-05-23T10:26:30Z</time>
      </trkpt>
      <trkpt lat="43.65549" lon="1.40591">
        <ele>126</ele>
        <time>2025-05-23T10:26:31Z</time>
      </trkpt>
      <trkpt lat="43.65545" lon="1.40591">
        <ele>126</ele>
        <time>2025-05-23T10:26:32Z</time>
      </trkpt>
      <trkpt lat="43.65542" lon="1.4059">
        <ele>126</ele>
        <time>2025-05-23T10:26:33Z</time>
      </trkpt>
      <trkpt lat="43.6554" lon="1.40589">
        <ele>126</ele>
        <time>2025-05-23T10:26:34Z</time>
      </trkpt>
      <trkpt lat="43.65536" lon="1.40588">
        <ele>126</ele>
        <time>2025-05-23T10:26:35Z</time>
      </trkpt>
      <trkpt lat="43.65533" lon="1.40586">
        <ele>126</ele>
        <time>2025-05-23T10:26:36Z</time>
      </trkpt>
      <trkpt lat="43.6553" lon="1.40584">
        <ele>126</ele>
        <time>2025-05-23T10:26:37Z</time>
      </trkpt>
      <trkpt lat="43.65527" lon="1.40583">
        <ele>126</ele>
        <time>2025-05-23T10:26:38Z</time>
      </trkpt>
      <trkpt lat="43.65524" lon="1.40581">
        <ele>126</ele>
        <time>2025-05-23T10:26:39Z</time>
      </trkpt>
      <trkpt lat="43.65521" lon="1.4058">
        <ele>126</ele>
        <time>2025-05-23T10:26:40Z</time>
      </trkpt>
      <trkpt lat="43.65519" lon="1.40579">
        <ele>126</ele>
        <time>2025-05-23T10:26:41Z</time>
      </trkpt>
      <trkpt lat="43.65516" lon="1.40577">
        <ele>126</ele>
        <time>2025-05-23T10:26:42Z</time>
      </trkpt>
      <trkpt lat="43.65513" lon="1.40574">
        <ele>126</ele>
        <time>2025-05-23T10:26:43Z</time>
      </trkpt>
      <trkpt lat="43.6551" lon="1.40572">
        <ele>126</ele>
        <time>2025-05-23T10:26:44Z</time>
      </trkpt>
      <trkpt lat="43.65507" lon="1.4057">
        <ele>126</ele>
        <time>2025-05-23T10:26:45Z</time>
      </trkpt>
      <trkpt lat="43.65504" lon="1.40569">
        <ele>126</ele>
        <time>2025-05-23T10:26:46Z</time>
      </trkpt>
      <trkpt lat="43.65501" lon="1.40567">
        <ele>126</ele>
        <time>2025-05-23T10:26:47Z</time>
      </trkpt>
      <trkpt lat="43.65498" lon="1.40566">
        <ele>126</ele>
        <time>2025-05-23T10:26:48Z</time>
      </trkpt>
      <trkpt lat="43.65495" lon="1.40564">
        <ele>126</ele>
        <time>2025-05-23T10:26:49Z</time>
      </trkpt>
      <trkpt lat="43.65493" lon="1.40562">
        <ele>125</ele>
        <time>2025-05-23T10:26:50Z</time>
      </trkpt>
      <trkpt lat="43.6549" lon="1.4056">
        <ele>126</ele>
        <time>2025-05-23T10:26:51Z</time>
      </trkpt>
      <trkpt lat="43.65487" lon="1.40559">
        <ele>126</ele>
        <time>2025-05-23T10:26:52Z</time>
      </trkpt>
      <trkpt lat="43.65484" lon="1.40557">
        <ele>126</ele>
        <time>2025-05-23T10:26:53Z</time>
      </trkpt>
      <trkpt lat="43.65481" lon="1.40556">
        <ele>126</ele>
        <time>2025-05-23T10:26:54Z</time>
      </trkpt>
      <trkpt lat="43.65478" lon="1.40555">
        <ele>126</ele>
        <time>2025-05-23T10:26:55Z</time>
      </trkpt>
      <trkpt lat="43.65476" lon="1.40555">
        <ele>126</ele>
        <time>2025-05-23T10:26:56Z</time>
      </trkpt>
      <trkpt lat="43.65473" lon="1.40554">
        <ele>126</ele>
        <time>2025-05-23T10:26:57Z</time>
      </trkpt>
      <trkpt lat="43.6547" lon="1.40553">
        <ele>126</ele>
        <time>2025-05-23T10:26:58Z</time>
      </trkpt>
      <trkpt lat="43.65468" lon="1.40552">
        <ele>127</ele>
        <time>2025-05-23T10:26:59Z</time>
      </trkpt>
      <trkpt lat="43.65465" lon="1.40551">
        <ele>126</ele>
        <time>2025-05-23T10:27:00Z</time>
      </trkpt>
      <trkpt lat="43.65462" lon="1.40549">
        <ele>126</ele>
        <time>2025-05-23T10:27:01Z</time>
      </trkpt>
      <trkpt lat="43.65459" lon="1.40547">
        <ele>126</ele>
        <time>2025-05-23T10:27:02Z</time>
      </trkpt>
      <trkpt lat="43.65456" lon="1.40544">
        <ele>126</ele>
        <time>2025-05-23T10:27:03Z</time>
      </trkpt>
      <trkpt lat="43.65453" lon="1.40542">
        <ele>126</ele>
        <time>2025-05-23T10:27:04Z</time>
      </trkpt>
      <trkpt lat="43.6545" lon="1.4054">
        <ele>126</ele>
        <time>2025-05-23T10:27:05Z</time>
      </trkpt>
      <trkpt lat="43.65447" lon="1.40538">
        <ele>126</ele>
        <time>2025-05-23T10:27:06Z</time>
      </trkpt>
      <trkpt lat="43.65445" lon="1.40536">
        <ele>126</ele>
        <time>2025-05-23T10:27:07Z</time>
      </trkpt>
      <trkpt lat="43.65442" lon="1.40535">
        <ele>126</ele>
        <time>2025-05-23T10:27:08Z</time>
      </trkpt>
      <trkpt lat="43.65439" lon="1.40534">
        <ele>126</ele>
        <time>2025-05-23T10:27:09Z</time>
      </trkpt>
      <trkpt lat="43.65435" lon="1.40532">
        <ele>126</ele>
        <time>2025-05-23T10:27:10Z</time>
      </trkpt>
      <trkpt lat="43.65432" lon="1.4053">
        <ele>126</ele>
        <time>2025-05-23T10:27:11Z</time>
      </trkpt>
      <trkpt lat="43.65429" lon="1.40528">
        <ele>126</ele>
        <time>2025-05-23T10:27:12Z</time>
      </trkpt>
      <trkpt lat="43.65427" lon="1.40525">
        <ele>126</ele>
        <time>2025-05-23T10:27:13Z</time>
      </trkpt>
      <trkpt lat="43.65424" lon="1.40522">
        <ele>125</ele>
        <time>2025-05-23T10:27:14Z</time>
      </trkpt>
      <trkpt lat="43.65422" lon="1.40519">
        <ele>126</ele>
        <time>2025-05-23T10:27:15Z</time>
      </trkpt>
      <trkpt lat="43.6542" lon="1.40515">
        <ele>126</ele>
        <time>2025-05-23T10:27:16Z</time>
      </trkpt>
      <trkpt lat="43.65418" lon="1.40511">
        <ele>126</ele>
        <time>2025-05-23T10:27:17Z</time>
      </trkpt>
      <trkpt lat="43.65416" lon="1.40508">
        <ele>126</ele>
        <time>2025-05-23T10:27:18Z</time>
      </trkpt>
      <trkpt lat="43.65413" lon="1.40505">
        <ele>126</ele>
        <time>2025-05-23T10:27:19Z</time>
      </trkpt>
      <trkpt lat="43.65411" lon="1.40502">
        <ele>126</ele>
        <time>2025-05-23T10:27:20Z</time>
      </trkpt>
      <trkpt lat="43.65408" lon="1.40499">
        <ele>126</ele>
        <time>2025-05-23T10:27:21Z</time>
      </trkpt>
      <trkpt lat="43.65406" lon="1.40497">
        <ele>126</ele>
        <time>2025-05-23T10:27:22Z</time>
      </trkpt>
      <trkpt lat="43.65404" lon="1.40495">
        <ele>126</ele>
        <time>2025-05-23T10:27:23Z</time>
      </trkpt>
      <trkpt lat="43.65402" lon="1.40494">
        <ele>126</ele>
        <time>2025-05-23T10:27:24Z</time>
      </trkpt>
      <trkpt lat="43.654" lon="1.40492">
        <ele>126</ele>
        <time>2025-05-23T10:27:25Z</time>
      </trkpt>
      <trkpt lat="43.65398" lon="1.40492">
        <ele>126</ele>
        <time>2025-05-23T10:27:26Z</time>
      </trkpt>
      <trkpt lat="43.65396" lon="1.40491">
        <ele>126</ele>
        <time>2025-05-23T10:27:27Z</time>
      </trkpt>
      <trkpt lat="43.65393" lon="1.40491">
        <ele>126</ele>
        <time>2025-05-23T10:27:28Z</time>
      </trkpt>
      <trkpt lat="43.6539" lon="1.4049">
        <ele>126</ele>
        <time>2025-05-23T10:27:29Z</time>
      </trkpt>
      <trkpt lat="43.65387" lon="1.4049">
        <ele>126</ele>
        <time>2025-05-23T10:27:30Z</time>
      </trkpt>
      <trkpt lat="43.65384" lon="1.4049">
        <ele>126</ele>
        <time>2025-05-23T10:27:31Z</time>
      </trkpt>
      <trkpt lat="43.6538" lon="1.4049">
        <ele>126</ele>
        <time>2025-05-23T10:27:32Z</time>
      </trkpt>
      <trkpt lat="43.65376" lon="1.40489">
        <ele>126</ele>
        <time>2025-05-23T10:27:33Z</time>
      </trkpt>
      <trkpt lat="43.65372" lon="1.40488">
        <ele>126</ele>
        <time>2025-05-23T10:27:34Z</time>
      </trkpt>
      <trkpt lat="43.65368" lon="1.40487">
        <ele>125</ele>
        <time>2025-05-23T10:27:35Z</time>
      </trkpt>
      <trkpt lat="43.65368" lon="1.40487">
        <ele>125</ele>
        <time>2025-05-23T10:27:36Z</time>
      </trkpt>
      <trkpt lat="43.65365" lon="1.40485">
        <ele>125</ele>
        <time>2025-05-23T10:27:37Z</time>
      </trkpt>
      <trkpt lat="43.65362" lon="1.40482">
        <ele>126</ele>
        <time>2025-05-23T10:27:38Z</time>
      </trkpt>
      <trkpt lat="43.6536" lon="1.4048">
        <ele>126</ele>
        <time>2025-05-23T10:27:39Z</time>
      </trkpt>
      <trkpt lat="43.65357" lon="1.40477">
        <ele>126</ele>
        <time>2025-05-23T10:27:40Z</time>
      </trkpt>
      <trkpt lat="43.65355" lon="1.40475">
        <ele>126</ele>
        <time>2025-05-23T10:27:41Z</time>
      </trkpt>
      <trkpt lat="43.65353" lon="1.40472">
        <ele>126</ele>
        <time>2025-05-23T10:27:42Z</time>
      </trkpt>
      <trkpt lat="43.6535" lon="1.40469">
        <ele>126</ele>
        <time>2025-05-23T10:27:43Z</time>
      </trkpt>
      <trkpt lat="43.65348" lon="1.40467">
        <ele>126</ele>
        <time>2025-05-23T10:27:44Z</time>
      </trkpt>
      <trkpt lat="43.65346" lon="1.40465">
        <ele>126</ele>
        <time>2025-05-23T10:27:45Z</time>
      </trkpt>
      <trkpt lat="43.65343" lon="1.40462">
        <ele>126</ele>
        <time>2025-05-23T10:27:46Z</time>
      </trkpt>
      <trkpt lat="43.6534" lon="1.40459">
        <ele>126</ele>
        <time>2025-05-23T10:27:47Z</time>
      </trkpt>
      <trkpt lat="43.65338" lon="1.40456">
        <ele>126</ele>
        <time>2025-05-23T10:27:48Z</time>
      </trkpt>
      <trkpt lat="43.65335" lon="1.40453">
        <ele>126</ele>
        <time>2025-05-23T10:27:49Z</time>
      </trkpt>
      <trkpt lat="43.65333" lon="1.40451">
        <ele>126</ele>
        <time>2025-05-23T10:27:50Z</time>
      </trkpt>
      <trkpt lat="43.6533" lon="1.40448">
        <ele>126</ele>
        <time>2025-05-23T10:27:51Z</time>
      </trkpt>
      <trkpt lat="43.65328" lon="1.40445">
        <ele>126</ele>
        <time>2025-05-23T10:27:52Z</time>
      </trkpt>
      <trkpt lat="43.65326" lon="1.40442">
        <ele>126</ele>
        <time>2025-05-23T10:27:53Z</time>
      </trkpt>
      <trkpt lat="43.65324" lon="1.4044">
        <ele>126</ele>
        <time>2025-05-23T10:27:54Z</time>
      </trkpt>
      <trkpt lat="43.65323" lon="1.40437">
        <ele>126</ele>
        <time>2025-05-23T10:27:55Z</time>
      </trkpt>
      <trkpt lat="43.65321" lon="1.40434">
        <ele>126</ele>
        <time>2025-05-23T10:27:56Z</time>
      </trkpt>
      <trkpt lat="43.65318" lon="1.40431">
        <ele>126</ele>
        <time>2025-05-23T10:27:57Z</time>
      </trkpt>
      <trkpt lat="43.65316" lon="1.40427">
        <ele>126</ele>
        <time>2025-05-23T10:27:58Z</time>
      </trkpt>
      <trkpt lat="43.65314" lon="1.40423">
        <ele>126</ele>
        <time>2025-05-23T10:27:59Z</time>
      </trkpt>
      <trkpt lat="43.65312" lon="1.40421">
        <ele>126</ele>
        <time>2025-05-23T10:28:00Z</time>
      </trkpt>
      <trkpt lat="43.6531" lon="1.40418">
        <ele>126</ele>
        <time>2025-05-23T10:28:01Z</time>
      </trkpt>
      <trkpt lat="43.65308" lon="1.40416">
        <ele>126</ele>
        <time>2025-05-23T10:28:02Z</time>
      </trkpt>
      <trkpt lat="43.65306" lon="1.40413">
        <ele>126</ele>
        <time>2025-05-23T10:28:03Z</time>
      </trkpt>
      <trkpt lat="43.65304" lon="1.40411">
        <ele>126</ele>
        <time>2025-05-23T10:28:04Z</time>
      </trkpt>
      <trkpt lat="43.65302" lon="1.4041">
        <ele>126</ele>
        <time>2025-05-23T10:28:05Z</time>
      </trkpt>
      <trkpt lat="43.65299" lon="1.40408">
        <ele>126</ele>
        <time>2025-05-23T10:28:06Z</time>
      </trkpt>
      <trkpt lat="43.65297" lon="1.40406">
        <ele>126</ele>
        <time>2025-05-23T10:28:07Z</time>
      </trkpt>
      <trkpt lat="43.65294" lon="1.40405">
        <ele>126</ele>
        <time>2025-05-23T10:28:08Z</time>
      </trkpt>
      <trkpt lat="43.65291" lon="1.40403">
        <ele>126</ele>
        <time>2025-05-23T10:28:09Z</time>
      </trkpt>
      <trkpt lat="43.65289" lon="1.40401">
        <ele>126</ele>
        <time>2025-05-23T10:28:10Z</time>
      </trkpt>
      <trkpt lat="43.65285" lon="1.404">
        <ele>126</ele>
        <time>2025-05-23T10:28:11Z</time>
      </trkpt>
      <trkpt lat="43.65282" lon="1.40398">
        <ele>126</ele>
        <time>2025-05-23T10:28:12Z</time>
      </trkpt>
      <trkpt lat="43.65279" lon="1.40396">
        <ele>126</ele>
        <time>2025-05-23T10:28:13Z</time>
      </trkpt>
      <trkpt lat="43.65277" lon="1.40394">
        <ele>126</ele>
        <time>2025-05-23T10:28:14Z</time>
      </trkpt>
      <trkpt lat="43.65274" lon="1.40392">
        <ele>126</ele>
        <time>2025-05-23T10:28:15Z</time>
      </trkpt>
      <trkpt lat="43.65271" lon="1.40389">
        <ele>126</ele>
        <time>2025-05-23T10:28:16Z</time>
      </trkpt>
      <trkpt lat="43.65269" lon="1.40386">
        <ele>126</ele>
        <time>2025-05-23T10:28:17Z</time>
      </trkpt>
      <trkpt lat="43.65267" lon="1.40383">
        <ele>126</ele>
        <time>2025-05-23T10:28:18Z</time>
      </trkpt>
      <trkpt lat="43.65265" lon="1.4038">
        <ele>126</ele>
        <time>2025-05-23T10:28:19Z</time>
      </trkpt>
      <trkpt lat="43.65263" lon="1.40377">
        <ele>126</ele>
        <time>2025-05-23T10:28:20Z</time>
      </trkpt>
      <trkpt lat="43.65261" lon="1.40375">
        <ele>126</ele>
        <time>2025-05-23T10:28:21Z</time>
      </trkpt>
      <trkpt lat="43.65258" lon="1.40372">
        <ele>127</ele>
        <time>2025-05-23T10:28:22Z</time>
      </trkpt>
      <trkpt lat="43.65256" lon="1.4037">
        <ele>127</ele>
        <time>2025-05-23T10:28:23Z</time>
      </trkpt>
      <trkpt lat="43.65254" lon="1.40366">
        <ele>127</ele>
        <time>2025-05-23T10:28:24Z</time>
      </trkpt>
      <trkpt lat="43.65252" lon="1.40363">
        <ele>127</ele>
        <time>2025-05-23T10:28:25Z</time>
      </trkpt>
      <trkpt lat="43.65249" lon="1.4036">
        <ele>126</ele>
        <time>2025-05-23T10:28:26Z</time>
      </trkpt>
      <trkpt lat="43.65247" lon="1.40357">
        <ele>126</ele>
        <time>2025-05-23T10:28:27Z</time>
      </trkpt>
      <trkpt lat="43.65245" lon="1.40354">
        <ele>126</ele>
        <time>2025-05-23T10:28:28Z</time>
      </trkpt>
      <trkpt lat="43.65242" lon="1.40352">
        <ele>126</ele>
        <time>2025-05-23T10:28:29Z</time>
      </trkpt>
      <trkpt lat="43.6524" lon="1.40349">
        <ele>126</ele>
        <time>2025-05-23T10:28:30Z</time>
      </trkpt>
      <trkpt lat="43.65237" lon="1.40347">
        <ele>126</ele>
        <time>2025-05-23T10:28:31Z</time>
      </trkpt>
      <trkpt lat="43.65235" lon="1.40344">
        <ele>126</ele>
        <time>2025-05-23T10:28:32Z</time>
      </trkpt>
      <trkpt lat="43.65232" lon="1.40342">
        <ele>126</ele>
        <time>2025-05-23T10:28:33Z</time>
      </trkpt>
      <trkpt lat="43.6523" lon="1.40339">
        <ele>126</ele>
        <time>2025-05-23T10:28:34Z</time>
      </trkpt>
      <trkpt lat="43.65228" lon="1.40337">
        <ele>126</ele>
        <time>2025-05-23T10:28:35Z</time>
      </trkpt>
      <trkpt lat="43.65226" lon="1.40334">
        <ele>126</ele>
        <time>2025-05-23T10:28:36Z</time>
      </trkpt>
      <trkpt lat="43.65224" lon="1.40331">
        <ele>126</ele>
        <time>2025-05-23T10:28:37Z</time>
      </trkpt>
      <trkpt lat="43.65222" lon="1.40329">
        <ele>126</ele>
        <time>2025-05-23T10:28:38Z</time>
      </trkpt>
      <trkpt lat="43.6522" lon="1.40327">
        <ele>126</ele>
        <time>2025-05-23T10:28:39Z</time>
      </trkpt>
      <trkpt lat="43.65218" lon="1.40324">
        <ele>126</ele>
        <time>2025-05-23T10:28:40Z</time>
      </trkpt>
      <trkpt lat="43.65216" lon="1.40322">
        <ele>126</ele>
        <time>2025-05-23T10:28:41Z</time>
      </trkpt>
      <trkpt lat="43.65213" lon="1.40319">
        <ele>126</ele>
        <time>2025-05-23T10:28:42Z</time>
      </trkpt>
      <trkpt lat="43.65211" lon="1.40316">
        <ele>126</ele>
        <time>2025-05-23T10:28:43Z</time>
      </trkpt>
      <trkpt lat="43.65208" lon="1.40313">
        <ele>126</ele>
        <time>2025-05-23T10:28:44Z</time>
      </trkpt>
      <trkpt lat="43.65205" lon="1.40311">
        <ele>127</ele>
        <time>2025-05-23T10:28:45Z</time>
      </trkpt>
      <trkpt lat="43.65202" lon="1.40308">
        <ele>127</ele>
        <time>2025-05-23T10:28:46Z</time>
      </trkpt>
      <trkpt lat="43.65199" lon="1.40305">
        <ele>127</ele>
        <time>2025-05-23T10:28:47Z</time>
      </trkpt>
      <trkpt lat="43.65197" lon="1.40303">
        <ele>127</ele>
        <time>2025-05-23T10:28:48Z</time>
      </trkpt>
      <trkpt lat="43.65194" lon="1.40301">
        <ele>127</ele>
        <time>2025-05-23T10:28:49Z</time>
      </trkpt>
      <trkpt lat="43.65192" lon="1.40298">
        <ele>127</ele>
        <time>2025-05-23T10:28:50Z</time>
      </trkpt>
      <trkpt lat="43.6519" lon="1.40296">
        <ele>127</ele>
        <time>2025-05-23T10:28:51Z</time>
      </trkpt>
      <trkpt lat="43.65187" lon="1.40294">
        <ele>127</ele>
        <time>2025-05-23T10:28:52Z</time>
      </trkpt>
      <trkpt lat="43.65185" lon="1.40292">
        <ele>126</ele>
        <time>2025-05-23T10:28:53Z</time>
      </trkpt>
      <trkpt lat="43.65182" lon="1.4029">
        <ele>126</ele>
        <time>2025-05-23T10:28:54Z</time>
      </trkpt>
      <trkpt lat="43.6518" lon="1.40288">
        <ele>126</ele>
        <time>2025-05-23T10:28:55Z</time>
      </trkpt>
      <trkpt lat="43.65177" lon="1.40285">
        <ele>126</ele>
        <time>2025-05-23T10:28:56Z</time>
      </trkpt>
      <trkpt lat="43.65175" lon="1.40283">
        <ele>126</ele>
        <time>2025-05-23T10:28:57Z</time>
      </trkpt>
      <trkpt lat="43.65172" lon="1.4028">
        <ele>126</ele>
        <time>2025-05-23T10:28:58Z</time>
      </trkpt>
      <trkpt lat="43.6517" lon="1.40278">
        <ele>126</ele>
        <time>2025-05-23T10:28:59Z</time>
      </trkpt>
      <trkpt lat="43.65168" lon="1.40276">
        <ele>126</ele>
        <time>2025-05-23T10:29:00Z</time>
      </trkpt>
      <trkpt lat="43.65165" lon="1.40274">
        <ele>126</ele>
        <time>2025-05-23T10:29:01Z</time>
      </trkpt>
      <trkpt lat="43.65163" lon="1.40272">
        <ele>126</ele>
        <time>2025-05-23T10:29:02Z</time>
      </trkpt>
      <trkpt lat="43.6516" lon="1.4027">
        <ele>126</ele>
        <time>2025-05-23T10:29:03Z</time>
      </trkpt>
      <trkpt lat="43.65157" lon="1.40267">
        <ele>126</ele>
        <time>2025-05-23T10:29:04Z</time>
      </trkpt>
      <trkpt lat="43.65154" lon="1.40265">
        <ele>127</ele>
        <time>2025-05-23T10:29:05Z</time>
      </trkpt>
      <trkpt lat="43.65153" lon="1.40263">
        <ele>127</ele>
        <time>2025-05-23T10:29:06Z</time>
      </trkpt>
      <trkpt lat="43.65151" lon="1.40261">
        <ele>127</ele>
        <time>2025-05-23T10:29:07Z</time>
      </trkpt>
      <trkpt lat="43.65149" lon="1.40258">
        <ele>127</ele>
        <time>2025-05-23T10:29:08Z</time>
      </trkpt>
      <trkpt lat="43.65147" lon="1.40256">
        <ele>127</ele>
        <time>2025-05-23T10:29:09Z</time>
      </trkpt>
      <trkpt lat="43.65145" lon="1.40253">
        <ele>127</ele>
        <time>2025-05-23T10:29:10Z</time>
      </trkpt>
      <trkpt lat="43.65143" lon="1.4025">
        <ele>127</ele>
        <time>2025-05-23T10:29:11Z</time>
      </trkpt>
      <trkpt lat="43.65141" lon="1.40246">
        <ele>127</ele>
        <time>2025-05-23T10:29:12Z</time>
      </trkpt>
      <trkpt lat="43.65139" lon="1.40244">
        <ele>127</ele>
        <time>2025-05-23T10:29:13Z</time>
      </trkpt>
      <trkpt lat="43.65136" lon="1.40241">
        <ele>127</ele>
        <time>2025-05-23T10:29:14Z</time>
      </trkpt>
      <trkpt lat="43.65133" lon="1.40239">
        <ele>127</ele>
        <time>2025-05-23T10:29:15Z</time>
      </trkpt>
      <trkpt lat="43.65131" lon="1.40236">
        <ele>127</ele>
        <time>2025-05-23T10:29:16Z</time>
      </trkpt>
      <trkpt lat="43.65129" lon="1.40233">
        <ele>127</ele>
        <time>2025-05-23T10:29:17Z</time>
      </trkpt>
      <trkpt lat="43.65126" lon="1.40231">
        <ele>127</ele>
        <time>2025-05-23T10:29:18Z</time>
      </trkpt>
      <trkpt lat="43.65124" lon="1.40228">
        <ele>127</ele>
        <time>2025-05-23T10:29:19Z</time>
      </trkpt>
      <trkpt lat="43.65121" lon="1.40225">
        <ele>127</ele>
        <time>2025-05-23T10:29:20Z</time>
      </trkpt>
      <trkpt lat="43.65119" lon="1.40223">
        <ele>127</ele>
        <time>2025-05-23T10:29:21Z</time>
      </trkpt>
      <trkpt lat="43.65116" lon="1.4022">
        <ele>127</ele>
        <time>2025-05-23T10:29:22Z</time>
      </trkpt>
      <trkpt lat="43.65114" lon="1.40218">
        <ele>127</ele>
        <time>2025-05-23T10:29:23Z</time>
      </trkpt>
      <trkpt lat="43.65111" lon="1.40215">
        <ele>127</ele>
        <time>2025-05-23T10:29:24Z</time>
      </trkpt>
      <trkpt lat="43.65109" lon="1.40212">
        <ele>127</ele>
        <time>2025-05-23T10:29:25Z</time>
      </trkpt>
      <trkpt lat="43.65107" lon="1.4021">
        <ele>127</ele>
        <time>2025-05-23T10:29:26Z</time>
      </trkpt>
      <trkpt lat="43.65104" lon="1.40207">
        <ele>127</ele>
        <time>2025-05-23T10:29:27Z</time>
      </trkpt>
      <trkpt lat="43.651" lon="1.402">
        <ele>127</ele>
        <time>2025-05-23T10:29:28Z</time>
      </trkpt>
      <trkpt lat="43.651" lon="1.402">
        <ele>127</ele>
        <time>2025-05-23T10:29:29Z</time>
      </trkpt>
      <trkpt lat="43.65098" lon="1.40198">
        <ele>127</ele>
        <time>2025-05-23T10:29:30Z</time>
      </trkpt>
      <trkpt lat="43.65096" lon="1.40195">
        <ele>128</ele>
        <time>2025-05-23T10:29:31Z</time>
      </trkpt>
      <trkpt lat="43.65094" lon="1.40192">
        <ele>128</ele>
        <time>2025-05-23T10:29:32Z</time>
      </trkpt>
      <trkpt lat="43.65092" lon="1.4019">
        <ele>128</ele>
        <time>2025-05-23T10:29:33Z</time>
      </trkpt>
      <trkpt lat="43.6509" lon="1.40187">
        <ele>128</ele>
        <time>2025-05-23T10:29:34Z</time>
      </trkpt>
      <trkpt lat="43.65088" lon="1.40184">
        <ele>128</ele>
        <time>2025-05-23T10:29:35Z</time>
      </trkpt>
      <trkpt lat="43.65085" lon="1.40182">
        <ele>128</ele>
        <time>2025-05-23T10:29:36Z</time>
      </trkpt>
      <trkpt lat="43.65083" lon="1.40179">
        <ele>128</ele>
        <time>2025-05-23T10:29:37Z</time>
      </trkpt>
      <trkpt lat="43.65081" lon="1.40176">
        <ele>127</ele>
        <time>2025-05-23T10:29:38Z</time>
      </trkpt>
      <trkpt lat="43.65079" lon="1.40174">
        <ele>127</ele>
        <time>2025-05-23T10:29:39Z</time>
      </trkpt>
      <trkpt lat="43.65076" lon="1.40171">
        <ele>127</ele>
        <time>2025-05-23T10:29:40Z</time>
      </trkpt>
      <trkpt lat="43.65074" lon="1.40169">
        <ele>127</ele>
        <time>2025-05-23T10:29:41Z</time>
      </trkpt>
      <trkpt lat="43.65072" lon="1.40167">
        <ele>127</ele>
        <time>2025-05-23T10:29:42Z</time>
      </trkpt>
      <trkpt lat="43.6507" lon="1.40164">
        <ele>128</ele>
        <time>2025-05-23T10:29:43Z</time>
      </trkpt>
      <trkpt lat="43.65067" lon="1.40162">
        <ele>128</ele>
        <time>2025-05-23T10:29:44Z</time>
      </trkpt>
      <trkpt lat="43.65065" lon="1.4016">
        <ele>128</ele>
        <time>2025-05-23T10:29:45Z</time>
      </trkpt>
      <trkpt lat="43.65062" lon="1.40158">
        <ele>128</ele>
        <time>2025-05-23T10:29:46Z</time>
      </trkpt>
      <trkpt lat="43.65059" lon="1.40156">
        <ele>128</ele>
        <time>2025-05-23T10:29:47Z</time>
      </trkpt>
      <trkpt lat="43.65057" lon="1.40154">
        <ele>127</ele>
        <time>2025-05-23T10:29:48Z</time>
      </trkpt>
      <trkpt lat="43.65054" lon="1.40151">
        <ele>127</ele>
        <time>2025-05-23T10:29:49Z</time>
      </trkpt>
      <trkpt lat="43.65051" lon="1.40149">
        <ele>127</ele>
        <time>2025-05-23T10:29:50Z</time>
      </trkpt>
      <trkpt lat="43.65048" lon="1.40147">
        <ele>127</ele>
        <time>2025-05-23T10:29:51Z</time>
      </trkpt>
      <trkpt lat="43.65045" lon="1.40145">
        <ele>127</ele>
        <time>2025-05-23T10:29:52Z</time>
      </trkpt>
      <trkpt lat="43.65041" lon="1.40144">
        <ele>127</ele>
        <time>2025-05-23T10:29:53Z</time>
      </trkpt>
      <trkpt lat="43.65038" lon="1.40142">
        <ele>126</ele>
        <time>2025-05-23T10:29:54Z</time>
      </trkpt>
      <trkpt lat="43.65035" lon="1.40139">
        <ele>126</ele>
        <time>2025-05-23T10:29:55Z</time>
      </trkpt>
      <trkpt lat="43.65032" lon="1.40137">
        <ele>126</ele>
        <time>2025-05-23T10:29:56Z</time>
      </trkpt>
      <trkpt lat="43.65029" lon="1.40134">
        <ele>126</ele>
        <time>2025-05-23T10:29:57Z</time>
      </trkpt>
      <trkpt lat="43.65027" lon="1.4013">
        <ele>126</ele>
        <time>2025-05-23T10:29:58Z</time>
      </trkpt>
      <trkpt lat="43.65025" lon="1.40127">
        <ele>126</ele>
        <time>2025-05-23T10:29:59Z</time>
      </trkpt>
      <trkpt lat="43.65022" lon="1.40124">
        <ele>126</ele>
        <time>2025-05-23T10:30:00Z</time>
      </trkpt>
      <trkpt lat="43.6502" lon="1.40121">
        <ele>126</ele>
        <time>2025-05-23T10:30:01Z</time>
      </trkpt>
      <trkpt lat="43.65018" lon="1.40118">
        <ele>126</ele>
        <time>2025-05-23T10:30:02Z</time>
      </trkpt>
      <trkpt lat="43.65016" lon="1.40114">
        <ele>126</ele>
        <time>2025-05-23T10:30:03Z</time>
      </trkpt>
      <trkpt lat="43.65014" lon="1.40111">
        <ele>126</ele>
        <time>2025-05-23T10:30:04Z</time>
      </trkpt>
      <trkpt lat="43.65012" lon="1.40109">
        <ele>126</ele>
        <time>2025-05-23T10:30:05Z</time>
      </trkpt>
      <trkpt lat="43.65009" lon="1.40106">
        <ele>127</ele>
        <time>2025-05-23T10:30:06Z</time>
      </trkpt>
      <trkpt lat="43.65007" lon="1.40103">
        <ele>127</ele>
        <time>2025-05-23T10:30:07Z</time>
      </trkpt>
      <trkpt lat="43.65005" lon="1.40101">
        <ele>127</ele>
        <time>2025-05-23T10:30:08Z</time>
      </trkpt>
      <trkpt lat="43.65003" lon="1.40099">
        <ele>127</ele>
        <time>2025-05-23T10:30:09Z</time>
      </trkpt>
      <trkpt lat="43.65002" lon="1.40097">
        <ele>127</ele>
        <time>2025-05-23T10:30:10Z</time>
      </trkpt>
      <trkpt lat="43.65" lon="1.40094">
        <ele>128</ele>
        <time>2025-05-23T10:30:11Z</time>
      </trkpt>
      <trkpt lat="43.64997" lon="1.40093">
        <ele>128</ele>
        <time>2025-05-23T10:30:12Z</time>
      </trkpt>
      <trkpt lat="43.64994" lon="1.40091">
        <ele>128</ele>
        <time>2025-05-23T10:30:13Z</time>
      </trkpt>
      <trkpt lat="43.64991" lon="1.4009">
        <ele>127</ele>
        <time>2025-05-23T10:30:14Z</time>
      </trkpt>
      <trkpt lat="43.64988" lon="1.40088">
        <ele>127</ele>
        <time>2025-05-23T10:30:15Z</time>
      </trkpt>
      <trkpt lat="43.64986" lon="1.40086">
        <ele>127</ele>
        <time>2025-05-23T10:30:16Z</time>
      </trkpt>
      <trkpt lat="43.64983" lon="1.40083">
        <ele>127</ele>
        <time>2025-05-23T10:30:17Z</time>
      </trkpt>
      <trkpt lat="43.64981" lon="1.40081">
        <ele>127</ele>
        <time>2025-05-23T10:30:18Z</time>
      </trkpt>
      <trkpt lat="43.64978" lon="1.40079">
        <ele>127</ele>
        <time>2025-05-23T10:30:19Z</time>
      </trkpt>
      <trkpt lat="43.64976" lon="1.40077">
        <ele>126</ele>
        <time>2025-05-23T10:30:20Z</time>
      </trkpt>
      <trkpt lat="43.64973" lon="1.40076">
        <ele>126</ele>
        <time>2025-05-23T10:30:21Z</time>
      </trkpt>
      <trkpt lat="43.6497" lon="1.40074">
        <ele>126</ele>
        <time>2025-05-23T10:30:22Z</time>
      </trkpt>
      <trkpt lat="43.64967" lon="1.40072">
        <ele>126</ele>
        <time>2025-05-23T10:30:23Z</time>
      </trkpt>
      <trkpt lat="43.64963" lon="1.40071">
        <ele>126</ele>
        <time>2025-05-23T10:30:24Z</time>
      </trkpt>
      <trkpt lat="43.64959" lon="1.40069">
        <ele>126</ele>
        <time>2025-05-23T10:30:25Z</time>
      </trkpt>
      <trkpt lat="43.64956" lon="1.40068">
        <ele>126</ele>
        <time>2025-05-23T10:30:26Z</time>
      </trkpt>
      <trkpt lat="43.64953" lon="1.40067">
        <ele>126</ele>
        <time>2025-05-23T10:30:27Z</time>
      </trkpt>
      <trkpt lat="43.6495" lon="1.40066">
        <ele>126</ele>
        <time>2025-05-23T10:30:28Z</time>
      </trkpt>
      <trkpt lat="43.64948" lon="1.40064">
        <ele>126</ele>
        <time>2025-05-23T10:30:29Z</time>
      </trkpt>
      <trkpt lat="43.64945" lon="1.40062">
        <ele>126</ele>
        <time>2025-05-23T10:30:30Z</time>
      </trkpt>
      <trkpt lat="43.64942" lon="1.40061">
        <ele>126</ele>
        <time>2025-05-23T10:30:31Z</time>
      </trkpt>
      <trkpt lat="43.64939" lon="1.40059">
        <ele>126</ele>
        <time>2025-05-23T10:30:32Z</time>
      </trkpt>
      <trkpt lat="43.64936" lon="1.40057">
        <ele>126</ele>
        <time>2025-05-23T10:30:33Z</time>
      </trkpt>
      <trkpt lat="43.64934" lon="1.40055">
        <ele>126</ele>
        <time>2025-05-23T10:30:34Z</time>
      </trkpt>
      <trkpt lat="43.64931" lon="1.40053">
        <ele>125</ele>
        <time>2025-05-23T10:30:35Z</time>
      </trkpt>
      <trkpt lat="43.64929" lon="1.40052">
        <ele>125</ele>
        <time>2025-05-23T10:30:36Z</time>
      </trkpt>
      <trkpt lat="43.64927" lon="1.4005">
        <ele>125</ele>
        <time>2025-05-23T10:30:37Z</time>
      </trkpt>
      <trkpt lat="43.64924" lon="1.40049">
        <ele>125</ele>
        <time>2025-05-23T10:30:38Z</time>
      </trkpt>
      <trkpt lat="43.64922" lon="1.40048">
        <ele>126</ele>
        <time>2025-05-23T10:30:39Z</time>
      </trkpt>
      <trkpt lat="43.64919" lon="1.40046">
        <ele>126</ele>
        <time>2025-05-23T10:30:40Z</time>
      </trkpt>
      <trkpt lat="43.64916" lon="1.40045">
        <ele>126</ele>
        <time>2025-05-23T10:30:41Z</time>
      </trkpt>
      <trkpt lat="43.64913" lon="1.40043">
        <ele>126</ele>
        <time>2025-05-23T10:30:42Z</time>
      </trkpt>
      <trkpt lat="43.6491" lon="1.40041">
        <ele>126</ele>
        <time>2025-05-23T10:30:43Z</time>
      </trkpt>
      <trkpt lat="43.64907" lon="1.40039">
        <ele>126</ele>
        <time>2025-05-23T10:30:44Z</time>
      </trkpt>
      <trkpt lat="43.64903" lon="1.40038">
        <ele>126</ele>
        <time>2025-05-23T10:30:45Z</time>
      </trkpt>
      <trkpt lat="43.64901" lon="1.40035">
        <ele>126</ele>
        <time>2025-05-23T10:30:46Z</time>
      </trkpt>
      <trkpt lat="43.64899" lon="1.40033">
        <ele>126</ele>
        <time>2025-05-23T10:30:47Z</time>
      </trkpt>
      <trkpt lat="43.64897" lon="1.40031">
        <ele>126</ele>
        <time>2025-05-23T10:30:48Z</time>
      </trkpt>
      <trkpt lat="43.64894" lon="1.40029">
        <ele>126</ele>
        <time>2025-05-23T10:30:49Z</time>
      </trkpt>
      <trkpt lat="43.64892" lon="1.40027">
        <ele>126</ele>
        <time>2025-05-23T10:30:50Z</time>
      </trkpt>
      <trkpt lat="43.6489" lon="1.40024">
        <ele>126</ele>
        <time>2025-05-23T10:30:51Z</time>
      </trkpt>
      <trkpt lat="43.64888" lon="1.40022">
        <ele>126</ele>
        <time>2025-05-23T10:30:52Z</time>
      </trkpt>
      <trkpt lat="43.64885" lon="1.40019">
        <ele>126</ele>
        <time>2025-05-23T10:30:53Z</time>
      </trkpt>
      <trkpt lat="43.64883" lon="1.40017">
        <ele>126</ele>
        <time>2025-05-23T10:30:54Z</time>
      </trkpt>
      <trkpt lat="43.6488" lon="1.40014">
        <ele>126</ele>
        <time>2025-05-23T10:30:55Z</time>
      </trkpt>
      <trkpt lat="43.64877" lon="1.40011">
        <ele>126</ele>
        <time>2025-05-23T10:30:56Z</time>
      </trkpt>
      <trkpt lat="43.64875" lon="1.4001">
        <ele>126</ele>
        <time>2025-05-23T10:30:57Z</time>
      </trkpt>
      <trkpt lat="43.64873" lon="1.40008">
        <ele>126</ele>
        <time>2025-05-23T10:30:58Z</time>
      </trkpt>
      <trkpt lat="43.6487" lon="1.40006">
        <ele>126</ele>
        <time>2025-05-23T10:30:59Z</time>
      </trkpt>
      <trkpt lat="43.64868" lon="1.40005">
        <ele>126</ele>
        <time>2025-05-23T10:31:00Z</time>
      </trkpt>
      <trkpt lat="43.64865" lon="1.40003">
        <ele>126</ele>
        <time>2025-05-23T10:31:01Z</time>
      </trkpt>
      <trkpt lat="43.64863" lon="1.40002">
        <ele>126</ele>
        <time>2025-05-23T10:31:02Z</time>
      </trkpt>
      <trkpt lat="43.6486" lon="1.4">
        <ele>126</ele>
        <time>2025-05-23T10:31:03Z</time>
      </trkpt>
      <trkpt lat="43.64857" lon="1.39999">
        <ele>126</ele>
        <time>2025-05-23T10:31:04Z</time>
      </trkpt>
      <trkpt lat="43.64855" lon="1.39997">
        <ele>126</ele>
        <time>2025-05-23T10:31:05Z</time>
      </trkpt>
      <trkpt lat="43.64852" lon="1.39996">
        <ele>126</ele>
        <time>2025-05-23T10:31:06Z</time>
      </trkpt>
      <trkpt lat="43.6485" lon="1.39994">
        <ele>126</ele>
        <time>2025-05-23T10:31:07Z</time>
      </trkpt>
      <trkpt lat="43.64847" lon="1.39993">
        <ele>126</ele>
        <time>2025-05-23T10:31:08Z</time>
      </trkpt>
      <trkpt lat="43.64845" lon="1.39992">
        <ele>126</ele>
        <time>2025-05-23T10:31:09Z</time>
      </trkpt>
      <trkpt lat="43.64843" lon="1.3999">
        <ele>126</ele>
        <time>2025-05-23T10:31:10Z</time>
      </trkpt>
      <trkpt lat="43.6484" lon="1.39989">
        <ele>126</ele>
        <time>2025-05-23T10:31:11Z</time>
      </trkpt>
      <trkpt lat="43.64838" lon="1.39988">
        <ele>126</ele>
        <time>2025-05-23T10:31:12Z</time>
      </trkpt>
      <trkpt lat="43.64835" lon="1.39987">
        <ele>126</ele>
        <time>2025-05-23T10:31:13Z</time>
      </trkpt>
      <trkpt lat="43.64832" lon="1.39985">
        <ele>126</ele>
        <time>2025-05-23T10:31:14Z</time>
      </trkpt>
      <trkpt lat="43.6483" lon="1.39984">
        <ele>126</ele>
        <time>2025-05-23T10:31:15Z</time>
      </trkpt>
      <trkpt lat="43.64827" lon="1.39983">
        <ele>127</ele>
        <time>2025-05-23T10:31:16Z</time>
      </trkpt>
      <trkpt lat="43.64824" lon="1.39982">
        <ele>127</ele>
        <time>2025-05-23T10:31:17Z</time>
      </trkpt>
      <trkpt lat="43.64821" lon="1.3998">
        <ele>127</ele>
        <time>2025-05-23T10:31:18Z</time>
      </trkpt>
      <trkpt lat="43.64818" lon="1.39978">
        <ele>128</ele>
        <time>2025-05-23T10:31:19Z</time>
      </trkpt>
      <trkpt lat="43.64815" lon="1.39977">
        <ele>128</ele>
        <time>2025-05-23T10:31:20Z</time>
      </trkpt>
      <trkpt lat="43.64812" lon="1.39976">
        <ele>128</ele>
        <time>2025-05-23T10:31:21Z</time>
      </trkpt>
      <trkpt lat="43.64809" lon="1.39975">
        <ele>128</ele>
        <time>2025-05-23T10:31:22Z</time>
      </trkpt>
      <trkpt lat="43.64807" lon="1.39974">
        <ele>128</ele>
        <time>2025-05-23T10:31:23Z</time>
      </trkpt>
      <trkpt lat="43.64804" lon="1.39973">
        <ele>128</ele>
        <time>2025-05-23T10:31:24Z</time>
      </trkpt>
      <trkpt lat="43.64801" lon="1.39972">
        <ele>128</ele>
        <time>2025-05-23T10:31:25Z</time>
      </trkpt>
      <trkpt lat="43.64798" lon="1.39971">
        <ele>128</ele>
        <time>2025-05-23T10:31:26Z</time>
      </trkpt>
      <trkpt lat="43.64794" lon="1.39969">
        <ele>128</ele>
        <time>2025-05-23T10:31:27Z</time>
      </trkpt>
      <trkpt lat="43.64791" lon="1.39968">
        <ele>128</ele>
        <time>2025-05-23T10:31:28Z</time>
      </trkpt>
      <trkpt lat="43.64788" lon="1.39966">
        <ele>128</ele>
        <time>2025-05-23T10:31:29Z</time>
      </trkpt>
      <trkpt lat="43.64784" lon="1.39965">
        <ele>128</ele>
        <time>2025-05-23T10:31:30Z</time>
      </trkpt>
      <trkpt lat="43.64781" lon="1.39964">
        <ele>128</ele>
        <time>2025-05-23T10:31:31Z</time>
      </trkpt>
      <trkpt lat="43.64777" lon="1.39963">
        <ele>128</ele>
        <time>2025-05-23T10:31:32Z</time>
      </trkpt>
      <trkpt lat="43.64775" lon="1.39962">
        <ele>128</ele>
        <time>2025-05-23T10:31:33Z</time>
      </trkpt>
      <trkpt lat="43.64772" lon="1.39962">
        <ele>128</ele>
        <time>2025-05-23T10:31:34Z</time>
      </trkpt>
      <trkpt lat="43.64769" lon="1.39961">
        <ele>127</ele>
        <time>2025-05-23T10:31:35Z</time>
      </trkpt>
      <trkpt lat="43.64766" lon="1.3996">
        <ele>127</ele>
        <time>2025-05-23T10:31:36Z</time>
      </trkpt>
      <trkpt lat="43.64763" lon="1.39958">
        <ele>127</ele>
        <time>2025-05-23T10:31:37Z</time>
      </trkpt>
      <trkpt lat="43.6476" lon="1.39956">
        <ele>128</ele>
        <time>2025-05-23T10:31:38Z</time>
      </trkpt>
      <trkpt lat="43.64757" lon="1.39955">
        <ele>128</ele>
        <time>2025-05-23T10:31:39Z</time>
      </trkpt>
      <trkpt lat="43.64753" lon="1.39953">
        <ele>128</ele>
        <time>2025-05-23T10:31:40Z</time>
      </trkpt>
      <trkpt lat="43.64749" lon="1.39952">
        <ele>127</ele>
        <time>2025-05-23T10:31:41Z</time>
      </trkpt>
      <trkpt lat="43.64744" lon="1.39951">
        <ele>127</ele>
        <time>2025-05-23T10:31:42Z</time>
      </trkpt>
      <trkpt lat="43.64741" lon="1.3995">
        <ele>127</ele>
        <time>2025-05-23T10:31:43Z</time>
      </trkpt>
      <trkpt lat="43.64741" lon="1.3995">
        <ele>127</ele>
        <time>2025-05-23T10:31:44Z</time>
      </trkpt>
      <trkpt lat="43.64739" lon="1.3995">
        <ele>127</ele>
        <time>2025-05-23T10:31:45Z</time>
      </trkpt>
      <trkpt lat="43.64736" lon="1.39949">
        <ele>127</ele>
        <time>2025-05-23T10:31:46Z</time>
      </trkpt>
      <trkpt lat="43.64733" lon="1.39949">
        <ele>127</ele>
        <time>2025-05-23T10:31:47Z</time>
      </trkpt>
      <trkpt lat="43.64731" lon="1.39948">
        <ele>127</ele>
        <time>2025-05-23T10:31:48Z</time>
      </trkpt>
      <trkpt lat="43.64728" lon="1.39948">
        <ele>127</ele>
        <time>2025-05-23T10:31:49Z</time>
      </trkpt>
      <trkpt lat="43.64725" lon="1.39947">
        <ele>127</ele>
        <time>2025-05-23T10:31:50Z</time>
      </trkpt>
      <trkpt lat="43.64721" lon="1.39947">
        <ele>127</ele>
        <time>2025-05-23T10:31:51Z</time>
      </trkpt>
      <trkpt lat="43.64718" lon="1.39947">
        <ele>128</ele>
        <time>2025-05-23T10:31:52Z</time>
      </trkpt>
      <trkpt lat="43.64715" lon="1.39946">
        <ele>128</ele>
        <time>2025-05-23T10:31:53Z</time>
      </trkpt>
      <trkpt lat="43.64712" lon="1.39946">
        <ele>128</ele>
        <time>2025-05-23T10:31:54Z</time>
      </trkpt>
      <trkpt lat="43.64709" lon="1.39946">
        <ele>127</ele>
        <time>2025-05-23T10:31:55Z</time>
      </trkpt>
      <trkpt lat="43.64706" lon="1.39945">
        <ele>127</ele>
        <time>2025-05-23T10:31:56Z</time>
      </trkpt>
      <trkpt lat="43.64704" lon="1.39945">
        <ele>127</ele>
        <time>2025-05-23T10:31:57Z</time>
      </trkpt>
      <trkpt lat="43.64701" lon="1.39945">
        <ele>127</ele>
        <time>2025-05-23T10:31:58Z</time>
      </trkpt>
      <trkpt lat="43.64698" lon="1.39945">
        <ele>127</ele>
        <time>2025-05-23T10:31:59Z</time>
      </trkpt>
      <trkpt lat="43.64696" lon="1.39944">
        <ele>127</ele>
        <time>2025-05-23T10:32:00Z</time>
      </trkpt>
      <trkpt lat="43.64695" lon="1.39944">
        <ele>127</ele>
        <time>2025-05-23T10:32:01Z</time>
      </trkpt>
      <trkpt lat="43.64693" lon="1.39943">
        <ele>128</ele>
        <time>2025-05-23T10:32:02Z</time>
      </trkpt>
      <trkpt lat="43.64692" lon="1.39943">
        <ele>129</ele>
        <time>2025-05-23T10:32:03Z</time>
      </trkpt>
      <trkpt lat="43.6469" lon="1.39942">
        <ele>130</ele>
        <time>2025-05-23T10:32:04Z</time>
      </trkpt>
      <trkpt lat="43.64689" lon="1.39941">
        <ele>130</ele>
        <time>2025-05-23T10:32:05Z</time>
      </trkpt>
      <trkpt lat="43.64686" lon="1.3994">
        <ele>130</ele>
        <time>2025-05-23T10:32:06Z</time>
      </trkpt>
      <trkpt lat="43.64686" lon="1.3994">
        <ele>131</ele>
        <time>2025-05-23T10:32:07Z</time>
      </trkpt>
      <trkpt lat="43.64683" lon="1.39939">
        <ele>131</ele>
        <time>2025-05-23T10:32:08Z</time>
      </trkpt>
      <trkpt lat="43.64683" lon="1.39939">
        <ele>131</ele>
        <time>2025-05-23T10:32:09Z</time>
      </trkpt>
      <trkpt lat="43.6468" lon="1.39937">
        <ele>131</ele>
        <time>2025-05-23T10:32:10Z</time>
      </trkpt>
      <trkpt lat="43.6468" lon="1.39937">
        <ele>131</ele>
        <time>2025-05-23T10:32:11Z</time>
      </trkpt>
      <trkpt lat="43.64678" lon="1.39938">
        <ele>131</ele>
        <time>2025-05-23T10:32:12Z</time>
      </trkpt>
      <trkpt lat="43.64676" lon="1.39938">
        <ele>131</ele>
        <time>2025-05-23T10:32:13Z</time>
      </trkpt>
      <trkpt lat="43.64674" lon="1.39938">
        <ele>131</ele>
        <time>2025-05-23T10:32:14Z</time>
      </trkpt>
      <trkpt lat="43.64673" lon="1.39939">
        <ele>131</ele>
        <time>2025-05-23T10:32:15Z</time>
      </trkpt>
      <trkpt lat="43.64671" lon="1.39939">
        <ele>132</ele>
        <time>2025-05-23T10:32:16Z</time>
      </trkpt>
      <trkpt lat="43.64668" lon="1.39939">
        <ele>132</ele>
        <time>2025-05-23T10:32:17Z</time>
      </trkpt>
      <trkpt lat="43.64664" lon="1.39939">
        <ele>132</ele>
        <time>2025-05-23T10:32:18Z</time>
      </trkpt>
      <trkpt lat="43.64661" lon="1.39938">
        <ele>132</ele>
        <time>2025-05-23T10:32:19Z</time>
      </trkpt>
      <trkpt lat="43.64658" lon="1.39938">
        <ele>132</ele>
        <time>2025-05-23T10:32:20Z</time>
      </trkpt>
      <trkpt lat="43.64654" lon="1.39937">
        <ele>132</ele>
        <time>2025-05-23T10:32:21Z</time>
      </trkpt>
      <trkpt lat="43.6465" lon="1.39937">
        <ele>132</ele>
        <time>2025-05-23T10:32:22Z</time>
      </trkpt>
      <trkpt lat="43.64647" lon="1.39936">
        <ele>132</ele>
        <time>2025-05-23T10:32:23Z</time>
      </trkpt>
      <trkpt lat="43.64644" lon="1.39935">
        <ele>132</ele>
        <time>2025-05-23T10:32:24Z</time>
      </trkpt>
      <trkpt lat="43.64641" lon="1.39934">
        <ele>132</ele>
        <time>2025-05-23T10:32:25Z</time>
      </trkpt>
      <trkpt lat="43.64638" lon="1.39935">
        <ele>131</ele>
        <time>2025-05-23T10:32:26Z</time>
      </trkpt>
      <trkpt lat="43.64635" lon="1.39935">
        <ele>131</ele>
        <time>2025-05-23T10:32:27Z</time>
      </trkpt>
      <trkpt lat="43.64632" lon="1.39935">
        <ele>131</ele>
        <time>2025-05-23T10:32:28Z</time>
      </trkpt>
      <trkpt lat="43.6463" lon="1.39935">
        <ele>131</ele>
        <time>2025-05-23T10:32:29Z</time>
      </trkpt>
      <trkpt lat="43.64627" lon="1.39936">
        <ele>131</ele>
        <time>2025-05-23T10:32:30Z</time>
      </trkpt>
      <trkpt lat="43.64623" lon="1.39936">
        <ele>131</ele>
        <time>2025-05-23T10:32:31Z</time>
      </trkpt>
      <trkpt lat="43.6462" lon="1.39936">
        <ele>131</ele>
        <time>2025-05-23T10:32:32Z</time>
      </trkpt>
      <trkpt lat="43.64617" lon="1.39937">
        <ele>131</ele>
        <time>2025-05-23T10:32:33Z</time>
      </trkpt>
      <trkpt lat="43.64614" lon="1.39938">
        <ele>131</ele>
        <time>2025-05-23T10:32:34Z</time>
      </trkpt>
      <trkpt lat="43.6461" lon="1.39939">
        <ele>131</ele>
        <time>2025-05-23T10:32:35Z</time>
      </trkpt>
      <trkpt lat="43.64607" lon="1.3994">
        <ele>131</ele>
        <time>2025-05-23T10:32:36Z</time>
      </trkpt>
      <trkpt lat="43.64605" lon="1.39943">
        <ele>131</ele>
        <time>2025-05-23T10:32:37Z</time>
      </trkpt>
      <trkpt lat="43.64603" lon="1.39945">
        <ele>130</ele>
        <time>2025-05-23T10:32:38Z</time>
      </trkpt>
      <trkpt lat="43.64601" lon="1.39947">
        <ele>130</ele>
        <time>2025-05-23T10:32:39Z</time>
      </trkpt>
      <trkpt lat="43.64599" lon="1.3995">
        <ele>130</ele>
        <time>2025-05-23T10:32:40Z</time>
      </trkpt>
      <trkpt lat="43.64595" lon="1.39952">
        <ele>130</ele>
        <time>2025-05-23T10:32:41Z</time>
      </trkpt>
      <trkpt lat="43.64591" lon="1.39955">
        <ele>130</ele>
        <time>2025-05-23T10:32:42Z</time>
      </trkpt>
      <trkpt lat="43.64586" lon="1.39957">
        <ele>130</ele>
        <time>2025-05-23T10:32:43Z</time>
      </trkpt>
      <trkpt lat="43.64583" lon="1.39959">
        <ele>131</ele>
        <time>2025-05-23T10:32:44Z</time>
      </trkpt>
      <trkpt lat="43.6458" lon="1.3996">
        <ele>131</ele>
        <time>2025-05-23T10:32:45Z</time>
      </trkpt>
      <trkpt lat="43.64577" lon="1.39961">
        <ele>131</ele>
        <time>2025-05-23T10:32:46Z</time>
      </trkpt>
      <trkpt lat="43.64577" lon="1.39961">
        <ele>131</ele>
        <time>2025-05-23T10:32:47Z</time>
      </trkpt>
      <trkpt lat="43.64574" lon="1.39962">
        <ele>131</ele>
        <time>2025-05-23T10:32:48Z</time>
      </trkpt>
      <trkpt lat="43.6457" lon="1.39962">
        <ele>131</ele>
        <time>2025-05-23T10:32:49Z</time>
      </trkpt>
      <trkpt lat="43.64566" lon="1.39963">
        <ele>131</ele>
        <time>2025-05-23T10:32:50Z</time>
      </trkpt>
      <trkpt lat="43.64562" lon="1.39964">
        <ele>131</ele>
        <time>2025-05-23T10:32:51Z</time>
      </trkpt>
      <trkpt lat="43.64559" lon="1.39964">
        <ele>131</ele>
        <time>2025-05-23T10:32:52Z</time>
      </trkpt>
      <trkpt lat="43.64556" lon="1.39965">
        <ele>131</ele>
        <time>2025-05-23T10:32:53Z</time>
      </trkpt>
      <trkpt lat="43.64553" lon="1.39966">
        <ele>131</ele>
        <time>2025-05-23T10:32:54Z</time>
      </trkpt>
      <trkpt lat="43.6455" lon="1.39966">
        <ele>132</ele>
        <time>2025-05-23T10:32:55Z</time>
      </trkpt>
      <trkpt lat="43.64547" lon="1.39966">
        <ele>132</ele>
        <time>2025-05-23T10:32:56Z</time>
      </trkpt>
      <trkpt lat="43.64544" lon="1.39965">
        <ele>131</ele>
        <time>2025-05-23T10:32:57Z</time>
      </trkpt>
      <trkpt lat="43.6454" lon="1.39965">
        <ele>131</ele>
        <time>2025-05-23T10:32:58Z</time>
      </trkpt>
      <trkpt lat="43.64537" lon="1.39964">
        <ele>131</ele>
        <time>2025-05-23T10:32:59Z</time>
      </trkpt>
      <trkpt lat="43.64533" lon="1.39964">
        <ele>131</ele>
        <time>2025-05-23T10:33:00Z</time>
      </trkpt>
      <trkpt lat="43.64529" lon="1.39963">
        <ele>131</ele>
        <time>2025-05-23T10:33:01Z</time>
      </trkpt>
      <trkpt lat="43.64526" lon="1.3996">
        <ele>130</ele>
        <time>2025-05-23T10:33:02Z</time>
      </trkpt>
      <trkpt lat="43.64522" lon="1.39959">
        <ele>130</ele>
        <time>2025-05-23T10:33:03Z</time>
      </trkpt>
      <trkpt lat="43.64519" lon="1.39959">
        <ele>130</ele>
        <time>2025-05-23T10:33:04Z</time>
      </trkpt>
      <trkpt lat="43.64516" lon="1.39958">
        <ele>130</ele>
        <time>2025-05-23T10:33:05Z</time>
      </trkpt>
      <trkpt lat="43.64513" lon="1.39957">
        <ele>130</ele>
        <time>2025-05-23T10:33:06Z</time>
      </trkpt>
      <trkpt lat="43.6451" lon="1.39954">
        <ele>130</ele>
        <time>2025-05-23T10:33:07Z</time>
      </trkpt>
      <trkpt lat="43.64508" lon="1.39951">
        <ele>131</ele>
        <time>2025-05-23T10:33:08Z</time>
      </trkpt>
      <trkpt lat="43.64507" lon="1.39946">
        <ele>131</ele>
        <time>2025-05-23T10:33:09Z</time>
      </trkpt>
      <trkpt lat="43.64506" lon="1.39941">
        <ele>132</ele>
        <time>2025-05-23T10:33:10Z</time>
      </trkpt>
      <trkpt lat="43.64505" lon="1.39937">
        <ele>132</ele>
        <time>2025-05-23T10:33:11Z</time>
      </trkpt>
      <trkpt lat="43.64503" lon="1.39934">
        <ele>132</ele>
        <time>2025-05-23T10:33:12Z</time>
      </trkpt>
      <trkpt lat="43.64501" lon="1.3993">
        <ele>132</ele>
        <time>2025-05-23T10:33:13Z</time>
      </trkpt>
      <trkpt lat="43.64499" lon="1.39927">
        <ele>132</ele>
        <time>2025-05-23T10:33:14Z</time>
      </trkpt>
      <trkpt lat="43.64497" lon="1.39923">
        <ele>132</ele>
        <time>2025-05-23T10:33:15Z</time>
      </trkpt>
      <trkpt lat="43.64497" lon="1.3992">
        <ele>132</ele>
        <time>2025-05-23T10:33:16Z</time>
      </trkpt>
      <trkpt lat="43.64496" lon="1.39917">
        <ele>132</ele>
        <time>2025-05-23T10:33:17Z</time>
      </trkpt>
      <trkpt lat="43.64496" lon="1.39914">
        <ele>132</ele>
        <time>2025-05-23T10:33:18Z</time>
      </trkpt>
      <trkpt lat="43.64497" lon="1.39911">
        <ele>132</ele>
        <time>2025-05-23T10:33:19Z</time>
      </trkpt>
      <trkpt lat="43.64497" lon="1.39908">
        <ele>132</ele>
        <time>2025-05-23T10:33:20Z</time>
      </trkpt>
      <trkpt lat="43.64497" lon="1.39908">
        <ele>132</ele>
        <time>2025-05-23T10:33:21Z</time>
      </trkpt>
      <trkpt lat="43.64497" lon="1.39904">
        <ele>132</ele>
        <time>2025-05-23T10:33:22Z</time>
      </trkpt>
      <trkpt lat="43.64497" lon="1.39904">
        <ele>132</ele>
        <time>2025-05-23T10:33:23Z</time>
      </trkpt>
      <trkpt lat="43.64497" lon="1.399">
        <ele>132</ele>
        <time>2025-05-23T10:33:24Z</time>
      </trkpt>
      <trkpt lat="43.64497" lon="1.399">
        <ele>132</ele>
        <time>2025-05-23T10:33:25Z</time>
      </trkpt>
      <trkpt lat="43.64497" lon="1.39896">
        <ele>132</ele>
        <time>2025-05-23T10:33:26Z</time>
      </trkpt>
      <trkpt lat="43.64497" lon="1.39896">
        <ele>132</ele>
        <time>2025-05-23T10:33:27Z</time>
      </trkpt>
      <trkpt lat="43.64497" lon="1.39892">
        <ele>132</ele>
        <time>2025-05-23T10:33:28Z</time>
      </trkpt>
      <trkpt lat="43.64497" lon="1.39892">
        <ele>132</ele>
        <time>2025-05-23T10:33:29Z</time>
      </trkpt>
      <trkpt lat="43.64497" lon="1.39888">
        <ele>132</ele>
        <time>2025-05-23T10:33:30Z</time>
      </trkpt>
      <trkpt lat="43.64497" lon="1.39888">
        <ele>132</ele>
        <time>2025-05-23T10:33:31Z</time>
      </trkpt>
      <trkpt lat="43.64497" lon="1.39883">
        <ele>132</ele>
        <time>2025-05-23T10:33:32Z</time>
      </trkpt>
      <trkpt lat="43.64497" lon="1.39883">
        <ele>132</ele>
        <time>2025-05-23T10:33:33Z</time>
      </trkpt>
      <trkpt lat="43.64497" lon="1.39879">
        <ele>132</ele>
        <time>2025-05-23T10:33:34Z</time>
      </trkpt>
      <trkpt lat="43.64497" lon="1.39879">
        <ele>132</ele>
        <time>2025-05-23T10:33:35Z</time>
      </trkpt>
      <trkpt lat="43.64497" lon="1.39875">
        <ele>132</ele>
        <time>2025-05-23T10:33:36Z</time>
      </trkpt>
      <trkpt lat="43.64497" lon="1.39875">
        <ele>132</ele>
        <time>2025-05-23T10:33:37Z</time>
      </trkpt>
      <trkpt lat="43.64497" lon="1.39871">
        <ele>132</ele>
        <time>2025-05-23T10:33:38Z</time>
      </trkpt>
      <trkpt lat="43.64497" lon="1.39871">
        <ele>132</ele>
        <time>2025-05-23T10:33:39Z</time>
      </trkpt>
      <trkpt lat="43.64497" lon="1.39867">
        <ele>132</ele>
        <time>2025-05-23T10:33:40Z</time>
      </trkpt>
      <trkpt lat="43.64497" lon="1.39867">
        <ele>132</ele>
        <time>2025-05-23T10:33:41Z</time>
      </trkpt>
      <trkpt lat="43.64497" lon="1.39864">
        <ele>132</ele>
        <time>2025-05-23T10:33:42Z</time>
      </trkpt>
      <trkpt lat="43.64497" lon="1.39864">
        <ele>132</ele>
        <time>2025-05-23T10:33:43Z</time>
      </trkpt>
      <trkpt lat="43.64496" lon="1.3986">
        <ele>132</ele>
        <time>2025-05-23T10:33:44Z</time>
      </trkpt>
      <trkpt lat="43.64496" lon="1.3986">
        <ele>132</ele>
        <time>2025-05-23T10:33:45Z</time>
      </trkpt>
      <trkpt lat="43.64496" lon="1.39856">
        <ele>132</ele>
        <time>2025-05-23T10:33:46Z</time>
      </trkpt>
      <trkpt lat="43.64496" lon="1.39856">
        <ele>132</ele>
        <time>2025-05-23T10:33:47Z</time>
      </trkpt>
      <trkpt lat="43.64496" lon="1.39852">
        <ele>132</ele>
        <time>2025-05-23T10:33:48Z</time>
      </trkpt>
      <trkpt lat="43.64496" lon="1.39852">
        <ele>132</ele>
        <time>2025-05-23T10:33:49Z</time>
      </trkpt>
      <trkpt lat="43.64496" lon="1.39848">
        <ele>132</ele>
        <time>2025-05-23T10:33:50Z</time>
      </trkpt>
      <trkpt lat="43.64496" lon="1.39848">
        <ele>132</ele>
        <time>2025-05-23T10:33:51Z</time>
      </trkpt>
      <trkpt lat="43.64495" lon="1.39844">
        <ele>132</ele>
        <time>2025-05-23T10:33:52Z</time>
      </trkpt>
      <trkpt lat="43.64495" lon="1.39844">
        <ele>132</ele>
        <time>2025-05-23T10:33:53Z</time>
      </trkpt>
      <trkpt lat="43.64495" lon="1.39841">
        <ele>132</ele>
        <time>2025-05-23T10:33:54Z</time>
      </trkpt>
      <trkpt lat="43.64495" lon="1.39841">
        <ele>132</ele>
        <time>2025-05-23T10:33:55Z</time>
      </trkpt>
      <trkpt lat="43.64496" lon="1.39837">
        <ele>132</ele>
        <time>2025-05-23T10:33:56Z</time>
      </trkpt>
      <trkpt lat="43.64496" lon="1.39837">
        <ele>132</ele>
        <time>2025-05-23T10:33:57Z</time>
      </trkpt>
      <trkpt lat="43.64496" lon="1.39833">
        <ele>132</ele>
        <time>2025-05-23T10:33:58Z</time>
      </trkpt>
      <trkpt lat="43.64496" lon="1.39833">
        <ele>132</ele>
        <time>2025-05-23T10:33:59Z</time>
      </trkpt>
      <trkpt lat="43.64496" lon="1.39829">
        <ele>132</ele>
        <time>2025-05-23T10:34:00Z</time>
      </trkpt>
      <trkpt lat="43.64496" lon="1.39829">
        <ele>132</ele>
        <time>2025-05-23T10:34:01Z</time>
      </trkpt>
      <trkpt lat="43.64496" lon="1.39825">
        <ele>132</ele>
        <time>2025-05-23T10:34:02Z</time>
      </trkpt>
      <trkpt lat="43.64496" lon="1.39825">
        <ele>132</ele>
        <time>2025-05-23T10:34:03Z</time>
      </trkpt>
      <trkpt lat="43.64496" lon="1.39821">
        <ele>132</ele>
        <time>2025-05-23T10:34:04Z</time>
      </trkpt>
      <trkpt lat="43.64496" lon="1.39821">
        <ele>132</ele>
        <time>2025-05-23T10:34:05Z</time>
      </trkpt>
      <trkpt lat="43.64496" lon="1.39817">
        <ele>132</ele>
        <time>2025-05-23T10:34:06Z</time>
      </trkpt>
      <trkpt lat="43.64496" lon="1.39817">
        <ele>132</ele>
        <time>2025-05-23T10:34:07Z</time>
      </trkpt>
      <trkpt lat="43.64496" lon="1.39813">
        <ele>133</ele>
        <time>2025-05-23T10:34:08Z</time>
      </trkpt>
      <trkpt lat="43.64496" lon="1.39813">
        <ele>133</ele>
        <time>2025-05-23T10:34:09Z</time>
      </trkpt>
      <trkpt lat="43.64496" lon="1.39809">
        <ele>133</ele>
        <time>2025-05-23T10:34:10Z</time>
      </trkpt>
      <trkpt lat="43.64496" lon="1.39809">
        <ele>133</ele>
        <time>2025-05-23T10:34:11Z</time>
      </trkpt>
      <trkpt lat="43.64496" lon="1.39805">
        <ele>132</ele>
        <time>2025-05-23T10:34:12Z</time>
      </trkpt>
      <trkpt lat="43.64496" lon="1.39805">
        <ele>132</ele>
        <time>2025-05-23T10:34:13Z</time>
      </trkpt>
      <trkpt lat="43.64497" lon="1.39801">
        <ele>132</ele>
        <time>2025-05-23T10:34:14Z</time>
      </trkpt>
      <trkpt lat="43.64497" lon="1.39801">
        <ele>132</ele>
        <time>2025-05-23T10:34:15Z</time>
      </trkpt>
      <trkpt lat="43.64497" lon="1.39797">
        <ele>132</ele>
        <time>2025-05-23T10:34:16Z</time>
      </trkpt>
      <trkpt lat="43.64497" lon="1.39797">
        <ele>132</ele>
        <time>2025-05-23T10:34:17Z</time>
      </trkpt>
      <trkpt lat="43.64497" lon="1.39792">
        <ele>132</ele>
        <time>2025-05-23T10:34:18Z</time>
      </trkpt>
      <trkpt lat="43.64497" lon="1.39789">
        <ele>132</ele>
        <time>2025-05-23T10:34:19Z</time>
      </trkpt>
      <trkpt lat="43.64497" lon="1.39785">
        <ele>132</ele>
        <time>2025-05-23T10:34:20Z</time>
      </trkpt>
      <trkpt lat="43.64497" lon="1.39781">
        <ele>132</ele>
        <time>2025-05-23T10:34:21Z</time>
      </trkpt>
      <trkpt lat="43.64497" lon="1.39777">
        <ele>132</ele>
        <time>2025-05-23T10:34:22Z</time>
      </trkpt>
      <trkpt lat="43.64497" lon="1.39773">
        <ele>132</ele>
        <time>2025-05-23T10:34:23Z</time>
      </trkpt>
      <trkpt lat="43.64497" lon="1.39769">
        <ele>132</ele>
        <time>2025-05-23T10:34:24Z</time>
      </trkpt>
      <trkpt lat="43.64497" lon="1.39765">
        <ele>132</ele>
        <time>2025-05-23T10:34:25Z</time>
      </trkpt>
      <trkpt lat="43.64497" lon="1.39761">
        <ele>132</ele>
        <time>2025-05-23T10:34:26Z</time>
      </trkpt>
      <trkpt lat="43.64496" lon="1.39757">
        <ele>133</ele>
        <time>2025-05-23T10:34:27Z</time>
      </trkpt>
      <trkpt lat="43.64496" lon="1.39753">
        <ele>133</ele>
        <time>2025-05-23T10:34:28Z</time>
      </trkpt>
      <trkpt lat="43.64497" lon="1.39749">
        <ele>132</ele>
        <time>2025-05-23T10:34:29Z</time>
      </trkpt>
      <trkpt lat="43.64497" lon="1.39745">
        <ele>132</ele>
        <time>2025-05-23T10:34:30Z</time>
      </trkpt>
      <trkpt lat="43.64497" lon="1.39741">
        <ele>133</ele>
        <time>2025-05-23T10:34:31Z</time>
      </trkpt>
      <trkpt lat="43.64497" lon="1.39738">
        <ele>133</ele>
        <time>2025-05-23T10:34:32Z</time>
      </trkpt>
      <trkpt lat="43.64497" lon="1.39734">
        <ele>132</ele>
        <time>2025-05-23T10:34:33Z</time>
      </trkpt>
      <trkpt lat="43.64497" lon="1.39731">
        <ele>132</ele>
        <time>2025-05-23T10:34:34Z</time>
      </trkpt>
      <trkpt lat="43.64497" lon="1.39727">
        <ele>132</ele>
        <time>2025-05-23T10:34:35Z</time>
      </trkpt>
      <trkpt lat="43.64497" lon="1.39723">
        <ele>132</ele>
        <time>2025-05-23T10:34:36Z</time>
      </trkpt>
      <trkpt lat="43.64497" lon="1.39719">
        <ele>132</ele>
        <time>2025-05-23T10:34:37Z</time>
      </trkpt>
      <trkpt lat="43.64497" lon="1.39715">
        <ele>132</ele>
        <time>2025-05-23T10:34:38Z</time>
      </trkpt>
      <trkpt lat="43.64497" lon="1.39711">
        <ele>132</ele>
        <time>2025-05-23T10:34:39Z</time>
      </trkpt>
      <trkpt lat="43.64497" lon="1.39708">
        <ele>132</ele>
        <time>2025-05-23T10:34:40Z</time>
      </trkpt>
      <trkpt lat="43.64498" lon="1.39704">
        <ele>132</ele>
        <time>2025-05-23T10:34:41Z</time>
      </trkpt>
      <trkpt lat="43.64498" lon="1.39704">
        <ele>133</ele>
        <time>2025-05-23T10:34:42Z</time>
      </trkpt>
      <trkpt lat="43.64498" lon="1.39695">
        <ele>133</ele>
        <time>2025-05-23T10:34:43Z</time>
      </trkpt>
      <trkpt lat="43.64498" lon="1.39693">
        <ele>133</ele>
        <time>2025-05-23T10:34:44Z</time>
      </trkpt>
      <trkpt lat="43.64498" lon="1.39689">
        <ele>133</ele>
        <time>2025-05-23T10:34:45Z</time>
      </trkpt>
      <trkpt lat="43.64498" lon="1.39685">
        <ele>132</ele>
        <time>2025-05-23T10:34:46Z</time>
      </trkpt>
      <trkpt lat="43.64498" lon="1.39681">
        <ele>132</ele>
        <time>2025-05-23T10:34:47Z</time>
      </trkpt>
      <trkpt lat="43.64499" lon="1.39677">
        <ele>132</ele>
        <time>2025-05-23T10:34:48Z</time>
      </trkpt>
      <trkpt lat="43.64499" lon="1.39674">
        <ele>132</ele>
        <time>2025-05-23T10:34:49Z</time>
      </trkpt>
      <trkpt lat="43.64499" lon="1.3967">
        <ele>132</ele>
        <time>2025-05-23T10:34:50Z</time>
      </trkpt>
      <trkpt lat="43.64499" lon="1.39666">
        <ele>132</ele>
        <time>2025-05-23T10:34:51Z</time>
      </trkpt>
      <trkpt lat="43.64499" lon="1.39662">
        <ele>132</ele>
        <time>2025-05-23T10:34:52Z</time>
      </trkpt>
      <trkpt lat="43.64499" lon="1.39658">
        <ele>132</ele>
        <time>2025-05-23T10:34:53Z</time>
      </trkpt>
      <trkpt lat="43.64499" lon="1.39654">
        <ele>132</ele>
        <time>2025-05-23T10:34:54Z</time>
      </trkpt>
      <trkpt lat="43.64499" lon="1.3965">
        <ele>132</ele>
        <time>2025-05-23T10:34:55Z</time>
      </trkpt>
      <trkpt lat="43.64499" lon="1.39646">
        <ele>132</ele>
        <time>2025-05-23T10:34:56Z</time>
      </trkpt>
      <trkpt lat="43.64499" lon="1.39643">
        <ele>132</ele>
        <time>2025-05-23T10:34:57Z</time>
      </trkpt>
      <trkpt lat="43.64499" lon="1.39639">
        <ele>132</ele>
        <time>2025-05-23T10:34:58Z</time>
      </trkpt>
      <trkpt lat="43.64499" lon="1.39635">
        <ele>132</ele>
        <time>2025-05-23T10:34:59Z</time>
      </trkpt>
      <trkpt lat="43.64499" lon="1.39631">
        <ele>132</ele>
        <time>2025-05-23T10:35:00Z</time>
      </trkpt>
      <trkpt lat="43.64499" lon="1.39628">
        <ele>132</ele>
        <time>2025-05-23T10:35:01Z</time>
      </trkpt>
      <trkpt lat="43.64499" lon="1.39624">
        <ele>132</ele>
        <time>2025-05-23T10:35:02Z</time>
      </trkpt>
      <trkpt lat="43.64499" lon="1.3962">
        <ele>132</ele>
        <time>2025-05-23T10:35:03Z</time>
      </trkpt>
      <trkpt lat="43.64499" lon="1.39616">
        <ele>132</ele>
        <time>2025-05-23T10:35:04Z</time>
      </trkpt>
      <trkpt lat="43.64499" lon="1.39612">
        <ele>132</ele>
        <time>2025-05-23T10:35:05Z</time>
      </trkpt>
      <trkpt lat="43.64498" lon="1.39608">
        <ele>132</ele>
        <time>2025-05-23T10:35:06Z</time>
      </trkpt>
      <trkpt lat="43.64498" lon="1.39604">
        <ele>132</ele>
        <time>2025-05-23T10:35:07Z</time>
      </trkpt>
      <trkpt lat="43.64498" lon="1.396">
        <ele>132</ele>
        <time>2025-05-23T10:35:08Z</time>
      </trkpt>
      <trkpt lat="43.64498" lon="1.39596">
        <ele>133</ele>
        <time>2025-05-23T10:35:09Z</time>
      </trkpt>
      <trkpt lat="43.64498" lon="1.39592">
        <ele>133</ele>
        <time>2025-05-23T10:35:10Z</time>
      </trkpt>
      <trkpt lat="43.64497" lon="1.39588">
        <ele>133</ele>
        <time>2025-05-23T10:35:11Z</time>
      </trkpt>
      <trkpt lat="43.64497" lon="1.39583">
        <ele>133</ele>
        <time>2025-05-23T10:35:12Z</time>
      </trkpt>
      <trkpt lat="43.64497" lon="1.39579">
        <ele>133</ele>
        <time>2025-05-23T10:35:13Z</time>
      </trkpt>
      <trkpt lat="43.64496" lon="1.39575">
        <ele>133</ele>
        <time>2025-05-23T10:35:14Z</time>
      </trkpt>
      <trkpt lat="43.64496" lon="1.39571">
        <ele>133</ele>
        <time>2025-05-23T10:35:15Z</time>
      </trkpt>
      <trkpt lat="43.64496" lon="1.39567">
        <ele>133</ele>
        <time>2025-05-23T10:35:16Z</time>
      </trkpt>
      <trkpt lat="43.64495" lon="1.39563">
        <ele>133</ele>
        <time>2025-05-23T10:35:17Z</time>
      </trkpt>
      <trkpt lat="43.64494" lon="1.39559">
        <ele>133</ele>
        <time>2025-05-23T10:35:18Z</time>
      </trkpt>
      <trkpt lat="43.64493" lon="1.39556">
        <ele>133</ele>
        <time>2025-05-23T10:35:19Z</time>
      </trkpt>
      <trkpt lat="43.64492" lon="1.39552">
        <ele>132</ele>
        <time>2025-05-23T10:35:20Z</time>
      </trkpt>
      <trkpt lat="43.64492" lon="1.39548">
        <ele>132</ele>
        <time>2025-05-23T10:35:21Z</time>
      </trkpt>
      <trkpt lat="43.64492" lon="1.39544">
        <ele>132</ele>
        <time>2025-05-23T10:35:22Z</time>
      </trkpt>
      <trkpt lat="43.64492" lon="1.3954">
        <ele>132</ele>
        <time>2025-05-23T10:35:23Z</time>
      </trkpt>
      <trkpt lat="43.64492" lon="1.39536">
        <ele>133</ele>
        <time>2025-05-23T10:35:24Z</time>
      </trkpt>
      <trkpt lat="43.64492" lon="1.39532">
        <ele>133</ele>
        <time>2025-05-23T10:35:25Z</time>
      </trkpt>
      <trkpt lat="43.64491" lon="1.39527">
        <ele>133</ele>
        <time>2025-05-23T10:35:26Z</time>
      </trkpt>
      <trkpt lat="43.64491" lon="1.39523">
        <ele>133</ele>
        <time>2025-05-23T10:35:27Z</time>
      </trkpt>
      <trkpt lat="43.6449" lon="1.39519">
        <ele>133</ele>
        <time>2025-05-23T10:35:28Z</time>
      </trkpt>
      <trkpt lat="43.6449" lon="1.39514">
        <ele>133</ele>
        <time>2025-05-23T10:35:29Z</time>
      </trkpt>
      <trkpt lat="43.64489" lon="1.3951">
        <ele>133</ele>
        <time>2025-05-23T10:35:30Z</time>
      </trkpt>
      <trkpt lat="43.64488" lon="1.39506">
        <ele>133</ele>
        <time>2025-05-23T10:35:31Z</time>
      </trkpt>
      <trkpt lat="43.64488" lon="1.39502">
        <ele>134</ele>
        <time>2025-05-23T10:35:32Z</time>
      </trkpt>
      <trkpt lat="43.64487" lon="1.39497">
        <ele>135</ele>
        <time>2025-05-23T10:35:33Z</time>
      </trkpt>
      <trkpt lat="43.64486" lon="1.39493">
        <ele>135</ele>
        <time>2025-05-23T10:35:34Z</time>
      </trkpt>
      <trkpt lat="43.64486" lon="1.39489">
        <ele>135</ele>
        <time>2025-05-23T10:35:35Z</time>
      </trkpt>
      <trkpt lat="43.64485" lon="1.39486">
        <ele>134</ele>
        <time>2025-05-23T10:35:36Z</time>
      </trkpt>
      <trkpt lat="43.64485" lon="1.39482">
        <ele>133</ele>
        <time>2025-05-23T10:35:37Z</time>
      </trkpt>
      <trkpt lat="43.64484" lon="1.39478">
        <ele>133</ele>
        <time>2025-05-23T10:35:38Z</time>
      </trkpt>
      <trkpt lat="43.64484" lon="1.39474">
        <ele>133</ele>
        <time>2025-05-23T10:35:39Z</time>
      </trkpt>
      <trkpt lat="43.64483" lon="1.39471">
        <ele>133</ele>
        <time>2025-05-23T10:35:40Z</time>
      </trkpt>
      <trkpt lat="43.64483" lon="1.39467">
        <ele>133</ele>
        <time>2025-05-23T10:35:41Z</time>
      </trkpt>
      <trkpt lat="43.64482" lon="1.39464">
        <ele>133</ele>
        <time>2025-05-23T10:35:42Z</time>
      </trkpt>
      <trkpt lat="43.64481" lon="1.3946">
        <ele>133</ele>
        <time>2025-05-23T10:35:43Z</time>
      </trkpt>
      <trkpt lat="43.64481" lon="1.39456">
        <ele>132</ele>
        <time>2025-05-23T10:35:44Z</time>
      </trkpt>
      <trkpt lat="43.6448" lon="1.39453">
        <ele>132</ele>
        <time>2025-05-23T10:35:45Z</time>
      </trkpt>
      <trkpt lat="43.64479" lon="1.39449">
        <ele>132</ele>
        <time>2025-05-23T10:35:46Z</time>
      </trkpt>
      <trkpt lat="43.64479" lon="1.39445">
        <ele>132</ele>
        <time>2025-05-23T10:35:47Z</time>
      </trkpt>
      <trkpt lat="43.64478" lon="1.39442">
        <ele>132</ele>
        <time>2025-05-23T10:35:48Z</time>
      </trkpt>
      <trkpt lat="43.64477" lon="1.39438">
        <ele>132</ele>
        <time>2025-05-23T10:35:49Z</time>
      </trkpt>
      <trkpt lat="43.64476" lon="1.39434">
        <ele>132</ele>
        <time>2025-05-23T10:35:50Z</time>
      </trkpt>
      <trkpt lat="43.64475" lon="1.39431">
        <ele>132</ele>
        <time>2025-05-23T10:35:51Z</time>
      </trkpt>
      <trkpt lat="43.64475" lon="1.39427">
        <ele>132</ele>
        <time>2025-05-23T10:35:52Z</time>
      </trkpt>
      <trkpt lat="43.64474" lon="1.39423">
        <ele>132</ele>
        <time>2025-05-23T10:35:53Z</time>
      </trkpt>
      <trkpt lat="43.64474" lon="1.39419">
        <ele>132</ele>
        <time>2025-05-23T10:35:54Z</time>
      </trkpt>
      <trkpt lat="43.64473" lon="1.39415">
        <ele>132</ele>
        <time>2025-05-23T10:35:55Z</time>
      </trkpt>
      <trkpt lat="43.64472" lon="1.39412">
        <ele>132</ele>
        <time>2025-05-23T10:35:56Z</time>
      </trkpt>
      <trkpt lat="43.64472" lon="1.39407">
        <ele>132</ele>
        <time>2025-05-23T10:35:57Z</time>
      </trkpt>
      <trkpt lat="43.64471" lon="1.39403">
        <ele>132</ele>
        <time>2025-05-23T10:35:58Z</time>
      </trkpt>
      <trkpt lat="43.6447" lon="1.39399">
        <ele>132</ele>
        <time>2025-05-23T10:35:59Z</time>
      </trkpt>
      <trkpt lat="43.64469" lon="1.39396">
        <ele>132</ele>
        <time>2025-05-23T10:36:00Z</time>
      </trkpt>
      <trkpt lat="43.64469" lon="1.39392">
        <ele>132</ele>
        <time>2025-05-23T10:36:01Z</time>
      </trkpt>
      <trkpt lat="43.64468" lon="1.39388">
        <ele>132</ele>
        <time>2025-05-23T10:36:02Z</time>
      </trkpt>
      <trkpt lat="43.64467" lon="1.39383">
        <ele>132</ele>
        <time>2025-05-23T10:36:03Z</time>
      </trkpt>
      <trkpt lat="43.64466" lon="1.3938">
        <ele>132</ele>
        <time>2025-05-23T10:36:04Z</time>
      </trkpt>
      <trkpt lat="43.64466" lon="1.39376">
        <ele>132</ele>
        <time>2025-05-23T10:36:05Z</time>
      </trkpt>
      <trkpt lat="43.64465" lon="1.39372">
        <ele>132</ele>
        <time>2025-05-23T10:36:06Z</time>
      </trkpt>
      <trkpt lat="43.64464" lon="1.39367">
        <ele>132</ele>
        <time>2025-05-23T10:36:07Z</time>
      </trkpt>
      <trkpt lat="43.64464" lon="1.39363">
        <ele>132</ele>
        <time>2025-05-23T10:36:08Z</time>
      </trkpt>
      <trkpt lat="43.64463" lon="1.39359">
        <ele>132</ele>
        <time>2025-05-23T10:36:09Z</time>
      </trkpt>
      <trkpt lat="43.64462" lon="1.39354">
        <ele>132</ele>
        <time>2025-05-23T10:36:10Z</time>
      </trkpt>
      <trkpt lat="43.64462" lon="1.3935">
        <ele>132</ele>
        <time>2025-05-23T10:36:11Z</time>
      </trkpt>
      <trkpt lat="43.64461" lon="1.39346">
        <ele>132</ele>
        <time>2025-05-23T10:36:12Z</time>
      </trkpt>
      <trkpt lat="43.6446" lon="1.39342">
        <ele>132</ele>
        <time>2025-05-23T10:36:13Z</time>
      </trkpt>
      <trkpt lat="43.64459" lon="1.39338">
        <ele>132</ele>
        <time>2025-05-23T10:36:14Z</time>
      </trkpt>
      <trkpt lat="43.64459" lon="1.39335">
        <ele>132</ele>
        <time>2025-05-23T10:36:15Z</time>
      </trkpt>
      <trkpt lat="43.64458" lon="1.39331">
        <ele>132</ele>
        <time>2025-05-23T10:36:16Z</time>
      </trkpt>
      <trkpt lat="43.64457" lon="1.39327">
        <ele>132</ele>
        <time>2025-05-23T10:36:17Z</time>
      </trkpt>
      <trkpt lat="43.64456" lon="1.39322">
        <ele>132</ele>
        <time>2025-05-23T10:36:18Z</time>
      </trkpt>
      <trkpt lat="43.64456" lon="1.39318">
        <ele>132</ele>
        <time>2025-05-23T10:36:19Z</time>
      </trkpt>
      <trkpt lat="43.64455" lon="1.39313">
        <ele>132</ele>
        <time>2025-05-23T10:36:20Z</time>
      </trkpt>
      <trkpt lat="43.64454" lon="1.39309">
        <ele>133</ele>
        <time>2025-05-23T10:36:21Z</time>
      </trkpt>
      <trkpt lat="43.64453" lon="1.39305">
        <ele>133</ele>
        <time>2025-05-23T10:36:22Z</time>
      </trkpt>
      <trkpt lat="43.64453" lon="1.39301">
        <ele>133</ele>
        <time>2025-05-23T10:36:23Z</time>
      </trkpt>
      <trkpt lat="43.64452" lon="1.39297">
        <ele>133</ele>
        <time>2025-05-23T10:36:24Z</time>
      </trkpt>
      <trkpt lat="43.64451" lon="1.39293">
        <ele>133</ele>
        <time>2025-05-23T10:36:25Z</time>
      </trkpt>
      <trkpt lat="43.6445" lon="1.39288">
        <ele>133</ele>
        <time>2025-05-23T10:36:26Z</time>
      </trkpt>
      <trkpt lat="43.64449" lon="1.39284">
        <ele>133</ele>
        <time>2025-05-23T10:36:27Z</time>
      </trkpt>
      <trkpt lat="43.64448" lon="1.3928">
        <ele>133</ele>
        <time>2025-05-23T10:36:28Z</time>
      </trkpt>
      <trkpt lat="43.64447" lon="1.39276">
        <ele>133</ele>
        <time>2025-05-23T10:36:29Z</time>
      </trkpt>
      <trkpt lat="43.64446" lon="1.39272">
        <ele>133</ele>
        <time>2025-05-23T10:36:30Z</time>
      </trkpt>
      <trkpt lat="43.64446" lon="1.39268">
        <ele>133</ele>
        <time>2025-05-23T10:36:31Z</time>
      </trkpt>
      <trkpt lat="43.64445" lon="1.39264">
        <ele>133</ele>
        <time>2025-05-23T10:36:32Z</time>
      </trkpt>
      <trkpt lat="43.64443" lon="1.3926">
        <ele>132</ele>
        <time>2025-05-23T10:36:33Z</time>
      </trkpt>
      <trkpt lat="43.64441" lon="1.39256">
        <ele>132</ele>
        <time>2025-05-23T10:36:34Z</time>
      </trkpt>
      <trkpt lat="43.6444" lon="1.39252">
        <ele>132</ele>
        <time>2025-05-23T10:36:35Z</time>
      </trkpt>
      <trkpt lat="43.64438" lon="1.39249">
        <ele>132</ele>
        <time>2025-05-23T10:36:36Z</time>
      </trkpt>
      <trkpt lat="43.64436" lon="1.39245">
        <ele>132</ele>
        <time>2025-05-23T10:36:37Z</time>
      </trkpt>
      <trkpt lat="43.64434" lon="1.39242">
        <ele>132</ele>
        <time>2025-05-23T10:36:38Z</time>
      </trkpt>
      <trkpt lat="43.64431" lon="1.39239">
        <ele>133</ele>
        <time>2025-05-23T10:36:39Z</time>
      </trkpt>
      <trkpt lat="43.6443" lon="1.39236">
        <ele>133</ele>
        <time>2025-05-23T10:36:40Z</time>
      </trkpt>
      <trkpt lat="43.64428" lon="1.39233">
        <ele>133</ele>
        <time>2025-05-23T10:36:41Z</time>
      </trkpt>
      <trkpt lat="43.64426" lon="1.3923">
        <ele>133</ele>
        <time>2025-05-23T10:36:42Z</time>
      </trkpt>
      <trkpt lat="43.64425" lon="1.39227">
        <ele>133</ele>
        <time>2025-05-23T10:36:43Z</time>
      </trkpt>
      <trkpt lat="43.64425" lon="1.39227">
        <ele>133</ele>
        <time>2025-05-23T10:36:44Z</time>
      </trkpt>
      <trkpt lat="43.64424" lon="1.39224">
        <ele>133</ele>
        <time>2025-05-23T10:36:45Z</time>
      </trkpt>
      <trkpt lat="43.64424" lon="1.39224">
        <ele>133</ele>
        <time>2025-05-23T10:36:46Z</time>
      </trkpt>
      <trkpt lat="43.64423" lon="1.3922">
        <ele>133</ele>
        <time>2025-05-23T10:36:47Z</time>
      </trkpt>
      <trkpt lat="43.64423" lon="1.3922">
        <ele>134</ele>
        <time>2025-05-23T10:36:48Z</time>
      </trkpt>
      <trkpt lat="43.64421" lon="1.39216">
        <ele>134</ele>
        <time>2025-05-23T10:36:49Z</time>
      </trkpt>
      <trkpt lat="43.64421" lon="1.39216">
        <ele>134</ele>
        <time>2025-05-23T10:36:50Z</time>
      </trkpt>
      <trkpt lat="43.6442" lon="1.39212">
        <ele>134</ele>
        <time>2025-05-23T10:36:51Z</time>
      </trkpt>
      <trkpt lat="43.6442" lon="1.39212">
        <ele>134</ele>
        <time>2025-05-23T10:36:52Z</time>
      </trkpt>
      <trkpt lat="43.64418" lon="1.39208">
        <ele>134</ele>
        <time>2025-05-23T10:36:53Z</time>
      </trkpt>
      <trkpt lat="43.64418" lon="1.39208">
        <ele>134</ele>
        <time>2025-05-23T10:36:54Z</time>
      </trkpt>
      <trkpt lat="43.64417" lon="1.39205">
        <ele>134</ele>
        <time>2025-05-23T10:36:55Z</time>
      </trkpt>
      <trkpt lat="43.64417" lon="1.39205">
        <ele>134</ele>
        <time>2025-05-23T10:36:56Z</time>
      </trkpt>
      <trkpt lat="43.64416" lon="1.39201">
        <ele>134</ele>
        <time>2025-05-23T10:36:57Z</time>
      </trkpt>
      <trkpt lat="43.64416" lon="1.39201">
        <ele>134</ele>
        <time>2025-05-23T10:36:58Z</time>
      </trkpt>
      <trkpt lat="43.64414" lon="1.39198">
        <ele>135</ele>
        <time>2025-05-23T10:36:59Z</time>
      </trkpt>
      <trkpt lat="43.64414" lon="1.39198">
        <ele>136</ele>
        <time>2025-05-23T10:37:00Z</time>
      </trkpt>
      <trkpt lat="43.64413" lon="1.39194">
        <ele>136</ele>
        <time>2025-05-23T10:37:01Z</time>
      </trkpt>
      <trkpt lat="43.64413" lon="1.39194">
        <ele>136</ele>
        <time>2025-05-23T10:37:02Z</time>
      </trkpt>
      <trkpt lat="43.64411" lon="1.3919">
        <ele>137</ele>
        <time>2025-05-23T10:37:03Z</time>
      </trkpt>
      <trkpt lat="43.64411" lon="1.3919">
        <ele>137</ele>
        <time>2025-05-23T10:37:04Z</time>
      </trkpt>
      <trkpt lat="43.6441" lon="1.39186">
        <ele>137</ele>
        <time>2025-05-23T10:37:05Z</time>
      </trkpt>
      <trkpt lat="43.6441" lon="1.39186">
        <ele>137</ele>
        <time>2025-05-23T10:37:06Z</time>
      </trkpt>
      <trkpt lat="43.64409" lon="1.39181">
        <ele>137</ele>
        <time>2025-05-23T10:37:07Z</time>
      </trkpt>
      <trkpt lat="43.64409" lon="1.39181">
        <ele>137</ele>
        <time>2025-05-23T10:37:08Z</time>
      </trkpt>
      <trkpt lat="43.64409" lon="1.39177">
        <ele>137</ele>
        <time>2025-05-23T10:37:09Z</time>
      </trkpt>
      <trkpt lat="43.64409" lon="1.39177">
        <ele>137</ele>
        <time>2025-05-23T10:37:10Z</time>
      </trkpt>
      <trkpt lat="43.64408" lon="1.39173">
        <ele>137</ele>
        <time>2025-05-23T10:37:11Z</time>
      </trkpt>
      <trkpt lat="43.64408" lon="1.39173">
        <ele>137</ele>
        <time>2025-05-23T10:37:12Z</time>
      </trkpt>
      <trkpt lat="43.64408" lon="1.39168">
        <ele>137</ele>
        <time>2025-05-23T10:37:13Z</time>
      </trkpt>
      <trkpt lat="43.64408" lon="1.39168">
        <ele>137</ele>
        <time>2025-05-23T10:37:14Z</time>
      </trkpt>
      <trkpt lat="43.64408" lon="1.39164">
        <ele>138</ele>
        <time>2025-05-23T10:37:15Z</time>
      </trkpt>
      <trkpt lat="43.64408" lon="1.39164">
        <ele>138</ele>
        <time>2025-05-23T10:37:16Z</time>
      </trkpt>
      <trkpt lat="43.64409" lon="1.39159">
        <ele>138</ele>
        <time>2025-05-23T10:37:17Z</time>
      </trkpt>
      <trkpt lat="43.64409" lon="1.39159">
        <ele>138</ele>
        <time>2025-05-23T10:37:18Z</time>
      </trkpt>
      <trkpt lat="43.64409" lon="1.39155">
        <ele>139</ele>
        <time>2025-05-23T10:37:19Z</time>
      </trkpt>
      <trkpt lat="43.64409" lon="1.39155">
        <ele>139</ele>
        <time>2025-05-23T10:37:20Z</time>
      </trkpt>
      <trkpt lat="43.6441" lon="1.39151">
        <ele>139</ele>
        <time>2025-05-23T10:37:21Z</time>
      </trkpt>
      <trkpt lat="43.6441" lon="1.39151">
        <ele>140</ele>
        <time>2025-05-23T10:37:22Z</time>
      </trkpt>
      <trkpt lat="43.64411" lon="1.39148">
        <ele>140</ele>
        <time>2025-05-23T10:37:23Z</time>
      </trkpt>
      <trkpt lat="43.64411" lon="1.39148">
        <ele>140</ele>
        <time>2025-05-23T10:37:24Z</time>
      </trkpt>
      <trkpt lat="43.64411" lon="1.39144">
        <ele>140</ele>
        <time>2025-05-23T10:37:25Z</time>
      </trkpt>
      <trkpt lat="43.64411" lon="1.39144">
        <ele>140</ele>
        <time>2025-05-23T10:37:26Z</time>
      </trkpt>
      <trkpt lat="43.64412" lon="1.3914">
        <ele>140</ele>
        <time>2025-05-23T10:37:27Z</time>
      </trkpt>
      <trkpt lat="43.64412" lon="1.3914">
        <ele>140</ele>
        <time>2025-05-23T10:37:28Z</time>
      </trkpt>
      <trkpt lat="43.64413" lon="1.39136">
        <ele>141</ele>
        <time>2025-05-23T10:37:29Z</time>
      </trkpt>
      <trkpt lat="43.64413" lon="1.39136">
        <ele>141</ele>
        <time>2025-05-23T10:37:30Z</time>
      </trkpt>
      <trkpt lat="43.64415" lon="1.39132">
        <ele>141</ele>
        <time>2025-05-23T10:37:31Z</time>
      </trkpt>
      <trkpt lat="43.64415" lon="1.39132">
        <ele>142</ele>
        <time>2025-05-23T10:37:32Z</time>
      </trkpt>
      <trkpt lat="43.64416" lon="1.39128">
        <ele>142</ele>
        <time>2025-05-23T10:37:33Z</time>
      </trkpt>
      <trkpt lat="43.64416" lon="1.39128">
        <ele>142</ele>
        <time>2025-05-23T10:37:34Z</time>
      </trkpt>
      <trkpt lat="43.64417" lon="1.39124">
        <ele>142</ele>
        <time>2025-05-23T10:37:35Z</time>
      </trkpt>
      <trkpt lat="43.64417" lon="1.39124">
        <ele>142</ele>
        <time>2025-05-23T10:37:36Z</time>
      </trkpt>
      <trkpt lat="43.64418" lon="1.3912">
        <ele>142</ele>
        <time>2025-05-23T10:37:37Z</time>
      </trkpt>
      <trkpt lat="43.64418" lon="1.3912">
        <ele>142</ele>
        <time>2025-05-23T10:37:38Z</time>
      </trkpt>
      <trkpt lat="43.64418" lon="1.39117">
        <ele>142</ele>
        <time>2025-05-23T10:37:39Z</time>
      </trkpt>
      <trkpt lat="43.64418" lon="1.39114">
        <ele>142</ele>
        <time>2025-05-23T10:37:40Z</time>
      </trkpt>
      <trkpt lat="43.64418" lon="1.39114">
        <ele>143</ele>
        <time>2025-05-23T10:37:41Z</time>
      </trkpt>
      <trkpt lat="43.6442" lon="1.39111">
        <ele>143</ele>
        <time>2025-05-23T10:37:42Z</time>
      </trkpt>
      <trkpt lat="43.6442" lon="1.39111">
        <ele>143</ele>
        <time>2025-05-23T10:37:43Z</time>
      </trkpt>
      <trkpt lat="43.64422" lon="1.39109">
        <ele>144</ele>
        <time>2025-05-23T10:37:44Z</time>
      </trkpt>
      <trkpt lat="43.64422" lon="1.39109">
        <ele>144</ele>
        <time>2025-05-23T10:37:45Z</time>
      </trkpt>
      <trkpt lat="43.64424" lon="1.39106">
        <ele>144</ele>
        <time>2025-05-23T10:37:46Z</time>
      </trkpt>
      <trkpt lat="43.64424" lon="1.39106">
        <ele>144</ele>
        <time>2025-05-23T10:37:47Z</time>
      </trkpt>
      <trkpt lat="43.64426" lon="1.39102">
        <ele>144</ele>
        <time>2025-05-23T10:37:48Z</time>
      </trkpt>
      <trkpt lat="43.64427" lon="1.39099">
        <ele>144</ele>
        <time>2025-05-23T10:37:49Z</time>
      </trkpt>
      <trkpt lat="43.64429" lon="1.39097">
        <ele>144</ele>
        <time>2025-05-23T10:37:50Z</time>
      </trkpt>
      <trkpt lat="43.64429" lon="1.39097">
        <ele>144</ele>
        <time>2025-05-23T10:37:51Z</time>
      </trkpt>
      <trkpt lat="43.64431" lon="1.39094">
        <ele>144</ele>
        <time>2025-05-23T10:37:52Z</time>
      </trkpt>
      <trkpt lat="43.64431" lon="1.39094">
        <ele>145</ele>
        <time>2025-05-23T10:37:53Z</time>
      </trkpt>
      <trkpt lat="43.64432" lon="1.3909">
        <ele>145</ele>
        <time>2025-05-23T10:37:54Z</time>
      </trkpt>
      <trkpt lat="43.64432" lon="1.3909">
        <ele>145</ele>
        <time>2025-05-23T10:37:55Z</time>
      </trkpt>
      <trkpt lat="43.64434" lon="1.39087">
        <ele>145</ele>
        <time>2025-05-23T10:37:56Z</time>
      </trkpt>
      <trkpt lat="43.64434" lon="1.39087">
        <ele>145</ele>
        <time>2025-05-23T10:37:57Z</time>
      </trkpt>
      <trkpt lat="43.64436" lon="1.39083">
        <ele>145</ele>
        <time>2025-05-23T10:37:58Z</time>
      </trkpt>
      <trkpt lat="43.64436" lon="1.39083">
        <ele>145</ele>
        <time>2025-05-23T10:37:59Z</time>
      </trkpt>
      <trkpt lat="43.64437" lon="1.39079">
        <ele>145</ele>
        <time>2025-05-23T10:38:00Z</time>
      </trkpt>
      <trkpt lat="43.64437" lon="1.39079">
        <ele>145</ele>
        <time>2025-05-23T10:38:01Z</time>
      </trkpt>
      <trkpt lat="43.64439" lon="1.39075">
        <ele>145</ele>
        <time>2025-05-23T10:38:02Z</time>
      </trkpt>
      <trkpt lat="43.64439" lon="1.39075">
        <ele>145</ele>
        <time>2025-05-23T10:38:03Z</time>
      </trkpt>
      <trkpt lat="43.64441" lon="1.39071">
        <ele>145</ele>
        <time>2025-05-23T10:38:04Z</time>
      </trkpt>
      <trkpt lat="43.64441" lon="1.39071">
        <ele>146</ele>
        <time>2025-05-23T10:38:05Z</time>
      </trkpt>
      <trkpt lat="43.64443" lon="1.39068">
        <ele>146</ele>
        <time>2025-05-23T10:38:06Z</time>
      </trkpt>
      <trkpt lat="43.64443" lon="1.39068">
        <ele>145</ele>
        <time>2025-05-23T10:38:07Z</time>
      </trkpt>
      <trkpt lat="43.64445" lon="1.39064">
        <ele>146</ele>
        <time>2025-05-23T10:38:08Z</time>
      </trkpt>
      <trkpt lat="43.64445" lon="1.39064">
        <ele>146</ele>
        <time>2025-05-23T10:38:09Z</time>
      </trkpt>
      <trkpt lat="43.64447" lon="1.3906">
        <ele>146</ele>
        <time>2025-05-23T10:38:10Z</time>
      </trkpt>
      <trkpt lat="43.64447" lon="1.3906">
        <ele>146</ele>
        <time>2025-05-23T10:38:11Z</time>
      </trkpt>
      <trkpt lat="43.64449" lon="1.39057">
        <ele>146</ele>
        <time>2025-05-23T10:38:12Z</time>
      </trkpt>
      <trkpt lat="43.64449" lon="1.39057">
        <ele>146</ele>
        <time>2025-05-23T10:38:13Z</time>
      </trkpt>
      <trkpt lat="43.6445" lon="1.39054">
        <ele>146</ele>
        <time>2025-05-23T10:38:14Z</time>
      </trkpt>
      <trkpt lat="43.6445" lon="1.39054">
        <ele>146</ele>
        <time>2025-05-23T10:38:15Z</time>
      </trkpt>
      <trkpt lat="43.64453" lon="1.3905">
        <ele>146</ele>
        <time>2025-05-23T10:38:16Z</time>
      </trkpt>
      <trkpt lat="43.64455" lon="1.39047">
        <ele>146</ele>
        <time>2025-05-23T10:38:17Z</time>
      </trkpt>
      <trkpt lat="43.64457" lon="1.39045">
        <ele>146</ele>
        <time>2025-05-23T10:38:18Z</time>
      </trkpt>
      <trkpt lat="43.6446" lon="1.39044">
        <ele>146</ele>
        <time>2025-05-23T10:38:19Z</time>
      </trkpt>
      <trkpt lat="43.64463" lon="1.39043">
        <ele>146</ele>
        <time>2025-05-23T10:38:20Z</time>
      </trkpt>
      <trkpt lat="43.64465" lon="1.39042">
        <ele>146</ele>
        <time>2025-05-23T10:38:21Z</time>
      </trkpt>
      <trkpt lat="43.64468" lon="1.39041">
        <ele>146</ele>
        <time>2025-05-23T10:38:22Z</time>
      </trkpt>
      <trkpt lat="43.64471" lon="1.39039">
        <ele>146</ele>
        <time>2025-05-23T10:38:23Z</time>
      </trkpt>
      <trkpt lat="43.64473" lon="1.39037">
        <ele>146</ele>
        <time>2025-05-23T10:38:24Z</time>
      </trkpt>
      <trkpt lat="43.64475" lon="1.39035">
        <ele>146</ele>
        <time>2025-05-23T10:38:25Z</time>
      </trkpt>
      <trkpt lat="43.64477" lon="1.39032">
        <ele>147</ele>
        <time>2025-05-23T10:38:26Z</time>
      </trkpt>
      <trkpt lat="43.64478" lon="1.39028">
        <ele>147</ele>
        <time>2025-05-23T10:38:27Z</time>
      </trkpt>
      <trkpt lat="43.6448" lon="1.39025">
        <ele>147</ele>
        <time>2025-05-23T10:38:28Z</time>
      </trkpt>
      <trkpt lat="43.64481" lon="1.39021">
        <ele>147</ele>
        <time>2025-05-23T10:38:29Z</time>
      </trkpt>
      <trkpt lat="43.64482" lon="1.39018">
        <ele>146</ele>
        <time>2025-05-23T10:38:30Z</time>
      </trkpt>
      <trkpt lat="43.64483" lon="1.39014">
        <ele>146</ele>
        <time>2025-05-23T10:38:31Z</time>
      </trkpt>
      <trkpt lat="43.64485" lon="1.39011">
        <ele>146</ele>
        <time>2025-05-23T10:38:32Z</time>
      </trkpt>
      <trkpt lat="43.64486" lon="1.39007">
        <ele>146</ele>
        <time>2025-05-23T10:38:33Z</time>
      </trkpt>
      <trkpt lat="43.64486" lon="1.39003">
        <ele>145</ele>
        <time>2025-05-23T10:38:34Z</time>
      </trkpt>
      <trkpt lat="43.64488" lon="1.39">
        <ele>146</ele>
        <time>2025-05-23T10:38:35Z</time>
      </trkpt>
      <trkpt lat="43.64489" lon="1.38996">
        <ele>146</ele>
        <time>2025-05-23T10:38:36Z</time>
      </trkpt>
      <trkpt lat="43.6449" lon="1.38993">
        <ele>146</ele>
        <time>2025-05-23T10:38:37Z</time>
      </trkpt>
      <trkpt lat="43.64492" lon="1.38989">
        <ele>146</ele>
        <time>2025-05-23T10:38:38Z</time>
      </trkpt>
      <trkpt lat="43.64493" lon="1.38985">
        <ele>145</ele>
        <time>2025-05-23T10:38:39Z</time>
      </trkpt>
      <trkpt lat="43.64494" lon="1.38981">
        <ele>145</ele>
        <time>2025-05-23T10:38:40Z</time>
      </trkpt>
      <trkpt lat="43.64495" lon="1.38978">
        <ele>145</ele>
        <time>2025-05-23T10:38:41Z</time>
      </trkpt>
      <trkpt lat="43.64496" lon="1.38974">
        <ele>145</ele>
        <time>2025-05-23T10:38:42Z</time>
      </trkpt>
      <trkpt lat="43.64497" lon="1.3897">
        <ele>146</ele>
        <time>2025-05-23T10:38:43Z</time>
      </trkpt>
      <trkpt lat="43.64498" lon="1.38965">
        <ele>146</ele>
        <time>2025-05-23T10:38:44Z</time>
      </trkpt>
      <trkpt lat="43.645" lon="1.38962">
        <ele>146</ele>
        <time>2025-05-23T10:38:45Z</time>
      </trkpt>
      <trkpt lat="43.64501" lon="1.38958">
        <ele>146</ele>
        <time>2025-05-23T10:38:46Z</time>
      </trkpt>
      <trkpt lat="43.64502" lon="1.38954">
        <ele>147</ele>
        <time>2025-05-23T10:38:47Z</time>
      </trkpt>
      <trkpt lat="43.64502" lon="1.3895">
        <ele>147</ele>
        <time>2025-05-23T10:38:48Z</time>
      </trkpt>
      <trkpt lat="43.64504" lon="1.38946">
        <ele>147</ele>
        <time>2025-05-23T10:38:49Z</time>
      </trkpt>
      <trkpt lat="43.64506" lon="1.38942">
        <ele>147</ele>
        <time>2025-05-23T10:38:50Z</time>
      </trkpt>
      <trkpt lat="43.64507" lon="1.38939">
        <ele>147</ele>
        <time>2025-05-23T10:38:51Z</time>
      </trkpt>
      <trkpt lat="43.64508" lon="1.38935">
        <ele>147</ele>
        <time>2025-05-23T10:38:52Z</time>
      </trkpt>
      <trkpt lat="43.6451" lon="1.38931">
        <ele>147</ele>
        <time>2025-05-23T10:38:53Z</time>
      </trkpt>
      <trkpt lat="43.64511" lon="1.38927">
        <ele>146</ele>
        <time>2025-05-23T10:38:54Z</time>
      </trkpt>
      <trkpt lat="43.64511" lon="1.38923">
        <ele>146</ele>
        <time>2025-05-23T10:38:55Z</time>
      </trkpt>
      <trkpt lat="43.6451" lon="1.38919">
        <ele>145</ele>
        <time>2025-05-23T10:38:56Z</time>
      </trkpt>
      <trkpt lat="43.6451" lon="1.38915">
        <ele>145</ele>
        <time>2025-05-23T10:38:57Z</time>
      </trkpt>
      <trkpt lat="43.64509" lon="1.38911">
        <ele>145</ele>
        <time>2025-05-23T10:38:58Z</time>
      </trkpt>
      <trkpt lat="43.64508" lon="1.38907">
        <ele>145</ele>
        <time>2025-05-23T10:38:59Z</time>
      </trkpt>
      <trkpt lat="43.64507" lon="1.38903">
        <ele>146</ele>
        <time>2025-05-23T10:39:00Z</time>
      </trkpt>
      <trkpt lat="43.64506" lon="1.389">
        <ele>146</ele>
        <time>2025-05-23T10:39:01Z</time>
      </trkpt>
      <trkpt lat="43.64506" lon="1.38896">
        <ele>146</ele>
        <time>2025-05-23T10:39:02Z</time>
      </trkpt>
      <trkpt lat="43.64505" lon="1.38892">
        <ele>146</ele>
        <time>2025-05-23T10:39:03Z</time>
      </trkpt>
      <trkpt lat="43.64504" lon="1.38888">
        <ele>146</ele>
        <time>2025-05-23T10:39:04Z</time>
      </trkpt>
      <trkpt lat="43.64503" lon="1.38884">
        <ele>146</ele>
        <time>2025-05-23T10:39:05Z</time>
      </trkpt>
      <trkpt lat="43.64503" lon="1.38879">
        <ele>146</ele>
        <time>2025-05-23T10:39:06Z</time>
      </trkpt>
      <trkpt lat="43.64504" lon="1.38876">
        <ele>146</ele>
        <time>2025-05-23T10:39:07Z</time>
      </trkpt>
      <trkpt lat="43.64505" lon="1.38872">
        <ele>146</ele>
        <time>2025-05-23T10:39:08Z</time>
      </trkpt>
      <trkpt lat="43.64506" lon="1.38868">
        <ele>146</ele>
        <time>2025-05-23T10:39:09Z</time>
      </trkpt>
      <trkpt lat="43.64507" lon="1.38864">
        <ele>146</ele>
        <time>2025-05-23T10:39:10Z</time>
      </trkpt>
      <trkpt lat="43.64509" lon="1.38861">
        <ele>146</ele>
        <time>2025-05-23T10:39:11Z</time>
      </trkpt>
      <trkpt lat="43.64512" lon="1.38858">
        <ele>146</ele>
        <time>2025-05-23T10:39:12Z</time>
      </trkpt>
      <trkpt lat="43.64515" lon="1.38857">
        <ele>146</ele>
        <time>2025-05-23T10:39:13Z</time>
      </trkpt>
      <trkpt lat="43.64518" lon="1.38856">
        <ele>146</ele>
        <time>2025-05-23T10:39:14Z</time>
      </trkpt>
      <trkpt lat="43.64521" lon="1.38855">
        <ele>146</ele>
        <time>2025-05-23T10:39:15Z</time>
      </trkpt>
      <trkpt lat="43.64524" lon="1.38854">
        <ele>146</ele>
        <time>2025-05-23T10:39:16Z</time>
      </trkpt>
      <trkpt lat="43.64527" lon="1.38853">
        <ele>146</ele>
        <time>2025-05-23T10:39:17Z</time>
      </trkpt>
      <trkpt lat="43.64531" lon="1.38852">
        <ele>146</ele>
        <time>2025-05-23T10:39:18Z</time>
      </trkpt>
      <trkpt lat="43.64534" lon="1.38851">
        <ele>146</ele>
        <time>2025-05-23T10:39:19Z</time>
      </trkpt>
      <trkpt lat="43.64536" lon="1.38849">
        <ele>146</ele>
        <time>2025-05-23T10:39:20Z</time>
      </trkpt>
      <trkpt lat="43.64539" lon="1.38847">
        <ele>146</ele>
        <time>2025-05-23T10:39:21Z</time>
      </trkpt>
      <trkpt lat="43.64541" lon="1.38844">
        <ele>146</ele>
        <time>2025-05-23T10:39:22Z</time>
      </trkpt>
      <trkpt lat="43.64544" lon="1.38842">
        <ele>146</ele>
        <time>2025-05-23T10:39:23Z</time>
      </trkpt>
      <trkpt lat="43.64547" lon="1.38841">
        <ele>146</ele>
        <time>2025-05-23T10:39:24Z</time>
      </trkpt>
      <trkpt lat="43.6455" lon="1.3884">
        <ele>146</ele>
        <time>2025-05-23T10:39:25Z</time>
      </trkpt>
      <trkpt lat="43.64553" lon="1.38839">
        <ele>146</ele>
        <time>2025-05-23T10:39:26Z</time>
      </trkpt>
      <trkpt lat="43.64556" lon="1.38839">
        <ele>146</ele>
        <time>2025-05-23T10:39:27Z</time>
      </trkpt>
      <trkpt lat="43.64559" lon="1.38839">
        <ele>146</ele>
        <time>2025-05-23T10:39:28Z</time>
      </trkpt>
      <trkpt lat="43.64562" lon="1.38838">
        <ele>146</ele>
        <time>2025-05-23T10:39:29Z</time>
      </trkpt>
      <trkpt lat="43.64565" lon="1.38837">
        <ele>146</ele>
        <time>2025-05-23T10:39:30Z</time>
      </trkpt>
      <trkpt lat="43.64568" lon="1.38836">
        <ele>146</ele>
        <time>2025-05-23T10:39:31Z</time>
      </trkpt>
      <trkpt lat="43.64571" lon="1.38835">
        <ele>146</ele>
        <time>2025-05-23T10:39:32Z</time>
      </trkpt>
      <trkpt lat="43.64573" lon="1.38835">
        <ele>147</ele>
        <time>2025-05-23T10:39:33Z</time>
      </trkpt>
      <trkpt lat="43.64576" lon="1.38834">
        <ele>147</ele>
        <time>2025-05-23T10:39:34Z</time>
      </trkpt>
      <trkpt lat="43.6458" lon="1.38833">
        <ele>146</ele>
        <time>2025-05-23T10:39:35Z</time>
      </trkpt>
      <trkpt lat="43.64583" lon="1.38833">
        <ele>146</ele>
        <time>2025-05-23T10:39:36Z</time>
      </trkpt>
      <trkpt lat="43.64586" lon="1.38833">
        <ele>146</ele>
        <time>2025-05-23T10:39:37Z</time>
      </trkpt>
      <trkpt lat="43.64589" lon="1.38832">
        <ele>146</ele>
        <time>2025-05-23T10:39:38Z</time>
      </trkpt>
      <trkpt lat="43.64592" lon="1.38833">
        <ele>146</ele>
        <time>2025-05-23T10:39:39Z</time>
      </trkpt>
      <trkpt lat="43.64595" lon="1.38832">
        <ele>146</ele>
        <time>2025-05-23T10:39:40Z</time>
      </trkpt>
      <trkpt lat="43.64597" lon="1.38832">
        <ele>146</ele>
        <time>2025-05-23T10:39:41Z</time>
      </trkpt>
      <trkpt lat="43.646" lon="1.38831">
        <ele>146</ele>
        <time>2025-05-23T10:39:42Z</time>
      </trkpt>
      <trkpt lat="43.64603" lon="1.3883">
        <ele>146</ele>
        <time>2025-05-23T10:39:43Z</time>
      </trkpt>
      <trkpt lat="43.64607" lon="1.38829">
        <ele>146</ele>
        <time>2025-05-23T10:39:44Z</time>
      </trkpt>
      <trkpt lat="43.6461" lon="1.38828">
        <ele>146</ele>
        <time>2025-05-23T10:39:45Z</time>
      </trkpt>
      <trkpt lat="43.64613" lon="1.38827">
        <ele>146</ele>
        <time>2025-05-23T10:39:46Z</time>
      </trkpt>
      <trkpt lat="43.64616" lon="1.38826">
        <ele>146</ele>
        <time>2025-05-23T10:39:47Z</time>
      </trkpt>
      <trkpt lat="43.64619" lon="1.38824">
        <ele>146</ele>
        <time>2025-05-23T10:39:48Z</time>
      </trkpt>
      <trkpt lat="43.64622" lon="1.38823">
        <ele>146</ele>
        <time>2025-05-23T10:39:49Z</time>
      </trkpt>
      <trkpt lat="43.64625" lon="1.38822">
        <ele>146</ele>
        <time>2025-05-23T10:39:50Z</time>
      </trkpt>
      <trkpt lat="43.64627" lon="1.38821">
        <ele>146</ele>
        <time>2025-05-23T10:39:51Z</time>
      </trkpt>
      <trkpt lat="43.6463" lon="1.3882">
        <ele>147</ele>
        <time>2025-05-23T10:39:52Z</time>
      </trkpt>
      <trkpt lat="43.64633" lon="1.38819">
        <ele>147</ele>
        <time>2025-05-23T10:39:53Z</time>
      </trkpt>
      <trkpt lat="43.64635" lon="1.38818">
        <ele>147</ele>
        <time>2025-05-23T10:39:54Z</time>
      </trkpt>
      <trkpt lat="43.64638" lon="1.38817">
        <ele>147</ele>
        <time>2025-05-23T10:39:55Z</time>
      </trkpt>
      <trkpt lat="43.64642" lon="1.38816">
        <ele>147</ele>
        <time>2025-05-23T10:39:56Z</time>
      </trkpt>
      <trkpt lat="43.64645" lon="1.38815">
        <ele>147</ele>
        <time>2025-05-23T10:39:57Z</time>
      </trkpt>
      <trkpt lat="43.64648" lon="1.38813">
        <ele>147</ele>
        <time>2025-05-23T10:39:58Z</time>
      </trkpt>
      <trkpt lat="43.6465" lon="1.38811">
        <ele>147</ele>
        <time>2025-05-23T10:39:59Z</time>
      </trkpt>
      <trkpt lat="43.64654" lon="1.3881">
        <ele>146</ele>
        <time>2025-05-23T10:40:00Z</time>
      </trkpt>
      <trkpt lat="43.64657" lon="1.3881">
        <ele>146</ele>
        <time>2025-05-23T10:40:01Z</time>
      </trkpt>
      <trkpt lat="43.6466" lon="1.38809">
        <ele>146</ele>
        <time>2025-05-23T10:40:02Z</time>
      </trkpt>
      <trkpt lat="43.64663" lon="1.38807">
        <ele>146</ele>
        <time>2025-05-23T10:40:03Z</time>
      </trkpt>
      <trkpt lat="43.64665" lon="1.38806">
        <ele>146</ele>
        <time>2025-05-23T10:40:04Z</time>
      </trkpt>
      <trkpt lat="43.64668" lon="1.38805">
        <ele>146</ele>
        <time>2025-05-23T10:40:05Z</time>
      </trkpt>
      <trkpt lat="43.64671" lon="1.38804">
        <ele>146</ele>
        <time>2025-05-23T10:40:06Z</time>
      </trkpt>
      <trkpt lat="43.64674" lon="1.38803">
        <ele>146</ele>
        <time>2025-05-23T10:40:07Z</time>
      </trkpt>
      <trkpt lat="43.64677" lon="1.38802">
        <ele>146</ele>
        <time>2025-05-23T10:40:08Z</time>
      </trkpt>
      <trkpt lat="43.6468" lon="1.388">
        <ele>146</ele>
        <time>2025-05-23T10:40:09Z</time>
      </trkpt>
      <trkpt lat="43.64683" lon="1.38799">
        <ele>146</ele>
        <time>2025-05-23T10:40:10Z</time>
      </trkpt>
      <trkpt lat="43.64686" lon="1.38798">
        <ele>147</ele>
        <time>2025-05-23T10:40:11Z</time>
      </trkpt>
      <trkpt lat="43.64688" lon="1.38796">
        <ele>147</ele>
        <time>2025-05-23T10:40:12Z</time>
      </trkpt>
      <trkpt lat="43.64691" lon="1.38795">
        <ele>147</ele>
        <time>2025-05-23T10:40:13Z</time>
      </trkpt>
      <trkpt lat="43.64694" lon="1.38793">
        <ele>147</ele>
        <time>2025-05-23T10:40:14Z</time>
      </trkpt>
      <trkpt lat="43.64697" lon="1.38791">
        <ele>146</ele>
        <time>2025-05-23T10:40:15Z</time>
      </trkpt>
      <trkpt lat="43.64701" lon="1.38789">
        <ele>146</ele>
        <time>2025-05-23T10:40:16Z</time>
      </trkpt>
      <trkpt lat="43.64704" lon="1.38788">
        <ele>146</ele>
        <time>2025-05-23T10:40:17Z</time>
      </trkpt>
      <trkpt lat="43.64707" lon="1.38786">
        <ele>146</ele>
        <time>2025-05-23T10:40:18Z</time>
      </trkpt>
      <trkpt lat="43.6471" lon="1.38784">
        <ele>146</ele>
        <time>2025-05-23T10:40:19Z</time>
      </trkpt>
      <trkpt lat="43.64713" lon="1.38783">
        <ele>146</ele>
        <time>2025-05-23T10:40:20Z</time>
      </trkpt>
      <trkpt lat="43.64716" lon="1.38781">
        <ele>146</ele>
        <time>2025-05-23T10:40:21Z</time>
      </trkpt>
      <trkpt lat="43.64719" lon="1.3878">
        <ele>146</ele>
        <time>2025-05-23T10:40:22Z</time>
      </trkpt>
      <trkpt lat="43.64721" lon="1.38778">
        <ele>146</ele>
        <time>2025-05-23T10:40:23Z</time>
      </trkpt>
      <trkpt lat="43.64724" lon="1.38776">
        <ele>147</ele>
        <time>2025-05-23T10:40:24Z</time>
      </trkpt>
      <trkpt lat="43.64727" lon="1.38774">
        <ele>147</ele>
        <time>2025-05-23T10:40:25Z</time>
      </trkpt>
      <trkpt lat="43.6473" lon="1.38772">
        <ele>147</ele>
        <time>2025-05-23T10:40:26Z</time>
      </trkpt>
      <trkpt lat="43.64732" lon="1.3877">
        <ele>146</ele>
        <time>2025-05-23T10:40:27Z</time>
      </trkpt>
      <trkpt lat="43.64735" lon="1.38768">
        <ele>146</ele>
        <time>2025-05-23T10:40:28Z</time>
      </trkpt>
      <trkpt lat="43.64738" lon="1.38766">
        <ele>146</ele>
        <time>2025-05-23T10:40:29Z</time>
      </trkpt>
      <trkpt lat="43.64741" lon="1.38764">
        <ele>146</ele>
        <time>2025-05-23T10:40:30Z</time>
      </trkpt>
      <trkpt lat="43.64743" lon="1.38763">
        <ele>146</ele>
        <time>2025-05-23T10:40:31Z</time>
      </trkpt>
      <trkpt lat="43.64746" lon="1.38761">
        <ele>146</ele>
        <time>2025-05-23T10:40:32Z</time>
      </trkpt>
      <trkpt lat="43.64749" lon="1.38758">
        <ele>146</ele>
        <time>2025-05-23T10:40:33Z</time>
      </trkpt>
      <trkpt lat="43.64752" lon="1.38756">
        <ele>146</ele>
        <time>2025-05-23T10:40:34Z</time>
      </trkpt>
      <trkpt lat="43.64755" lon="1.38754">
        <ele>146</ele>
        <time>2025-05-23T10:40:35Z</time>
      </trkpt>
      <trkpt lat="43.64759" lon="1.38753">
        <ele>145</ele>
        <time>2025-05-23T10:40:36Z</time>
      </trkpt>
      <trkpt lat="43.64762" lon="1.38751">
        <ele>145</ele>
        <time>2025-05-23T10:40:37Z</time>
      </trkpt>
      <trkpt lat="43.64764" lon="1.38749">
        <ele>145</ele>
        <time>2025-05-23T10:40:38Z</time>
      </trkpt>
      <trkpt lat="43.64767" lon="1.38748">
        <ele>146</ele>
        <time>2025-05-23T10:40:39Z</time>
      </trkpt>
      <trkpt lat="43.6477" lon="1.38746">
        <ele>146</ele>
        <time>2025-05-23T10:40:40Z</time>
      </trkpt>
      <trkpt lat="43.64773" lon="1.38744">
        <ele>146</ele>
        <time>2025-05-23T10:40:41Z</time>
      </trkpt>
      <trkpt lat="43.64776" lon="1.38742">
        <ele>146</ele>
        <time>2025-05-23T10:40:42Z</time>
      </trkpt>
      <trkpt lat="43.64779" lon="1.3874">
        <ele>146</ele>
        <time>2025-05-23T10:40:43Z</time>
      </trkpt>
      <trkpt lat="43.64782" lon="1.38738">
        <ele>146</ele>
        <time>2025-05-23T10:40:44Z</time>
      </trkpt>
      <trkpt lat="43.64784" lon="1.38736">
        <ele>146</ele>
        <time>2025-05-23T10:40:45Z</time>
      </trkpt>
      <trkpt lat="43.64787" lon="1.38734">
        <ele>146</ele>
        <time>2025-05-23T10:40:46Z</time>
      </trkpt>
      <trkpt lat="43.6479" lon="1.38731">
        <ele>146</ele>
        <time>2025-05-23T10:40:47Z</time>
      </trkpt>
      <trkpt lat="43.64793" lon="1.38729">
        <ele>146</ele>
        <time>2025-05-23T10:40:48Z</time>
      </trkpt>
      <trkpt lat="43.64796" lon="1.38727">
        <ele>146</ele>
        <time>2025-05-23T10:40:49Z</time>
      </trkpt>
      <trkpt lat="43.64799" lon="1.38725">
        <ele>146</ele>
        <time>2025-05-23T10:40:50Z</time>
      </trkpt>
      <trkpt lat="43.64802" lon="1.38723">
        <ele>146</ele>
        <time>2025-05-23T10:40:51Z</time>
      </trkpt>
      <trkpt lat="43.64804" lon="1.38721">
        <ele>146</ele>
        <time>2025-05-23T10:40:52Z</time>
      </trkpt>
      <trkpt lat="43.64807" lon="1.3872">
        <ele>146</ele>
        <time>2025-05-23T10:40:53Z</time>
      </trkpt>
      <trkpt lat="43.6481" lon="1.38718">
        <ele>146</ele>
        <time>2025-05-23T10:40:54Z</time>
      </trkpt>
      <trkpt lat="43.64812" lon="1.38716">
        <ele>146</ele>
        <time>2025-05-23T10:40:55Z</time>
      </trkpt>
      <trkpt lat="43.64816" lon="1.38713">
        <ele>146</ele>
        <time>2025-05-23T10:40:56Z</time>
      </trkpt>
      <trkpt lat="43.64818" lon="1.38711">
        <ele>146</ele>
        <time>2025-05-23T10:40:57Z</time>
      </trkpt>
      <trkpt lat="43.64821" lon="1.38708">
        <ele>146</ele>
        <time>2025-05-23T10:40:58Z</time>
      </trkpt>
      <trkpt lat="43.64825" lon="1.38706">
        <ele>146</ele>
        <time>2025-05-23T10:40:59Z</time>
      </trkpt>
      <trkpt lat="43.64827" lon="1.38704">
        <ele>146</ele>
        <time>2025-05-23T10:41:00Z</time>
      </trkpt>
      <trkpt lat="43.6483" lon="1.38702">
        <ele>146</ele>
        <time>2025-05-23T10:41:01Z</time>
      </trkpt>
      <trkpt lat="43.64832" lon="1.38699">
        <ele>146</ele>
        <time>2025-05-23T10:41:02Z</time>
      </trkpt>
      <trkpt lat="43.64835" lon="1.38697">
        <ele>146</ele>
        <time>2025-05-23T10:41:03Z</time>
      </trkpt>
      <trkpt lat="43.64838" lon="1.38695">
        <ele>146</ele>
        <time>2025-05-23T10:41:04Z</time>
      </trkpt>
      <trkpt lat="43.64841" lon="1.38694">
        <ele>146</ele>
        <time>2025-05-23T10:41:05Z</time>
      </trkpt>
      <trkpt lat="43.64841" lon="1.38694">
        <ele>146</ele>
        <time>2025-05-23T10:41:06Z</time>
      </trkpt>
      <trkpt lat="43.64848" lon="1.38689">
        <ele>146</ele>
        <time>2025-05-23T10:41:07Z</time>
      </trkpt>
      <trkpt lat="43.6485" lon="1.38689">
        <ele>146</ele>
        <time>2025-05-23T10:41:08Z</time>
      </trkpt>
      <trkpt lat="43.64853" lon="1.38688">
        <ele>145</ele>
        <time>2025-05-23T10:41:09Z</time>
      </trkpt>
      <trkpt lat="43.64855" lon="1.38686">
        <ele>145</ele>
        <time>2025-05-23T10:41:10Z</time>
      </trkpt>
      <trkpt lat="43.64858" lon="1.38685">
        <ele>145</ele>
        <time>2025-05-23T10:41:11Z</time>
      </trkpt>
      <trkpt lat="43.6486" lon="1.38683">
        <ele>145</ele>
        <time>2025-05-23T10:41:12Z</time>
      </trkpt>
      <trkpt lat="43.64862" lon="1.38681">
        <ele>145</ele>
        <time>2025-05-23T10:41:13Z</time>
      </trkpt>
      <trkpt lat="43.64865" lon="1.38679">
        <ele>145</ele>
        <time>2025-05-23T10:41:14Z</time>
      </trkpt>
      <trkpt lat="43.64868" lon="1.38677">
        <ele>145</ele>
        <time>2025-05-23T10:41:15Z</time>
      </trkpt>
      <trkpt lat="43.64871" lon="1.38675">
        <ele>145</ele>
        <time>2025-05-23T10:41:16Z</time>
      </trkpt>
      <trkpt lat="43.64874" lon="1.38672">
        <ele>145</ele>
        <time>2025-05-23T10:41:17Z</time>
      </trkpt>
      <trkpt lat="43.64876" lon="1.3867">
        <ele>145</ele>
        <time>2025-05-23T10:41:18Z</time>
      </trkpt>
      <trkpt lat="43.64879" lon="1.38669">
        <ele>145</ele>
        <time>2025-05-23T10:41:19Z</time>
      </trkpt>
      <trkpt lat="43.64882" lon="1.38667">
        <ele>145</ele>
        <time>2025-05-23T10:41:20Z</time>
      </trkpt>
      <trkpt lat="43.64884" lon="1.38665">
        <ele>145</ele>
        <time>2025-05-23T10:41:21Z</time>
      </trkpt>
      <trkpt lat="43.64887" lon="1.38664">
        <ele>146</ele>
        <time>2025-05-23T10:41:22Z</time>
      </trkpt>
      <trkpt lat="43.64887" lon="1.38664">
        <ele>146</ele>
        <time>2025-05-23T10:41:23Z</time>
      </trkpt>
      <trkpt lat="43.64891" lon="1.38661">
        <ele>146</ele>
        <time>2025-05-23T10:41:24Z</time>
      </trkpt>
      <trkpt lat="43.64895" lon="1.38657">
        <ele>146</ele>
        <time>2025-05-23T10:41:25Z</time>
      </trkpt>
      <trkpt lat="43.64899" lon="1.38654">
        <ele>146</ele>
        <time>2025-05-23T10:41:26Z</time>
      </trkpt>
      <trkpt lat="43.64902" lon="1.38653">
        <ele>146</ele>
        <time>2025-05-23T10:41:27Z</time>
      </trkpt>
      <trkpt lat="43.64905" lon="1.38651">
        <ele>146</ele>
        <time>2025-05-23T10:41:28Z</time>
      </trkpt>
      <trkpt lat="43.64907" lon="1.38648">
        <ele>146</ele>
        <time>2025-05-23T10:41:29Z</time>
      </trkpt>
      <trkpt lat="43.64911" lon="1.38647">
        <ele>145</ele>
        <time>2025-05-23T10:41:30Z</time>
      </trkpt>
      <trkpt lat="43.64914" lon="1.38644">
        <ele>145</ele>
        <time>2025-05-23T10:41:31Z</time>
      </trkpt>
      <trkpt lat="43.64916" lon="1.38642">
        <ele>146</ele>
        <time>2025-05-23T10:41:32Z</time>
      </trkpt>
      <trkpt lat="43.64919" lon="1.38641">
        <ele>146</ele>
        <time>2025-05-23T10:41:33Z</time>
      </trkpt>
      <trkpt lat="43.64923" lon="1.3864">
        <ele>146</ele>
        <time>2025-05-23T10:41:34Z</time>
      </trkpt>
      <trkpt lat="43.64925" lon="1.38638">
        <ele>146</ele>
        <time>2025-05-23T10:41:35Z</time>
      </trkpt>
      <trkpt lat="43.64928" lon="1.38636">
        <ele>145</ele>
        <time>2025-05-23T10:41:36Z</time>
      </trkpt>
      <trkpt lat="43.64931" lon="1.38634">
        <ele>145</ele>
        <time>2025-05-23T10:41:37Z</time>
      </trkpt>
      <trkpt lat="43.64934" lon="1.38632">
        <ele>145</ele>
        <time>2025-05-23T10:41:38Z</time>
      </trkpt>
      <trkpt lat="43.64937" lon="1.3863">
        <ele>145</ele>
        <time>2025-05-23T10:41:39Z</time>
      </trkpt>
      <trkpt lat="43.6494" lon="1.38628">
        <ele>145</ele>
        <time>2025-05-23T10:41:40Z</time>
      </trkpt>
      <trkpt lat="43.64943" lon="1.38627">
        <ele>146</ele>
        <time>2025-05-23T10:41:41Z</time>
      </trkpt>
      <trkpt lat="43.64946" lon="1.38625">
        <ele>146</ele>
        <time>2025-05-23T10:41:42Z</time>
      </trkpt>
      <trkpt lat="43.64948" lon="1.38623">
        <ele>146</ele>
        <time>2025-05-23T10:41:43Z</time>
      </trkpt>
      <trkpt lat="43.64951" lon="1.38621">
        <ele>145</ele>
        <time>2025-05-23T10:41:44Z</time>
      </trkpt>
      <trkpt lat="43.64954" lon="1.38619">
        <ele>145</ele>
        <time>2025-05-23T10:41:45Z</time>
      </trkpt>
      <trkpt lat="43.64956" lon="1.38618">
        <ele>145</ele>
        <time>2025-05-23T10:41:46Z</time>
      </trkpt>
      <trkpt lat="43.64959" lon="1.38617">
        <ele>145</ele>
        <time>2025-05-23T10:41:47Z</time>
      </trkpt>
      <trkpt lat="43.64961" lon="1.38616">
        <ele>145</ele>
        <time>2025-05-23T10:41:48Z</time>
      </trkpt>
      <trkpt lat="43.64964" lon="1.38615">
        <ele>145</ele>
        <time>2025-05-23T10:41:49Z</time>
      </trkpt>
      <trkpt lat="43.64967" lon="1.38614">
        <ele>145</ele>
        <time>2025-05-23T10:41:50Z</time>
      </trkpt>
      <trkpt lat="43.64967" lon="1.38614">
        <ele>146</ele>
        <time>2025-05-23T10:41:51Z</time>
      </trkpt>
      <trkpt lat="43.64974" lon="1.3861">
        <ele>146</ele>
        <time>2025-05-23T10:41:52Z</time>
      </trkpt>
      <trkpt lat="43.64976" lon="1.3861">
        <ele>145</ele>
        <time>2025-05-23T10:41:53Z</time>
      </trkpt>
      <trkpt lat="43.64979" lon="1.38608">
        <ele>145</ele>
        <time>2025-05-23T10:41:54Z</time>
      </trkpt>
      <trkpt lat="43.64982" lon="1.38606">
        <ele>146</ele>
        <time>2025-05-23T10:41:55Z</time>
      </trkpt>
      <trkpt lat="43.64985" lon="1.38604">
        <ele>147</ele>
        <time>2025-05-23T10:41:56Z</time>
      </trkpt>
      <trkpt lat="43.64987" lon="1.38602">
        <ele>147</ele>
        <time>2025-05-23T10:41:57Z</time>
      </trkpt>
      <trkpt lat="43.6499" lon="1.386">
        <ele>146</ele>
        <time>2025-05-23T10:41:58Z</time>
      </trkpt>
      <trkpt lat="43.64993" lon="1.38596">
        <ele>146</ele>
        <time>2025-05-23T10:41:59Z</time>
      </trkpt>
      <trkpt lat="43.64996" lon="1.38594">
        <ele>145</ele>
        <time>2025-05-23T10:42:00Z</time>
      </trkpt>
      <trkpt lat="43.64999" lon="1.38591">
        <ele>145</ele>
        <time>2025-05-23T10:42:01Z</time>
      </trkpt>
      <trkpt lat="43.65002" lon="1.38589">
        <ele>145</ele>
        <time>2025-05-23T10:42:02Z</time>
      </trkpt>
      <trkpt lat="43.65004" lon="1.38587">
        <ele>145</ele>
        <time>2025-05-23T10:42:03Z</time>
      </trkpt>
      <trkpt lat="43.65007" lon="1.38585">
        <ele>145</ele>
        <time>2025-05-23T10:42:04Z</time>
      </trkpt>
      <trkpt lat="43.6501" lon="1.38584">
        <ele>145</ele>
        <time>2025-05-23T10:42:05Z</time>
      </trkpt>
      <trkpt lat="43.65013" lon="1.38582">
        <ele>145</ele>
        <time>2025-05-23T10:42:06Z</time>
      </trkpt>
      <trkpt lat="43.65017" lon="1.3858">
        <ele>145</ele>
        <time>2025-05-23T10:42:07Z</time>
      </trkpt>
      <trkpt lat="43.65019" lon="1.38579">
        <ele>145</ele>
        <time>2025-05-23T10:42:08Z</time>
      </trkpt>
      <trkpt lat="43.65023" lon="1.38578">
        <ele>145</ele>
        <time>2025-05-23T10:42:09Z</time>
      </trkpt>
      <trkpt lat="43.65026" lon="1.38576">
        <ele>145</ele>
        <time>2025-05-23T10:42:10Z</time>
      </trkpt>
      <trkpt lat="43.65029" lon="1.38575">
        <ele>145</ele>
        <time>2025-05-23T10:42:11Z</time>
      </trkpt>
      <trkpt lat="43.65032" lon="1.38573">
        <ele>145</ele>
        <time>2025-05-23T10:42:12Z</time>
      </trkpt>
      <trkpt lat="43.65035" lon="1.38572">
        <ele>145</ele>
        <time>2025-05-23T10:42:13Z</time>
      </trkpt>
      <trkpt lat="43.65037" lon="1.3857">
        <ele>145</ele>
        <time>2025-05-23T10:42:14Z</time>
      </trkpt>
      <trkpt lat="43.6504" lon="1.38568">
        <ele>145</ele>
        <time>2025-05-23T10:42:15Z</time>
      </trkpt>
      <trkpt lat="43.65043" lon="1.38566">
        <ele>145</ele>
        <time>2025-05-23T10:42:16Z</time>
      </trkpt>
      <trkpt lat="43.65046" lon="1.38563">
        <ele>145</ele>
        <time>2025-05-23T10:42:17Z</time>
      </trkpt>
      <trkpt lat="43.65049" lon="1.38561">
        <ele>145</ele>
        <time>2025-05-23T10:42:18Z</time>
      </trkpt>
      <trkpt lat="43.65052" lon="1.38559">
        <ele>145</ele>
        <time>2025-05-23T10:42:19Z</time>
      </trkpt>
      <trkpt lat="43.65055" lon="1.38558">
        <ele>145</ele>
        <time>2025-05-23T10:42:20Z</time>
      </trkpt>
      <trkpt lat="43.65058" lon="1.38556">
        <ele>145</ele>
        <time>2025-05-23T10:42:21Z</time>
      </trkpt>
      <trkpt lat="43.65061" lon="1.38555">
        <ele>144</ele>
        <time>2025-05-23T10:42:22Z</time>
      </trkpt>
      <trkpt lat="43.65064" lon="1.38554">
        <ele>145</ele>
        <time>2025-05-23T10:42:23Z</time>
      </trkpt>
      <trkpt lat="43.65066" lon="1.38552">
        <ele>145</ele>
        <time>2025-05-23T10:42:24Z</time>
      </trkpt>
      <trkpt lat="43.65069" lon="1.3855">
        <ele>145</ele>
        <time>2025-05-23T10:42:25Z</time>
      </trkpt>
      <trkpt lat="43.65073" lon="1.38548">
        <ele>145</ele>
        <time>2025-05-23T10:42:26Z</time>
      </trkpt>
      <trkpt lat="43.65076" lon="1.38546">
        <ele>145</ele>
        <time>2025-05-23T10:42:27Z</time>
      </trkpt>
      <trkpt lat="43.65079" lon="1.38545">
        <ele>145</ele>
        <time>2025-05-23T10:42:28Z</time>
      </trkpt>
      <trkpt lat="43.65081" lon="1.38543">
        <ele>145</ele>
        <time>2025-05-23T10:42:29Z</time>
      </trkpt>
      <trkpt lat="43.65085" lon="1.38542">
        <ele>145</ele>
        <time>2025-05-23T10:42:30Z</time>
      </trkpt>
      <trkpt lat="43.65087" lon="1.38541">
        <ele>145</ele>
        <time>2025-05-23T10:42:31Z</time>
      </trkpt>
      <trkpt lat="43.6509" lon="1.38538">
        <ele>145</ele>
        <time>2025-05-23T10:42:32Z</time>
      </trkpt>
      <trkpt lat="43.65093" lon="1.38536">
        <ele>146</ele>
        <time>2025-05-23T10:42:33Z</time>
      </trkpt>
      <trkpt lat="43.65096" lon="1.38532">
        <ele>146</ele>
        <time>2025-05-23T10:42:34Z</time>
      </trkpt>
      <trkpt lat="43.65098" lon="1.38529">
        <ele>146</ele>
        <time>2025-05-23T10:42:35Z</time>
      </trkpt>
      <trkpt lat="43.65099" lon="1.38524">
        <ele>146</ele>
        <time>2025-05-23T10:42:36Z</time>
      </trkpt>
      <trkpt lat="43.651" lon="1.3852">
        <ele>145</ele>
        <time>2025-05-23T10:42:37Z</time>
      </trkpt>
      <trkpt lat="43.65101" lon="1.38516">
        <ele>145</ele>
        <time>2025-05-23T10:42:38Z</time>
      </trkpt>
      <trkpt lat="43.65101" lon="1.38512">
        <ele>145</ele>
        <time>2025-05-23T10:42:39Z</time>
      </trkpt>
      <trkpt lat="43.65102" lon="1.38508">
        <ele>144</ele>
        <time>2025-05-23T10:42:40Z</time>
      </trkpt>
      <trkpt lat="43.65103" lon="1.38504">
        <ele>144</ele>
        <time>2025-05-23T10:42:41Z</time>
      </trkpt>
      <trkpt lat="43.65102" lon="1.38499">
        <ele>144</ele>
        <time>2025-05-23T10:42:42Z</time>
      </trkpt>
      <trkpt lat="43.651" lon="1.38494">
        <ele>144</ele>
        <time>2025-05-23T10:42:43Z</time>
      </trkpt>
      <trkpt lat="43.65098" lon="1.3849">
        <ele>144</ele>
        <time>2025-05-23T10:42:44Z</time>
      </trkpt>
      <trkpt lat="43.65097" lon="1.38486">
        <ele>144</ele>
        <time>2025-05-23T10:42:45Z</time>
      </trkpt>
      <trkpt lat="43.65095" lon="1.38482">
        <ele>144</ele>
        <time>2025-05-23T10:42:46Z</time>
      </trkpt>
      <trkpt lat="43.65093" lon="1.38479">
        <ele>145</ele>
        <time>2025-05-23T10:42:47Z</time>
      </trkpt>
      <trkpt lat="43.65092" lon="1.38475">
        <ele>145</ele>
        <time>2025-05-23T10:42:48Z</time>
      </trkpt>
      <trkpt lat="43.6509" lon="1.38471">
        <ele>145</ele>
        <time>2025-05-23T10:42:49Z</time>
      </trkpt>
      <trkpt lat="43.65089" lon="1.38468">
        <ele>145</ele>
        <time>2025-05-23T10:42:50Z</time>
      </trkpt>
      <trkpt lat="43.65088" lon="1.38464">
        <ele>145</ele>
        <time>2025-05-23T10:42:51Z</time>
      </trkpt>
      <trkpt lat="43.65087" lon="1.3846">
        <ele>144</ele>
        <time>2025-05-23T10:42:52Z</time>
      </trkpt>
      <trkpt lat="43.65085" lon="1.38456">
        <ele>144</ele>
        <time>2025-05-23T10:42:53Z</time>
      </trkpt>
      <trkpt lat="43.65084" lon="1.38452">
        <ele>145</ele>
        <time>2025-05-23T10:42:54Z</time>
      </trkpt>
      <trkpt lat="43.65083" lon="1.38448">
        <ele>145</ele>
        <time>2025-05-23T10:42:55Z</time>
      </trkpt>
      <trkpt lat="43.65081" lon="1.38444">
        <ele>146</ele>
        <time>2025-05-23T10:42:56Z</time>
      </trkpt>
      <trkpt lat="43.6508" lon="1.3844">
        <ele>146</ele>
        <time>2025-05-23T10:42:57Z</time>
      </trkpt>
      <trkpt lat="43.65079" lon="1.38436">
        <ele>146</ele>
        <time>2025-05-23T10:42:58Z</time>
      </trkpt>
      <trkpt lat="43.65077" lon="1.38432">
        <ele>145</ele>
        <time>2025-05-23T10:42:59Z</time>
      </trkpt>
      <trkpt lat="43.65075" lon="1.38428">
        <ele>146</ele>
        <time>2025-05-23T10:43:00Z</time>
      </trkpt>
      <trkpt lat="43.65074" lon="1.38425">
        <ele>146</ele>
        <time>2025-05-23T10:43:01Z</time>
      </trkpt>
      <trkpt lat="43.65072" lon="1.38421">
        <ele>146</ele>
        <time>2025-05-23T10:43:02Z</time>
      </trkpt>
      <trkpt lat="43.65071" lon="1.38417">
        <ele>146</ele>
        <time>2025-05-23T10:43:03Z</time>
      </trkpt>
      <trkpt lat="43.6507" lon="1.38413">
        <ele>146</ele>
        <time>2025-05-23T10:43:04Z</time>
      </trkpt>
      <trkpt lat="43.65069" lon="1.38409">
        <ele>146</ele>
        <time>2025-05-23T10:43:05Z</time>
      </trkpt>
      <trkpt lat="43.65068" lon="1.38405">
        <ele>145</ele>
        <time>2025-05-23T10:43:06Z</time>
      </trkpt>
      <trkpt lat="43.65067" lon="1.38401">
        <ele>145</ele>
        <time>2025-05-23T10:43:07Z</time>
      </trkpt>
      <trkpt lat="43.65066" lon="1.38396">
        <ele>145</ele>
        <time>2025-05-23T10:43:08Z</time>
      </trkpt>
      <trkpt lat="43.65064" lon="1.38392">
        <ele>145</ele>
        <time>2025-05-23T10:43:09Z</time>
      </trkpt>
      <trkpt lat="43.65063" lon="1.38388">
        <ele>145</ele>
        <time>2025-05-23T10:43:10Z</time>
      </trkpt>
      <trkpt lat="43.65062" lon="1.38384">
        <ele>145</ele>
        <time>2025-05-23T10:43:11Z</time>
      </trkpt>
      <trkpt lat="43.65061" lon="1.38379">
        <ele>145</ele>
        <time>2025-05-23T10:43:12Z</time>
      </trkpt>
      <trkpt lat="43.6506" lon="1.38376">
        <ele>145</ele>
        <time>2025-05-23T10:43:13Z</time>
      </trkpt>
      <trkpt lat="43.65058" lon="1.38372">
        <ele>145</ele>
        <time>2025-05-23T10:43:14Z</time>
      </trkpt>
      <trkpt lat="43.65056" lon="1.38368">
        <ele>145</ele>
        <time>2025-05-23T10:43:15Z</time>
      </trkpt>
      <trkpt lat="43.65055" lon="1.38364">
        <ele>145</ele>
        <time>2025-05-23T10:43:16Z</time>
      </trkpt>
      <trkpt lat="43.65053" lon="1.3836">
        <ele>145</ele>
        <time>2025-05-23T10:43:17Z</time>
      </trkpt>
      <trkpt lat="43.65052" lon="1.38356">
        <ele>145</ele>
        <time>2025-05-23T10:43:18Z</time>
      </trkpt>
      <trkpt lat="43.65051" lon="1.38352">
        <ele>145</ele>
        <time>2025-05-23T10:43:19Z</time>
      </trkpt>
      <trkpt lat="43.6505" lon="1.38348">
        <ele>145</ele>
        <time>2025-05-23T10:43:20Z</time>
      </trkpt>
      <trkpt lat="43.65049" lon="1.38344">
        <ele>145</ele>
        <time>2025-05-23T10:43:21Z</time>
      </trkpt>
      <trkpt lat="43.65047" lon="1.3834">
        <ele>145</ele>
        <time>2025-05-23T10:43:22Z</time>
      </trkpt>
      <trkpt lat="43.65046" lon="1.38336">
        <ele>145</ele>
        <time>2025-05-23T10:43:23Z</time>
      </trkpt>
      <trkpt lat="43.65045" lon="1.38331">
        <ele>145</ele>
        <time>2025-05-23T10:43:24Z</time>
      </trkpt>
      <trkpt lat="43.65044" lon="1.38327">
        <ele>146</ele>
        <time>2025-05-23T10:43:25Z</time>
      </trkpt>
      <trkpt lat="43.65042" lon="1.38324">
        <ele>146</ele>
        <time>2025-05-23T10:43:26Z</time>
      </trkpt>
      <trkpt lat="43.6504" lon="1.3832">
        <ele>146</ele>
        <time>2025-05-23T10:43:27Z</time>
      </trkpt>
      <trkpt lat="43.65039" lon="1.38316">
        <ele>146</ele>
        <time>2025-05-23T10:43:28Z</time>
      </trkpt>
      <trkpt lat="43.65038" lon="1.38313">
        <ele>146</ele>
        <time>2025-05-23T10:43:29Z</time>
      </trkpt>
      <trkpt lat="43.65037" lon="1.38309">
        <ele>146</ele>
        <time>2025-05-23T10:43:30Z</time>
      </trkpt>
      <trkpt lat="43.65036" lon="1.38305">
        <ele>146</ele>
        <time>2025-05-23T10:43:31Z</time>
      </trkpt>
      <trkpt lat="43.65034" lon="1.38301">
        <ele>146</ele>
        <time>2025-05-23T10:43:32Z</time>
      </trkpt>
      <trkpt lat="43.65033" lon="1.38297">
        <ele>146</ele>
        <time>2025-05-23T10:43:33Z</time>
      </trkpt>
      <trkpt lat="43.65032" lon="1.38292">
        <ele>146</ele>
        <time>2025-05-23T10:43:34Z</time>
      </trkpt>
      <trkpt lat="43.6503" lon="1.38288">
        <ele>145</ele>
        <time>2025-05-23T10:43:35Z</time>
      </trkpt>
      <trkpt lat="43.65029" lon="1.38285">
        <ele>145</ele>
        <time>2025-05-23T10:43:36Z</time>
      </trkpt>
      <trkpt lat="43.65028" lon="1.38282">
        <ele>145</ele>
        <time>2025-05-23T10:43:37Z</time>
      </trkpt>
      <trkpt lat="43.65027" lon="1.38277">
        <ele>144</ele>
        <time>2025-05-23T10:43:38Z</time>
      </trkpt>
      <trkpt lat="43.65025" lon="1.38273">
        <ele>144</ele>
        <time>2025-05-23T10:43:39Z</time>
      </trkpt>
      <trkpt lat="43.65025" lon="1.38269">
        <ele>144</ele>
        <time>2025-05-23T10:43:40Z</time>
      </trkpt>
      <trkpt lat="43.65023" lon="1.38264">
        <ele>144</ele>
        <time>2025-05-23T10:43:41Z</time>
      </trkpt>
      <trkpt lat="43.65023" lon="1.3826">
        <ele>145</ele>
        <time>2025-05-23T10:43:42Z</time>
      </trkpt>
      <trkpt lat="43.65022" lon="1.38255">
        <ele>145</ele>
        <time>2025-05-23T10:43:43Z</time>
      </trkpt>
      <trkpt lat="43.65021" lon="1.38251">
        <ele>146</ele>
        <time>2025-05-23T10:43:44Z</time>
      </trkpt>
      <trkpt lat="43.6502" lon="1.38247">
        <ele>146</ele>
        <time>2025-05-23T10:43:45Z</time>
      </trkpt>
      <trkpt lat="43.65019" lon="1.38242">
        <ele>146</ele>
        <time>2025-05-23T10:43:46Z</time>
      </trkpt>
      <trkpt lat="43.65018" lon="1.38239">
        <ele>146</ele>
        <time>2025-05-23T10:43:47Z</time>
      </trkpt>
      <trkpt lat="43.65017" lon="1.38235">
        <ele>146</ele>
        <time>2025-05-23T10:43:48Z</time>
      </trkpt>
      <trkpt lat="43.65015" lon="1.38231">
        <ele>146</ele>
        <time>2025-05-23T10:43:49Z</time>
      </trkpt>
      <trkpt lat="43.65014" lon="1.38227">
        <ele>145</ele>
        <time>2025-05-23T10:43:50Z</time>
      </trkpt>
      <trkpt lat="43.65013" lon="1.38223">
        <ele>145</ele>
        <time>2025-05-23T10:43:51Z</time>
      </trkpt>
      <trkpt lat="43.65012" lon="1.38219">
        <ele>145</ele>
        <time>2025-05-23T10:43:52Z</time>
      </trkpt>
      <trkpt lat="43.65011" lon="1.38214">
        <ele>145</ele>
        <time>2025-05-23T10:43:53Z</time>
      </trkpt>
      <trkpt lat="43.6501" lon="1.3821">
        <ele>145</ele>
        <time>2025-05-23T10:43:54Z</time>
      </trkpt>
      <trkpt lat="43.65009" lon="1.38206">
        <ele>145</ele>
        <time>2025-05-23T10:43:55Z</time>
      </trkpt>
      <trkpt lat="43.65007" lon="1.38202">
        <ele>145</ele>
        <time>2025-05-23T10:43:56Z</time>
      </trkpt>
      <trkpt lat="43.65006" lon="1.38199">
        <ele>145</ele>
        <time>2025-05-23T10:43:57Z</time>
      </trkpt>
      <trkpt lat="43.65005" lon="1.38195">
        <ele>145</ele>
        <time>2025-05-23T10:43:58Z</time>
      </trkpt>
      <trkpt lat="43.65003" lon="1.38192">
        <ele>145</ele>
        <time>2025-05-23T10:43:59Z</time>
      </trkpt>
      <trkpt lat="43.65001" lon="1.3819">
        <ele>145</ele>
        <time>2025-05-23T10:44:00Z</time>
      </trkpt>
      <trkpt lat="43.64999" lon="1.38188">
        <ele>145</ele>
        <time>2025-05-23T10:44:01Z</time>
      </trkpt>
      <trkpt lat="43.64996" lon="1.38186">
        <ele>145</ele>
        <time>2025-05-23T10:44:02Z</time>
      </trkpt>
      <trkpt lat="43.64993" lon="1.38185">
        <ele>146</ele>
        <time>2025-05-23T10:44:03Z</time>
      </trkpt>
      <trkpt lat="43.64991" lon="1.38181">
        <ele>146</ele>
        <time>2025-05-23T10:44:04Z</time>
      </trkpt>
      <trkpt lat="43.64989" lon="1.38177">
        <ele>145</ele>
        <time>2025-05-23T10:44:05Z</time>
      </trkpt>
      <trkpt lat="43.64989" lon="1.38172">
        <ele>145</ele>
        <time>2025-05-23T10:44:06Z</time>
      </trkpt>
      <trkpt lat="43.6499" lon="1.38168">
        <ele>145</ele>
        <time>2025-05-23T10:44:07Z</time>
      </trkpt>
      <trkpt lat="43.64992" lon="1.38164">
        <ele>145</ele>
        <time>2025-05-23T10:44:08Z</time>
      </trkpt>
      <trkpt lat="43.64994" lon="1.3816">
        <ele>145</ele>
        <time>2025-05-23T10:44:09Z</time>
      </trkpt>
      <trkpt lat="43.64995" lon="1.38156">
        <ele>145</ele>
        <time>2025-05-23T10:44:10Z</time>
      </trkpt>
      <trkpt lat="43.64997" lon="1.38151">
        <ele>146</ele>
        <time>2025-05-23T10:44:11Z</time>
      </trkpt>
      <trkpt lat="43.64998" lon="1.38147">
        <ele>146</ele>
        <time>2025-05-23T10:44:12Z</time>
      </trkpt>
      <trkpt lat="43.64999" lon="1.38142">
        <ele>146</ele>
        <time>2025-05-23T10:44:13Z</time>
      </trkpt>
      <trkpt lat="43.65" lon="1.38138">
        <ele>146</ele>
        <time>2025-05-23T10:44:14Z</time>
      </trkpt>
      <trkpt lat="43.64999" lon="1.38134">
        <ele>146</ele>
        <time>2025-05-23T10:44:15Z</time>
      </trkpt>
      <trkpt lat="43.64998" lon="1.3813">
        <ele>146</ele>
        <time>2025-05-23T10:44:16Z</time>
      </trkpt>
      <trkpt lat="43.64997" lon="1.38126">
        <ele>145</ele>
        <time>2025-05-23T10:44:17Z</time>
      </trkpt>
      <trkpt lat="43.64996" lon="1.38122">
        <ele>145</ele>
        <time>2025-05-23T10:44:18Z</time>
      </trkpt>
      <trkpt lat="43.64994" lon="1.38118">
        <ele>145</ele>
        <time>2025-05-23T10:44:19Z</time>
      </trkpt>
      <trkpt lat="43.64993" lon="1.38114">
        <ele>145</ele>
        <time>2025-05-23T10:44:20Z</time>
      </trkpt>
      <trkpt lat="43.64991" lon="1.38109">
        <ele>145</ele>
        <time>2025-05-23T10:44:21Z</time>
      </trkpt>
      <trkpt lat="43.6499" lon="1.38105">
        <ele>145</ele>
        <time>2025-05-23T10:44:22Z</time>
      </trkpt>
      <trkpt lat="43.64989" lon="1.38101">
        <ele>145</ele>
        <time>2025-05-23T10:44:23Z</time>
      </trkpt>
      <trkpt lat="43.64987" lon="1.38097">
        <ele>145</ele>
        <time>2025-05-23T10:44:24Z</time>
      </trkpt>
      <trkpt lat="43.64986" lon="1.38093">
        <ele>145</ele>
        <time>2025-05-23T10:44:25Z</time>
      </trkpt>
      <trkpt lat="43.64985" lon="1.38088">
        <ele>145</ele>
        <time>2025-05-23T10:44:26Z</time>
      </trkpt>
      <trkpt lat="43.64983" lon="1.38084">
        <ele>145</ele>
        <time>2025-05-23T10:44:27Z</time>
      </trkpt>
      <trkpt lat="43.64982" lon="1.3808">
        <ele>145</ele>
        <time>2025-05-23T10:44:28Z</time>
      </trkpt>
      <trkpt lat="43.64981" lon="1.38075">
        <ele>145</ele>
        <time>2025-05-23T10:44:29Z</time>
      </trkpt>
      <trkpt lat="43.64979" lon="1.38071">
        <ele>145</ele>
        <time>2025-05-23T10:44:30Z</time>
      </trkpt>
      <trkpt lat="43.64979" lon="1.38071">
        <ele>145</ele>
        <time>2025-05-23T10:44:31Z</time>
      </trkpt>
    </trkseg>
  </trk>
</gpx>